# Wetter Temperatur Luftdruck Luftfeuchtigkeit Sichtweite Windgeschwindigkeit Windrichtung Zeit
1 Clear 38 1004 11 10000 2.57 290 07:32 16.05.2021
2 Clear 36 1003 16 10000 1.03 0 06:48 16.05.2021
3 Clear 30 1001 48 10000 0.51 0 01:43 16.05.2021
4 Clear 30 1001 55 10000 2.39 278 00:41 16.05.2021
5 Clear 31 1001 58 10000 0.51 0 23:38 15.05.2021
6 Clear 31 1001 62 10000 1.03 0 23:19 15.05.2021
7 Clear 31 1002 58 10000 2.8 237 22:34 15.05.2021
8 Clear 32 1002 55 10000 0.56 236 21:58 15.05.2021
9 Clear 32 1002 55 10000 1.03 0 21:31 15.05.2021
10 Clear 32 1002 58 10000 1.54 350 20:56 15.05.2021
11 Clear 32 1001 58 10000 1.54 90 20:27 15.05.2021
12 Clear 32 1002 58 10000 1.54 90 19:56 15.05.2021
13 Clear 33 1001 55 10000 2.06 130 19:30 15.05.2021
14 Clear 33 1001 49 10000 2.57 80 18:23 15.05.2021
15 Clear 33 1001 49 10000 2.57 80 17:49 15.05.2021
16 Clear 34 1001 40 10000 3.6 40 17:22 15.05.2021
17 Clear 35 1001 36 10000 3.09 40 16:39 15.05.2021
18 Clear 35 1001 31 10000 4.12 40 16:20 15.05.2021
19 Clear 36 1001 36 10000 4.12 10 15:52 15.05.2021
20 Clear 37 1001 28 10000 6.17 10 14:52 15.05.2021
21 Clear 37 1001 30 10000 5.14 10 14:28 15.05.2021
22 Clear 38 1001 27 10000 5.66 360 13:48 15.05.2021
23 Clear 38 1002 22 10000 5.14 10 13:21 15.05.2021
24 Clear 40 1002 17 10000 5.14 10 11:58 15.05.2021
25 Clear 40 1002 17 10000 5.14 10 11:39 15.05.2021
26 Clear 40 1002 18 10000 5.14 350 10:53 15.05.2021
27 Clear 40 1002 18 10000 5.14 350 10:53 15.05.2021
28 Clear 41 1003 12 10000 5.14 350 09:56 15.05.2021
29 Clear 40 1003 14 10000 4.12 320 08:49 15.05.2021
30 Clear 38 1002 17 10000 3.09 300 07:58 15.05.2021
31 Clear 35 1002 22 10000 3.09 290 07:24 15.05.2021
32 Clear 35 1002 26 10000 2.57 290 06:53 15.05.2021
33 Clear 35 1002 29 10000 2.06 290 06:32 15.05.2021
34 Clear 31 1001 25 10000 2.06 280 04:20 15.05.2021
35 Clear 31 1000 29 10000 0.51 0 00:49 15.05.2021
36 Clear 32 1001 24 10000 1.03 0 23:48 14.05.2021
37 Clear 33 1002 18 10000 1.54 330 22:45 14.05.2021
38 Clear 32 1002 19 10000 0.51 0 22:24 14.05.2021
39 Clear 33 1002 16 10000 2.06 310 21:32 14.05.2021
40 Clear 33 1002 16 10000 2.06 310 21:32 14.05.2021
41 Clear 34 1002 15 10000 2.57 300 20:57 14.05.2021
42 Clear 34 1002 15 10000 2.57 310 20:33 14.05.2021
43 Clear 35 1002 15 10000 3.09 310 19:50 14.05.2021
44 Clear 35 1002 15 10000 3.09 310 19:50 14.05.2021
45 Clear 35 1001 14 10000 3.09 330 19:31 14.05.2021
46 Clear 36 1001 14 10000 4.12 310 18:54 14.05.2021
47 Clear 37 1001 14 10000 3.09 320 18:27 14.05.2021
48 Clear 37 1001 25 10000 3.09 340 17:48 14.05.2021
49 Clear 37 1001 25 9000 3.09 340 17:25 14.05.2021
50 Clear 38 1001 28 9000 4.63 350 16:46 14.05.2021
51 Clear 38 1001 30 9000 6.17 350 16:28 14.05.2021
52 Clear 39 1001 22 9000 7.2 350 15:45 14.05.2021
53 Clear 40 1001 21 10000 7.72 350 14:58 14.05.2021
54 Clear 40 1001 21 10000 7.72 350 14:38 14.05.2021
55 Clear 40 1002 29 10000 5.66 10 13:34 14.05.2021
56 Clear 41 1002 22 10000 6.69 360 12:54 14.05.2021
57 Clear 41 1002 22 10000 7.2 360 12:30 14.05.2021
58 Clear 42 1002 17 10000 7.2 350 11:50 14.05.2021
59 Clear 42 1002 14 10000 6.17 340 11:23 14.05.2021
60 Clear 42 1002 14 10000 5.66 330 10:38 14.05.2021
61 Clear 41 1003 17 10000 5.66 300 09:53 14.05.2021
62 Clear 40 1003 16 10000 4.12 300 09:32 14.05.2021
63 Clear 39 1004 18 10000 4.63 300 08:54 14.05.2021
64 Clear 39 1003 21 10000 4.63 300 08:28 14.05.2021
65 Clear 35 1003 29 10000 3.09 280 06:55 14.05.2021
66 Clear 34 1003 29 10000 3.09 280 06:37 14.05.2021
67 Clear 31 1002 29 10000 1.54 230 02:36 14.05.2021
68 Clear 32 1002 29 10000 2.06 330 00:38 14.05.2021
69 Clear 32 1002 31 10000 2.06 350 23:51 13.05.2021
70 Clear 32 1002 27 10000 2.06 320 23:22 13.05.2021
71 Clear 32 1003 31 10000 2.06 350 22:50 13.05.2021
72 Clear 32 1003 31 10000 2.57 340 22:30 13.05.2021
73 Clear 33 1003 27 10000 4.12 330 21:57 13.05.2021
74 Clear 33 1004 26 10000 4.12 330 21:39 13.05.2021
75 Clear 34 1004 24 10000 4.12 330 21:20 13.05.2021
76 Clear 34 1004 26 10000 3.6 340 20:41 13.05.2021
77 Clear 34 1003 42 10000 1.54 360 19:49 13.05.2021
78 Clear 34 1003 44 10000 1.03 350 19:24 13.05.2021
79 Clear 33 1003 46 10000 1.54 10 18:56 13.05.2021
80 Clear 33 1003 46 10000 1.54 10 18:38 13.05.2021
81 Clear 34 1002 44 10000 2.57 340 18:20 13.05.2021
82 Clear 35 1002 39 8000 4.63 350 17:40 13.05.2021
83 Clear 35 1002 39 8000 4.63 350 17:21 13.05.2021
84 Clear 36 1002 36 8000 5.66 340 16:41 13.05.2021
85 Clear 38 1002 25 8000 4.63 350 16:19 13.05.2021
86 Clear 37 1002 31 8000 6.17 360 15:48 13.05.2021
87 Clear 39 1002 24 8000 6.69 360 15:23 13.05.2021
88 Clear 38 1002 26 8000 7.2 10 14:56 13.05.2021
89 Clear 37 1002 30 8000 7.2 10 14:36 13.05.2021
90 Clear 38 1002 28 9000 7.72 360 14:18 13.05.2021
91 Clear 39 1003 23 10000 7.2 10 13:40 13.05.2021
92 Clear 39 1003 22 10000 6.69 10 13:20 13.05.2021
93 Clear 39 1003 21 10000 6.17 10 12:40 13.05.2021
94 Clear 40 1003 15 10000 7.2 20 11:59 13.05.2021
95 Clear 40 1004 14 10000 7.2 20 11:36 13.05.2021
96 Clear 39 1004 18 10000 4.63 19 10:55 13.05.2021
97 Clear 40 1004 18 10000 4.12 10 10:33 13.05.2021
98 Clear 39 1005 16 10000 3.6 340 09:47 13.05.2021
99 Clear 39 1005 16 10000 4.12 330 09:27 13.05.2021
100 Clear 38 1005 18 10000 3.09 280 08:31 13.05.2021
101 Clear 37 1005 22 10000 2.57 260 07:58 13.05.2021
102 Clear 33 1005 28 10000 2.57 270 06:45 13.05.2021
103 Clear 31 1004 33 10000 1.54 250 05:50 13.05.2021
104 Clear 29 1003 43 10000 2.06 240 02:38 13.05.2021
105 Clear 28 1003 48 10000 0.51 0 00:38 13.05.2021
106 Clear 30 1004 45 10000 1.54 230 23:40 12.05.2021
107 Clear 31 1004 48 10000 1.03 0 22:56 12.05.2021
108 Clear 30 1005 47 10000 1.54 240 22:19 12.05.2021
109 Clear 29 1005 53 10000 0 0 21:50 12.05.2021
110 Clear 30 1004 57 10000 1.03 10 20:58 12.05.2021
111 Clear 30 1005 51 10000 1.03 10 20:33 12.05.2021
112 Clear 31 1004 46 10000 1.03 90 19:50 12.05.2021
113 Clear 31 1004 45 10000 1.54 60 18:51 12.05.2021
114 Clear 32 1004 42 10000 2.06 40 18:25 12.05.2021
115 Clear 33 1004 35 10000 2.57 20 17:53 12.05.2021
116 Clear 33 1004 35 10000 2.57 20 17:34 12.05.2021
117 Clear 34 1003 32 10000 3.09 40 16:45 12.05.2021
118 Clear 35 1003 30 10000 4.12 40 16:24 12.05.2021
119 Clear 35 1003 36 10000 4.12 50 15:42 12.05.2021
120 Clear 37 1003 30 10000 5.14 40 14:58 12.05.2021
121 Clear 37 1003 30 10000 5.14 40 14:34 12.05.2021
122 Clear 38 1003 32 10000 5.14 90 13:48 12.05.2021
123 Clear 38 1003 32 10000 5.14 90 13:26 12.05.2021
124 Clear 39 1004 25 10000 5.14 90 12:35 12.05.2021
125 Clear 40 1004 11 10000 4.12 30 11:47 12.05.2021
126 Clear 40 1005 10 10000 3.6 360 11:24 12.05.2021
127 Clear 39 1005 11 10000 4.12 360 10:58 12.05.2021
128 Clear 39 1005 11 10000 4.12 360 10:58 12.05.2021
129 Clear 39 1005 11 10000 3.09 10 10:28 12.05.2021
130 Clear 39 1006 12 10000 3.09 350 09:44 12.05.2021
131 Clear 39 1006 12 10000 2.57 360 09:26 12.05.2021
132 Clear 37 1006 12 10000 2.57 350 08:46 12.05.2021
133 Clear 37 1006 14 10000 2.06 360 08:27 12.05.2021
134 Clear 35 1006 19 10000 1.03 0 07:29 12.05.2021
135 Clear 32 1006 31 10000 1.73 340 05:43 12.05.2021
136 Clear 29 1005 57 10000 0.25 14 00:46 12.05.2021
137 Clear 30 1005 48 10000 1.54 220 00:28 12.05.2021
138 Clear 30 1005 54 10000 1.54 220 23:46 11.05.2021
139 Clear 30 1005 48 10000 1.54 200 23:28 11.05.2021
140 Clear 30 1005 61 10000 0.51 0 22:47 11.05.2021
141 Clear 30 1006 70 10000 1.03 130 22:20 11.05.2021
142 Clear 30 1006 70 10000 0.51 140 21:52 11.05.2021
143 Clear 30 1006 70 10000 1.54 100 21:33 11.05.2021
144 Clear 30 1006 70 10000 1.54 100 21:33 11.05.2021
145 Clear 31 1006 66 10000 1.54 80 20:55 11.05.2021
146 Clear 31 1006 66 10000 1.54 80 20:37 11.05.2021
147 Clear 31 1006 62 10000 2.06 100 20:19 11.05.2021
148 Clear 31 1006 55 10000 1.54 50 19:38 11.05.2021
149 Clear 32 1006 43 10000 1.03 0 19:20 11.05.2021
150 Clear 32 1006 45 10000 2.06 80 18:42 11.05.2021
151 Clear 33 1006 33 10000 2.06 50 18:24 11.05.2021
152 Clear 33 1005 31 10000 2.57 70 17:38 11.05.2021
153 Clear 34 1005 26 10000 3.6 50 17:19 11.05.2021
154 Clear 35 1005 33 10000 3.09 90 16:39 11.05.2021
155 Clear 35 1005 28 10000 3.09 90 16:20 11.05.2021
156 Clear 37 1005 21 10000 4.12 70 15:42 11.05.2021
157 Clear 37 1005 19 10000 4.63 90 15:18 11.05.2021
158 Clear 38 1005 22 10000 4.12 80 14:43 11.05.2021
159 Clear 38 1005 20 10000 5.66 100 14:22 11.05.2021
160 Clear 38 1005 23 10000 5.66 100 13:42 11.05.2021
161 Clear 39 1005 19 10000 6.69 90 13:21 11.05.2021
162 Clear 39 1005 19 10000 6.69 90 13:21 11.05.2021
163 Clear 39 1006 10 10000 4.63 10 12:51 11.05.2021
164 Clear 39 1006 10 10000 4.63 10 12:26 11.05.2021
165 Clear 39 1006 10 10000 4.63 10 11:47 11.05.2021
166 Clear 39 1006 11 10000 3.09 340 11:26 11.05.2021
167 Clear 38 1007 10 10000 2.57 350 10:53 11.05.2021
168 Clear 38 1007 10 10000 3.09 0 10:27 11.05.2021
169 Clear 38 1007 11 10000 2.57 340 09:58 11.05.2021
170 Clear 38 1007 11 10000 2.57 340 09:37 11.05.2021
171 Clear 38 1007 13 10000 2.06 0 09:19 11.05.2021
172 Clear 37 1007 14 10000 2.06 0 08:46 11.05.2021
173 Clear 36 1007 16 10000 2.57 240 08:25 11.05.2021
174 Clear 35 1007 20 10000 2.57 220 07:47 11.05.2021
175 Clear 35 1007 20 10000 2.06 220 07:20 11.05.2021
176 Clear 29 1005 32 10000 1.54 230 02:21 11.05.2021
177 Clear 29 1005 42 10000 1.54 230 00:53 11.05.2021
178 Clear 30 1005 42 10000 1.54 230 00:34 11.05.2021
179 Clear 30 1006 40 10000 2.06 220 23:40 10.05.2021
180 Clear 30 1006 40 10000 2.06 220 23:19 10.05.2021
181 Clear 31 1006 45 10000 1.54 160 22:41 10.05.2021
182 Clear 31 1006 45 10000 1.54 160 22:18 10.05.2021
183 Clear 31 1006 51 10000 2.06 150 21:35 10.05.2021
184 Clear 31 1006 48 10000 2.57 140 20:59 10.05.2021
185 Clear 31 1006 48 10000 2.57 140 20:40 10.05.2021
186 Clear 31 1006 48 10000 1.54 110 20:19 10.05.2021
187 Clear 31 1005 40 10000 1.54 150 19:44 10.05.2021
188 Clear 32 1005 43 10000 1.03 0 19:22 10.05.2021
189 Clear 32 1005 40 10000 1.03 40 18:54 10.05.2021
190 Clear 32 1005 40 10000 1.54 40 18:22 10.05.2021
191 Clear 33 1005 38 10000 2.06 80 17:45 10.05.2021
192 Clear 33 1004 38 10000 2.57 50 17:26 10.05.2021
193 Clear 35 1004 28 10000 3.09 50 16:46 10.05.2021
194 Clear 35 1004 29 10000 3.6 40 16:26 10.05.2021
195 Clear 36 1004 24 10000 4.12 50 15:40 10.05.2021
196 Clear 36 1004 26 10000 4.63 30 15:19 10.05.2021
197 Clear 38 1005 23 10000 4.63 30 14:44 10.05.2021
198 Clear 38 1005 18 10000 4.63 20 14:21 10.05.2021
199 Clear 39 1005 15 10000 4.12 20 13:36 10.05.2021
200 Clear 40 1005 12 10000 3.6 330 12:49 10.05.2021
201 Clear 39 1006 11 10000 2.57 340 12:23 10.05.2021
202 Clear 39 1006 12 10000 5.14 330 11:47 10.05.2021
203 Clear 40 1006 12 10000 4.12 310 11:26 10.05.2021
204 Clear 39 1007 11 10000 3.6 310 10:49 10.05.2021
205 Clear 38 1007 13 10000 4.12 320 10:30 10.05.2021
206 Clear 38 1007 14 10000 2.06 0 09:51 10.05.2021
207 Clear 37 1008 15 10000 3.09 280 09:28 10.05.2021
208 Clear 37 1008 16 10000 3.09 250 08:37 10.05.2021
209 Clear 35 1008 20 10000 2.57 240 07:56 10.05.2021
210 Clear 35 1008 24 10000 2.57 230 07:35 10.05.2021
211 Clear 33 1007 24 10000 2.06 220 06:58 10.05.2021
212 Clear 32 1007 29 10000 1.54 230 06:27 10.05.2021
213 Clear 29 1006 61 10000 1.54 240 00:55 10.05.2021
214 Clear 29 1006 58 10000 1.03 0 23:57 09.05.2021
215 Clear 30 1007 61 10000 1.54 140 22:43 09.05.2021
216 Clear 30 1007 61 10000 1.54 130 22:21 09.05.2021
217 Clear 30 1008 58 10000 1.03 0 21:49 09.05.2021
218 Clear 30 1008 58 10000 0.51 0 21:28 09.05.2021
219 Clear 30 1008 54 10000 1.03 70 20:42 09.05.2021
220 Clear 30 1008 54 10000 1.03 70 20:21 09.05.2021
221 Clear 30 1007 54 10000 2.06 120 19:41 09.05.2021
222 Clear 30 1007 54 10000 2.06 120 19:20 09.05.2021
223 Clear 31 1007 54 10000 3.09 120 18:45 09.05.2021
224 Clear 31 1007 54 10000 3.6 130 18:23 09.05.2021
225 Clear 31 1006 51 10000 3.09 110 17:33 09.05.2021
226 Clear 33 1006 35 10000 4.12 50 16:40 09.05.2021
227 Clear 33 1006 35 10000 4.12 50 16:22 09.05.2021
228 Clear 34 1006 36 10000 4.63 30 15:23 09.05.2021
229 Clear 34 1006 33 10000 5.66 30 14:52 09.05.2021
230 Clear 35 1006 23 10000 5.14 50 13:58 09.05.2021
231 Clear 35 1006 23 10000 5.14 50 13:39 09.05.2021
232 Clear 37 1006 15 10000 4.63 50 12:48 09.05.2021
233 Clear 38 1007 16 10000 5.14 90 12:23 09.05.2021
234 Clear 37 1007 14 10000 4.63 20 11:23 09.05.2021
235 Clear 37 1008 15 10000 4.63 20 10:53 09.05.2021
236 Clear 37 1008 15 10000 3.6 20 10:35 09.05.2021
237 Clear 36 1008 15 10000 3.09 360 09:42 09.05.2021
238 Clear 36 1008 15 10000 3.09 20 09:20 09.05.2021
239 Clear 36 1009 16 10000 3.09 10 08:48 09.05.2021
240 Clear 35 1009 16 10000 1.54 10 08:24 09.05.2021
241 Clear 34 1009 19 10000 1.54 0 07:41 09.05.2021
242 Clear 32 1009 17 10000 0.51 0 06:41 09.05.2021
243 Clear 28 1007 51 10000 1.54 330 04:42 09.05.2021
244 Clear 29 1007 78 10000 1.54 350 00:31 09.05.2021
245 Clear 29 1007 74 10000 2.06 340 23:33 08.05.2021
246 Clear 30 1007 79 10000 2.57 360 22:56 08.05.2021
247 Clear 30 1008 62 10000 2.06 360 22:25 08.05.2021
248 Clear 30 1008 54 10000 1.03 350 21:53 08.05.2021
249 Clear 30 1008 54 10000 2.06 350 21:23 08.05.2021
250 Clear 30 1008 58 10000 1.54 10 20:59 08.05.2021
251 Clear 30 1008 58 10000 1.54 10 20:36 08.05.2021
252 Clear 30 1007 58 10000 3.44 32 19:42 08.05.2021
253 Clear 30 1007 58 10000 2.06 150 19:21 08.05.2021
254 Clear 31 1007 58 10000 2.06 150 18:51 08.05.2021
255 Clear 31 1006 55 10000 3.09 130 18:25 08.05.2021
256 Clear 32 1006 58 10000 3.09 120 17:45 08.05.2021
257 Clear 33 1006 51 10000 4.12 120 16:46 08.05.2021
258 Clear 33 1006 46 10000 4.12 120 16:27 08.05.2021
259 Clear 35 1006 46 10000 4.63 120 15:43 08.05.2021
260 Clear 34 1006 43 10000 5.14 130 15:23 08.05.2021
261 Clear 34 1007 40 10000 5.66 120 14:28 08.05.2021
262 Clear 34 1007 46 10000 5.14 110 13:58 08.05.2021
263 Clear 34 1007 46 10000 5.14 110 13:26 08.05.2021
264 Clear 34 1007 46 10000 5.14 110 12:38 08.05.2021
265 Clear 35 1008 43 10000 5.14 100 11:55 08.05.2021
266 Clear 35 1008 46 10000 5.14 90 11:37 08.05.2021
267 Clear 36 1009 28 10000 2.57 0 10:56 08.05.2021
268 Clear 37 1009 28 10000 2.57 0 10:37 08.05.2021
269 Clear 35 1009 43 10000 4.12 120 10:18 08.05.2021
270 Clear 36 1009 41 10000 2.06 0 09:44 08.05.2021
271 Clear 35 1010 34 10000 2.06 170 09:25 08.05.2021
272 Clear 35 1010 43 10000 3.09 170 08:23 08.05.2021
273 Clear 32 1010 51 10000 4.12 160 07:39 08.05.2021
274 Clear 31 1009 55 10000 4.63 160 06:42 08.05.2021
275 Clear 28 1007 69 10000 2.06 150 03:51 08.05.2021
276 Clear 28 1007 65 10000 1.03 0 01:38 08.05.2021
277 Clear 29 1007 69 10000 1.54 130 00:39 08.05.2021
278 Clear 29 1007 69 10000 2.57 140 23:55 07.05.2021
279 Clear 29 1007 65 10000 3.09 120 23:18 07.05.2021
280 Clear 30 1008 65 10000 2.57 130 22:42 07.05.2021
281 Clear 30 1008 65 10000 3.09 130 21:53 07.05.2021
282 Clear 30 1008 61 10000 3.6 150 21:31 07.05.2021
283 Clear 29 1008 58 10000 3.6 140 20:54 07.05.2021
284 Clear 30 1008 54 10000 3.09 140 20:33 07.05.2021
285 Clear 30 1008 51 10000 3.6 130 19:53 07.05.2021
286 Clear 30 1008 51 10000 3.6 130 19:34 07.05.2021
287 Clear 31 1008 51 10000 3.6 140 18:55 07.05.2021
288 Clear 31 1008 51 10000 3.6 140 18:36 07.05.2021
289 Clear 32 1008 35 10000 3.6 130 17:47 07.05.2021
290 Clear 32 1008 40 10000 3.6 130 17:22 07.05.2021
291 Clear 33 1008 48 10000 5.14 120 16:44 07.05.2021
292 Clear 33 1007 43 10000 5.14 120 16:24 07.05.2021
293 Clear 35 1007 36 10000 4.12 110 15:49 07.05.2021
294 Clear 35 1007 31 10000 4.12 110 15:30 07.05.2021
295 Clear 35 1008 38 10000 4.63 110 14:46 07.05.2021
296 Clear 35 1008 29 10000 4.12 100 14:23 07.05.2021
297 Clear 35 1008 29 10000 4.63 100 13:37 07.05.2021
298 Clear 35 1008 36 9000 4.12 110 12:55 07.05.2021
299 Clear 35 1008 36 9000 4.12 110 12:37 07.05.2021
300 Clear 35 1009 34 9000 4.63 100 12:19 07.05.2021
301 Clear 35 1009 36 9000 4.63 100 11:43 07.05.2021
302 Clear 35 1010 36 10000 4.63 90 10:59 07.05.2021
303 Clear 35 1010 36 10000 4.63 90 10:40 07.05.2021
304 Clear 36 1010 28 10000 2.06 90 10:18 07.05.2021
305 Clear 35 1010 29 10000 1.54 0 09:31 07.05.2021
306 Clear 34 1010 33 10000 2.06 210 08:49 07.05.2021
307 Clear 32 1010 38 10000 2.57 170 08:24 07.05.2021
308 Clear 30 1009 51 10000 3.09 190 06:50 07.05.2021
309 Clear 28 1009 65 10000 2.57 170 05:44 07.05.2021
310 Clear 26 1007 61 10000 2.06 150 02:59 07.05.2021
311 Clear 27 1007 54 10000 1.91 110 23:44 06.05.2021
312 Clear 28 1008 54 10000 1.03 30 22:40 06.05.2021
313 Clear 28 1008 54 10000 1.03 30 22:40 06.05.2021
314 Clear 28 1008 54 10000 0.51 10 21:51 06.05.2021
315 Clear 28 1009 54 10000 1.03 30 20:51 06.05.2021
316 Clear 28 1009 54 10000 1.03 50 20:29 06.05.2021
317 Clear 28 1009 54 10000 1.03 50 19:58 06.05.2021
318 Clear 28 1009 54 10000 1.03 50 19:39 06.05.2021
319 Clear 28 1008 61 10000 2.06 40 19:18 06.05.2021
320 Clear 29 1008 58 10000 2.06 40 18:37 06.05.2021
321 Clear 29 1008 58 10000 1.54 30 17:59 06.05.2021
322 Clear 29 1008 58 10000 2.57 30 17:39 06.05.2021
323 Clear 30 1008 58 10000 2.57 30 17:18 06.05.2021
324 Clear 30 1008 51 10000 3.6 40 16:47 06.05.2021
325 Clear 31 1008 42 10000 4.12 40 16:25 06.05.2021
326 Clear 31 1008 40 10000 3.6 50 15:45 06.05.2021
327 Clear 32 1008 33 10000 4.63 40 15:26 06.05.2021
328 Clear 33 1008 33 10000 4.63 60 14:37 06.05.2021
329 Clear 34 1008 29 10000 5.14 70 14:19 06.05.2021
330 Clear 35 1008 21 10000 5.14 100 13:37 06.05.2021
331 Clear 35 1008 21 10000 5.14 100 13:18 06.05.2021
332 Clear 35 1008 21 10000 5.14 100 13:18 06.05.2021
333 Clear 36 1008 19 10000 4.12 60 12:35 06.05.2021
334 Clear 36 1009 23 10000 5.14 70 11:49 06.05.2021
335 Clear 36 1009 15 10000 4.12 30 11:28 06.05.2021
336 Clear 36 1010 12 10000 2.57 0 10:53 06.05.2021
337 Clear 35 1010 15 10000 2.06 10 10:31 06.05.2021
338 Clear 35 1010 15 10000 2.06 10 09:53 06.05.2021
339 Clear 34 1010 21 10000 3.09 350 09:32 06.05.2021
340 Clear 33 1010 29 10000 1.54 0 08:55 06.05.2021
341 Clear 33 1010 29 10000 1.54 0 08:25 06.05.2021
342 Clear 33 1010 29 10000 1.54 0 08:25 06.05.2021
343 Clear 33 1010 27 10000 1.54 250 07:57 06.05.2021
344 Clear 33 1010 27 10000 1.54 250 07:35 06.05.2021
345 Clear 29 1009 54 10000 1.03 0 06:29 06.05.2021
346 Clear 27 1009 57 10000 1.03 0 05:51 06.05.2021
347 Clear 25 1008 61 10000 1.54 220 04:37 06.05.2021
348 Clear 25 1007 61 10000 1.03 240 02:52 06.05.2021
349 Clear 26 1007 61 10000 1.85 92 00:47 06.05.2021
350 Clear 27 1008 61 10000 0.51 0 22:49 05.05.2021
351 Clear 27 1008 57 10000 1.03 50 22:24 05.05.2021
352 Clear 27 1008 57 10000 1.03 50 22:24 05.05.2021
353 Clear 28 1009 57 10000 1.03 0 21:43 05.05.2021
354 Clear 28 1009 51 10000 1.54 40 21:21 05.05.2021
355 Clear 28 1009 51 10000 2.57 50 20:37 05.05.2021
356 Clear 28 1009 54 10000 2.06 60 19:59 05.05.2021
357 Clear 28 1009 54 10000 3.09 60 19:37 05.05.2021
358 Clear 28 1009 54 10000 3.09 60 19:18 05.05.2021
359 Clear 29 1008 54 10000 3.09 60 18:23 05.05.2021
360 Clear 29 1008 48 10000 3.6 30 17:54 05.05.2021
361 Clear 30 1008 42 10000 4.63 40 17:28 05.05.2021
362 Clear 30 1008 40 10000 4.63 40 16:55 05.05.2021
363 Clear 30 1008 40 10000 4.63 40 16:55 05.05.2021
364 Clear 31 1007 33 10000 4.12 40 16:32 05.05.2021
365 Clear 32 1007 33 10000 5.14 40 15:55 05.05.2021
366 Clear 32 1007 33 10000 5.14 40 15:22 05.05.2021
367 Clear 32 1007 29 10000 5.14 40 14:44 05.05.2021
368 Clear 33 1007 24 10000 5.14 30 14:25 05.05.2021
369 Clear 33 1007 21 10000 5.66 40 13:48 05.05.2021
370 Clear 33 1007 35 10000 6.69 50 13:25 05.05.2021
371 Clear 35 1007 21 10000 6.17 40 12:37 05.05.2021
372 Clear 35 1007 16 10000 5.14 40 12:37 05.05.2021
373 Clear 36 1007 16 10000 5.14 40 12:18 05.05.2021
374 Clear 35 1008 20 10000 5.14 20 11:41 05.05.2021
375 Clear 35 1008 20 10000 5.14 20 11:18 05.05.2021
376 Clear 35 1008 17 10000 5.14 10 10:43 05.05.2021
377 Clear 34 1008 18 10000 3.6 10 09:54 05.05.2021
378 Clear 34 1008 18 10000 3.6 360 09:29 05.05.2021
379 Clear 32 1008 21 10000 4.12 360 08:43 05.05.2021
380 Clear 32 1008 25 10000 3.09 340 08:24 05.05.2021
381 Clear 32 1008 25 10000 2.06 350 07:48 05.05.2021
382 Clear 32 1008 33 10000 1.03 0 07:22 05.05.2021
383 Clear 31 1008 42 10000 1.03 0 06:37 05.05.2021
384 Clear 27 1005 65 10000 1.54 10 01:50 05.05.2021
385 Clear 27 1005 65 10000 2.06 360 00:22 05.05.2021
386 Clear 27 1005 65 10000 2.06 350 23:38 04.05.2021
387 Clear 28 1006 57 10000 2.06 350 22:53 04.05.2021
388 Clear 28 1006 61 10000 3.09 20 22:23 04.05.2021
389 Clear 28 1006 61 10000 4.12 10 21:59 04.05.2021
390 Clear 28 1006 61 10000 4.12 10 21:41 04.05.2021
391 Clear 29 1006 57 10000 3.6 360 21:00 04.05.2021
392 Clear 29 1006 57 10000 3.6 360 20:41 04.05.2021
393 Clear 29 1006 54 10000 4.12 360 20:22 04.05.2021
394 Clear 29 1006 54 10000 4.12 360 20:22 04.05.2021
395 Clear 29 1006 54 10000 5.14 350 19:42 04.05.2021
396 Clear 29 1005 58 10000 4.63 350 19:23 04.05.2021
397 Clear 29 1005 58 10000 5.14 350 18:51 04.05.2021
398 Clear 29 1005 61 10000 5.66 350 18:22 04.05.2021
399 Clear 29 1005 61 10000 6.17 350 17:49 04.05.2021
400 Clear 30 1004 61 10000 7.2 350 17:24 04.05.2021
401 Clear 30 1004 51 10000 7.2 350 16:41 04.05.2021
402 Clear 31 1004 51 10000 7.2 10 16:22 04.05.2021
403 Clear 31 1003 48 10000 8.75 10 15:44 04.05.2021
404 Clear 32 1003 43 10000 8.23 360 14:57 04.05.2021
405 Clear 32 1003 48 10000 9.77 360 14:24 04.05.2021
406 Clear 33 1003 43 10000 8.23 10 13:41 04.05.2021
407 Clear 33 1004 46 10000 8.23 10 13:21 04.05.2021
408 Clear 33 1004 40 10000 7.72 10 12:51 04.05.2021
409 Clear 33 1004 40 10000 6.69 10 12:24 04.05.2021
410 Clear 33 1004 43 10000 7.2 10 11:43 04.05.2021
411 Clear 34 1005 36 10000 6.17 20 11:23 04.05.2021
412 Clear 34 1005 24 10000 4.63 40 10:43 04.05.2021
413 Clear 35 1005 19 10000 5.66 50 10:22 04.05.2021
414 Clear 35 1005 19 10000 4.63 50 09:37 04.05.2021
415 Clear 33 1005 26 10000 4.63 10 08:58 04.05.2021
416 Clear 33 1005 26 10000 4.63 10 08:38 04.05.2021
417 Clear 33 1005 33 10000 4.12 360 08:18 04.05.2021
418 Clear 32 1005 40 10000 4.63 350 07:38 04.05.2021
419 Clear 32 1005 35 10000 3.09 100 06:40 04.05.2021
420 Clear 32 1005 35 10000 3.09 100 06:40 04.05.2021
421 Clear 30 1005 54 10000 1.54 80 05:59 04.05.2021
422 Clear 27 1005 65 10000 1.54 100 03:55 04.05.2021
423 Clear 28 1004 54 10000 1.03 60 01:30 04.05.2021
424 Clear 28 1005 57 10000 2.06 30 23:50 03.05.2021
425 Clear 28 1005 57 10000 1.54 30 23:29 03.05.2021
426 Clear 28 1005 57 10000 2.06 20 22:36 03.05.2021
427 Clear 28 1005 57 10000 2.57 20 22:18 03.05.2021
428 Clear 28 1005 57 10000 3.09 20 21:41 03.05.2021
429 Clear 28 1005 57 10000 3.09 20 21:21 03.05.2021
430 Clear 29 1005 54 10000 3.6 20 20:44 03.05.2021
431 Clear 29 1005 51 10000 4.12 30 20:26 03.05.2021
432 Clear 29 1004 54 10000 4.12 20 19:44 03.05.2021
433 Clear 29 1004 51 10000 4.63 30 19:25 03.05.2021
434 Clear 29 1004 54 10000 5.14 30 18:30 03.05.2021
435 Clear 29 1004 54 10000 6.17 40 17:52 03.05.2021
436 Clear 30 1004 51 10000 6.69 40 17:32 03.05.2021
437 Clouds 30 1004 51 10000 5.66 50 16:51 03.05.2021
438 Clouds 30 1004 54 10000 5.66 60 16:23 03.05.2021
439 Clouds 30 1004 54 10000 6.17 90 15:49 03.05.2021
440 Clouds 30 1004 54 10000 5.66 100 15:21 03.05.2021
441 Clouds 31 1004 51 10000 7.2 100 14:21 03.05.2021
442 Clouds 31 1004 51 10000 7.2 100 13:52 03.05.2021
443 Clouds 31 1004 51 10000 8.75 100 13:32 03.05.2021
444 Clear 31 1004 48 10000 9.26 100 12:56 03.05.2021
445 Clear 31 1004 55 10000 9.77 100 12:29 03.05.2021
446 Clouds 30 1006 55 9000 7.72 80 11:50 03.05.2021
447 Clouds 30 1007 54 9000 7.72 50 11:31 03.05.2021
448 Rain 29 1009 61 9000 6.69 360 10:50 03.05.2021
449 Rain 30 1006 55 10000 8.23 80 10:31 03.05.2021
450 Clear 30 1006 51 10000 8.75 60 09:55 03.05.2021
451 Clear 31 1007 45 10000 7.72 60 09:25 03.05.2021
452 Clear 31 1007 51 10000 6.69 30 08:42 03.05.2021
453 Clear 31 1007 48 10000 6.69 10 08:24 03.05.2021
454 Clear 31 1008 37 10000 4.12 350 07:36 03.05.2021
455 Clear 29 1006 45 10000 2.57 30 06:32 03.05.2021
456 Clear 29 1006 51 10000 1.03 0 05:54 03.05.2021
457 Clear 28 1005 45 10000 3.09 30 01:53 03.05.2021
458 Clear 28 1006 47 10000 4.63 350 00:19 03.05.2021
459 Clear 27 1006 61 10000 1.03 350 23:26 02.05.2021
460 Clear 27 1005 65 10000 1.03 0 22:49 02.05.2021
461 Clear 27 1005 65 10000 1.03 50 22:31 02.05.2021
462 Clear 27 1005 65 10000 1.03 50 22:31 02.05.2021
463 Clear 28 1005 65 10000 1.54 30 21:56 02.05.2021
464 Clear 28 1005 65 10000 1.54 30 21:33 02.05.2021
465 Clear 28 1005 69 9000 1.03 0 20:48 02.05.2021
466 Clear 28 1006 69 9000 1.54 80 20:22 02.05.2021
467 Clear 28 1005 65 8000 2.57 80 19:41 02.05.2021
468 Clear 28 1005 65 8000 2.57 60 19:21 02.05.2021
469 Clear 28 1005 74 8000 2.57 30 18:44 02.05.2021
470 Clear 28 1005 74 8000 3.6 20 18:26 02.05.2021
471 Clear 28 1005 74 7000 3.09 40 17:48 02.05.2021
472 Clear 28 1005 65 7000 3.09 40 17:28 02.05.2021
473 Clear 29 1005 65 7000 4.12 60 16:58 02.05.2021
474 Clear 29 1005 65 7000 4.12 60 16:39 02.05.2021
475 Clear 30 1004 62 9000 4.63 80 16:18 02.05.2021
476 Clear 30 1004 54 10000 5.14 100 15:41 02.05.2021
477 Clear 30 1004 62 10000 5.14 100 15:22 02.05.2021
478 Clear 31 1004 62 10000 6.17 90 14:39 02.05.2021
479 Clear 32 1005 48 8000 5.14 80 13:58 02.05.2021
480 Clear 31 1005 55 8000 5.66 70 13:40 02.05.2021
481 Clear 31 1005 55 8000 5.66 70 13:19 02.05.2021
482 Clear 32 1005 58 10000 4.12 80 12:42 02.05.2021
483 Clear 32 1005 58 10000 4.12 80 12:22 02.05.2021
484 Clear 32 1005 58 10000 4.12 80 12:22 02.05.2021
485 Clear 32 1006 52 10000 4.12 80 11:48 02.05.2021
486 Clear 32 1006 49 10000 3.6 100 11:28 02.05.2021
487 Clear 33 1007 58 9000 4.12 120 10:36 02.05.2021
488 Clear 33 1007 58 9000 4.12 120 10:18 02.05.2021
489 Clear 32 1007 62 9000 4.63 110 09:42 02.05.2021
490 Clear 32 1007 62 9000 4.63 110 09:42 02.05.2021
491 Clear 33 1007 49 9000 2.57 0 09:23 02.05.2021
492 Clear 33 1007 49 8000 2.57 170 08:52 02.05.2021
493 Clouds 31 1007 40 8000 2.06 200 08:26 02.05.2021
494 Haze 29 1007 66 5000 1.54 190 07:29 02.05.2021
495 Clouds 29 1007 74 6000 1.54 220 06:48 02.05.2021
496 Clouds 26 1006 78 6000 1.54 210 05:20 02.05.2021
497 Clear 26 1005 78 10000 3.09 120 01:37 02.05.2021
498 Clear 27 1006 74 10000 2.57 90 23:48 01.05.2021
499 Clear 27 1006 74 10000 2.06 70 23:27 01.05.2021
500 Clear 27 1006 74 10000 2.06 70 23:27 01.05.2021
501 Clear 27 1006 78 10000 2.06 80 22:51 01.05.2021
502 Clear 27 1006 78 10000 2.06 90 22:24 01.05.2021
503 Clear 27 1006 78 10000 2.06 90 21:55 01.05.2021
504 Clear 27 1006 78 10000 2.06 90 21:37 01.05.2021
505 Clear 27 1006 78 10000 1.54 80 21:18 01.05.2021
506 Clear 27 1006 78 10000 2.06 60 20:39 01.05.2021
507 Clear 28 1006 74 10000 1.54 80 20:21 01.05.2021
508 Clear 29 1006 69 10000 1.54 80 19:45 01.05.2021
509 Clear 29 1006 74 10000 1.54 60 19:23 01.05.2021
510 Clear 29 1005 69 10000 2.06 120 18:41 01.05.2021
511 Clear 30 1005 65 10000 2.06 130 18:18 01.05.2021
512 Clear 30 1005 65 10000 2.06 130 18:18 01.05.2021
513 Clear 30 1005 61 10000 2.06 100 17:36 01.05.2021
514 Clear 30 1005 62 10000 3.6 70 16:55 01.05.2021
515 Clear 30 1005 62 10000 3.6 70 16:36 01.05.2021
516 Clear 32 1004 43 10000 4.63 110 15:57 01.05.2021
517 Clear 33 1005 43 10000 6.17 90 14:57 01.05.2021
518 Clear 34 1005 38 10000 6.17 100 13:57 01.05.2021
519 Clear 35 1005 26 10000 5.14 100 13:25 01.05.2021
520 Clear 35 1005 28 10000 5.66 110 12:52 01.05.2021
521 Clear 35 1006 28 10000 4.12 80 12:23 01.05.2021
522 Clear 36 1006 29 10000 5.14 80 11:48 01.05.2021
523 Clear 36 1007 14 10000 2.57 0 11:30 01.05.2021
524 Clear 36 1007 12 10000 3.09 0 10:56 01.05.2021
525 Clear 36 1007 17 10000 3.09 210 10:27 01.05.2021
526 Clear 35 1008 22 10000 3.6 200 09:41 01.05.2021
527 Clear 35 1008 22 10000 3.6 200 09:21 01.05.2021
528 Clear 33 1008 27 10000 5.14 190 08:22 01.05.2021
529 Clear 31 1008 29 10000 4.12 190 07:37 01.05.2021
530 Clear 27 1008 57 10000 2.57 210 05:48 01.05.2021
531 Clear 26 1006 65 10000 2.06 140 01:44 01.05.2021
532 Clear 27 1007 65 10000 3.6 170 00:30 01.05.2021
533 Clear 27 1007 57 10000 3.6 170 23:54 30.04.2021
534 Clear 27 1007 69 10000 3.6 170 22:48 30.04.2021
535 Clear 28 1008 65 10000 3.09 170 22:20 30.04.2021
536 Clear 28 1008 65 10000 2.57 150 21:47 30.04.2021
537 Clear 28 1008 61 10000 2.57 140 21:29 30.04.2021
538 Clear 29 1008 57 10000 3.09 130 20:52 30.04.2021
539 Clear 29 1008 57 10000 3.09 130 20:33 30.04.2021
540 Clear 30 1007 48 10000 1.54 100 19:48 30.04.2021
541 Clear 30 1007 51 10000 2.06 140 18:58 30.04.2021
542 Clear 30 1007 51 10000 2.06 140 18:39 30.04.2021
543 Clear 30 1007 39 10000 1.03 50 18:21 30.04.2021
544 Clear 31 1007 42 10000 1.03 50 17:43 30.04.2021
545 Clear 32 1006 33 10000 3.09 30 16:58 30.04.2021
546 Clear 32 1006 33 10000 3.09 30 16:40 30.04.2021
547 Clear 32 1006 31 10000 3.6 30 16:20 30.04.2021
548 Clear 34 1006 29 10000 3.6 40 15:40 30.04.2021
549 Clear 34 1006 29 10000 4.63 50 15:19 30.04.2021
550 Clear 34 1006 33 10000 4.63 40 14:42 30.04.2021
551 Clear 34 1006 33 10000 4.63 50 14:19 30.04.2021
552 Clear 35 1007 26 10000 5.14 20 13:41 30.04.2021
553 Clear 35 1007 26 10000 5.14 20 13:23 30.04.2021
554 Clear 38 1007 12 10000 5.14 310 12:40 30.04.2021
555 Clear 37 1008 12 10000 6.17 310 12:20 30.04.2021
556 Clear 37 1009 12 10000 4.63 290 11:23 30.04.2021
557 Clear 37 1009 12 10000 5.66 310 10:52 30.04.2021
558 Clear 36 1009 14 10000 5.14 300 10:34 30.04.2021
559 Clear 36 1009 16 10000 4.12 300 09:51 30.04.2021
560 Clear 35 1009 17 10000 5.14 290 09:23 30.04.2021
561 Clear 34 1010 18 10000 4.63 280 08:40 30.04.2021
562 Clear 33 1010 21 10000 3.09 250 07:44 30.04.2021
563 Clear 31 1009 27 10000 3.6 250 07:21 30.04.2021
564 Clear 30 1009 28 10000 4.12 250 06:47 30.04.2021
565 Clear 29 1009 28 10000 3.09 260 06:24 30.04.2021
566 Clear 25 1008 41 10000 3.09 240 04:29 30.04.2021
567 Clear 26 1008 34 10000 2.57 240 01:57 30.04.2021
568 Clear 26 1008 34 10000 2.57 240 01:38 30.04.2021
569 Clear 28 1008 23 10000 2.06 220 23:41 29.04.2021
570 Clear 27 1009 20 10000 1.03 0 23:18 29.04.2021
571 Clear 28 1009 20 10000 1.03 0 22:41 29.04.2021
572 Clear 28 1009 20 10000 2.57 290 22:21 29.04.2021
573 Clear 28 1009 24 10000 1.54 340 21:44 29.04.2021
574 Clear 28 1009 23 10000 3.09 330 21:23 29.04.2021
575 Clear 29 1009 28 10000 3.09 340 20:46 29.04.2021
576 Clear 29 1009 30 10000 4.63 340 20:28 29.04.2021
577 Clear 29 1009 42 10000 4.12 350 19:57 29.04.2021
578 Clear 29 1009 42 10000 4.12 350 19:38 29.04.2021
579 Clear 30 1009 37 10000 4.12 350 19:19 29.04.2021
580 Clear 29 1009 45 10000 3.6 360 19:19 29.04.2021
581 Clear 30 1009 37 10000 4.12 350 18:41 29.04.2021
582 Clear 31 1009 42 10000 4.12 360 17:48 29.04.2021
583 Clear 31 1009 40 10000 5.66 350 17:27 29.04.2021
584 Clear 32 1009 37 10000 6.17 360 16:54 29.04.2021
585 Clear 33 1008 25 10000 7.72 360 16:27 29.04.2021
586 Clear 33 1008 27 10000 7.2 360 15:57 29.04.2021
587 Clear 33 1008 27 10000 7.2 10 15:28 29.04.2021
588 Clear 33 1009 33 10000 7.2 10 14:53 29.04.2021
589 Clear 33 1009 33 10000 6.17 10 14:28 29.04.2021
590 Clear 33 1009 33 10000 4.63 20 13:55 29.04.2021
591 Clear 33 1009 31 10000 4.63 40 13:31 29.04.2021
592 Clear 34 1010 27 10000 5.66 60 12:51 29.04.2021
593 Clouds 33 1010 29 10000 5.66 60 12:31 29.04.2021
594 Clouds 33 1010 33 10000 6.17 40 11:52 29.04.2021
595 Clouds 33 1011 43 10000 7.2 10 11:29 29.04.2021
596 Clouds 33 1011 33 10000 8.23 60 10:59 29.04.2021
597 Clouds 33 1011 33 10000 8.23 60 10:37 29.04.2021
598 Clouds 32 1011 35 10000 8.75 60 09:59 29.04.2021
599 Clouds 32 1011 37 10000 6.69 80 09:35 29.04.2021
600 Clouds 30 1011 48 10000 4.63 110 08:59 29.04.2021
601 Rain 30 1011 48 10000 4.63 110 08:34 29.04.2021
602 Rain 30 1012 37 10000 3.6 180 07:53 29.04.2021
603 Rain 31 1012 33 10000 2.06 250 07:29 29.04.2021
604 Rain 32 1011 29 10000 3.09 310 06:35 29.04.2021
605 Rain 30 1009 33 10000 4.63 250 04:46 29.04.2021
606 Clear 31 1008 40 10000 3.09 30 00:27 29.04.2021
607 Clear 30 1008 51 10000 6.69 340 23:21 28.04.2021
608 Clear 31 1009 42 10000 5.14 350 22:52 28.04.2021
609 Clear 31 1008 35 10000 3.6 330 22:22 28.04.2021
610 Rain 32 1008 37 10000 4.12 360 21:44 28.04.2021
611 Clear 32 1008 40 10000 4.12 340 21:22 28.04.2021
612 Clear 32 1008 48 10000 3.6 340 20:54 28.04.2021
613 Clear 32 1008 48 10000 3.6 340 20:36 28.04.2021
614 Clear 32 1008 45 10000 3.09 340 20:18 28.04.2021
615 Clear 31 1008 42 10000 4.12 10 19:32 28.04.2021
616 Clear 32 1008 45 10000 4.12 10 18:53 28.04.2021
617 Clear 32 1008 45 10000 4.12 10 18:34 28.04.2021
618 Clear 32 1008 45 10000 4.12 10 18:34 28.04.2021
619 Clear 32 1008 45 10000 4.12 10 18:34 28.04.2021
620 Clear 32 1007 37 10000 4.12 20 17:50 28.04.2021
621 Clear 32 1007 40 10000 4.12 20 17:30 28.04.2021
622 Clear 32 1007 40 10000 4.63 20 16:58 28.04.2021
623 Clear 32 1007 43 10000 5.14 30 16:20 28.04.2021
624 Clear 33 1007 38 10000 5.14 30 15:47 28.04.2021
625 Clear 33 1007 38 10000 6.69 20 15:19 28.04.2021
626 Clear 34 1007 38 10000 5.66 10 14:41 28.04.2021
627 Clear 34 1007 33 10000 7.2 10 14:20 28.04.2021
628 Clear 34 1007 33 10000 7.2 10 13:43 28.04.2021
629 Clear 34 1007 33 10000 7.2 10 13:23 28.04.2021
630 Clear 35 1007 34 10000 6.17 20 12:51 28.04.2021
631 Clear 35 1008 26 10000 5.66 20 12:22 28.04.2021
632 Clear 36 1009 26 10000 6.69 10 11:40 28.04.2021
633 Clear 36 1009 26 10000 6.69 10 11:20 28.04.2021
634 Clear 36 1008 28 10000 4.63 110 10:41 28.04.2021
635 Clear 36 1008 28 10000 4.63 110 10:20 28.04.2021
636 Clear 36 1009 30 10000 5.66 120 09:44 28.04.2021
637 Clear 36 1009 28 10000 5.14 110 09:25 28.04.2021
638 Clear 35 1009 34 10000 4.63 120 08:51 28.04.2021
639 Clear 33 1009 40 10000 3.09 110 07:32 28.04.2021
640 Clear 32 1009 45 10000 3.09 110 06:48 28.04.2021
641 Clear 28 1008 69 10000 1.03 0 05:28 28.04.2021
642 Clear 29 1007 69 10000 2.57 150 02:43 28.04.2021
643 Clear 29 1007 61 10000 2.06 90 01:56 28.04.2021
644 Clear 28 1007 57 10000 1.03 0 00:28 28.04.2021
645 Clouds 28 1007 57 9000 2.06 10 23:43 27.04.2021
646 Clouds 29 1007 65 8000 2.06 20 22:57 27.04.2021
647 Clouds 29 1007 69 8000 3.09 10 22:38 27.04.2021
648 Clear 29 1008 69 10000 3.09 10 22:19 27.04.2021
649 Clear 29 1008 69 10000 3.09 10 21:44 27.04.2021
650 Clear 29 1008 65 10000 3.09 10 21:22 27.04.2021
651 Clear 29 1008 65 10000 3.6 10 20:48 27.04.2021
652 Clear 29 1008 70 10000 2.57 10 20:29 27.04.2021
653 Clear 29 1007 70 10000 2.06 20 19:46 27.04.2021
654 Clear 29 1007 74 10000 2.57 10 19:22 27.04.2021
655 Clear 30 1007 70 10000 2.06 10 18:51 27.04.2021
656 Clear 30 1007 66 10000 1.54 40 18:32 27.04.2021
657 Clear 31 1006 62 10000 2.06 40 17:45 27.04.2021
658 Clear 31 1006 55 10000 3.09 40 17:25 27.04.2021
659 Clear 34 1006 51 10000 3.6 30 16:47 27.04.2021
660 Clear 33 1006 51 10000 4.12 30 16:26 27.04.2021
661 Clear 37 1006 32 10000 3.6 50 15:49 27.04.2021
662 Clear 37 1006 22 10000 2.57 80 15:26 27.04.2021
663 Clear 38 1006 19 10000 3.09 100 14:53 27.04.2021
664 Clear 38 1006 20 10000 3.6 120 14:29 27.04.2021
665 Clear 37 1006 26 10000 3.6 130 13:58 27.04.2021
666 Clear 37 1007 30 10000 3.6 120 13:33 27.04.2021
667 Clouds 37 1007 34 9000 3.09 100 12:47 27.04.2021
668 Clouds 37 1007 38 9000 4.12 100 12:23 27.04.2021
669 Clouds 36 1007 38 9000 4.63 100 11:45 27.04.2021
670 Clouds 36 1007 38 9000 4.63 100 11:24 27.04.2021
671 Clouds 37 1008 30 9000 5.14 130 10:39 27.04.2021
672 Clouds 36 1008 36 9000 5.14 110 10:19 27.04.2021
673 Clouds 37 1008 25 9000 4.12 130 09:43 27.04.2021
674 Clouds 36 1008 23 9000 3.09 180 08:47 27.04.2021
675 Clouds 34 1008 29 8000 3.09 190 07:55 27.04.2021
676 Clouds 34 1008 29 8000 3.09 190 07:32 27.04.2021
677 Clouds 32 1008 43 7000 2.06 180 06:41 27.04.2021
678 Clouds 29 1008 58 8000 2.06 200 05:55 27.04.2021
679 Clear 27 1007 65 10000 1.54 180 03:32 27.04.2021
680 Clear 28 1006 61 10000 1.54 0 01:43 27.04.2021
681 Clear 28 1006 57 10000 2.06 30 23:58 26.04.2021
682 Clear 28 1007 54 10000 1.54 30 23:27 26.04.2021
683 Clear 29 1007 51 10000 2.57 50 22:56 26.04.2021
684 Clear 29 1007 51 10000 2.57 50 22:35 26.04.2021
685 Clear 29 1007 54 10000 1.54 350 21:44 26.04.2021
686 Clear 29 1007 58 10000 2.57 110 21:24 26.04.2021
687 Clear 29 1007 54 10000 1.54 100 20:58 26.04.2021
688 Clear 29 1007 54 10000 1.54 100 20:39 26.04.2021
689 Clear 29 1007 58 10000 2.57 60 19:57 26.04.2021
690 Clouds 29 1007 65 9000 2.06 50 19:37 26.04.2021
691 Clouds 28 1007 74 7000 4.12 60 18:55 26.04.2021
692 Clouds 28 1007 74 7000 4.12 60 18:35 26.04.2021
693 Clouds 29 1007 61 8000 4.12 40 17:58 26.04.2021
694 Clouds 29 1007 54 7000 4.63 20 17:40 26.04.2021
695 Clouds 30 1007 54 7000 4.63 20 17:18 26.04.2021
696 Clouds 30 1007 54 7000 4.63 30 16:43 26.04.2021
697 Clouds 31 1007 51 6000 3.6 360 16:22 26.04.2021
698 Clouds 32 1006 51 7000 5.66 90 15:40 26.04.2021
699 Clouds 32 1006 51 7000 5.66 90 15:20 26.04.2021
700 Clouds 32 1007 43 8000 6.17 70 14:46 26.04.2021
701 Clouds 32 1007 58 7000 6.17 60 14:26 26.04.2021
702 Clouds 33 1007 49 9000 4.12 60 13:45 26.04.2021
703 Clouds 34 1007 40 10000 6.17 90 13:24 26.04.2021
704 Clear 37 1007 41 10000 5.66 100 12:34 26.04.2021
705 Clouds 39 1008 14 9000 3.6 150 11:45 26.04.2021
706 Clouds 39 1008 15 9000 3.6 150 11:22 26.04.2021
707 Clouds 39 1008 13 9000 4.63 200 10:42 26.04.2021
708 Clouds 38 1009 17 7000 4.12 160 10:20 26.04.2021
709 Clouds 38 1009 17 7000 4.12 160 09:46 26.04.2021
710 Clear 37 1009 16 10000 4.63 160 09:22 26.04.2021
711 Clear 36 1009 20 10000 4.12 170 08:45 26.04.2021
712 Clear 36 1010 20 10000 3.6 160 08:20 26.04.2021
713 Clouds 34 1010 23 9000 3.09 180 07:51 26.04.2021
714 Clouds 33 1009 31 8000 3.6 160 07:19 26.04.2021
715 Clouds 29 1009 42 8000 2.06 170 06:24 26.04.2021
716 Clouds 26 1009 73 6000 2.06 160 04:42 26.04.2021
717 Clear 26 1008 73 6000 1.54 150 04:24 26.04.2021
718 Clouds 27 1008 78 6000 2.57 140 02:23 26.04.2021
719 Haze 27 1008 83 5000 1.03 0 00:49 26.04.2021
720 Haze 27 1008 78 5000 1.03 0 00:26 26.04.2021
721 Haze 27 1008 78 5000 1.03 0 23:43 25.04.2021
722 Haze 27 1008 78 5000 2.06 10 23:24 25.04.2021
723 Clouds 27 1008 78 6000 1.54 50 22:42 25.04.2021
724 Clouds 27 1008 74 6000 2.06 50 22:19 25.04.2021
725 Clouds 27 1009 78 6000 1.54 60 21:46 25.04.2021
726 Clear 28 1009 78 7000 1.54 40 21:27 25.04.2021
727 Clear 27 1008 78 7000 2.06 50 20:52 25.04.2021
728 Clear 27 1008 78 7000 2.06 50 20:33 25.04.2021
729 Clouds 28 1008 69 9000 3.09 50 19:58 25.04.2021
730 Clouds 28 1008 69 9000 3.09 50 19:38 25.04.2021
731 Clouds 29 1008 61 9000 2.57 50 19:20 25.04.2021
732 Clouds 29 1008 65 8000 3.09 40 18:42 25.04.2021
733 Clouds 29 1008 65 8000 3.09 40 18:24 25.04.2021
734 Clouds 30 1008 70 8000 3.6 40 17:42 25.04.2021
735 Clear 30 1008 62 7000 4.12 50 17:21 25.04.2021
736 Clear 30 1008 62 7000 4.12 50 17:21 25.04.2021
737 Clear 33 1008 55 8000 4.12 60 16:44 25.04.2021
738 Clear 32 1007 51 8000 3.6 360 16:26 25.04.2021
739 Clear 34 1007 36 8000 4.63 10 15:42 25.04.2021
740 Clear 34 1007 34 10000 4.12 50 15:20 25.04.2021
741 Clear 37 1007 26 10000 4.12 50 14:24 25.04.2021
742 Clear 37 1008 36 10000 4.12 60 13:59 25.04.2021
743 Clear 37 1008 26 10000 4.12 80 13:27 25.04.2021
744 Clear 37 1008 20 10000 4.12 30 12:56 25.04.2021
745 Clear 37 1008 20 10000 4.12 30 12:56 25.04.2021
746 Clear 37 1008 20 10000 4.12 30 12:38 25.04.2021
747 Clear 39 1009 11 10000 2.57 40 12:18 25.04.2021
748 Clear 39 1009 12 10000 2.06 110 11:35 25.04.2021
749 Clouds 37 1010 16 8000 2.06 0 10:52 25.04.2021
750 Clouds 37 1010 17 8000 2.57 0 10:23 25.04.2021
751 Clouds 35 1011 28 7000 2.57 190 09:49 25.04.2021
752 Clouds 35 1010 29 7000 2.06 170 09:27 25.04.2021
753 Clouds 33 1010 29 7000 3.09 190 08:34 25.04.2021
754 Clouds 32 1010 40 7000 3.09 190 07:49 25.04.2021
755 Clouds 32 1010 40 7000 3.09 190 07:49 25.04.2021
756 Clouds 31 1010 54 7000 3.6 200 07:21 25.04.2021
757 Clouds 29 1010 65 7000 3.6 190 06:59 25.04.2021
758 Clouds 28 1010 65 7000 4.63 170 06:18 25.04.2021
759 Clouds 26 1009 69 7000 2.06 170 04:43 25.04.2021
760 Clear 26 1008 61 10000 2.06 150 01:56 25.04.2021
761 Clear 27 1008 57 10000 2.06 150 01:34 25.04.2021
762 Clear 27 1008 50 10000 1.54 160 00:34 25.04.2021
763 Clear 27 1008 53 10000 0.51 90 23:50 24.04.2021
764 Clear 27 1008 53 10000 0.51 90 23:50 24.04.2021
765 Clear 27 1008 53 10000 1.03 10 23:26 24.04.2021
766 Clear 28 1009 50 10000 1.03 30 22:48 24.04.2021
767 Clear 28 1009 50 10000 1.03 50 22:22 24.04.2021
768 Clear 28 1009 51 10000 1.03 60 21:43 24.04.2021
769 Clear 28 1009 51 10000 1.03 60 21:22 24.04.2021
770 Clear 29 1009 54 10000 1.54 40 20:40 24.04.2021
771 Clear 29 1009 51 10000 2.06 360 20:22 24.04.2021
772 Clear 29 1009 48 10000 2.57 20 19:39 24.04.2021
773 Clouds 29 1009 51 10000 1.54 30 19:20 24.04.2021
774 Clear 29 1008 58 10000 2.57 30 18:42 24.04.2021
775 Clear 29 1008 54 10000 3.09 40 18:20 24.04.2021
776 Clouds 30 1008 51 9000 3.6 40 17:33 24.04.2021
777 Clear 31 1008 45 10000 4.12 10 16:57 24.04.2021
778 Clear 31 1008 43 10000 4.12 20 16:37 24.04.2021
779 Clear 32 1007 51 10000 6.17 10 15:58 24.04.2021
780 Clear 34 1007 31 10000 3.6 60 15:31 24.04.2021
781 Clear 37 1007 21 10000 3.6 110 14:39 24.04.2021
782 Clear 37 1007 19 10000 3.6 110 13:59 24.04.2021
783 Clear 37 1007 19 10000 3.6 110 13:38 24.04.2021
784 Clear 37 1007 19 10000 3.6 110 13:38 24.04.2021
785 Clear 37 1007 25 10000 5.14 80 12:58 24.04.2021
786 Clear 38 1008 15 10000 3.09 360 12:19 24.04.2021
787 Clear 38 1008 15 10000 2.57 210 11:48 24.04.2021
788 Clear 38 1009 16 10000 3.09 230 11:20 24.04.2021
789 Clear 36 1009 17 10000 3.6 180 10:46 24.04.2021
790 Clear 37 1009 19 10000 2.57 220 10:19 24.04.2021
791 Clear 36 1010 21 10000 3.6 190 09:42 24.04.2021
792 Clear 34 1010 29 10000 3.09 170 08:27 24.04.2021
793 Clear 32 1009 40 10000 2.06 210 07:29 24.04.2021
794 Clear 28 1009 51 10000 2.57 210 05:40 24.04.2021
795 Clear 27 1007 44 10000 1.03 210 01:35 24.04.2021
796 Clear 28 1008 42 10000 1.54 210 00:27 24.04.2021
797 Clear 29 1008 39 10000 0.51 0 22:55 23.04.2021
798 Clear 28 1009 65 10000 2.06 10 22:22 23.04.2021
799 Clear 29 1009 61 10000 2.06 30 21:55 23.04.2021
800 Clear 29 1009 61 10000 1.54 360 21:28 23.04.2021
801 Clear 29 1009 61 10000 2.06 350 20:46 23.04.2021
802 Clear 29 1009 61 10000 1.54 10 20:26 23.04.2021
803 Clear 29 1009 54 10000 1.54 30 19:58 23.04.2021
804 Clear 29 1009 54 10000 1.54 30 19:58 23.04.2021
805 Clear 29 1009 54 10000 1.54 30 19:39 23.04.2021
806 Clear 29 1009 54 10000 1.54 30 19:21 23.04.2021
807 Clear 30 1009 45 10000 2.57 30 18:42 23.04.2021
808 Clear 30 1009 45 10000 2.57 30 18:24 23.04.2021
809 Clear 32 1009 37 10000 2.57 40 17:42 23.04.2021
810 Clear 32 1008 31 10000 2.57 70 17:21 23.04.2021
811 Clear 34 1008 29 10000 4.12 20 16:46 23.04.2021
812 Clear 34 1007 18 10000 3.6 100 16:26 23.04.2021
813 Clear 37 1007 20 10000 3.6 90 15:42 23.04.2021
814 Clear 37 1007 16 10000 4.12 120 14:57 23.04.2021
815 Clear 37 1008 19 10000 4.12 100 13:44 23.04.2021
816 Clear 37 1008 17 10000 4.63 100 13:25 23.04.2021
817 Clear 37 1009 19 10000 5.14 130 12:36 23.04.2021
818 Clear 36 1010 20 10000 5.14 130 11:58 23.04.2021
819 Clear 36 1010 20 10000 5.14 130 11:39 23.04.2021
820 Clear 36 1010 19 10000 4.63 130 11:18 23.04.2021
821 Clear 35 1010 20 10000 4.63 150 10:38 23.04.2021
822 Clear 35 1011 20 10000 3.09 150 10:19 23.04.2021
823 Clear 35 1011 18 10000 3.09 170 09:28 23.04.2021
824 Clear 35 1011 24 10000 3.6 160 08:46 23.04.2021
825 Clear 34 1011 24 10000 3.09 160 07:56 23.04.2021
826 Clear 32 1011 27 10000 2.57 170 07:29 23.04.2021
827 Clear 28 1010 45 10000 1.03 0 06:27 23.04.2021
828 Clear 25 1009 57 10000 1.03 40 04:23 23.04.2021
829 Clear 26 1009 44 10000 1.54 360 02:50 23.04.2021
830 Clear 27 1009 57 10000 0.51 0 00:35 23.04.2021
831 Clear 28 1010 41 10000 1.03 0 23:26 22.04.2021
832 Clear 28 1010 39 10000 2.06 350 22:40 22.04.2021
833 Clear 28 1010 34 10000 1.54 330 22:19 22.04.2021
834 Clear 29 1010 34 10000 1.03 0 21:45 22.04.2021
835 Clear 29 1010 42 10000 2.06 50 21:26 22.04.2021
836 Clear 30 1010 48 10000 1.03 40 20:55 22.04.2021
837 Clear 30 1010 48 10000 1.54 350 20:29 22.04.2021
838 Clear 30 1010 48 10000 3.09 10 19:54 22.04.2021
839 Clear 30 1010 48 10000 3.09 10 19:54 22.04.2021
840 Clear 30 1010 48 10000 3.09 10 19:34 22.04.2021
841 Clear 31 1010 35 10000 3.09 10 18:52 22.04.2021
842 Clear 31 1009 29 10000 1.54 100 18:22 22.04.2021
843 Clear 33 1009 30 10000 3.09 130 17:53 22.04.2021
844 Clear 34 1009 24 10000 3.09 120 17:21 22.04.2021
845 Clear 35 1009 20 10000 3.6 130 16:55 22.04.2021
846 Clear 35 1009 20 10000 3.6 130 16:36 22.04.2021
847 Clear 36 1009 16 10000 3.6 130 16:18 22.04.2021
848 Clear 36 1009 15 10000 4.12 120 15:36 22.04.2021
849 Clear 37 1009 14 10000 4.63 110 14:55 22.04.2021
850 Clear 37 1009 14 10000 4.63 110 14:33 22.04.2021
851 Clear 37 1010 13 10000 4.63 100 13:58 22.04.2021
852 Clear 37 1010 14 10000 4.63 110 13:38 22.04.2021
853 Clear 37 1010 14 10000 4.63 110 13:19 22.04.2021
854 Clear 37 1011 14 10000 4.12 110 12:44 22.04.2021
855 Clear 36 1011 19 10000 4.12 110 12:20 22.04.2021
856 Clear 36 1011 20 10000 4.12 100 11:45 22.04.2021
857 Clear 36 1012 19 10000 4.12 120 11:22 22.04.2021
858 Clear 35 1012 17 10000 3.6 110 10:45 22.04.2021
859 Clear 35 1012 20 10000 3.6 110 10:22 22.04.2021
860 Clear 34 1013 21 10000 4.12 130 09:44 22.04.2021
861 Clear 33 1013 27 10000 4.12 140 09:19 22.04.2021
862 Clear 33 1013 27 10000 3.09 110 08:38 22.04.2021
863 Clear 33 1013 27 10000 3.09 110 08:18 22.04.2021
864 Clear 32 1013 25 10000 2.06 110 07:40 22.04.2021
865 Clear 32 1012 25 10000 2.57 90 07:20 22.04.2021
866 Clear 27 1012 51 10000 0.51 0 06:23 22.04.2021
867 Clear 25 1011 65 10000 1.03 360 05:25 22.04.2021
868 Clear 25 1010 69 10000 2.06 360 03:31 22.04.2021
869 Clear 25 1010 65 10000 0.51 0 00:52 22.04.2021
870 Clear 26 1010 61 10000 1.03 340 23:47 21.04.2021
871 Clear 26 1011 65 10000 1.03 360 23:25 21.04.2021
872 Clear 27 1011 69 10000 1.03 0 22:42 21.04.2021
873 Clear 27 1011 69 10000 1.03 0 22:23 21.04.2021
874 Clear 27 1011 65 10000 1.54 10 21:46 21.04.2021
875 Clear 27 1011 74 10000 2.57 30 21:23 21.04.2021
876 Clear 27 1011 69 10000 3.09 20 20:43 21.04.2021
877 Clear 27 1011 78 10000 3.6 10 20:20 21.04.2021
878 Clear 29 1011 69 10000 3.6 10 19:43 21.04.2021
879 Clear 30 1010 32 10000 1.54 20 19:23 21.04.2021
880 Clear 31 1010 39 10000 1.54 70 18:46 21.04.2021
881 Clear 31 1010 27 10000 1.54 110 18:26 21.04.2021
882 Clear 32 1010 29 10000 2.06 120 17:48 21.04.2021
883 Clear 33 1009 25 10000 3.09 120 17:24 21.04.2021
884 Clear 35 1009 17 10000 2.57 110 16:49 21.04.2021
885 Clear 36 1009 12 10000 3.09 90 15:59 21.04.2021
886 Clear 36 1009 14 10000 3.09 100 15:40 21.04.2021
887 Clear 37 1009 13 10000 3.6 100 14:55 21.04.2021
888 Clear 37 1009 12 10000 3.6 100 14:36 21.04.2021
889 Clear 37 1009 12 10000 3.6 100 14:18 21.04.2021
890 Clear 37 1009 12 10000 3.6 90 13:40 21.04.2021
891 Clear 37 1009 12 10000 3.6 90 13:40 21.04.2021
892 Clear 37 1010 11 10000 3.09 100 13:19 21.04.2021
893 Clear 37 1010 11 10000 3.6 100 12:30 21.04.2021
894 Clear 37 1010 11 10000 3.09 100 11:50 21.04.2021
895 Clear 37 1011 12 10000 2.06 0 11:29 21.04.2021
896 Clear 36 1011 11 10000 2.57 110 10:49 21.04.2021
897 Clear 36 1011 12 10000 3.09 140 10:20 21.04.2021
898 Clear 34 1012 16 10000 2.57 160 09:44 21.04.2021
899 Clear 33 1012 18 10000 3.09 130 08:56 21.04.2021
900 Clear 33 1012 18 10000 3.09 130 08:38 21.04.2021
901 Clear 32 1012 22 10000 2.57 100 08:19 21.04.2021
902 Clouds 31 1012 29 9000 1.03 0 07:31 21.04.2021
903 Clouds 28 1011 32 9000 1.03 120 06:42 21.04.2021
904 Clear 24 1010 64 10000 2.47 62 04:54 21.04.2021
905 Clear 27 1009 41 10000 1.03 220 00:58 21.04.2021
906 Clear 26 1009 47 10000 1.03 0 23:50 20.04.2021
907 Clear 27 1009 44 10000 1.03 0 23:24 20.04.2021
908 Clear 27 1009 44 10000 1.03 150 22:41 20.04.2021
909 Clear 27 1009 47 10000 0.51 0 22:19 20.04.2021
910 Clear 28 1009 54 10000 1.03 0 21:47 20.04.2021
911 Clear 28 1009 47 10000 1.54 100 21:25 20.04.2021
912 Clear 27 1009 44 10000 1.54 110 20:43 20.04.2021
913 Clear 28 1009 39 10000 1.03 120 20:23 20.04.2021
914 Clear 28 1009 39 10000 0.51 0 19:55 20.04.2021
915 Clear 28 1009 39 10000 0.51 0 19:36 20.04.2021
916 Clear 28 1009 39 10000 1.03 360 19:18 20.04.2021
917 Clear 29 1009 37 10000 1.03 20 18:35 20.04.2021
918 Clear 30 1008 30 10000 2.06 30 17:46 20.04.2021
919 Clear 30 1008 32 10000 2.57 40 17:25 20.04.2021
920 Clear 31 1008 35 10000 3.09 50 16:44 20.04.2021
921 Clear 33 1008 29 10000 3.09 90 15:51 20.04.2021
922 Clear 33 1008 33 10000 3.6 90 15:28 20.04.2021
923 Clear 33 1008 33 10000 3.6 100 14:57 20.04.2021
924 Clear 34 1008 27 10000 4.12 100 14:31 20.04.2021
925 Clear 34 1008 27 10000 4.12 100 13:37 20.04.2021
926 Clear 35 1008 26 10000 4.63 90 13:18 20.04.2021
927 Clear 35 1009 21 10000 4.12 70 12:40 20.04.2021
928 Clear 35 1009 19 10000 3.6 70 12:19 20.04.2021
929 Clear 35 1010 21 10000 1.54 0 11:40 20.04.2021
930 Clear 35 1010 21 10000 1.54 0 11:20 20.04.2021
931 Clear 35 1010 18 10000 2.57 330 10:42 20.04.2021
932 Clear 36 1011 14 10000 1.54 0 10:22 20.04.2021
933 Clear 35 1011 16 10000 1.54 260 09:23 20.04.2021
934 Clear 33 1011 18 10000 2.57 0 08:55 20.04.2021
935 Clear 33 1011 18 10000 2.57 270 08:20 20.04.2021
936 Clear 32 1011 18 10000 1.54 260 07:39 20.04.2021
937 Clear 30 1011 22 10000 1.03 0 06:36 20.04.2021
938 Clear 26 1010 31 10000 1.03 0 05:37 20.04.2021
939 Clear 25 1009 33 10000 3.32 296 04:41 20.04.2021
940 Clear 26 1009 28 10000 2.06 230 00:53 20.04.2021
941 Clear 26 1009 28 10000 2.06 210 00:28 20.04.2021
942 Clear 27 1010 44 10000 1.54 200 23:34 19.04.2021
943 Clear 27 1010 39 10000 1.54 200 22:56 19.04.2021
944 Clear 27 1010 47 10000 1.54 190 22:30 19.04.2021
945 Clear 27 1010 47 10000 1.54 190 22:30 19.04.2021
946 Clear 27 1010 50 10000 1.03 0 21:47 19.04.2021
947 Clear 27 1010 44 10000 1.54 140 21:25 19.04.2021
948 Clear 28 1010 28 10000 1.03 100 20:43 19.04.2021
949 Clear 29 1010 24 10000 1.54 70 20:22 19.04.2021
950 Clear 29 1010 23 10000 1.54 50 19:54 19.04.2021
951 Clear 29 1010 23 10000 1.54 50 19:36 19.04.2021
952 Clear 29 1010 20 10000 2.57 310 19:18 19.04.2021
953 Clear 31 1010 18 10000 3.6 330 18:44 19.04.2021
954 Clear 31 1010 17 10000 4.63 320 18:21 19.04.2021
955 Clear 32 1010 16 10000 5.14 310 17:46 19.04.2021
956 Clear 32 1010 16 10000 4.63 320 17:26 19.04.2021
957 Clear 34 1009 14 10000 5.14 320 16:45 19.04.2021
958 Clear 34 1009 13 10000 6.17 310 16:26 19.04.2021
959 Clear 34 1009 24 10000 5.14 350 15:44 19.04.2021
960 Clear 34 1009 24 10000 4.12 350 15:24 19.04.2021
961 Clear 33 1009 31 10000 4.63 360 14:52 19.04.2021
962 Clear 34 1009 27 10000 4.63 350 14:32 19.04.2021
963 Clear 34 1010 27 10000 5.14 360 13:53 19.04.2021
964 Clear 34 1010 24 10000 6.17 360 13:28 19.04.2021
965 Clear 35 1010 18 10000 5.66 350 12:48 19.04.2021
966 Clear 35 1010 21 10000 5.14 360 12:28 19.04.2021
967 Clear 35 1011 23 10000 4.63 360 11:59 19.04.2021
968 Clear 35 1011 23 10000 4.63 360 11:59 19.04.2021
969 Clear 34 1011 21 10000 4.63 360 11:39 19.04.2021
970 Clear 34 1011 21 10000 4.63 360 11:19 19.04.2021
971 Clear 34 1011 21 10000 4.63 360 11:18 19.04.2021
972 Clear 34 1011 21 10000 4.63 360 11:18 19.04.2021
973 Clear 33 1012 22 10000 4.63 350 10:41 19.04.2021
974 Clear 33 1012 22 10000 4.63 350 10:18 19.04.2021
975 Clear 33 1012 22 10000 4.12 330 09:40 19.04.2021
976 Clear 33 1012 21 10000 4.12 320 09:21 19.04.2021
977 Clear 30 1012 27 10000 3.09 310 08:33 19.04.2021
978 Clear 28 1012 28 10000 3.09 310 07:50 19.04.2021
979 Clear 28 1012 32 10000 4.63 330 07:21 19.04.2021
980 Clear 27 1012 30 10000 3.09 330 06:47 19.04.2021
981 Clear 24 1011 47 10000 3.09 300 04:40 19.04.2021
982 Clear 27 1010 21 10000 2.06 270 01:49 19.04.2021
983 Clear 27 1010 26 10000 1.54 220 00:34 19.04.2021
984 Clear 28 1011 32 10000 3.09 210 23:21 18.04.2021
985 Clear 27 1011 32 10000 5.14 210 22:57 18.04.2021
986 Clear 28 1011 34 10000 4.12 200 22:31 18.04.2021
987 Clear 27 1012 34 10000 3.09 200 21:51 18.04.2021
988 Clear 27 1012 36 10000 2.06 210 21:28 18.04.2021
989 Clear 27 1012 36 10000 2.06 210 20:44 18.04.2021
990 Clear 27 1012 54 10000 3.09 170 20:25 18.04.2021
991 Clear 27 1012 57 10000 2.57 140 19:57 18.04.2021
992 Clear 27 1012 57 10000 2.57 140 19:38 18.04.2021
993 Clear 27 1012 61 10000 3.09 140 19:18 18.04.2021
994 Clear 27 1012 69 10000 2.57 150 18:44 18.04.2021
995 Clear 27 1012 69 10000 2.57 140 18:25 18.04.2021
996 Clear 27 1012 69 10000 2.57 120 17:45 18.04.2021
997 Clear 27 1012 61 10000 2.57 110 17:27 18.04.2021
998 Clear 29 1012 42 10000 3.09 60 16:45 18.04.2021
999 Clear 29 1012 37 10000 3.09 40 16:24 18.04.2021
1000 Clear 30 1012 42 10000 3.09 60 15:43 18.04.2021
1001 Clear 31 1012 33 10000 3.6 40 15:25 18.04.2021
1002 Clear 31 1011 30 10000 3.6 20 14:46 18.04.2021
1003 Clear 32 1011 35 10000 4.12 40 14:21 18.04.2021
1004 Clear 32 1011 37 10000 4.63 20 13:55 18.04.2021
1005 Clear 33 1011 37 10000 4.63 20 13:33 18.04.2021
1006 Clear 35 1012 9 10000 6.69 320 12:50 18.04.2021
1007 Clear 35 1012 10 10000 5.14 310 12:26 18.04.2021
1008 Clear 35 1013 11 10000 6.69 300 11:42 18.04.2021
1009 Clear 35 1013 11 10000 6.69 300 11:21 18.04.2021
1010 Clear 34 1013 11 10000 6.17 310 10:47 18.04.2021
1011 Clear 34 1013 15 10000 4.12 310 10:22 18.04.2021
1012 Clear 34 1013 14 10000 5.14 290 09:52 18.04.2021
1013 Clear 34 1013 14 10000 5.14 290 09:34 18.04.2021
1014 Clear 32 1013 15 10000 3.6 270 08:56 18.04.2021
1015 Clear 32 1014 19 10000 3.09 260 08:35 18.04.2021
1016 Clear 30 1013 19 10000 3.6 260 07:55 18.04.2021
1017 Clear 30 1013 19 10000 3.6 260 07:37 18.04.2021
1018 Clear 26 1013 25 10000 4.12 210 05:42 18.04.2021
1019 Clear 26 1013 25 10000 4.12 210 05:23 18.04.2021
1020 Clear 25 1012 21 10000 4.12 230 02:39 18.04.2021
1021 Clear 25 1012 21 10000 4.12 230 02:20 18.04.2021
1022 Clear 25 1011 22 10000 2.06 220 00:37 18.04.2021
1023 Clear 25 1011 21 10000 2.57 210 23:33 17.04.2021
1024 Clear 27 1012 18 10000 3.09 200 22:51 17.04.2021
1025 Clear 27 1012 18 10000 1.54 210 22:30 17.04.2021
1026 Clear 27 1012 15 10000 1.03 0 21:50 17.04.2021
1027 Clear 27 1012 18 10000 1.03 0 21:28 17.04.2021
1028 Clear 27 1013 21 10000 1.03 0 20:47 17.04.2021
1029 Clear 27 1013 24 10000 2.06 340 20:27 17.04.2021
1030 Clear 27 1012 23 10000 3.6 330 19:44 17.04.2021
1031 Clear 27 1013 26 10000 3.09 330 19:20 17.04.2021
1032 Clear 28 1013 23 10000 4.12 350 18:55 17.04.2021
1033 Clear 28 1013 24 10000 4.12 340 18:28 17.04.2021
1034 Clear 29 1013 19 10000 4.63 340 17:56 17.04.2021
1035 Clear 29 1013 19 10000 4.63 340 17:38 17.04.2021
1036 Clear 31 1012 14 10000 5.14 320 16:42 17.04.2021
1037 Clear 31 1012 13 10000 5.66 330 16:24 17.04.2021
1038 Clear 32 1012 13 10000 5.66 320 15:39 17.04.2021
1039 Clear 33 1011 13 10000 6.17 330 14:50 17.04.2021
1040 Clear 33 1011 24 10000 6.17 330 14:29 17.04.2021
1041 Clear 33 1011 24 10000 5.14 360 13:46 17.04.2021
1042 Clear 35 1011 12 10000 6.17 330 13:19 17.04.2021
1043 Clear 35 1011 11 10000 7.72 330 12:36 17.04.2021
1044 Clear 34 1012 12 10000 6.69 330 11:59 17.04.2021
1045 Clear 34 1012 12 10000 6.69 330 11:39 17.04.2021
1046 Clear 34 1012 12 10000 6.69 330 11:39 17.04.2021
1047 Clear 35 1012 12 10000 6.69 320 11:20 17.04.2021
1048 Clear 34 1013 11 10000 5.66 320 10:41 17.04.2021
1049 Clear 33 1013 15 10000 5.66 310 10:18 17.04.2021
1050 Clear 32 1013 20 10000 4.12 300 09:19 17.04.2021
1051 Clear 31 1013 19 10000 4.63 300 08:34 17.04.2021
1052 Clear 29 1013 23 10000 3.6 290 07:59 17.04.2021
1053 Clear 26 1013 29 10000 3.09 270 06:41 17.04.2021
1054 Clear 22 1011 38 10000 2.06 270 03:49 17.04.2021
1055 Clear 22 1010 40 10000 2.06 250 02:28 17.04.2021
1056 Clear 22 1010 38 10000 2.06 260 00:43 17.04.2021
1057 Clear 22 1011 38 10000 2.57 240 00:21 17.04.2021
1058 Clear 22 1011 35 10000 2.06 230 23:43 16.04.2021
1059 Clear 22 1011 33 10000 2.06 220 22:59 16.04.2021
1060 Clear 23 1011 33 10000 2.06 220 22:41 16.04.2021
1061 Clear 23 1011 31 10000 1.54 240 22:20 16.04.2021
1062 Clear 24 1012 31 10000 1.54 250 21:45 16.04.2021
1063 Clear 24 1012 29 10000 1.54 250 21:27 16.04.2021
1064 Clear 25 1012 24 10000 2.57 300 20:46 16.04.2021
1065 Clear 25 1012 24 10000 3.09 310 20:20 16.04.2021
1066 Clear 25 1012 22 10000 3.6 310 19:49 16.04.2021
1067 Clear 25 1012 21 10000 3.6 310 19:22 16.04.2021
1068 Clear 26 1012 21 10000 3.09 320 18:28 16.04.2021
1069 Clear 27 1011 20 10000 3.09 320 17:54 16.04.2021
1070 Clear 28 1011 17 10000 5.14 320 17:20 16.04.2021
1071 Clear 29 1011 15 10000 5.66 320 16:57 16.04.2021
1072 Clear 30 1011 15 10000 5.66 320 16:38 16.04.2021
1073 Clear 30 1011 17 10000 7.2 340 16:20 16.04.2021
1074 Clear 30 1011 17 10000 6.17 330 15:40 16.04.2021
1075 Clear 31 1011 15 10000 7.2 330 14:59 16.04.2021
1076 Clear 31 1011 15 10000 7.2 330 14:40 16.04.2021
1077 Clear 30 1011 17 10000 8.75 340 13:59 16.04.2021
1078 Clear 30 1011 17 10000 8.75 340 13:37 16.04.2021
1079 Clear 29 1011 19 10000 6.69 320 13:18 16.04.2021
1080 Clear 30 1011 18 10000 6.17 320 12:44 16.04.2021
1081 Clear 30 1011 18 10000 6.69 320 12:23 16.04.2021
1082 Clear 30 1012 18 10000 6.17 320 11:43 16.04.2021
1083 Clear 30 1012 18 10000 6.17 320 11:43 16.04.2021
1084 Clear 30 1012 19 10000 7.2 330 11:23 16.04.2021
1085 Clear 30 1012 21 10000 7.2 330 10:43 16.04.2021
1086 Clear 30 1013 21 10000 7.2 330 10:23 16.04.2021
1087 Clear 30 1013 19 10000 7.2 320 09:45 16.04.2021
1088 Clear 30 1013 19 10000 7.2 320 09:45 16.04.2021
1089 Clear 30 1013 18 10000 9.26 330 09:23 16.04.2021
1090 Clear 30 1013 22 10000 9.77 330 08:45 16.04.2021
1091 Clear 30 1013 25 10000 8.23 330 08:24 16.04.2021
1092 Clear 28 1013 32 10000 6.17 320 07:46 16.04.2021
1093 Clear 27 1013 34 10000 6.17 310 07:25 16.04.2021
1094 Clear 26 1013 41 10000 6.69 310 06:41 16.04.2021
1095 Clear 24 1013 38 10000 4.63 290 05:32 16.04.2021
1096 Clear 24 1011 38 10000 5.14 310 03:31 16.04.2021
1097 Clear 24 1010 36 10000 5.14 310 00:46 16.04.2021
1098 Clear 24 1010 31 10000 4.63 310 00:22 16.04.2021
1099 Clear 25 1011 29 10000 4.63 310 23:57 15.04.2021
1100 Clear 25 1011 31 10000 4.12 310 23:34 15.04.2021
1101 Clear 25 1011 34 10000 3.6 310 22:50 15.04.2021
1102 Clear 25 1011 31 10000 4.12 310 22:24 15.04.2021
1103 Clear 25 1011 31 10000 4.63 310 21:47 15.04.2021
1104 Clear 25 1011 31 10000 4.12 320 21:29 15.04.2021
1105 Clear 25 1011 28 10000 3.6 320 20:56 15.04.2021
1106 Clear 26 1011 28 10000 4.12 320 20:37 15.04.2021
1107 Clear 26 1011 28 10000 4.12 320 20:18 15.04.2021
1108 Clear 26 1011 26 10000 5.14 320 19:41 15.04.2021
1109 Clear 26 1011 26 10000 5.66 320 19:21 15.04.2021
1110 Clear 27 1011 23 10000 6.17 330 18:41 15.04.2021
1111 Clear 27 1011 24 10000 4.63 320 18:19 15.04.2021
1112 Clear 28 1011 24 10000 5.66 320 17:54 15.04.2021
1113 Clear 28 1010 24 10000 6.69 330 17:31 15.04.2021
1114 Clear 29 1010 23 10000 5.14 330 16:44 15.04.2021
1115 Clear 30 1010 25 10000 7.2 340 16:25 15.04.2021
1116 Clear 31 1010 22 10000 7.2 330 15:51 15.04.2021
1117 Clear 31 1010 27 10000 7.72 340 15:28 15.04.2021
1118 Clear 31 1010 27 10000 9.26 350 14:45 15.04.2021
1119 Clear 32 1010 31 10000 9.26 350 14:27 15.04.2021
1120 Clear 32 1010 33 10000 8.23 360 13:58 15.04.2021
1121 Clear 31 1010 33 10000 8.23 360 13:40 15.04.2021
1122 Clear 32 1010 31 10000 8.75 360 12:55 15.04.2021
1123 Clear 32 1011 33 10000 8.23 360 12:28 15.04.2021
1124 Clear 32 1011 35 10000 7.72 350 11:59 15.04.2021
1125 Clear 32 1011 35 10000 7.72 350 11:39 15.04.2021
1126 Clear 32 1011 35 10000 7.72 350 11:21 15.04.2021
1127 Clear 32 1011 35 10000 7.72 350 11:21 15.04.2021
1128 Clear 32 1012 33 10000 6.69 350 10:43 15.04.2021
1129 Clear 33 1012 29 10000 7.72 350 10:25 15.04.2021
1130 Clear 31 1012 35 10000 7.2 340 09:33 15.04.2021
1131 Clear 31 1012 33 10000 7.2 340 08:54 15.04.2021
1132 Clear 31 1012 35 10000 6.69 340 08:35 15.04.2021
1133 Clear 29 1012 39 10000 6.69 340 07:47 15.04.2021
1134 Clear 29 1012 42 10000 6.69 340 07:20 15.04.2021
1135 Clear 28 1012 44 10000 4.63 320 06:36 15.04.2021
1136 Clear 27 1011 47 10000 4.12 310 05:47 15.04.2021
1137 Clear 26 1010 47 10000 3.6 330 03:59 15.04.2021
1138 Clear 27 1009 50 10000 5.66 340 00:23 15.04.2021
1139 Clear 27 1010 50 10000 6.17 330 23:36 14.04.2021
1140 Clear 26 1010 57 10000 4.12 340 22:59 14.04.2021
1141 Clear 26 1010 54 10000 7.72 340 22:39 14.04.2021
1142 Clear 26 1010 54 10000 7.72 340 22:20 14.04.2021
1143 Clear 27 1010 47 10000 6.17 340 21:42 14.04.2021
1144 Clear 27 1010 51 10000 4.63 350 21:22 14.04.2021
1145 Rain 28 1010 57 10000 5.14 340 20:48 14.04.2021
1146 Clear 27 1009 61 10000 7.72 350 20:29 14.04.2021
1147 Clear 27 1009 61 10000 5.66 360 19:48 14.04.2021
1148 Clear 27 1009 61 10000 6.17 360 19:19 14.04.2021
1149 Clear 27 1009 61 10000 6.17 360 19:19 14.04.2021
1150 Clear 27 1009 61 10000 7.2 360 18:55 14.04.2021
1151 Clear 27 1008 61 10000 8.23 360 18:21 14.04.2021
1152 Clear 28 1008 61 10000 8.23 360 17:57 14.04.2021
1153 Clear 28 1008 65 10000 7.2 360 17:24 14.04.2021
1154 Clear 28 1008 69 10000 5.66 360 16:52 14.04.2021
1155 Clear 29 1008 58 10000 4.12 10 16:24 14.04.2021
1156 Clear 30 1008 48 10000 4.63 20 15:42 14.04.2021
1157 Clear 30 1008 48 10000 4.63 50 15:22 14.04.2021
1158 Clear 31 1008 40 10000 4.63 70 14:46 14.04.2021
1159 Clear 31 1008 37 10000 4.63 70 14:24 14.04.2021
1160 Clear 32 1008 33 10000 5.66 80 13:54 14.04.2021
1161 Clear 33 1008 33 10000 7.2 80 13:23 14.04.2021
1162 Clear 33 1009 27 10000 7.72 80 12:37 14.04.2021
1163 Clear 33 1010 33 10000 6.69 70 11:43 14.04.2021
1164 Clear 32 1010 33 10000 6.69 70 11:25 14.04.2021
1165 Clear 31 1010 42 10000 5.14 80 10:48 14.04.2021
1166 Clear 31 1011 45 10000 4.63 60 10:30 14.04.2021
1167 Clear 31 1011 43 10000 5.14 60 09:42 14.04.2021
1168 Clear 31 1011 45 10000 4.63 60 09:21 14.04.2021
1169 Clear 30 1011 51 10000 5.66 40 08:43 14.04.2021
1170 Clear 30 1011 51 10000 4.63 60 08:20 14.04.2021
1171 Clear 28 1011 65 10000 5.66 350 06:55 14.04.2021
1172 Clear 28 1010 57 10000 3.09 50 06:24 14.04.2021
1173 Clear 27 1009 65 10000 5.66 130 04:45 14.04.2021
1174 Clear 27 1009 54 10000 4.63 20 01:49 14.04.2021
1175 Clear 27 1009 61 10000 5.14 360 00:39 14.04.2021
1176 Clear 27 1010 61 10000 7.72 340 23:47 13.04.2021
1177 Clear 27 1009 61 10000 4.63 10 23:27 13.04.2021
1178 Clear 28 1009 54 10000 4.12 20 22:42 13.04.2021
1179 Clear 27 1009 61 10000 2.57 30 22:19 13.04.2021
1180 Clear 28 1009 54 10000 3.6 70 21:46 13.04.2021
1181 Clear 28 1009 54 10000 5.14 80 21:27 13.04.2021
1182 Clear 27 1009 61 10000 4.12 100 20:42 13.04.2021
1183 Clear 27 1009 65 10000 4.12 80 20:21 13.04.2021
1184 Clear 27 1009 65 10000 3.09 80 19:48 13.04.2021
1185 Clear 27 1009 65 10000 3.6 50 19:24 13.04.2021
1186 Clear 27 1008 61 10000 4.12 60 18:41 13.04.2021
1187 Clear 28 1008 57 10000 5.14 40 17:56 13.04.2021
1188 Clear 28 1008 57 10000 5.14 40 17:36 13.04.2021
1189 Clear 28 1008 54 10000 5.14 20 17:18 13.04.2021
1190 Clear 28 1008 57 10000 5.66 20 16:43 13.04.2021
1191 Clear 29 1008 48 10000 5.14 30 16:20 13.04.2021
1192 Clear 30 1009 45 10000 4.63 40 15:44 13.04.2021
1193 Clear 30 1009 45 10000 4.63 40 15:44 13.04.2021
1194 Clear 30 1009 45 10000 4.63 40 15:44 13.04.2021
1195 Clear 30 1009 48 10000 4.63 30 15:22 13.04.2021
1196 Clear 30 1009 48 10000 5.66 40 14:46 13.04.2021
1197 Clear 30 1009 45 10000 5.66 40 14:19 13.04.2021
1198 Clear 31 1009 37 10000 6.17 60 13:45 13.04.2021
1199 Clear 31 1009 40 10000 5.66 60 13:24 13.04.2021
1200 Clear 31 1010 40 10000 6.17 40 12:56 13.04.2021
1201 Clear 31 1010 42 10000 5.66 50 12:28 13.04.2021
1202 Rain 30 1011 42 10000 4.12 30 11:55 13.04.2021
1203 Clear 30 1011 48 10000 5.14 40 11:29 13.04.2021
1204 Rain 30 1012 48 10000 4.63 360 10:47 13.04.2021
1205 Rain 30 1011 51 10000 4.63 10 10:21 13.04.2021
1206 Rain 30 1012 54 10000 4.12 350 09:56 13.04.2021
1207 Clear 29 1011 61 10000 4.12 360 09:36 13.04.2021
1208 Clear 32 1011 40 10000 2.06 80 08:56 13.04.2021
1209 Clear 31 1011 42 10000 3.09 120 08:38 13.04.2021
1210 Clear 31 1011 42 10000 3.09 120 08:20 13.04.2021
1211 Clear 30 1011 48 10000 3.09 120 07:36 13.04.2021
1212 Clear 29 1011 61 10000 2.57 110 06:31 13.04.2021
1213 Clear 26 1010 69 10000 1.54 140 04:47 13.04.2021
1214 Clear 27 1008 61 10000 3.09 130 01:39 13.04.2021
1215 Clear 27 1009 61 10000 3.09 130 00:19 13.04.2021
1216 Clear 27 1009 57 10000 3.6 120 23:44 12.04.2021
1217 Clear 28 1009 54 10000 3.6 120 23:24 12.04.2021
1218 Clear 28 1009 54 10000 3.6 110 22:38 12.04.2021
1219 Clear 27 1010 57 10000 2.06 100 21:58 12.04.2021
1220 Clear 27 1010 57 10000 2.06 100 21:38 12.04.2021
1221 Clear 28 1010 57 10000 2.57 90 21:19 12.04.2021
1222 Clear 28 1010 54 10000 2.57 60 20:38 12.04.2021
1223 Clear 28 1010 54 10000 2.57 60 20:20 12.04.2021
1224 Clear 27 1009 57 10000 2.06 50 19:43 12.04.2021
1225 Clear 28 1009 54 10000 4.63 70 19:23 12.04.2021
1226 Clear 28 1009 54 10000 4.63 70 19:23 12.04.2021
1227 Clear 28 1009 54 10000 4.63 50 18:59 12.04.2021
1228 Clear 28 1009 54 10000 4.63 50 18:40 12.04.2021
1229 Clear 28 1009 54 10000 4.12 20 18:22 12.04.2021
1230 Clear 29 1009 45 10000 2.06 30 17:43 12.04.2021
1231 Clear 29 1009 48 10000 3.6 80 17:22 12.04.2021
1232 Clear 30 1008 42 10000 3.6 70 16:46 12.04.2021
1233 Clear 30 1008 37 10000 3.6 60 16:27 12.04.2021
1234 Clear 31 1008 35 10000 3.6 70 15:48 12.04.2021
1235 Clear 32 1008 35 10000 3.09 60 15:25 12.04.2021
1236 Clear 33 1008 35 10000 3.6 40 14:50 12.04.2021
1237 Clear 33 1008 33 10000 3.09 90 14:29 12.04.2021
1238 Clear 34 1008 33 10000 3.6 90 13:46 12.04.2021
1239 Clear 34 1009 33 10000 4.12 110 13:26 12.04.2021
1240 Clear 34 1009 33 10000 5.14 100 12:45 12.04.2021
1241 Clear 34 1009 35 10000 4.63 100 12:24 12.04.2021
1242 Clear 34 1009 35 10000 4.63 100 12:24 12.04.2021
1243 Clear 35 1010 31 10000 4.63 90 11:53 12.04.2021
1244 Clear 35 1010 36 10000 3.6 90 11:18 12.04.2021
1245 Clear 35 1010 19 10000 3.6 180 10:41 12.04.2021
1246 Clear 35 1011 21 10000 5.14 200 10:22 12.04.2021
1247 Clear 34 1011 19 10000 4.12 200 09:40 12.04.2021
1248 Clear 34 1011 31 10000 3.6 180 09:18 12.04.2021
1249 Clear 32 1011 35 10000 5.14 160 08:35 12.04.2021
1250 Clear 30 1011 51 10000 6.17 140 07:38 12.04.2021
1251 Clear 29 1011 58 10000 4.12 130 07:19 12.04.2021
1252 Clear 28 1009 65 10000 5.14 120 05:52 12.04.2021
1253 Clear 26 1009 65 10000 3.6 100 04:31 12.04.2021
1254 Clear 25 1009 78 10000 3.09 70 00:52 12.04.2021
1255 Clear 25 1009 78 10000 2.57 50 00:24 12.04.2021
1256 Clear 25 1010 78 10000 2.06 20 23:46 11.04.2021
1257 Clear 25 1010 78 10000 2.06 20 23:46 11.04.2021
1258 Clear 25 1010 78 10000 2.57 10 23:27 11.04.2021
1259 Clear 25 1010 78 10000 2.57 350 22:46 11.04.2021
1260 Clear 26 1010 73 10000 2.06 360 22:25 11.04.2021
1261 Clear 26 1010 73 10000 2.06 10 21:46 11.04.2021
1262 Clear 26 1010 73 10000 2.06 20 21:27 11.04.2021
1263 Clear 26 1010 73 10000 2.57 40 20:57 11.04.2021
1264 Clear 26 1010 73 10000 3.6 40 20:30 11.04.2021
1265 Clear 27 1009 65 10000 2.57 50 19:56 11.04.2021
1266 Clear 27 1009 65 10000 2.57 50 19:37 11.04.2021
1267 Clear 27 1009 65 10000 2.06 50 19:19 11.04.2021
1268 Clear 27 1009 69 10000 2.06 20 18:42 11.04.2021
1269 Clear 27 1009 65 10000 2.06 40 18:24 11.04.2021
1270 Clear 27 1008 65 10000 2.57 40 17:46 11.04.2021
1271 Clear 28 1008 54 10000 2.57 80 17:28 11.04.2021
1272 Clear 29 1008 58 10000 3.09 70 16:51 11.04.2021
1273 Clear 30 1008 54 10000 3.09 70 16:23 11.04.2021
1274 Clear 32 1008 45 10000 2.57 50 15:57 11.04.2021
1275 Clear 32 1008 45 10000 2.57 50 15:38 11.04.2021
1276 Clear 32 1008 37 10000 3.6 70 15:19 11.04.2021
1277 Clear 33 1008 40 10000 4.12 80 14:46 11.04.2021
1278 Clear 34 1008 31 10000 4.12 100 13:53 11.04.2021
1279 Clear 34 1009 31 10000 4.12 100 13:31 11.04.2021
1280 Clear 34 1009 31 10000 4.12 100 13:31 11.04.2021
1281 Clear 34 1009 33 10000 5.14 110 12:54 11.04.2021
1282 Clear 34 1009 29 10000 4.63 100 12:22 11.04.2021
1283 Clear 33 1009 38 10000 4.63 110 11:53 11.04.2021
1284 Clear 33 1010 38 10000 4.63 120 11:29 11.04.2021
1285 Clear 33 1010 27 10000 7.2 130 10:50 11.04.2021
1286 Clear 32 1010 40 10000 6.17 130 10:32 11.04.2021
1287 Clear 32 1010 43 10000 5.66 130 09:59 11.04.2021
1288 Clear 32 1010 43 10000 5.66 130 09:59 11.04.2021
1289 Clear 31 1010 45 10000 6.17 130 09:37 11.04.2021
1290 Clear 31 1010 45 10000 6.17 130 09:19 11.04.2021
1291 Clear 30 1010 54 10000 6.17 130 08:30 11.04.2021
1292 Clear 28 1010 61 10000 5.14 120 07:24 11.04.2021
1293 Clear 28 1009 65 10000 4.63 130 06:56 11.04.2021
1294 Clear 26 1009 78 10000 3.09 120 05:44 11.04.2021
1295 Clear 25 1008 83 10000 2.06 120 05:21 11.04.2021
1296 Clear 24 1008 88 10000 2.57 130 04:35 11.04.2021
1297 Clear 25 1007 78 10000 2.57 100 02:45 11.04.2021
1298 Clear 24 1008 78 10000 2.06 100 00:40 11.04.2021
1299 Clear 24 1009 78 10000 1.03 0 23:50 10.04.2021
1300 Clear 24 1009 83 10000 1.54 80 23:26 10.04.2021
1301 Clear 24 1009 88 10000 1.03 0 22:45 10.04.2021
1302 Clear 24 1009 83 10000 1.03 0 22:23 10.04.2021
1303 Clear 24 1009 83 10000 1.54 360 21:50 10.04.2021
1304 Clear 24 1009 83 10000 1.54 360 21:50 10.04.2021
1305 Clear 24 1009 83 10000 1.54 360 21:23 10.04.2021
1306 Clear 24 1009 83 10000 1.54 20 20:47 10.04.2021
1307 Clear 25 1009 83 10000 2.06 10 20:24 10.04.2021
1308 Clear 25 1009 78 10000 2.06 40 19:45 10.04.2021
1309 Clear 25 1009 78 10000 2.06 40 19:45 10.04.2021
1310 Clear 25 1009 78 9000 2.06 30 19:27 10.04.2021
1311 Clear 25 1008 83 9000 2.57 30 18:53 10.04.2021
1312 Clear 25 1008 83 9000 2.57 30 18:33 10.04.2021
1313 Clear 26 1008 78 9000 3.6 30 17:41 10.04.2021
1314 Clear 26 1007 78 7000 3.6 50 17:23 10.04.2021
1315 Clear 28 1007 69 10000 3.6 30 16:31 10.04.2021
1316 Clear 29 1007 61 10000 3.09 40 15:56 10.04.2021
1317 Clear 31 1007 45 10000 3.09 70 15:34 10.04.2021
1318 Clear 31 1008 39 10000 4.12 90 14:47 10.04.2021
1319 Clear 31 1008 45 10000 3.6 100 14:23 10.04.2021
1320 Clear 31 1008 45 10000 4.12 110 13:43 10.04.2021
1321 Clear 32 1008 42 10000 4.12 120 13:25 10.04.2021
1322 Clear 32 1008 42 10000 4.63 110 12:35 10.04.2021
1323 Clear 32 1009 27 10000 5.66 140 11:52 10.04.2021
1324 Clear 32 1009 29 10000 5.66 130 11:26 10.04.2021
1325 Clear 31 1010 29 10000 5.14 130 10:54 10.04.2021
1326 Clear 31 1010 33 10000 5.66 150 10:32 10.04.2021
1327 Clear 30 1010 39 10000 4.63 130 09:59 10.04.2021
1328 Clear 29 1010 48 10000 4.63 140 09:29 10.04.2021
1329 Clear 29 1010 48 10000 5.14 140 08:54 10.04.2021
1330 Clear 28 1010 54 10000 5.14 140 08:30 10.04.2021
1331 Clear 27 1010 54 10000 4.63 140 07:52 10.04.2021
1332 Clear 26 1009 57 10000 4.63 130 07:21 10.04.2021
1333 Clear 25 1008 73 10000 3.09 120 06:27 10.04.2021
1334 Clear 22 1007 88 7000 2.06 140 04:49 10.04.2021
1335 Clear 23 1006 83 10000 2.57 140 02:57 10.04.2021
1336 Clear 23 1006 88 10000 2.06 120 02:35 10.04.2021
1337 Clear 23 1007 83 10000 1.54 110 00:53 10.04.2021
1338 Rain 23 1007 88 9000 1.54 120 00:29 10.04.2021
1339 Clear 23 1007 88 8000 2.57 130 23:45 09.04.2021
1340 Clear 23 1007 88 8000 2.57 150 23:20 09.04.2021
1341 Clear 23 1007 88 8000 2.06 120 22:44 09.04.2021
1342 Clear 23 1007 83 7000 2.06 120 22:25 09.04.2021
1343 Clear 23 1008 83 7000 2.06 90 21:39 09.04.2021
1344 Clear 23 1008 83 7000 2.06 80 21:19 09.04.2021
1345 Clear 23 1008 83 7000 2.57 80 20:45 09.04.2021
1346 Clear 23 1008 83 9000 2.57 80 20:23 09.04.2021
1347 Clear 23 1007 83 10000 2.57 80 19:57 09.04.2021
1348 Clear 24 1008 78 10000 2.57 80 19:39 09.04.2021
1349 Clear 24 1008 78 10000 2.57 80 19:20 09.04.2021
1350 Clear 24 1007 78 10000 2.57 50 18:41 09.04.2021
1351 Clear 24 1007 78 10000 2.57 60 18:21 09.04.2021
1352 Clear 24 1007 73 10000 2.57 70 17:43 09.04.2021
1353 Clear 25 1007 69 8000 2.57 80 17:21 09.04.2021
1354 Clear 25 1007 69 8000 2.57 80 16:39 09.04.2021
1355 Clear 26 1007 57 8000 3.09 80 16:19 09.04.2021
1356 Clear 27 1007 57 8000 4.12 80 15:40 09.04.2021
1357 Clear 27 1007 57 8000 4.12 90 15:20 09.04.2021
1358 Clear 27 1007 50 9000 5.14 80 14:46 09.04.2021
1359 Clear 29 1007 35 9000 3.6 70 13:58 09.04.2021
1360 Clear 29 1007 35 9000 3.6 70 13:39 09.04.2021
1361 Clear 29 1007 45 10000 4.12 100 13:21 09.04.2021
1362 Clear 30 1007 39 10000 4.12 70 12:46 09.04.2021
1363 Clear 31 1008 35 10000 3.6 70 11:52 09.04.2021
1364 Clear 32 1009 31 10000 3.09 50 11:27 09.04.2021
1365 Clear 31 1009 35 10000 3.09 40 10:53 09.04.2021
1366 Clear 31 1008 35 10000 3.09 40 10:34 09.04.2021
1367 Clear 30 1009 37 10000 2.57 90 09:55 09.04.2021
1368 Clear 29 1010 42 10000 2.57 120 09:27 09.04.2021
1369 Clear 28 1010 44 10000 2.57 100 08:54 09.04.2021
1370 Clear 28 1010 44 9000 3.09 120 08:23 09.04.2021
1371 Clear 28 1009 28 9000 1.54 210 07:21 09.04.2021
1372 Clear 25 1009 41 9000 2.57 230 06:21 09.04.2021
1373 Clear 22 1007 56 10000 1.03 0 03:54 09.04.2021
1374 Clear 22 1007 56 10000 2.06 220 03:30 09.04.2021
1375 Clear 23 1007 60 10000 1.54 160 00:38 09.04.2021
1376 Clear 22 1008 64 10000 1.03 140 00:20 09.04.2021
1377 Clear 23 1008 60 10000 1.03 80 23:30 08.04.2021
1378 Clear 23 1009 56 10000 0.51 0 22:47 08.04.2021
1379 Clear 23 1009 56 10000 1.03 20 22:27 08.04.2021
1380 Clear 24 1009 56 10000 1.03 0 21:58 08.04.2021
1381 Clear 24 1009 56 10000 1.03 0 21:38 08.04.2021
1382 Clear 24 1009 56 10000 1.03 350 21:20 08.04.2021
1383 Clear 24 1009 53 10000 1.54 360 20:53 08.04.2021
1384 Clear 24 1009 53 10000 1.54 360 20:34 08.04.2021
1385 Clear 25 1009 50 10000 3.09 360 19:57 08.04.2021
1386 Clear 25 1009 47 10000 3.09 360 19:24 08.04.2021
1387 Clear 25 1009 50 10000 3.6 350 18:56 08.04.2021
1388 Clear 25 1009 47 10000 3.6 10 18:24 08.04.2021
1389 Clear 26 1009 41 10000 3.09 10 17:55 08.04.2021
1390 Clear 26 1009 38 10000 3.09 20 17:27 08.04.2021
1391 Clear 27 1009 34 10000 4.12 30 16:57 08.04.2021
1392 Clear 27 1009 34 10000 4.12 30 16:36 08.04.2021
1393 Clear 29 1009 28 10000 5.14 30 15:56 08.04.2021
1394 Clear 29 1009 28 10000 5.14 30 15:37 08.04.2021
1395 Clear 30 1009 23 10000 5.66 30 15:19 08.04.2021
1396 Clear 30 1009 23 10000 5.66 30 14:40 08.04.2021
1397 Clear 31 1009 18 10000 5.14 30 14:20 08.04.2021
1398 Clear 32 1009 27 10000 5.14 40 13:43 08.04.2021
1399 Clear 33 1009 21 10000 5.66 40 13:23 08.04.2021
1400 Clear 34 1009 13 10000 4.63 20 12:49 08.04.2021
1401 Clear 35 1010 12 10000 4.12 10 12:30 08.04.2021
1402 Clear 34 1010 11 10000 4.12 20 11:56 08.04.2021
1403 Clear 34 1011 11 10000 4.12 360 11:21 08.04.2021
1404 Clear 35 1011 12 10000 3.09 320 10:43 08.04.2021
1405 Clear 33 1012 12 10000 3.09 330 10:24 08.04.2021
1406 Clear 33 1012 12 10000 3.09 320 09:43 08.04.2021
1407 Clear 32 1012 13 10000 2.57 290 08:53 08.04.2021
1408 Clear 32 1012 13 10000 2.57 290 08:35 08.04.2021
1409 Clear 30 1013 20 10000 2.06 280 07:59 08.04.2021
1410 Clear 29 1013 20 10000 2.06 280 07:40 08.04.2021
1411 Clear 21 1011 43 10000 2.06 270 04:56 08.04.2021
1412 Clear 22 1011 27 10000 1.54 280 01:25 08.04.2021
1413 Clear 22 1012 31 10000 1.54 320 00:30 08.04.2021
1414 Clear 23 1012 27 10000 2.06 330 23:47 07.04.2021
1415 Clear 23 1012 27 10000 2.06 330 23:24 07.04.2021
1416 Clear 24 1013 22 10000 2.06 320 22:55 07.04.2021
1417 Clear 25 1013 22 10000 2.06 320 22:36 07.04.2021
1418 Clear 25 1013 19 10000 3.6 300 21:58 07.04.2021
1419 Clear 25 1014 21 10000 2.57 320 21:34 07.04.2021
1420 Clear 26 1014 21 10000 2.57 320 20:51 07.04.2021
1421 Clear 26 1014 21 10000 2.57 320 20:28 07.04.2021
1422 Clear 27 1014 20 10000 2.57 320 19:52 07.04.2021
1423 Clear 27 1014 20 10000 2.57 320 19:33 07.04.2021
1424 Clear 28 1013 17 10000 3.09 320 18:57 07.04.2021
1425 Clear 28 1013 17 10000 3.09 320 18:39 07.04.2021
1426 Clear 28 1013 18 10000 3.09 330 18:18 07.04.2021
1427 Clear 29 1013 34 10000 3.6 340 17:43 07.04.2021
1428 Clear 29 1013 34 10000 3.6 340 17:24 07.04.2021
1429 Clear 29 1012 34 10000 5.14 350 16:45 07.04.2021
1430 Clear 30 1012 30 10000 5.66 350 16:21 07.04.2021
1431 Clear 31 1012 30 10000 5.66 340 15:53 07.04.2021
1432 Clear 31 1012 27 10000 5.66 10 15:25 07.04.2021
1433 Clear 31 1012 27 10000 6.17 360 14:42 07.04.2021
1434 Clear 30 1013 29 10000 5.66 360 14:19 07.04.2021
1435 Clear 31 1013 27 10000 6.17 10 13:38 07.04.2021
1436 Clear 31 1013 27 10000 6.17 10 13:20 07.04.2021
1437 Clear 31 1013 27 10000 5.66 10 12:42 07.04.2021
1438 Clear 31 1014 25 10000 6.17 10 12:18 07.04.2021
1439 Clear 32 1014 22 10000 5.14 10 11:41 07.04.2021
1440 Clear 33 1014 18 10000 7.2 350 11:21 07.04.2021
1441 Clear 32 1015 20 10000 6.17 360 10:47 07.04.2021
1442 Clear 32 1015 20 10000 4.63 320 09:47 07.04.2021
1443 Clear 31 1015 20 10000 4.63 330 09:28 07.04.2021
1444 Clear 29 1016 23 10000 5.14 320 08:52 07.04.2021
1445 Clear 28 1016 26 10000 4.12 300 08:30 07.04.2021
1446 Clear 27 1015 28 10000 4.12 310 07:52 07.04.2021
1447 Clear 26 1015 34 10000 4.63 300 07:28 07.04.2021
1448 Clear 24 1015 38 10000 3.09 290 06:42 07.04.2021
1449 Clear 21 1014 43 10000 1.54 280 05:22 07.04.2021
1450 Clear 20 1013 46 10000 3.09 310 01:23 07.04.2021
1451 Clear 20 1014 46 10000 3.09 300 23:47 06.04.2021
1452 Clear 20 1014 43 10000 3.6 310 23:22 06.04.2021
1453 Clear 21 1014 43 10000 3.6 310 22:55 06.04.2021
1454 Clear 21 1014 43 10000 3.6 310 22:21 06.04.2021
1455 Clear 21 1015 46 10000 3.09 320 21:44 06.04.2021
1456 Clear 21 1015 46 10000 3.09 320 21:25 06.04.2021
1457 Clear 22 1015 43 10000 3.09 320 20:58 06.04.2021
1458 Clear 22 1015 43 10000 3.09 320 20:39 06.04.2021
1459 Clear 22 1015 38 10000 2.57 310 20:19 06.04.2021
1460 Clear 23 1015 33 10000 3.6 320 19:42 06.04.2021
1461 Clear 23 1015 33 10000 3.6 320 19:24 06.04.2021
1462 Clear 24 1014 31 10000 5.14 310 18:43 06.04.2021
1463 Clear 24 1014 31 10000 5.14 310 18:20 06.04.2021
1464 Clear 25 1014 27 10000 5.66 310 17:45 06.04.2021
1465 Clear 26 1013 26 10000 5.66 320 17:20 06.04.2021
1466 Clear 27 1013 23 10000 5.14 310 16:49 06.04.2021
1467 Clear 28 1013 21 10000 6.69 310 16:30 06.04.2021
1468 Clear 29 1013 17 10000 7.2 320 15:28 06.04.2021
1469 Clear 30 1013 15 10000 7.72 330 14:51 06.04.2021
1470 Clear 30 1013 15 10000 7.72 330 14:32 06.04.2021
1471 Clear 31 1013 15 10000 7.2 320 13:59 06.04.2021
1472 Clear 31 1013 15 10000 7.2 320 13:39 06.04.2021
1473 Clear 30 1013 16 10000 7.72 310 13:20 06.04.2021
1474 Clear 31 1013 17 10000 8.23 310 12:38 06.04.2021
1475 Clear 30 1014 18 10000 7.72 310 12:19 06.04.2021
1476 Clear 31 1014 16 10000 7.72 320 11:48 06.04.2021
1477 Clear 31 1014 15 10000 7.72 320 11:20 06.04.2021
1478 Clear 30 1015 18 10000 6.17 310 10:46 06.04.2021
1479 Clear 30 1015 19 10000 7.2 310 10:24 06.04.2021
1480 Clear 29 1015 20 10000 6.17 320 09:47 06.04.2021
1481 Clear 29 1015 23 10000 7.2 310 09:26 06.04.2021
1482 Clear 27 1015 24 10000 7.2 320 08:38 06.04.2021
1483 Clear 26 1015 34 10000 6.69 320 07:57 06.04.2021
1484 Clear 24 1015 41 10000 6.17 320 06:55 06.04.2021
1485 Clear 21 1014 49 10000 6.69 310 05:22 06.04.2021
1486 Clear 20 1014 52 10000 3.09 270 01:57 06.04.2021
1487 Clear 20 1014 46 10000 3.6 290 00:44 06.04.2021
1488 Clear 20 1014 46 10000 4.12 290 00:20 06.04.2021
1489 Clear 20 1015 46 10000 3.09 280 23:42 05.04.2021
1490 Clear 20 1015 46 10000 3.6 290 23:19 05.04.2021
1491 Clear 21 1015 46 10000 3.09 280 22:45 05.04.2021
1492 Clear 21 1015 40 10000 3.6 280 22:24 05.04.2021
1493 Clear 22 1015 40 10000 3.6 280 21:40 05.04.2021
1494 Clear 22 1015 40 10000 3.6 280 21:20 05.04.2021
1495 Clear 22 1016 40 10000 3.6 280 20:42 05.04.2021
1496 Clear 22 1016 40 10000 3.6 280 20:23 05.04.2021
1497 Clear 22 1016 40 10000 4.12 280 19:40 05.04.2021
1498 Clear 22 1016 40 10000 4.12 280 19:20 05.04.2021
1499 Clear 23 1016 40 10000 4.63 290 18:48 05.04.2021
1500 Clear 23 1015 38 10000 5.66 290 18:30 05.04.2021
1501 Clear 23 1015 33 10000 5.14 310 17:55 05.04.2021
1502 Clear 24 1015 29 10000 5.14 310 17:36 05.04.2021
1503 Clear 25 1015 25 10000 5.66 320 17:18 05.04.2021
1504 Clear 25 1015 25 10000 5.66 320 16:39 05.04.2021
1505 Clear 26 1014 22 10000 6.69 310 16:19 05.04.2021
1506 Clear 27 1014 21 10000 5.66 310 15:48 05.04.2021
1507 Clear 27 1014 20 10000 6.69 320 15:27 05.04.2021
1508 Clear 28 1014 24 10000 7.2 320 14:36 05.04.2021
1509 Clear 28 1014 21 10000 7.2 310 13:59 05.04.2021
1510 Clear 28 1014 20 10000 7.2 320 13:31 05.04.2021
1511 Clear 28 1015 20 10000 7.72 320 12:48 05.04.2021
1512 Clear 28 1015 21 10000 8.23 320 12:26 05.04.2021
1513 Clear 28 1015 18 10000 7.2 320 11:53 05.04.2021
1514 Clear 28 1016 20 10000 8.75 330 11:32 05.04.2021
1515 Clear 28 1016 21 10000 7.72 330 10:57 05.04.2021
1516 Clear 28 1016 21 10000 7.72 330 10:37 05.04.2021
1517 Clear 27 1016 23 10000 10.29 330 09:56 05.04.2021
1518 Clear 27 1016 23 10000 10.29 330 09:37 05.04.2021
1519 Clear 27 1016 26 10000 10.29 330 09:19 05.04.2021
1520 Clear 26 1016 26 10000 11.32 330 08:40 05.04.2021
1521 Clear 26 1016 29 10000 8.23 320 08:19 05.04.2021
1522 Clear 25 1015 33 10000 9.77 330 07:34 05.04.2021
1523 Clear 21 1014 43 10000 7.2 320 04:23 05.04.2021
1524 Clear 21 1013 37 10000 6.69 310 01:34 05.04.2021
1525 Clear 21 1014 43 10000 5.66 310 00:24 05.04.2021
1526 Clear 21 1014 43 10000 5.66 310 23:38 04.04.2021
1527 Clear 21 1014 46 10000 6.17 310 23:18 04.04.2021
1528 Clear 21 1014 46 10000 6.17 310 22:49 04.04.2021
1529 Clear 21 1014 46 10000 6.17 310 22:26 04.04.2021
1530 Clear 21 1015 49 10000 5.66 320 21:23 04.04.2021
1531 Clear 21 1015 49 10000 5.66 320 20:51 04.04.2021
1532 Clear 21 1015 49 10000 5.66 320 20:25 04.04.2021
1533 Clear 21 1014 46 10000 5.66 320 19:42 04.04.2021
1534 Clear 21 1014 46 10000 5.66 320 19:21 04.04.2021
1535 Clear 22 1014 43 10000 6.17 320 18:56 04.04.2021
1536 Clear 22 1014 43 10000 6.17 320 18:37 04.04.2021
1537 Clear 23 1013 35 10000 5.66 320 18:19 04.04.2021
1538 Clear 23 1013 35 10000 5.66 320 17:37 04.04.2021
1539 Clear 23 1013 35 10000 5.66 320 17:37 04.04.2021
1540 Clear 23 1013 35 10000 5.66 320 17:18 04.04.2021
1541 Clear 25 1013 29 10000 6.69 320 16:41 04.04.2021
1542 Clear 26 1013 27 10000 7.72 330 15:58 04.04.2021
1543 Clear 26 1013 22 10000 7.72 320 15:33 04.04.2021
1544 Clear 28 1012 23 10000 8.75 330 14:43 04.04.2021
1545 Clear 28 1013 24 10000 7.2 320 14:25 04.04.2021
1546 Clear 28 1013 21 10000 7.2 320 13:28 04.04.2021
1547 Clear 28 1013 24 10000 7.2 320 12:53 04.04.2021
1548 Clear 28 1014 24 10000 7.2 310 12:32 04.04.2021
1549 Clear 27 1014 28 10000 7.72 310 11:52 04.04.2021
1550 Clear 28 1014 30 10000 6.69 320 11:31 04.04.2021
1551 Clear 27 1014 28 10000 8.23 320 10:56 04.04.2021
1552 Clear 27 1014 34 10000 8.23 330 10:32 04.04.2021
1553 Clear 26 1015 34 10000 8.75 320 09:52 04.04.2021
1554 Clear 26 1015 36 10000 7.72 320 09:24 04.04.2021
1555 Clear 25 1015 38 10000 8.75 330 08:50 04.04.2021
1556 Clear 25 1015 41 10000 7.72 310 08:32 04.04.2021
1557 Clear 25 1015 41 10000 7.72 310 08:32 04.04.2021
1558 Clear 23 1015 49 10000 7.2 320 07:24 04.04.2021
1559 Clear 22 1014 53 10000 8.23 320 06:36 04.04.2021
1560 Clear 21 1013 56 10000 8.75 320 04:56 04.04.2021
1561 Clear 23 1011 43 10000 7.72 320 01:28 04.04.2021
1562 Clear 23 1011 40 10000 7.72 320 00:19 04.04.2021
1563 Clear 23 1012 38 10000 8.23 310 23:47 03.04.2021
1564 Clear 23 1012 40 10000 6.69 320 23:23 03.04.2021
1565 Clear 23 1012 40 10000 7.2 320 22:50 03.04.2021
1566 Clear 23 1012 38 10000 7.72 320 22:21 03.04.2021
1567 Clear 23 1012 38 10000 7.72 320 22:21 03.04.2021
1568 Clear 23 1012 38 10000 7.2 320 21:47 03.04.2021
1569 Clear 23 1012 38 10000 6.69 320 21:23 03.04.2021
1570 Clear 24 1013 38 10000 7.72 320 20:49 03.04.2021
1571 Clear 24 1013 38 10000 7.72 320 20:49 03.04.2021
1572 Clear 24 1013 38 10000 7.72 320 20:27 03.04.2021
1573 Clear 24 1012 35 10000 8.23 320 19:50 03.04.2021
1574 Clear 24 1012 33 10000 7.72 320 19:25 03.04.2021
1575 Clear 24 1012 33 10000 8.23 320 18:51 03.04.2021
1576 Clear 24 1011 36 10000 9.26 320 18:32 03.04.2021
1577 Clear 25 1011 31 10000 7.72 320 17:53 03.04.2021
1578 Clear 25 1010 34 7000 8.23 320 17:25 03.04.2021
1579 Dust 27 1010 32 5000 8.23 320 16:51 03.04.2021
1580 Dust 27 1010 30 5000 8.23 320 16:25 03.04.2021
1581 Dust 28 1010 28 3500 10.8 330 15:50 03.04.2021
1582 Dust 29 1009 28 2000 10.29 330 15:23 03.04.2021
1583 Dust 30 1009 26 2000 11.32 330 14:44 03.04.2021
1584 Dust 30 1009 27 3000 10.29 330 14:25 03.04.2021
1585 Clear 31 1009 29 4000 8.75 320 13:53 03.04.2021
1586 Clear 31 1009 31 6000 8.75 320 13:25 03.04.2021
1587 Clear 32 1009 29 6000 7.72 320 12:57 03.04.2021
1588 Clear 32 1009 27 7000 8.75 320 12:32 03.04.2021
1589 Clear 33 1009 27 7000 7.2 310 11:40 03.04.2021
1590 Clear 33 1009 33 7000 6.69 310 11:19 03.04.2021
1591 Clear 33 1009 26 6000 6.69 300 10:45 03.04.2021
1592 Clear 33 1009 24 8000 5.14 290 10:25 03.04.2021
1593 Clear 35 1009 9 10000 4.12 260 09:29 03.04.2021
1594 Clear 34 1009 11 10000 4.12 240 08:59 03.04.2021
1595 Clear 33 1010 18 9000 6.17 260 08:32 03.04.2021
1596 Clear 31 1009 20 10000 4.63 210 07:30 03.04.2021
1597 Clear 30 1008 26 10000 4.63 210 06:53 03.04.2021
1598 Clear 27 1006 47 10000 3.09 200 03:54 03.04.2021
1599 Clear 27 1006 34 10000 3.6 190 02:55 03.04.2021
1600 Clear 28 1006 30 10000 2.57 190 02:28 03.04.2021
1601 Clear 28 1007 28 10000 2.57 190 00:32 03.04.2021
1602 Clear 29 1007 24 10000 2.57 180 23:59 02.04.2021
1603 Clear 28 1007 36 10000 2.57 170 23:30 02.04.2021
1604 Clear 28 1008 44 10000 3.09 150 22:56 02.04.2021
1605 Clear 28 1008 44 10000 3.09 150 22:38 02.04.2021
1606 Clear 28 1008 54 10000 2.06 140 21:59 02.04.2021
1607 Clear 28 1009 54 10000 0.51 0 21:40 02.04.2021
1608 Clear 28 1009 54 10000 0.51 0 21:18 02.04.2021
1609 Clear 27 1009 65 10000 0.51 0 20:38 02.04.2021
1610 Clear 27 1009 69 10000 1.03 0 20:20 02.04.2021
1611 Clear 27 1008 69 10000 2.06 360 19:41 02.04.2021
1612 Clear 27 1008 69 10000 2.06 360 19:22 02.04.2021
1613 Clear 28 1008 42 10000 1.03 0 18:46 02.04.2021
1614 Clear 28 1008 39 10000 1.54 50 18:28 02.04.2021
1615 Clear 29 1008 48 10000 1.54 20 17:54 02.04.2021
1616 Clear 29 1008 51 10000 3.09 70 17:24 02.04.2021
1617 Clear 32 1008 31 10000 3.6 130 16:24 02.04.2021
1618 Clear 33 1008 25 10000 4.12 120 15:43 02.04.2021
1619 Clear 34 1008 17 10000 4.63 100 15:19 02.04.2021
1620 Clear 36 1008 16 10000 4.63 90 14:33 02.04.2021
1621 Clear 35 1008 18 10000 3.6 80 13:50 02.04.2021
1622 Clear 35 1008 17 10000 3.09 70 13:27 02.04.2021
1623 Clear 36 1008 18 10000 4.12 60 12:55 02.04.2021
1624 Clear 37 1009 9 10000 1.54 0 12:21 02.04.2021
1625 Clear 36 1009 10 10000 2.57 250 11:59 02.04.2021
1626 Clear 36 1010 10 10000 2.57 220 11:38 02.04.2021
1627 Clear 36 1010 10 10000 2.57 220 11:18 02.04.2021
1628 Clear 35 1011 14 10000 3.09 190 10:42 02.04.2021
1629 Clear 35 1011 14 10000 3.09 190 10:20 02.04.2021
1630 Clear 34 1011 15 10000 3.6 190 09:39 02.04.2021
1631 Clear 33 1011 16 10000 4.12 190 09:20 02.04.2021
1632 Clear 33 1011 17 10000 3.6 180 08:44 02.04.2021
1633 Clear 32 1011 20 9000 3.6 190 08:22 02.04.2021
1634 Clear 29 1011 28 8000 4.12 190 07:20 02.04.2021
1635 Clear 26 1011 50 8000 3.09 210 06:31 02.04.2021
1636 Clear 25 1010 47 10000 1.54 190 03:24 02.04.2021
1637 Clear 25 1010 57 10000 1.03 140 00:56 02.04.2021
1638 Clear 25 1010 57 10000 0.51 150 00:38 02.04.2021
1639 Clear 25 1011 53 10000 1.54 160 23:43 01.04.2021
1640 Clear 25 1011 61 10000 2.06 140 23:25 01.04.2021
1641 Clear 26 1011 50 9000 0.51 0 22:22 01.04.2021
1642 Clear 26 1011 50 9000 0.51 0 21:56 01.04.2021
1643 Clear 26 1011 50 9000 1.03 0 21:38 01.04.2021
1644 Clear 26 1011 50 9000 1.03 0 21:18 01.04.2021
1645 Clear 26 1011 47 9000 1.03 120 20:33 01.04.2021
1646 Clear 27 1011 41 10000 2.06 120 19:58 01.04.2021
1647 Clear 27 1011 41 10000 2.06 120 19:39 01.04.2021
1648 Clear 27 1011 44 10000 2.06 140 18:54 01.04.2021
1649 Clear 27 1011 44 10000 2.06 140 18:36 01.04.2021
1650 Clear 27 1010 47 10000 3.09 130 18:18 01.04.2021
1651 Clear 28 1010 36 9000 3.09 120 17:39 01.04.2021
1652 Clear 28 1010 36 9000 3.09 120 17:20 01.04.2021
1653 Clear 29 1010 39 9000 3.09 120 16:44 01.04.2021
1654 Clear 30 1010 35 8000 3.09 120 15:57 01.04.2021
1655 Clear 30 1010 30 8000 3.6 110 15:24 01.04.2021
1656 Clear 31 1010 29 8000 4.12 100 14:55 01.04.2021
1657 Clear 32 1010 22 8000 4.63 100 14:37 01.04.2021
1658 Clear 32 1010 22 8000 4.63 100 14:19 01.04.2021
1659 Clear 31 1010 25 7000 4.63 110 13:32 01.04.2021
1660 Clear 32 1010 22 7000 5.14 100 12:58 01.04.2021
1661 Clear 32 1011 21 7000 4.63 90 12:39 01.04.2021
1662 Clear 32 1011 21 6000 4.12 100 12:20 01.04.2021
1663 Clear 32 1011 21 6000 4.12 100 11:43 01.04.2021
1664 Clear 32 1011 21 6000 4.12 100 11:18 01.04.2021
1665 Clear 31 1011 19 7000 3.6 110 10:46 01.04.2021
1666 Clear 32 1012 17 8000 1.54 0 10:27 01.04.2021
1667 Clear 32 1013 19 9000 2.06 170 09:32 01.04.2021
1668 Clear 31 1013 19 9000 2.57 160 08:58 01.04.2021
1669 Clear 31 1013 19 9000 2.57 160 08:32 01.04.2021
1670 Clear 27 1012 32 10000 2.06 180 07:22 01.04.2021
1671 Clear 27 1012 34 10000 2.06 180 06:57 01.04.2021
1672 Clear 26 1012 31 10000 1.54 180 06:20 01.04.2021
1673 Clear 22 1010 60 10000 0.51 0 03:20 01.04.2021
1674 Clear 23 1011 60 10000 0.51 0 00:23 01.04.2021
1675 Clear 23 1011 60 10000 1.03 0 23:44 31.03.2021
1676 Clear 23 1012 64 10000 1.54 150 22:56 31.03.2021
1677 Clear 23 1012 64 10000 1.54 150 22:37 31.03.2021
1678 Clear 23 1012 68 10000 1.03 0 22:18 31.03.2021
1679 Clear 23 1012 64 10000 1.54 140 21:40 31.03.2021
1680 Clear 23 1012 64 10000 1.54 140 21:19 31.03.2021
1681 Clear 23 1012 64 10000 1.54 140 21:19 31.03.2021
1682 Clear 23 1012 68 10000 1.03 110 20:41 31.03.2021
1683 Clear 24 1012 68 10000 1.03 110 20:22 31.03.2021
1684 Clear 24 1012 60 10000 1.54 80 19:43 31.03.2021
1685 Clear 24 1012 57 10000 1.03 0 19:21 31.03.2021
1686 Clear 25 1011 50 10000 2.57 50 18:57 31.03.2021
1687 Clear 25 1011 47 10000 2.06 40 18:38 31.03.2021
1688 Clear 25 1011 50 10000 2.57 20 17:44 31.03.2021
1689 Clear 25 1011 50 10000 2.57 20 17:44 31.03.2021
1690 Clear 26 1011 44 10000 3.6 10 17:25 31.03.2021
1691 Clear 27 1011 41 10000 3.09 20 16:55 31.03.2021
1692 Clear 27 1011 41 10000 3.09 20 16:36 31.03.2021
1693 Clear 28 1011 32 10000 3.6 30 15:58 31.03.2021
1694 Clear 28 1011 32 10000 3.6 30 15:40 31.03.2021
1695 Clear 29 1011 34 10000 4.12 350 15:18 31.03.2021
1696 Clear 31 1011 27 10000 3.6 360 14:41 31.03.2021
1697 Clear 31 1011 27 10000 3.6 360 14:18 31.03.2021
1698 Clear 31 1011 19 10000 4.63 10 13:24 31.03.2021
1699 Clear 31 1011 18 10000 4.63 10 12:41 31.03.2021
1700 Clear 31 1011 18 10000 4.63 10 12:19 31.03.2021
1701 Clear 30 1012 20 10000 4.12 10 11:39 31.03.2021
1702 Clear 30 1012 18 10000 4.12 360 11:20 31.03.2021
1703 Clear 31 1013 19 10000 3.6 360 10:46 31.03.2021
1704 Clear 31 1013 19 10000 3.6 360 10:46 31.03.2021
1705 Clear 30 1013 17 10000 3.6 320 10:24 31.03.2021
1706 Clear 30 1013 19 10000 3.09 300 09:37 31.03.2021
1707 Clear 29 1014 24 10000 4.12 330 08:51 31.03.2021
1708 Clear 28 1014 24 10000 4.12 330 08:32 31.03.2021
1709 Clear 26 1014 29 10000 4.12 310 07:43 31.03.2021
1710 Clear 23 1012 43 10000 4.12 310 06:36 31.03.2021
1711 Clear 20 1011 53 10000 4.12 310 03:46 31.03.2021
1712 Clear 22 1010 46 10000 4.12 300 00:55 31.03.2021
1713 Clear 22 1011 43 10000 3.6 310 00:27 31.03.2021
1714 Clear 22 1011 43 10000 4.63 300 23:59 30.03.2021
1715 Clear 22 1011 41 10000 4.12 310 23:29 30.03.2021
1716 Clear 22 1011 43 10000 3.09 310 22:56 30.03.2021
1717 Clear 22 1011 43 10000 3.09 310 22:38 30.03.2021
1718 Clear 22 1011 43 10000 3.6 310 22:20 30.03.2021
1719 Clear 23 1011 41 10000 4.12 310 21:42 30.03.2021
1720 Clear 23 1011 38 10000 3.6 310 21:19 30.03.2021
1721 Clear 23 1011 35 10000 4.12 310 20:51 30.03.2021
1722 Clear 23 1011 38 10000 3.6 310 20:27 30.03.2021
1723 Clear 24 1011 33 10000 4.12 310 19:50 30.03.2021
1724 Clear 24 1011 31 10000 4.12 310 19:23 30.03.2021
1725 Clear 25 1011 27 10000 4.12 320 18:36 30.03.2021
1726 Clear 27 1011 22 10000 5.14 330 17:52 30.03.2021
1727 Clear 26 1011 22 10000 5.14 330 17:32 30.03.2021
1728 Clear 28 1011 26 10000 6.69 350 16:48 30.03.2021
1729 Clear 27 1011 26 10000 6.69 350 16:28 30.03.2021
1730 Clear 29 1011 23 10000 7.72 340 15:43 30.03.2021
1731 Clear 29 1011 26 10000 8.23 350 15:20 30.03.2021
1732 Clear 29 1011 26 10000 8.23 350 14:48 30.03.2021
1733 Clear 30 1011 28 10000 8.23 350 14:21 30.03.2021
1734 Clear 30 1011 28 10000 8.23 350 14:21 30.03.2021
1735 Clear 29 1011 28 10000 8.23 360 13:54 30.03.2021
1736 Clear 30 1011 22 10000 8.75 350 13:36 30.03.2021
1737 Clear 30 1012 22 10000 8.75 340 12:44 30.03.2021
1738 Clear 30 1012 20 10000 9.26 350 12:26 30.03.2021
1739 Clear 30 1012 23 10000 9.26 350 11:50 30.03.2021
1740 Clear 30 1013 26 10000 8.23 350 11:21 30.03.2021
1741 Clear 29 1013 20 10000 5.66 320 10:43 30.03.2021
1742 Clear 29 1013 20 10000 5.66 320 10:20 30.03.2021
1743 Clear 28 1014 26 10000 7.72 330 09:43 30.03.2021
1744 Clear 28 1014 26 10000 7.72 330 09:24 30.03.2021
1745 Clear 27 1014 28 10000 7.2 330 08:51 30.03.2021
1746 Clear 26 1014 32 10000 5.14 320 08:32 30.03.2021
1747 Clear 24 1014 41 10000 6.69 320 07:50 30.03.2021
1748 Clear 24 1014 43 10000 6.69 320 07:21 30.03.2021
1749 Clear 21 1013 52 10000 6.69 310 05:25 30.03.2021
1750 Clear 20 1012 49 10000 6.17 310 03:23 30.03.2021
1751 Clear 20 1012 52 10000 5.66 310 00:26 30.03.2021
1752 Clear 20 1013 52 10000 5.66 310 23:29 29.03.2021
1753 Clear 20 1013 52 10000 6.69 310 22:43 29.03.2021
1754 Clear 20 1013 52 10000 6.69 320 21:59 29.03.2021
1755 Clear 20 1013 52 10000 6.17 320 21:37 29.03.2021
1756 Clear 20 1013 52 10000 6.17 310 20:59 29.03.2021
1757 Clear 20 1013 52 10000 6.17 310 20:38 29.03.2021
1758 Clear 21 1013 52 10000 5.66 310 20:20 29.03.2021
1759 Clear 21 1013 46 10000 5.14 310 19:45 29.03.2021
1760 Clear 21 1013 43 10000 7.2 320 19:18 29.03.2021
1761 Clear 21 1013 49 10000 6.17 320 18:40 29.03.2021
1762 Clear 22 1013 43 10000 5.14 320 18:20 29.03.2021
1763 Clear 22 1013 43 10000 5.14 320 17:39 29.03.2021
1764 Clear 23 1013 35 10000 7.2 320 16:59 29.03.2021
1765 Clear 24 1013 35 10000 7.2 320 16:35 29.03.2021
1766 Clear 25 1013 31 10000 7.2 330 15:52 29.03.2021
1767 Clear 26 1013 31 10000 7.2 330 15:34 29.03.2021
1768 Clear 27 1013 26 10000 8.75 330 14:55 29.03.2021
1769 Clear 27 1013 28 10000 10.29 330 14:33 29.03.2021
1770 Clear 27 1013 28 10000 8.23 330 13:52 29.03.2021
1771 Clear 27 1013 28 10000 10.29 330 13:26 29.03.2021
1772 Clear 28 1014 24 10000 8.75 320 12:50 29.03.2021
1773 Clear 28 1014 24 10000 8.23 330 12:21 29.03.2021
1774 Clear 27 1015 28 10000 9.26 330 11:40 29.03.2021
1775 Clear 27 1015 28 10000 9.26 330 11:22 29.03.2021
1776 Clear 27 1015 30 10000 7.72 320 10:36 29.03.2021
1777 Clear 26 1016 34 10000 8.23 310 09:44 29.03.2021
1778 Clear 25 1016 41 10000 7.72 310 08:59 29.03.2021
1779 Clear 25 1016 41 10000 8.23 320 08:28 29.03.2021
1780 Clear 23 1016 43 10000 7.2 320 07:41 29.03.2021
1781 Clear 21 1015 56 10000 7.2 320 06:42 29.03.2021
1782 Clear 20 1014 56 10000 6.69 320 03:59 29.03.2021
1783 Clear 20 1013 49 10000 6.69 310 01:58 29.03.2021
1784 Clear 20 1014 49 10000 5.66 310 00:23 29.03.2021
1785 Clear 20 1014 49 10000 5.66 310 23:50 28.03.2021
1786 Clear 20 1014 52 10000 6.17 320 23:19 28.03.2021
1787 Clear 20 1014 52 10000 6.69 320 22:41 28.03.2021
1788 Clear 20 1014 52 10000 7.2 320 22:21 28.03.2021
1789 Clear 20 1014 52 10000 7.2 320 21:42 28.03.2021
1790 Clear 20 1014 52 10000 6.69 310 21:23 28.03.2021
1791 Clear 20 1015 56 10000 6.17 310 20:50 28.03.2021
1792 Clear 20 1015 56 10000 6.17 310 20:50 28.03.2021
1793 Clear 20 1014 56 10000 6.17 310 20:32 28.03.2021
1794 Clear 21 1015 56 10000 7.72 310 19:46 28.03.2021
1795 Clear 21 1014 52 10000 7.72 310 19:23 28.03.2021
1796 Clear 21 1014 52 10000 7.2 310 18:58 28.03.2021
1797 Clear 21 1014 52 10000 7.2 310 18:58 28.03.2021
1798 Clear 21 1014 49 10000 8.23 310 18:32 28.03.2021
1799 Clear 22 1013 49 10000 6.69 310 17:56 28.03.2021
1800 Clear 22 1013 46 10000 7.2 310 17:34 28.03.2021
1801 Clear 24 1013 38 10000 7.2 320 16:55 28.03.2021
1802 Clear 24 1013 33 10000 7.2 320 16:24 28.03.2021
1803 Clear 25 1013 36 10000 8.23 310 15:49 28.03.2021
1804 Clouds 25 1013 34 9000 7.2 310 15:24 28.03.2021
1805 Clouds 27 1013 30 9000 7.72 320 14:39 28.03.2021
1806 Clouds 27 1013 30 9000 7.72 320 13:55 28.03.2021
1807 Clouds 27 1013 32 9000 9.26 330 13:34 28.03.2021
1808 Clouds 27 1013 32 9000 8.75 330 12:55 28.03.2021
1809 Clouds 27 1013 32 8000 9.26 330 12:34 28.03.2021
1810 Clouds 27 1014 32 8000 9.26 330 11:50 28.03.2021
1811 Clouds 27 1014 34 8000 6.69 320 11:32 28.03.2021
1812 Clouds 26 1015 34 8000 9.77 330 10:47 28.03.2021
1813 Clouds 26 1015 36 8000 8.75 320 10:28 28.03.2021
1814 Clouds 26 1015 36 8000 7.72 310 09:50 28.03.2021
1815 Clear 26 1015 38 8000 9.26 330 09:27 28.03.2021
1816 Clear 25 1015 38 8000 8.23 330 08:48 28.03.2021
1817 Clouds 25 1015 41 8000 8.23 320 08:23 28.03.2021
1818 Clouds 24 1015 50 9000 8.75 330 07:38 28.03.2021
1819 Clouds 22 1014 56 9000 8.23 320 05:34 28.03.2021
1820 Clear 23 1012 53 10000 8.23 320 03:26 28.03.2021
1821 Clear 23 1012 53 10000 8.23 330 00:34 28.03.2021
1822 Clear 24 1012 57 10000 8.75 330 23:50 27.03.2021
1823 Clear 24 1012 57 10000 8.23 330 23:32 27.03.2021
1824 Clear 25 1012 61 10000 7.72 330 22:40 27.03.2021
1825 Clear 26 1012 44 10000 6.17 330 22:20 27.03.2021
1826 Clear 27 1011 34 10000 5.14 310 21:41 27.03.2021
1827 Clear 28 1011 34 10000 5.14 310 21:20 27.03.2021
1828 Clear 28 1011 39 10000 6.69 290 20:55 27.03.2021
1829 Clear 28 1010 39 10000 1.03 0 20:37 27.03.2021
1830 Clear 28 1010 44 10000 2.57 130 19:46 27.03.2021
1831 Clear 28 1010 50 10000 3.6 140 19:24 27.03.2021
1832 Clear 28 1010 54 10000 3.09 130 18:57 27.03.2021
1833 Clear 28 1010 57 10000 3.09 130 18:38 27.03.2021
1834 Clear 29 1010 57 10000 3.09 130 18:19 27.03.2021
1835 Clear 29 1010 45 10000 2.06 110 17:29 27.03.2021
1836 Clear 30 1010 42 10000 2.06 120 16:54 27.03.2021
1837 Clear 31 1010 37 10000 2.57 130 16:36 27.03.2021
1838 Clear 33 1010 30 10000 3.6 100 16:18 27.03.2021
1839 Clear 33 1010 30 10000 3.6 100 15:38 27.03.2021
1840 Clear 35 1009 24 10000 3.6 100 14:55 27.03.2021
1841 Clear 35 1009 23 10000 4.12 110 14:23 27.03.2021
1842 Clear 36 1009 23 10000 4.63 110 13:36 27.03.2021
1843 Clear 36 1009 24 10000 4.63 110 13:18 27.03.2021
1844 Clear 37 1010 26 10000 4.63 110 12:35 27.03.2021
1845 Clear 37 1010 11 10000 4.63 170 11:47 27.03.2021
1846 Clear 37 1011 10 10000 5.66 170 11:28 27.03.2021
1847 Clear 36 1011 13 10000 5.66 170 10:48 27.03.2021
1848 Clear 36 1011 14 10000 6.69 160 10:29 27.03.2021
1849 Clear 35 1012 16 10000 7.2 160 09:42 27.03.2021
1850 Clear 35 1012 15 10000 6.69 180 09:18 27.03.2021
1851 Clear 35 1012 15 10000 6.69 180 09:18 27.03.2021
1852 Clear 34 1012 15 10000 5.66 170 08:36 27.03.2021
1853 Clear 32 1012 33 10000 4.12 180 07:42 27.03.2021
1854 Clear 30 1011 39 10000 7.2 150 06:59 27.03.2021
1855 Clear 30 1011 39 10000 7.2 150 06:39 27.03.2021
1856 Clear 24 1011 83 10000 3.09 150 04:41 27.03.2021
1857 Clear 24 1010 83 10000 2.06 140 01:36 27.03.2021
1858 Clear 24 1010 69 10000 1.54 130 00:32 27.03.2021
1859 Clear 25 1010 61 10000 2.06 130 23:59 26.03.2021
1860 Clear 26 1010 61 10000 2.57 140 23:24 26.03.2021
1861 Clear 26 1010 65 10000 2.57 130 22:39 26.03.2021
1862 Clear 26 1011 57 10000 1.54 120 21:42 26.03.2021
1863 Clear 26 1011 57 10000 1.03 0 21:22 26.03.2021
1864 Clear 26 1011 57 10000 1.54 150 20:54 26.03.2021
1865 Clear 26 1011 61 10000 2.06 140 20:31 26.03.2021
1866 Clear 26 1011 61 10000 1.54 90 19:51 26.03.2021
1867 Clear 26 1011 61 10000 1.54 110 19:32 26.03.2021
1868 Clear 26 1011 61 10000 2.06 80 18:49 26.03.2021
1869 Clear 26 1010 61 10000 3.09 90 18:30 26.03.2021
1870 Clear 27 1010 61 10000 2.57 90 17:50 26.03.2021
1871 Clear 26 1010 61 10000 3.09 80 17:23 26.03.2021
1872 Clear 27 1010 61 10000 4.12 70 16:36 26.03.2021
1873 Clear 28 1010 57 10000 3.09 70 15:59 26.03.2021
1874 Clear 29 1010 57 10000 3.6 70 15:35 26.03.2021
1875 Clear 31 1010 54 10000 4.12 70 14:44 26.03.2021
1876 Clear 33 1010 35 10000 4.12 80 13:51 26.03.2021
1877 Clear 34 1010 24 10000 4.12 100 13:23 26.03.2021
1878 Clear 36 1010 26 10000 5.14 120 12:35 26.03.2021
1879 Clear 36 1011 23 10000 5.14 120 11:48 26.03.2021
1880 Clear 35 1011 28 10000 5.14 120 11:29 26.03.2021
1881 Clear 36 1011 23 10000 5.14 120 10:43 26.03.2021
1882 Clear 36 1012 13 10000 6.17 170 10:19 26.03.2021
1883 Clear 36 1012 14 10000 7.2 180 09:41 26.03.2021
1884 Clear 36 1013 15 10000 6.69 170 08:49 26.03.2021
1885 Clear 35 1013 18 10000 6.17 190 08:30 26.03.2021
1886 Clear 34 1013 22 10000 6.69 190 07:44 26.03.2021
1887 Clear 33 1013 24 10000 5.14 190 07:22 26.03.2021
1888 Clear 31 1013 29 10000 5.14 180 06:55 26.03.2021
1889 Clear 28 1012 50 10000 4.63 170 05:32 26.03.2021
1890 Clear 26 1011 61 10000 5.14 160 04:18 26.03.2021
1891 Clear 26 1009 65 10000 7.2 130 00:52 26.03.2021
1892 Clear 26 1010 73 10000 5.66 130 23:53 25.03.2021
1893 Clear 26 1010 73 10000 5.14 130 23:33 25.03.2021
1894 Clear 26 1010 73 10000 4.63 130 22:41 25.03.2021
1895 Clear 25 1010 73 10000 3.6 130 22:19 25.03.2021
1896 Clear 25 1010 73 10000 3.6 130 22:19 25.03.2021
1897 Clear 26 1010 73 10000 3.6 110 21:45 25.03.2021
1898 Clear 26 1011 65 10000 3.6 110 21:24 25.03.2021
1899 Clear 26 1010 61 10000 3.09 110 20:38 25.03.2021
1900 Clear 26 1010 61 10000 3.09 110 20:18 25.03.2021
1901 Clear 26 1010 65 9000 3.6 90 19:40 25.03.2021
1902 Clear 26 1010 65 9000 3.6 90 19:21 25.03.2021
1903 Clear 25 1010 73 9000 4.12 70 18:44 25.03.2021
1904 Clear 25 1010 73 9000 4.12 70 18:25 25.03.2021
1905 Clear 25 1009 73 9000 2.57 60 17:40 25.03.2021
1906 Clear 25 1009 73 9000 2.57 60 17:21 25.03.2021
1907 Clear 25 1009 78 8000 3.09 50 16:37 25.03.2021
1908 Clear 25 1009 78 8000 3.09 50 16:19 25.03.2021
1909 Clear 26 1009 78 8000 3.09 40 15:41 25.03.2021
1910 Clear 27 1008 74 9000 3.6 40 15:19 25.03.2021
1911 Clear 27 1008 74 9000 3.6 40 14:41 25.03.2021
1912 Clear 29 1008 74 9000 4.63 30 13:40 25.03.2021
1913 Clear 31 1008 51 9000 3.6 60 13:20 25.03.2021
1914 Clear 33 1008 38 9000 4.12 90 12:38 25.03.2021
1915 Clear 33 1008 45 10000 3.09 100 12:19 25.03.2021
1916 Clear 33 1008 38 10000 5.14 130 11:45 25.03.2021
1917 Clear 33 1008 35 10000 5.66 130 11:26 25.03.2021
1918 Clear 32 1009 33 10000 6.69 130 10:50 25.03.2021
1919 Clear 32 1009 35 10000 6.17 130 10:22 25.03.2021
1920 Clear 31 1010 37 10000 7.2 130 09:54 25.03.2021
1921 Clear 31 1010 37 10000 7.2 130 09:36 25.03.2021
1922 Clear 31 1010 40 10000 7.72 140 08:42 25.03.2021
1923 Clear 30 1011 37 10000 7.72 150 07:57 25.03.2021
1924 Clear 28 1011 54 10000 7.72 140 06:59 25.03.2021
1925 Clear 27 1011 61 10000 6.69 140 06:24 25.03.2021
1926 Clear 26 1011 57 10000 6.69 150 05:47 25.03.2021
1927 Clear 24 1009 69 10000 4.12 130 02:43 25.03.2021
1928 Clear 25 1009 64 10000 3.09 140 00:21 25.03.2021
1929 Clear 25 1009 64 10000 3.09 140 23:50 24.03.2021
1930 Clear 25 1009 65 10000 3.6 130 23:25 24.03.2021
1931 Clear 26 1009 65 10000 3.6 130 22:43 24.03.2021
1932 Clear 26 1010 65 10000 4.12 130 22:20 24.03.2021
1933 Clear 25 1010 65 10000 3.09 120 21:42 24.03.2021
1934 Clear 26 1010 69 10000 3.09 120 21:21 24.03.2021
1935 Clear 26 1010 69 10000 3.09 120 20:41 24.03.2021
1936 Clear 25 1010 69 10000 3.09 120 20:19 24.03.2021
1937 Clear 25 1010 73 10000 3.6 110 19:35 24.03.2021
1938 Clear 25 1010 78 10000 3.09 110 18:58 24.03.2021
1939 Clear 25 1010 78 10000 3.09 110 18:39 24.03.2021
1940 Clear 26 1010 73 10000 3.6 110 18:20 24.03.2021
1941 Clear 26 1010 65 10000 4.63 90 17:41 24.03.2021
1942 Clear 26 1009 65 10000 3.6 100 17:22 24.03.2021
1943 Clear 27 1009 54 10000 3.6 90 16:42 24.03.2021
1944 Clear 28 1009 54 10000 3.6 90 16:23 24.03.2021
1945 Clear 28 1009 54 10000 3.6 100 15:43 24.03.2021
1946 Clear 29 1009 51 10000 3.6 110 15:23 24.03.2021
1947 Clear 30 1009 42 10000 4.12 110 14:42 24.03.2021
1948 Clear 30 1009 34 10000 5.14 120 14:23 24.03.2021
1949 Clear 32 1009 20 10000 6.17 120 13:50 24.03.2021
1950 Clear 32 1009 18 10000 5.66 120 13:25 24.03.2021
1951 Clear 33 1009 15 10000 5.66 110 12:41 24.03.2021
1952 Clear 33 1009 17 10000 5.66 110 12:21 24.03.2021
1953 Clear 32 1010 15 10000 5.66 110 11:42 24.03.2021
1954 Clear 32 1010 22 10000 4.63 130 10:53 24.03.2021
1955 Clear 32 1010 22 10000 4.63 130 10:35 24.03.2021
1956 Clear 31 1011 29 10000 5.66 130 09:58 24.03.2021
1957 Clear 31 1011 29 10000 5.66 130 09:37 24.03.2021
1958 Clear 31 1012 27 10000 5.66 130 09:18 24.03.2021
1959 Clear 32 1012 33 10000 4.63 110 08:46 24.03.2021
1960 Clear 31 1012 33 10000 3.6 110 08:24 24.03.2021
1961 Clear 30 1012 32 10000 3.09 160 07:25 24.03.2021
1962 Clear 28 1012 36 10000 3.6 170 06:49 24.03.2021
1963 Clear 23 1010 29 10000 1.54 200 03:19 24.03.2021
1964 Clear 25 1009 31 10000 2.06 150 00:45 24.03.2021
1965 Clear 25 1010 29 10000 1.54 100 23:53 23.03.2021
1966 Clear 25 1010 25 10000 2.06 200 23:20 23.03.2021
1967 Clear 25 1010 25 10000 2.06 200 22:51 23.03.2021
1968 Clear 25 1011 24 10000 1.54 240 22:27 23.03.2021
1969 Clear 26 1011 24 10000 1.03 250 21:47 23.03.2021
1970 Clear 26 1011 21 10000 1.03 0 21:29 23.03.2021
1971 Clear 27 1012 21 10000 1.03 0 20:47 23.03.2021
1972 Clear 27 1012 21 10000 1.54 280 20:25 23.03.2021
1973 Clear 27 1012 21 10000 1.03 0 19:50 23.03.2021
1974 Clear 27 1012 17 10000 1.54 300 19:26 23.03.2021
1975 Clear 28 1012 18 10000 2.06 310 18:47 23.03.2021
1976 Clear 28 1012 18 10000 2.06 310 18:24 23.03.2021
1977 Clear 28 1011 26 10000 3.09 330 17:50 23.03.2021
1978 Clear 28 1011 28 10000 3.09 340 17:23 23.03.2021
1979 Clear 28 1011 39 10000 3.09 10 16:59 23.03.2021
1980 Clear 29 1011 37 10000 4.63 360 16:25 23.03.2021
1981 Clear 29 1011 37 10000 4.63 360 15:47 23.03.2021
1982 Clear 30 1011 29 10000 3.6 10 15:22 23.03.2021
1983 Clear 31 1011 29 10000 3.6 10 14:45 23.03.2021
1984 Clear 32 1011 23 10000 4.12 20 14:19 23.03.2021
1985 Clear 34 1010 17 10000 5.14 350 13:45 23.03.2021
1986 Clear 34 1011 18 10000 5.14 360 13:23 23.03.2021
1987 Clear 33 1011 22 10000 5.14 10 12:44 23.03.2021
1988 Clear 34 1011 17 10000 4.63 10 12:23 23.03.2021
1989 Clear 35 1011 16 10000 3.6 350 11:47 23.03.2021
1990 Clear 34 1012 14 10000 4.12 310 10:59 23.03.2021
1991 Clear 35 1012 14 10000 4.12 310 10:41 23.03.2021
1992 Clear 34 1012 15 10000 3.09 300 10:20 23.03.2021
1993 Clear 34 1012 13 10000 3.6 320 09:47 23.03.2021
1994 Clear 32 1013 15 10000 2.57 330 09:22 23.03.2021
1995 Clear 30 1013 19 10000 3.09 360 08:40 23.03.2021
1996 Clear 30 1013 19 10000 3.09 360 08:22 23.03.2021
1997 Clear 29 1013 20 10000 2.57 340 07:59 23.03.2021
1998 Clear 30 1013 20 10000 2.57 320 07:22 23.03.2021
1999 Clear 28 1013 21 10000 2.06 310 06:52 23.03.2021
2000 Clear 22 1011 33 10000 1.54 320 03:24 23.03.2021
2001 Clear 22 1011 40 10000 2.06 360 02:22 23.03.2021
2002 Clear 23 1011 31 10000 1.54 340 23:46 22.03.2021
2003 Clear 23 1012 38 10000 1.54 350 22:59 22.03.2021
2004 Clear 23 1012 38 10000 1.54 350 22:39 22.03.2021
2005 Clear 23 1012 38 10000 1.54 340 22:20 22.03.2021
2006 Clear 23 1012 38 10000 1.54 340 21:43 22.03.2021
2007 Clear 23 1012 38 10000 1.03 340 21:24 22.03.2021
2008 Clear 24 1012 38 10000 1.03 340 20:42 22.03.2021
2009 Clear 24 1012 41 10000 1.54 340 20:23 22.03.2021
2010 Clear 24 1013 46 10000 2.57 330 19:57 22.03.2021
2011 Clear 24 1013 46 10000 2.57 330 19:37 22.03.2021
2012 Clear 24 1012 53 10000 3.09 350 19:19 22.03.2021
2013 Clear 24 1012 53 10000 3.09 350 18:40 22.03.2021
2014 Clear 25 1012 57 10000 3.6 350 18:21 22.03.2021
2015 Clear 25 1012 57 10000 3.09 360 17:48 22.03.2021
2016 Clear 25 1011 47 10000 2.57 10 17:22 22.03.2021
2017 Clear 26 1011 41 10000 3.09 10 16:47 22.03.2021
2018 Clear 26 1010 41 10000 4.12 30 16:22 22.03.2021
2019 Clear 26 1010 41 10000 4.12 30 15:39 22.03.2021
2020 Clear 27 1010 28 10000 3.09 50 15:20 22.03.2021
2021 Clear 30 1010 28 10000 3.6 90 14:57 22.03.2021
2022 Clear 31 1010 21 10000 4.12 100 14:34 22.03.2021
2023 Clear 31 1009 26 10000 5.14 100 13:49 22.03.2021
2024 Clear 30 1009 26 10000 5.14 100 13:28 22.03.2021
2025 Clear 32 1010 19 10000 5.14 70 12:56 22.03.2021
2026 Clear 32 1010 19 10000 5.14 70 12:26 22.03.2021
2027 Clear 34 1011 11 10000 3.6 230 11:50 22.03.2021
2028 Clear 34 1011 11 10000 3.6 230 11:29 22.03.2021
2029 Clear 34 1012 10 10000 4.12 190 10:46 22.03.2021
2030 Clear 34 1012 10 10000 4.12 190 10:26 22.03.2021
2031 Clear 33 1013 11 10000 3.6 190 09:53 22.03.2021
2032 Clear 33 1013 12 10000 4.12 180 09:32 22.03.2021
2033 Clear 32 1013 12 10000 1.54 0 08:47 22.03.2021
2034 Clear 31 1013 12 10000 2.06 200 08:28 22.03.2021
2035 Clear 30 1013 14 10000 1.54 200 07:50 22.03.2021
2036 Clear 30 1013 15 10000 1.54 230 07:31 22.03.2021
2037 Clear 28 1013 16 10000 1.54 240 06:51 22.03.2021
2038 Clear 28 1013 16 10000 1.54 240 06:51 22.03.2021
2039 Clear 21 1011 23 10000 1.54 260 02:47 22.03.2021
2040 Clear 22 1010 18 10000 1.03 0 00:49 22.03.2021
2041 Clear 22 1010 23 10000 1.54 270 23:59 21.03.2021
2042 Clear 21 1010 23 10000 1.54 270 23:39 21.03.2021
2043 Clear 22 1010 23 10000 1.03 0 23:18 21.03.2021
2044 Clear 22 1010 23 10000 1.03 0 22:43 21.03.2021
2045 Clear 23 1011 17 10000 1.54 250 21:43 21.03.2021
2046 Clear 23 1011 15 10000 0.51 0 21:25 21.03.2021
2047 Clear 23 1011 15 10000 1.54 270 20:57 21.03.2021
2048 Clear 23 1011 15 10000 1.54 270 20:38 21.03.2021
2049 Clear 23 1011 12 10000 1.54 270 20:19 21.03.2021
2050 Clear 24 1011 13 10000 1.03 0 19:40 21.03.2021
2051 Clear 24 1011 13 10000 1.54 250 19:19 21.03.2021
2052 Clear 25 1011 12 10000 1.03 0 18:41 21.03.2021
2053 Clear 25 1011 11 10000 1.54 270 18:18 21.03.2021
2054 Clear 25 1011 10 10000 2.57 310 17:42 21.03.2021
2055 Clear 26 1011 14 10000 3.09 340 17:18 21.03.2021
2056 Clear 27 1010 11 10000 4.12 310 16:49 21.03.2021
2057 Clear 27 1010 11 10000 4.12 310 16:23 21.03.2021
2058 Clear 28 1010 11 10000 4.63 320 15:48 21.03.2021
2059 Clear 28 1010 11 10000 6.17 310 15:22 21.03.2021
2060 Clear 29 1010 10 10000 6.17 330 14:48 21.03.2021
2061 Clear 29 1010 10 10000 6.17 330 14:48 21.03.2021
2062 Clear 30 1010 9 10000 5.66 320 14:27 21.03.2021
2063 Clear 30 1010 9 10000 6.17 320 13:58 21.03.2021
2064 Clear 30 1010 9 10000 6.17 320 13:39 21.03.2021
2065 Clear 30 1010 11 10000 6.17 310 12:44 21.03.2021
2066 Clear 31 1010 13 10000 5.14 310 12:25 21.03.2021
2067 Clear 31 1010 14 10000 6.17 310 11:42 21.03.2021
2068 Clear 30 1011 14 10000 6.17 310 11:24 21.03.2021
2069 Clear 30 1011 15 10000 5.66 320 10:48 21.03.2021
2070 Clear 30 1012 17 10000 5.66 320 10:29 21.03.2021
2071 Clear 29 1012 20 10000 4.63 310 09:51 21.03.2021
2072 Clear 28 1013 24 10000 5.66 310 09:32 21.03.2021
2073 Clear 27 1013 26 10000 5.66 310 08:59 21.03.2021
2074 Clear 27 1013 26 10000 5.66 310 08:36 21.03.2021
2075 Clear 26 1013 31 10000 5.14 310 08:18 21.03.2021
2076 Clear 26 1013 31 10000 4.63 320 07:29 21.03.2021
2077 Clear 23 1013 43 10000 5.66 310 06:21 21.03.2021
2078 Clear 21 1013 49 10000 4.63 310 04:56 21.03.2021
2079 Clear 20 1011 40 10000 5.14 310 00:58 21.03.2021
2080 Clear 20 1011 43 10000 5.14 310 00:39 21.03.2021
2081 Clear 20 1011 43 10000 5.14 310 00:20 21.03.2021
2082 Clear 20 1011 43 10000 5.66 310 23:45 20.03.2021
2083 Clear 20 1012 49 10000 5.66 310 23:20 20.03.2021
2084 Clear 20 1012 49 10000 5.66 310 22:25 20.03.2021
2085 Clear 20 1012 49 10000 5.14 310 21:58 20.03.2021
2086 Clear 21 1012 49 10000 5.14 310 21:40 20.03.2021
2087 Clear 21 1012 46 10000 5.14 310 21:21 20.03.2021
2088 Clear 21 1013 46 10000 5.66 310 20:41 20.03.2021
2089 Clear 21 1013 46 10000 5.66 310 20:21 20.03.2021
2090 Clear 22 1013 43 10000 5.66 310 19:41 20.03.2021
2091 Clear 22 1012 46 10000 5.66 310 19:23 20.03.2021
2092 Clear 22 1013 40 10000 6.17 310 18:46 20.03.2021
2093 Clear 22 1012 40 10000 5.14 310 18:24 20.03.2021
2094 Clear 23 1012 35 10000 5.66 320 17:48 20.03.2021
2095 Clear 23 1012 35 10000 6.17 310 17:26 20.03.2021
2096 Clear 24 1011 27 10000 6.17 320 16:44 20.03.2021
2097 Clear 24 1012 27 10000 5.66 320 16:44 20.03.2021
2098 Clear 25 1011 27 10000 6.17 320 16:20 20.03.2021
2099 Clear 25 1011 27 10000 6.17 320 15:54 20.03.2021
2100 Clear 26 1011 27 10000 6.17 320 15:33 20.03.2021
2101 Clear 27 1011 26 10000 6.69 320 14:42 20.03.2021
2102 Clear 28 1010 23 9000 9.26 340 14:22 20.03.2021
2103 Clear 28 1010 21 9000 10.29 340 13:32 20.03.2021
2104 Clear 29 1011 17 9000 9.26 330 12:44 20.03.2021
2105 Clear 29 1011 20 10000 10.29 340 12:25 20.03.2021
2106 Clear 30 1011 15 10000 8.23 330 11:44 20.03.2021
2107 Clear 30 1011 15 10000 8.75 330 11:24 20.03.2021
2108 Clear 30 1012 15 10000 9.26 330 10:54 20.03.2021
2109 Clear 30 1012 15 10000 9.26 330 10:27 20.03.2021
2110 Clear 30 1013 20 10000 7.2 330 09:55 20.03.2021
2111 Clear 30 1013 23 10000 7.72 320 09:27 20.03.2021
2112 Clear 29 1013 24 10000 7.2 320 08:56 20.03.2021
2113 Clear 28 1013 30 10000 5.14 320 08:30 20.03.2021
2114 Clear 28 1013 30 10000 5.14 320 08:30 20.03.2021
2115 Clear 27 1013 34 10000 5.14 320 07:51 20.03.2021
2116 Clear 27 1013 34 10000 5.66 320 07:31 20.03.2021
2117 Clear 25 1013 41 10000 5.14 320 06:47 20.03.2021
2118 Clear 25 1013 38 10000 6.17 330 06:18 20.03.2021
2119 Clear 23 1011 41 10000 6.69 330 03:46 20.03.2021
2120 Clear 24 1011 41 10000 6.17 330 02:44 20.03.2021
2121 Clear 23 1010 43 10000 4.12 320 23:57 19.03.2021
2122 Clear 23 1010 43 10000 4.12 320 23:30 19.03.2021
2123 Clear 23 1010 46 10000 5.14 330 22:48 19.03.2021
2124 Clear 23 1010 46 10000 3.6 330 22:27 19.03.2021
2125 Clear 23 1011 46 10000 5.14 330 21:56 19.03.2021
2126 Clear 23 1011 46 10000 5.14 330 21:22 19.03.2021
2127 Clear 23 1011 46 10000 4.12 330 20:57 19.03.2021
2128 Clear 23 1011 46 10000 4.63 320 20:39 19.03.2021
2129 Clear 23 1011 46 10000 4.63 320 20:21 19.03.2021
2130 Clear 23 1011 46 10000 4.63 330 19:43 19.03.2021
2131 Clear 23 1011 44 10000 3.6 320 19:19 19.03.2021
2132 Clear 24 1011 44 10000 3.6 320 18:40 19.03.2021
2133 Clear 25 1011 41 10000 4.12 330 18:18 19.03.2021
2134 Clear 26 1011 41 10000 4.12 330 17:51 19.03.2021
2135 Clear 26 1010 41 10000 5.14 340 17:27 19.03.2021
2136 Clear 27 1010 44 10000 5.14 330 16:52 19.03.2021
2137 Clouds 27 1010 47 9000 5.14 350 16:27 19.03.2021
2138 Clouds 28 1010 61 8000 5.66 10 15:46 19.03.2021
2139 Clouds 28 1009 37 8000 6.17 330 15:22 19.03.2021
2140 Clouds 29 1009 42 8000 6.17 350 14:45 19.03.2021
2141 Clouds 28 1009 61 8000 5.14 360 14:26 19.03.2021
2142 Clouds 30 1009 54 8000 5.14 10 13:39 19.03.2021
2143 Clear 31 1009 42 9000 5.14 360 12:51 19.03.2021
2144 Clear 31 1009 42 9000 5.14 360 12:33 19.03.2021
2145 Clear 33 1009 38 9000 6.17 360 11:42 19.03.2021
2146 Clear 34 1009 29 9000 3.09 300 10:53 19.03.2021
2147 Clear 34 1010 29 9000 2.57 300 10:30 19.03.2021
2148 Clear 33 1010 31 10000 2.57 0 09:49 19.03.2021
2149 Clear 32 1011 33 10000 4.12 290 09:30 19.03.2021
2150 Clear 31 1011 37 10000 4.12 290 08:55 19.03.2021
2151 Clear 31 1011 37 10000 4.12 290 08:37 19.03.2021
2152 Clear 30 1011 37 10000 4.12 290 07:58 19.03.2021
2153 Clear 30 1011 37 10000 4.12 290 07:36 19.03.2021
2154 Clear 28 1011 42 10000 3.6 290 06:48 19.03.2021
2155 Clear 27 1008 28 10000 3.6 290 02:45 19.03.2021
2156 Clear 28 1008 32 10000 5.14 260 00:58 19.03.2021
2157 Clear 28 1007 42 10000 4.63 170 23:30 18.03.2021
2158 Clear 28 1007 39 10000 4.12 160 22:58 18.03.2021
2159 Clear 28 1007 39 10000 4.12 160 22:39 18.03.2021
2160 Clear 28 1008 39 10000 5.14 160 22:19 18.03.2021
2161 Clear 29 1008 32 10000 5.66 160 21:39 18.03.2021
2162 Clear 28 1008 36 10000 4.12 150 20:51 18.03.2021
2163 Clear 28 1008 41 10000 3.09 150 20:32 18.03.2021
2164 Clear 28 1008 47 10000 2.06 140 19:48 18.03.2021
2165 Clear 28 1008 50 10000 2.57 140 19:29 18.03.2021
2166 Clear 29 1008 54 10000 3.09 140 18:58 18.03.2021
2167 Clear 28 1008 57 10000 2.57 130 18:34 18.03.2021
2168 Clear 28 1008 54 10000 2.06 110 17:51 18.03.2021
2169 Clear 29 1007 45 10000 2.57 110 17:26 18.03.2021
2170 Clear 29 1007 42 10000 2.57 130 16:49 18.03.2021
2171 Clear 31 1007 42 10000 3.09 130 16:30 18.03.2021
2172 Clear 32 1007 45 10000 2.57 110 15:48 18.03.2021
2173 Clear 34 1006 35 10000 2.57 90 15:28 18.03.2021
2174 Clear 37 1007 8 10000 4.12 230 14:55 18.03.2021
2175 Clear 37 1007 8 10000 4.12 230 14:33 18.03.2021
2176 Clear 38 1006 8 10000 5.14 230 13:53 18.03.2021
2177 Clear 38 1006 8 10000 5.14 220 13:26 18.03.2021
2178 Clear 38 1007 8 10000 6.17 230 12:45 18.03.2021
2179 Clear 38 1007 8 10000 5.66 240 12:27 18.03.2021
2180 Clear 38 1007 8 10000 5.66 240 12:27 18.03.2021
2181 Clear 40 1007 9 10000 6.17 230 11:55 18.03.2021
2182 Clear 40 1008 9 10000 7.2 220 11:34 18.03.2021
2183 Clear 39 1008 9 10000 5.66 220 10:49 18.03.2021
2184 Clear 39 1009 10 10000 6.69 210 10:27 18.03.2021
2185 Clear 37 1009 11 10000 5.66 210 09:57 18.03.2021
2186 Clear 37 1010 12 10000 4.63 220 09:30 18.03.2021
2187 Clear 35 1010 13 10000 5.14 190 08:55 18.03.2021
2188 Clear 35 1010 13 10000 5.14 190 08:33 18.03.2021
2189 Clear 33 1010 17 10000 5.66 200 07:54 18.03.2021
2190 Clear 32 1010 20 10000 4.63 190 07:29 18.03.2021
2191 Clear 29 1010 26 10000 4.63 180 06:37 18.03.2021
2192 Clear 29 1010 24 10000 5.14 190 06:18 18.03.2021
2193 Clear 25 1009 38 10000 4.63 180 04:27 18.03.2021
2194 Clear 24 1008 57 10000 2.57 160 00:38 18.03.2021
2195 Clear 25 1009 50 10000 3.09 170 22:59 17.03.2021
2196 Clear 25 1009 50 10000 3.09 170 22:36 17.03.2021
2197 Clear 25 1009 50 10000 3.6 150 22:18 17.03.2021
2198 Clear 26 1009 53 10000 4.12 150 21:47 17.03.2021
2199 Clear 25 1009 57 10000 3.09 150 21:29 17.03.2021
2200 Clear 25 1009 57 10000 3.09 150 20:45 17.03.2021
2201 Clear 26 1009 50 10000 3.09 150 20:25 17.03.2021
2202 Clear 26 1010 53 10000 3.6 140 19:54 17.03.2021
2203 Clear 26 1010 57 10000 2.57 140 19:25 17.03.2021
2204 Clear 26 1009 57 10000 2.57 120 18:59 17.03.2021
2205 Clear 26 1009 57 10000 2.57 120 18:40 17.03.2021
2206 Clear 26 1009 53 10000 2.06 100 17:58 17.03.2021
2207 Clear 26 1009 50 10000 2.57 100 17:27 17.03.2021
2208 Clear 26 1009 53 10000 2.57 80 16:57 17.03.2021
2209 Clear 27 1009 53 10000 2.57 80 16:37 17.03.2021
2210 Clear 28 1009 44 8000 3.09 70 16:19 17.03.2021
2211 Clear 28 1009 44 8000 3.09 70 15:40 17.03.2021
2212 Clear 30 1009 32 6000 3.6 110 14:46 17.03.2021
2213 Clear 30 1009 26 6000 3.6 100 14:28 17.03.2021
2214 Clear 30 1009 32 7000 3.6 90 13:56 17.03.2021
2215 Clear 30 1009 35 8000 4.12 80 13:38 17.03.2021
2216 Clear 30 1009 30 8000 5.14 80 12:59 17.03.2021
2217 Clear 30 1009 30 8000 5.14 80 12:34 17.03.2021
2218 Clear 30 1010 27 9000 5.14 80 11:54 17.03.2021
2219 Clear 30 1011 32 10000 4.63 80 11:27 17.03.2021
2220 Clear 29 1011 35 10000 4.63 70 10:59 17.03.2021
2221 Clear 29 1012 39 10000 4.63 80 10:40 17.03.2021
2222 Clear 29 1012 45 10000 3.09 90 09:59 17.03.2021
2223 Clear 29 1012 45 10000 3.09 90 09:41 17.03.2021
2224 Clear 28 1012 57 10000 3.6 70 09:20 17.03.2021
2225 Clear 26 1013 69 10000 4.12 50 08:44 17.03.2021
2226 Clear 26 1013 69 9000 3.6 60 08:24 17.03.2021
2227 Clear 25 1013 83 8000 4.63 30 07:37 17.03.2021
2228 Clear 25 1012 73 10000 3.09 120 06:48 17.03.2021
2229 Fog 21 1011 100 200 1.54 130 04:28 17.03.2021
2230 Clear 21 1011 100 6000 0.51 120 03:31 17.03.2021
2231 Mist 22 1010 94 4000 2.06 120 00:44 17.03.2021
2232 Mist 22 1010 94 4000 1.54 110 00:24 17.03.2021
2233 Mist 22 1011 100 5000 1.54 80 23:25 16.03.2021
2234 Clouds 22 1011 100 6000 1.54 70 22:44 16.03.2021
2235 Clouds 22 1011 94 7000 1.54 50 22:25 16.03.2021
2236 Clouds 22 1012 88 7000 2.06 30 21:43 16.03.2021
2237 Clouds 22 1012 88 7000 2.06 40 21:25 16.03.2021
2238 Clouds 22 1012 88 7000 2.06 40 20:56 16.03.2021
2239 Clouds 22 1012 94 9000 2.57 70 20:19 16.03.2021
2240 Clear 22 1012 94 10000 2.06 80 19:48 16.03.2021
2241 Clear 22 1012 94 10000 2.06 60 19:27 16.03.2021
2242 Clear 22 1012 94 10000 2.57 70 18:53 16.03.2021
2243 Clear 22 1012 94 10000 2.57 70 18:35 16.03.2021
2244 Clear 23 1012 83 10000 2.57 40 17:52 16.03.2021
2245 Clear 23 1012 83 10000 2.57 40 17:33 16.03.2021
2246 Clear 23 1012 83 10000 2.57 30 16:54 16.03.2021
2247 Clear 23 1012 83 10000 2.57 30 16:54 16.03.2021
2248 Clear 23 1012 83 10000 2.57 30 16:54 16.03.2021
2249 Clouds 23 1011 83 9000 2.57 10 16:31 16.03.2021
2250 Clouds 24 1011 83 9000 2.57 30 15:59 16.03.2021
2251 Clouds 24 1011 69 9000 2.57 50 15:38 16.03.2021
2252 Clouds 24 1011 69 9000 2.57 50 15:19 16.03.2021
2253 Clouds 25 1011 65 9000 3.09 50 14:42 16.03.2021
2254 Clear 25 1011 61 10000 3.09 80 14:23 16.03.2021
2255 Clear 26 1011 41 10000 3.09 100 13:58 16.03.2021
2256 Clear 26 1011 57 10000 3.09 100 13:29 16.03.2021
2257 Clear 26 1012 57 10000 2.57 110 12:56 16.03.2021
2258 Clear 26 1012 57 10000 2.57 110 12:37 16.03.2021
2259 Clear 27 1012 61 10000 3.6 120 12:18 16.03.2021
2260 Clear 27 1012 57 10000 3.6 110 11:35 16.03.2021
2261 Clear 26 1013 61 10000 3.6 120 10:50 16.03.2021
2262 Clear 26 1013 65 10000 3.6 120 10:21 16.03.2021
2263 Clear 26 1014 53 10000 3.6 120 09:40 16.03.2021
2264 Clear 25 1014 57 10000 2.57 110 09:20 16.03.2021
2265 Clear 26 1015 61 10000 2.06 100 08:55 16.03.2021
2266 Clear 26 1015 61 10000 2.06 100 08:36 16.03.2021
2267 Clear 25 1015 64 10000 1.54 130 07:53 16.03.2021
2268 Clear 24 1015 73 10000 1.54 40 07:24 16.03.2021
2269 Clear 24 1015 73 10000 1.54 40 07:24 16.03.2021
2270 Clouds 22 1015 73 9000 1.03 0 06:38 16.03.2021
2271 Clouds 21 1014 78 9000 0.51 0 05:36 16.03.2021
2272 Clear 18 1013 82 10000 0.51 0 04:26 16.03.2021
2273 Clear 19 1012 82 10000 2.06 150 02:26 16.03.2021
2274 Clear 19 1012 82 10000 0.51 350 00:39 16.03.2021
2275 Clear 19 1012 82 10000 0.51 0 23:54 15.03.2021
2276 Clear 20 1013 77 10000 1.03 0 23:19 15.03.2021
2277 Clear 20 1013 77 10000 1.03 0 22:43 15.03.2021
2278 Clear 20 1013 77 10000 1.03 120 22:24 15.03.2021
2279 Clear 20 1014 77 10000 1.03 0 21:49 15.03.2021
2280 Clear 20 1014 77 10000 2.57 10 21:28 15.03.2021
2281 Clear 20 1014 77 10000 2.57 10 20:54 15.03.2021
2282 Clear 20 1014 77 10000 2.57 20 20:36 15.03.2021
2283 Clear 20 1014 77 10000 2.57 20 20:18 15.03.2021
2284 Clear 20 1014 77 10000 2.57 20 19:43 15.03.2021
2285 Clear 20 1014 77 10000 3.09 10 19:22 15.03.2021
2286 Clear 21 1014 77 10000 2.57 10 18:47 15.03.2021
2287 Clear 21 1014 68 10000 3.6 360 18:23 15.03.2021
2288 Clear 21 1013 73 10000 2.57 10 17:55 15.03.2021
2289 Clear 21 1013 68 10000 2.57 20 17:28 15.03.2021
2290 Clear 21 1013 68 10000 3.09 360 16:49 15.03.2021
2291 Clear 21 1013 68 10000 3.6 10 16:20 15.03.2021
2292 Clear 22 1013 60 10000 3.09 20 15:39 15.03.2021
2293 Clear 22 1013 60 10000 3.09 20 15:20 15.03.2021
2294 Clear 22 1013 60 10000 3.6 20 14:41 15.03.2021
2295 Clear 23 1013 53 10000 3.09 80 14:21 15.03.2021
2296 Clear 23 1013 53 10000 3.09 80 13:46 15.03.2021
2297 Clear 23 1013 60 10000 4.12 90 13:24 15.03.2021
2298 Clear 24 1013 53 10000 4.12 110 12:47 15.03.2021
2299 Clear 24 1013 53 10000 4.12 110 12:18 15.03.2021
2300 Clear 24 1013 50 10000 3.09 70 11:47 15.03.2021
2301 Clear 25 1013 41 10000 4.12 50 11:29 15.03.2021
2302 Clear 26 1014 36 10000 2.57 30 10:45 15.03.2021
2303 Clear 26 1014 36 10000 2.57 30 10:45 15.03.2021
2304 Clear 24 1014 38 10000 3.09 10 10:26 15.03.2021
2305 Clear 24 1014 38 10000 3.09 10 10:26 15.03.2021
2306 Clear 23 1014 38 10000 3.6 360 09:48 15.03.2021
2307 Clear 23 1015 38 10000 2.57 350 09:30 15.03.2021
2308 Clear 24 1015 40 10000 2.57 360 08:47 15.03.2021
2309 Clear 22 1015 38 10000 3.09 360 08:27 15.03.2021
2310 Clear 22 1015 40 10000 3.09 360 07:43 15.03.2021
2311 Clear 21 1015 43 10000 4.12 350 07:24 15.03.2021
2312 Clear 19 1015 52 10000 4.12 340 06:21 15.03.2021
2313 Clear 15 1014 77 10000 1.03 0 04:00 15.03.2021
2314 Clear 16 1013 77 10000 1.54 320 01:25 15.03.2021
2315 Clear 16 1014 72 10000 1.54 10 23:45 14.03.2021
2316 Clear 15 1014 72 10000 2.06 350 23:19 14.03.2021
2317 Clear 17 1014 67 10000 2.06 330 22:39 14.03.2021
2318 Clear 16 1014 67 10000 1.54 340 22:18 14.03.2021
2319 Clear 17 1014 67 10000 2.06 340 21:41 14.03.2021
2320 Clear 17 1015 63 10000 3.09 340 21:18 14.03.2021
2321 Clear 18 1015 55 10000 3.09 330 20:42 14.03.2021
2322 Clear 18 1015 55 10000 3.09 330 20:24 14.03.2021
2323 Clear 19 1015 48 10000 3.09 340 19:42 14.03.2021
2324 Clear 19 1015 48 10000 3.6 340 19:20 14.03.2021
2325 Clear 19 1014 39 10000 3.6 340 18:46 14.03.2021
2326 Clear 20 1014 34 10000 2.57 340 18:18 14.03.2021
2327 Clear 21 1014 30 10000 3.6 340 17:39 14.03.2021
2328 Clear 21 1014 24 10000 4.12 320 17:20 14.03.2021
2329 Clear 22 1014 23 10000 3.6 320 16:42 14.03.2021
2330 Clear 22 1014 20 10000 4.63 310 16:23 14.03.2021
2331 Clear 22 1013 49 10000 3.6 10 15:52 14.03.2021
2332 Clear 22 1013 60 10000 5.14 20 15:25 14.03.2021
2333 Clear 23 1013 56 10000 4.12 20 14:41 14.03.2021
2334 Clear 24 1013 46 10000 4.63 20 14:20 14.03.2021
2335 Clear 24 1013 49 10000 4.63 20 13:48 14.03.2021
2336 Clear 25 1013 46 10000 5.14 30 13:27 14.03.2021
2337 Clear 25 1013 44 10000 5.66 10 12:44 14.03.2021
2338 Clear 26 1013 21 10000 5.66 360 12:26 14.03.2021
2339 Clear 26 1013 24 10000 6.17 10 11:42 14.03.2021
2340 Clear 26 1013 25 10000 4.63 330 11:23 14.03.2021
2341 Clear 25 1014 22 10000 4.63 320 10:38 14.03.2021
2342 Clear 25 1015 25 10000 5.66 340 10:20 14.03.2021
2343 Clear 25 1015 29 10000 5.14 320 09:59 14.03.2021
2344 Clear 25 1015 31 10000 5.66 330 09:41 14.03.2021
2345 Clear 24 1015 31 10000 5.66 330 09:20 14.03.2021
2346 Clear 24 1016 33 10000 5.14 330 08:40 14.03.2021
2347 Clear 22 1016 40 10000 5.66 320 07:59 14.03.2021
2348 Clear 22 1016 43 10000 5.14 310 07:33 14.03.2021
2349 Clear 20 1016 52 10000 3.6 310 05:38 14.03.2021
2350 Clear 17 1014 52 10000 4.12 320 01:34 14.03.2021
2351 Clear 17 1013 52 10000 4.63 310 00:49 14.03.2021
2352 Clear 17 1014 52 10000 4.12 310 00:18 14.03.2021
2353 Clear 18 1014 48 10000 4.63 310 23:42 13.03.2021
2354 Clear 18 1014 45 10000 5.14 310 23:19 13.03.2021
2355 Clear 18 1014 42 10000 4.63 310 22:47 13.03.2021
2356 Clear 18 1014 42 10000 4.63 310 22:47 13.03.2021
2357 Clear 18 1014 45 10000 4.63 320 22:24 13.03.2021
2358 Clear 18 1014 45 10000 5.14 330 21:36 13.03.2021
2359 Clear 18 1014 45 10000 5.66 330 21:18 13.03.2021
2360 Clear 19 1014 45 8000 5.66 330 20:47 13.03.2021
2361 Clear 19 1015 48 8000 5.66 330 20:26 13.03.2021
2362 Clear 19 1014 45 8000 6.69 330 19:45 13.03.2021
2363 Clear 19 1015 42 8000 6.69 330 19:24 13.03.2021
2364 Clear 20 1014 42 10000 6.17 330 18:43 13.03.2021
2365 Clear 20 1014 42 10000 7.72 340 18:20 13.03.2021
2366 Clear 21 1014 37 10000 7.2 330 17:51 13.03.2021
2367 Clear 21 1014 35 10000 6.17 330 17:32 13.03.2021
2368 Clear 21 1013 37 10000 7.2 330 16:57 13.03.2021
2369 Clear 21 1013 35 9000 6.17 320 16:38 13.03.2021
2370 Clear 22 1013 28 9000 7.2 320 15:57 13.03.2021
2371 Clear 23 1013 25 8000 7.72 320 15:21 13.03.2021
2372 Clear 24 1012 27 8000 7.2 320 14:42 13.03.2021
2373 Clear 24 1012 31 8000 7.72 330 14:23 13.03.2021
2374 Clear 24 1012 31 8000 7.72 330 14:23 13.03.2021
2375 Clear 25 1012 27 8000 7.72 320 13:30 13.03.2021
2376 Clear 26 1012 25 8000 7.72 330 12:54 13.03.2021
2377 Clear 26 1012 24 8000 8.23 330 12:36 13.03.2021
2378 Clear 26 1013 24 8000 9.26 330 11:58 13.03.2021
2379 Clear 26 1013 24 8000 9.26 330 11:39 13.03.2021
2380 Clear 26 1013 24 8000 10.29 330 11:20 13.03.2021
2381 Clear 26 1014 25 6000 9.26 340 10:36 13.03.2021
2382 Clear 26 1014 25 6000 10.29 340 10:18 13.03.2021
2383 Clear 26 1014 24 6000 9.77 340 09:33 13.03.2021
2384 Clear 25 1014 27 6000 8.75 330 08:54 13.03.2021
2385 Clear 25 1014 27 6000 8.75 330 08:54 13.03.2021
2386 Dust 24 1015 31 5000 8.75 330 08:26 13.03.2021
2387 Dust 23 1015 33 5000 9.26 330 07:58 13.03.2021
2388 Dust 23 1015 33 5000 9.26 330 07:39 13.03.2021
2389 Dust 21 1013 40 1200 10.29 330 05:31 13.03.2021
2390 Dust 22 1011 43 800 8.23 320 02:42 13.03.2021
2391 Dust 24 1010 38 100 10.8 330 00:36 13.03.2021
2392 Dust 26 1009 31 3000 10.29 330 23:48 12.03.2021
2393 Dust 26 1008 31 3000 9.77 330 23:30 12.03.2021
2394 Dust 29 1008 28 3000 11.32 340 22:41 12.03.2021
2395 Clear 30 1007 12 6000 6.69 290 22:21 12.03.2021
2396 Clear 31 1005 12 10000 7.72 190 21:39 12.03.2021
2397 Clear 31 1004 12 10000 7.72 190 21:20 12.03.2021
2398 Clear 32 1004 12 10000 8.23 180 20:54 12.03.2021
2399 Clear 32 1005 11 10000 7.72 180 20:31 12.03.2021
2400 Clear 32 1005 11 10000 7.72 180 19:48 12.03.2021
2401 Clear 32 1005 11 8000 6.69 180 19:30 12.03.2021
2402 Clear 33 1005 11 8000 6.17 180 18:54 12.03.2021
2403 Clear 33 1005 11 8000 5.14 180 18:32 12.03.2021
2404 Clear 33 1004 11 8000 5.14 180 17:46 12.03.2021
2405 Clear 33 1004 12 8000 4.63 170 17:27 12.03.2021
2406 Clear 33 1004 12 8000 4.63 170 16:51 12.03.2021
2407 Clear 32 1003 27 6000 5.14 140 16:29 12.03.2021
2408 Dust 32 1003 29 5000 4.63 140 15:50 12.03.2021
2409 Dust 33 1003 29 5000 4.63 130 15:21 12.03.2021
2410 Dust 34 1003 24 5000 6.17 150 14:46 12.03.2021
2411 Dust 34 1003 27 5000 6.17 140 14:19 12.03.2021
2412 Dust 34 1003 27 5000 6.69 140 13:41 12.03.2021
2413 Dust 34 1003 29 5000 6.17 130 13:20 12.03.2021
2414 Dust 34 1004 29 5000 6.69 130 12:50 12.03.2021
2415 Dust 34 1004 29 5000 6.69 130 12:30 12.03.2021
2416 Dust 34 1004 29 5000 6.69 130 12:30 12.03.2021
2417 Dust 34 1005 24 5000 7.2 130 11:58 12.03.2021
2418 Dust 34 1005 24 5000 7.2 130 11:38 12.03.2021
2419 Dust 34 1005 21 4500 6.69 130 11:18 12.03.2021
2420 Dust 34 1006 15 4500 8.75 160 10:44 12.03.2021
2421 Clear 33 1007 21 10000 7.2 150 10:22 12.03.2021
2422 Clouds 31 1008 23 10000 7.2 150 09:29 12.03.2021
2423 Clouds 31 1009 25 10000 7.2 150 08:57 12.03.2021
2424 Clear 30 1009 28 10000 7.2 150 08:39 12.03.2021
2425 Clear 28 1009 32 10000 7.2 170 07:41 12.03.2021
2426 Clear 28 1009 36 10000 6.69 160 07:19 12.03.2021
2427 Clear 27 1009 41 10000 6.69 160 06:41 12.03.2021
2428 Clear 24 1009 50 10000 4.12 150 05:45 12.03.2021
2429 Clear 22 1008 46 10000 0.51 0 00:52 12.03.2021
2430 Clear 23 1009 49 10000 2.57 130 23:56 11.03.2021
2431 Clear 23 1010 46 10000 2.06 140 22:58 11.03.2021
2432 Clear 23 1010 46 10000 2.06 140 22:38 11.03.2021
2433 Clear 23 1010 40 10000 1.54 150 22:18 11.03.2021
2434 Clear 22 1010 43 10000 1.54 150 21:46 11.03.2021
2435 Clear 23 1011 38 10000 1.54 150 21:22 11.03.2021
2436 Clear 23 1011 40 10000 1.03 130 20:49 11.03.2021
2437 Clear 25 1012 36 10000 1.54 150 20:22 11.03.2021
2438 Clear 24 1012 36 10000 1.54 150 19:49 11.03.2021
2439 Clear 24 1012 36 10000 1.54 170 19:30 11.03.2021
2440 Clear 24 1012 38 10000 2.06 140 18:52 11.03.2021
2441 Clear 24 1012 38 10000 2.06 140 18:34 11.03.2021
2442 Clear 25 1011 44 10000 2.06 150 17:53 11.03.2021
2443 Clear 25 1011 44 10000 1.54 140 17:32 11.03.2021
2444 Clear 26 1011 38 10000 1.54 110 16:34 11.03.2021
2445 Clear 28 1011 34 10000 2.06 110 15:56 11.03.2021
2446 Clear 27 1011 36 10000 2.06 90 15:37 11.03.2021
2447 Clear 27 1011 36 10000 2.06 90 15:19 11.03.2021
2448 Clear 30 1011 23 10000 2.57 50 14:43 11.03.2021
2449 Clear 29 1011 23 10000 2.57 40 14:18 11.03.2021
2450 Clear 29 1011 21 10000 3.6 40 13:43 11.03.2021
2451 Clear 30 1011 19 10000 3.09 30 13:21 11.03.2021
2452 Clear 30 1011 19 10000 3.09 30 12:50 11.03.2021
2453 Clear 30 1012 15 10000 4.63 360 12:28 11.03.2021
2454 Clear 31 1012 18 10000 2.57 10 11:46 11.03.2021
2455 Clear 31 1012 19 10000 4.12 10 11:27 11.03.2021
2456 Clear 30 1013 21 10000 4.12 10 10:50 11.03.2021
2457 Clear 30 1013 26 10000 3.6 10 10:25 11.03.2021
2458 Clear 30 1014 20 10000 5.66 360 09:50 11.03.2021
2459 Clear 30 1014 20 10000 4.12 350 09:32 11.03.2021
2460 Clear 29 1014 23 10000 4.12 350 08:49 11.03.2021
2461 Clear 28 1015 30 10000 4.63 340 08:24 11.03.2021
2462 Clear 27 1015 36 10000 4.63 330 07:44 11.03.2021
2463 Clear 25 1014 46 10000 5.66 340 06:54 11.03.2021
2464 Clear 24 1014 46 10000 5.66 340 06:36 11.03.2021
2465 Clear 24 1014 43 10000 5.66 340 06:18 11.03.2021
2466 Clear 21 1013 49 10000 3.09 300 02:25 11.03.2021
2467 Clear 21 1013 49 10000 3.09 300 00:22 11.03.2021
2468 Clear 21 1014 49 10000 2.57 300 23:22 10.03.2021
2469 Clear 22 1014 40 10000 3.09 300 22:41 10.03.2021
2470 Clear 22 1014 40 10000 3.09 300 22:41 10.03.2021
2471 Clear 22 1014 40 10000 3.09 300 22:41 10.03.2021
2472 Clear 22 1014 40 10000 3.09 300 22:41 10.03.2021
2473 Clear 22 1015 40 10000 3.09 300 21:58 10.03.2021
2474 Clear 22 1015 40 10000 3.09 300 21:39 10.03.2021
2475 Clear 22 1015 38 10000 3.6 330 21:20 10.03.2021
2476 Clear 21 1015 40 10000 4.63 330 20:42 10.03.2021
2477 Clear 22 1015 38 10000 5.14 330 20:23 10.03.2021
2478 Clear 22 1015 38 10000 5.14 330 20:23 10.03.2021
2479 Clear 22 1015 38 10000 5.66 330 19:40 10.03.2021
2480 Clear 22 1015 38 10000 4.63 330 19:21 10.03.2021
2481 Clear 23 1015 35 10000 4.12 330 18:44 10.03.2021
2482 Clear 23 1015 35 10000 3.09 330 18:23 10.03.2021
2483 Clear 24 1015 33 10000 4.12 340 17:43 10.03.2021
2484 Clear 23 1015 33 10000 5.14 340 17:21 10.03.2021
2485 Clear 25 1014 36 10000 5.66 340 16:55 10.03.2021
2486 Clear 25 1014 36 10000 5.66 340 16:37 10.03.2021
2487 Clear 25 1014 38 10000 5.14 350 16:18 10.03.2021
2488 Clear 25 1014 44 10000 6.69 10 15:40 10.03.2021
2489 Clear 25 1014 44 10000 6.69 10 15:21 10.03.2021
2490 Rain 26 1014 38 10000 6.69 10 14:40 10.03.2021
2491 Clear 27 1014 34 10000 6.17 360 14:19 10.03.2021
2492 Clear 28 1014 26 10000 7.2 350 13:43 10.03.2021
2493 Clear 28 1014 30 10000 7.72 360 13:18 10.03.2021
2494 Clear 28 1014 32 10000 7.2 10 12:41 10.03.2021
2495 Clear 28 1014 32 10000 7.2 10 12:18 10.03.2021
2496 Clear 29 1014 26 10000 7.2 360 11:32 10.03.2021
2497 Clear 29 1015 26 10000 7.72 350 10:57 10.03.2021
2498 Clear 29 1015 26 10000 7.72 350 10:34 10.03.2021
2499 Clear 29 1016 32 10000 7.2 350 09:59 10.03.2021
2500 Clear 29 1016 32 10000 7.2 350 09:41 10.03.2021
2501 Clear 27 1016 32 10000 6.17 340 09:21 10.03.2021
2502 Clear 27 1016 32 10000 6.17 340 08:46 10.03.2021
2503 Clear 26 1017 41 10000 4.12 340 08:28 10.03.2021
2504 Clear 25 1017 50 10000 4.12 340 07:55 10.03.2021
2505 Clear 24 1016 68 8000 3.09 340 07:30 10.03.2021
2506 Clear 23 1016 68 8000 3.09 340 06:54 10.03.2021
2507 Clear 22 1016 73 7000 2.57 350 05:59 10.03.2021
2508 Clear 20 1013 53 10000 1.54 280 02:26 10.03.2021
2509 Clear 22 1013 56 10000 2.57 290 23:49 09.03.2021
2510 Clear 22 1013 53 10000 2.06 260 22:59 09.03.2021
2511 Clear 23 1013 53 10000 2.06 260 22:38 09.03.2021
2512 Clear 22 1013 60 10000 2.06 220 22:18 09.03.2021
2513 Clear 23 1013 56 10000 1.54 220 21:45 09.03.2021
2514 Clear 23 1013 53 10000 2.06 190 21:24 09.03.2021
2515 Clear 23 1014 64 10000 2.06 170 20:58 09.03.2021
2516 Clear 22 1014 64 10000 2.06 170 20:39 09.03.2021
2517 Clear 23 1013 64 10000 2.06 160 20:19 09.03.2021
2518 Clear 23 1014 68 10000 1.03 0 19:46 09.03.2021
2519 Clear 23 1014 68 10000 1.03 0 19:25 09.03.2021
2520 Clear 23 1014 64 10000 2.06 110 18:43 09.03.2021
2521 Clear 23 1014 68 10000 1.03 0 18:25 09.03.2021
2522 Clear 23 1013 68 10000 2.06 130 17:50 09.03.2021
2523 Clear 24 1013 68 10000 2.57 130 17:29 09.03.2021
2524 Clear 25 1013 64 10000 2.06 100 16:44 09.03.2021
2525 Clear 25 1012 57 10000 2.57 120 16:26 09.03.2021
2526 Clear 25 1012 57 10000 3.6 120 15:59 09.03.2021
2527 Clear 25 1012 57 10000 3.6 120 15:36 09.03.2021
2528 Clear 26 1012 50 10000 4.12 120 15:18 09.03.2021
2529 Clear 27 1012 44 10000 4.63 110 14:28 09.03.2021
2530 Clear 28 1012 41 10000 4.12 110 13:43 09.03.2021
2531 Clear 28 1012 44 10000 4.63 110 13:22 09.03.2021
2532 Clear 28 1012 47 10000 4.63 110 12:59 09.03.2021
2533 Clear 28 1012 47 10000 4.63 110 12:38 09.03.2021
2534 Clear 28 1013 44 10000 5.66 110 11:59 09.03.2021
2535 Clear 29 1013 44 10000 5.66 110 11:39 09.03.2021
2536 Clear 28 1013 44 10000 5.14 110 11:20 09.03.2021
2537 Clear 29 1014 41 10000 5.66 110 10:41 09.03.2021
2538 Clear 29 1014 39 10000 4.63 100 10:23 09.03.2021
2539 Clear 29 1014 28 10000 3.09 150 09:58 09.03.2021
2540 Clear 29 1014 28 10000 3.09 150 09:37 09.03.2021
2541 Clear 28 1015 42 10000 3.6 170 09:18 09.03.2021
2542 Clear 28 1015 42 10000 3.6 170 08:35 09.03.2021
2543 Clear 25 1015 50 10000 3.6 130 07:48 09.03.2021
2544 Clear 25 1015 53 10000 3.09 130 07:28 09.03.2021
2545 Clear 24 1015 57 10000 3.09 130 06:59 09.03.2021
2546 Clear 21 1014 73 9000 1.54 140 05:54 09.03.2021
2547 Clear 18 1012 77 10000 2.57 160 02:27 09.03.2021
2548 Clear 19 1012 68 10000 2.06 180 00:18 09.03.2021
2549 Clear 20 1012 64 10000 1.54 210 23:39 08.03.2021
2550 Clear 20 1013 64 10000 1.54 210 23:21 08.03.2021
2551 Clear 20 1013 64 10000 1.54 210 22:43 08.03.2021
2552 Clear 20 1013 64 10000 1.54 180 22:25 08.03.2021
2553 Clear 20 1013 64 10000 1.54 170 21:50 08.03.2021
2554 Clear 20 1014 60 10000 2.57 200 21:30 08.03.2021
2555 Clear 21 1014 60 10000 2.06 200 20:45 08.03.2021
2556 Clear 21 1014 60 10000 2.57 200 20:24 08.03.2021
2557 Clear 20 1014 60 10000 2.57 200 19:55 08.03.2021
2558 Clear 20 1014 52 10000 1.54 190 19:28 08.03.2021
2559 Clear 20 1014 56 10000 2.06 150 18:39 08.03.2021
2560 Clear 20 1014 60 10000 2.06 130 18:20 08.03.2021
2561 Clear 21 1014 60 10000 1.03 180 17:50 08.03.2021
2562 Clear 21 1014 60 10000 1.03 0 17:25 08.03.2021
2563 Clear 22 1013 60 10000 1.54 40 16:46 08.03.2021
2564 Clear 22 1013 53 10000 2.06 40 16:27 08.03.2021
2565 Clear 22 1013 49 10000 2.06 30 15:49 08.03.2021
2566 Clear 22 1013 49 10000 3.6 10 15:26 08.03.2021
2567 Clear 23 1013 43 10000 3.6 20 14:43 08.03.2021
2568 Clear 23 1013 43 10000 4.63 30 14:20 08.03.2021
2569 Clear 23 1012 46 10000 4.63 40 13:37 08.03.2021
2570 Clear 24 1012 43 10000 4.63 40 13:18 08.03.2021
2571 Clear 24 1013 43 10000 4.63 20 12:42 08.03.2021
2572 Clear 24 1013 43 10000 4.63 20 12:22 08.03.2021
2573 Clear 25 1014 33 10000 3.09 10 11:38 08.03.2021
2574 Clear 25 1014 33 10000 3.09 10 11:18 08.03.2021
2575 Clear 26 1015 33 10000 2.57 360 10:41 08.03.2021
2576 Clear 26 1015 33 10000 2.57 360 10:19 08.03.2021
2577 Clear 25 1015 38 10000 2.57 10 09:41 08.03.2021
2578 Clear 24 1016 38 10000 3.6 360 09:22 08.03.2021
2579 Clear 24 1016 38 10000 4.12 360 08:27 08.03.2021
2580 Clear 23 1016 40 10000 2.06 300 07:23 08.03.2021
2581 Clear 22 1016 49 10000 1.54 270 06:43 08.03.2021
2582 Clear 16 1014 63 10000 2.06 280 03:38 08.03.2021
2583 Clear 16 1014 59 10000 1.54 270 00:44 08.03.2021
2584 Clear 17 1014 59 10000 2.06 280 23:54 07.03.2021
2585 Clear 17 1014 55 10000 1.54 250 23:28 07.03.2021
2586 Clear 18 1015 45 10000 2.57 310 22:59 07.03.2021
2587 Clear 18 1014 45 10000 2.57 310 22:41 07.03.2021
2588 Clear 18 1015 48 10000 4.12 310 22:20 07.03.2021
2589 Clear 18 1015 52 10000 4.12 310 21:42 07.03.2021
2590 Clear 17 1015 59 10000 4.12 330 21:24 07.03.2021
2591 Clear 18 1015 55 10000 3.09 320 20:46 07.03.2021
2592 Clear 18 1015 55 10000 2.57 320 20:28 07.03.2021
2593 Clear 18 1015 55 10000 4.63 320 19:56 07.03.2021
2594 Clear 18 1015 55 10000 4.63 320 19:38 07.03.2021
2595 Clear 18 1015 55 10000 4.12 310 19:19 07.03.2021
2596 Clear 19 1015 52 10000 3.09 320 18:40 07.03.2021
2597 Clear 19 1015 45 10000 3.09 320 18:19 07.03.2021
2598 Clear 20 1015 45 10000 3.09 320 17:39 07.03.2021
2599 Clear 20 1014 40 10000 5.14 320 17:20 07.03.2021
2600 Clear 20 1014 40 10000 5.14 320 16:56 07.03.2021
2601 Clear 20 1014 40 10000 5.14 320 16:37 07.03.2021
2602 Clear 22 1014 37 10000 5.14 310 16:18 07.03.2021
2603 Clear 22 1014 38 10000 5.66 320 15:42 07.03.2021
2604 Clear 22 1014 38 10000 5.66 320 15:21 07.03.2021
2605 Clear 24 1014 33 10000 6.69 310 14:30 07.03.2021
2606 Clear 25 1014 33 10000 5.66 320 13:59 07.03.2021
2607 Clear 25 1014 33 10000 5.66 320 13:39 07.03.2021
2608 Clear 25 1014 31 10000 6.17 320 13:18 07.03.2021
2609 Clear 25 1014 31 10000 6.17 320 12:43 07.03.2021
2610 Clear 26 1014 31 10000 6.17 310 12:24 07.03.2021
2611 Clear 25 1015 34 10000 6.17 320 11:25 07.03.2021
2612 Clear 25 1015 33 10000 6.17 310 10:59 07.03.2021
2613 Clear 25 1016 33 10000 6.17 310 10:38 07.03.2021
2614 Clear 25 1016 36 10000 5.66 310 09:59 07.03.2021
2615 Clear 24 1017 36 10000 6.17 310 09:39 07.03.2021
2616 Clear 24 1017 36 10000 6.17 310 09:20 07.03.2021
2617 Clear 23 1017 35 10000 5.66 310 08:45 07.03.2021
2618 Clear 23 1017 33 10000 7.72 320 08:22 07.03.2021
2619 Clear 22 1017 46 10000 6.69 320 07:23 07.03.2021
2620 Clear 17 1016 55 10000 4.63 310 02:40 07.03.2021
2621 Clear 18 1015 55 10000 4.63 300 00:38 07.03.2021
2622 Clear 18 1016 59 10000 4.63 310 23:41 06.03.2021
2623 Clear 18 1016 59 10000 4.12 310 23:22 06.03.2021
2624 Clear 18 1016 59 10000 4.63 310 22:47 06.03.2021
2625 Clear 18 1017 59 10000 4.63 310 22:25 06.03.2021
2626 Clear 18 1017 55 10000 4.63 310 21:57 06.03.2021
2627 Clear 18 1017 59 10000 5.14 310 21:21 06.03.2021
2628 Clear 18 1017 59 10000 5.14 310 20:48 06.03.2021
2629 Clear 18 1017 59 10000 5.66 310 20:26 06.03.2021
2630 Clear 19 1017 63 10000 5.14 310 19:49 06.03.2021
2631 Clear 19 1017 59 10000 5.14 310 19:20 06.03.2021
2632 Clear 19 1018 59 10000 5.66 310 18:45 06.03.2021
2633 Clear 19 1017 56 10000 6.17 310 18:24 06.03.2021
2634 Clear 19 1017 56 10000 6.17 310 17:56 06.03.2021
2635 Clear 19 1017 56 10000 6.17 310 17:56 06.03.2021
2636 Clear 19 1017 52 10000 5.14 320 17:38 06.03.2021
2637 Clear 20 1017 43 10000 6.17 320 17:18 06.03.2021
2638 Clear 20 1017 43 10000 6.17 320 16:42 06.03.2021
2639 Clear 21 1017 43 10000 6.17 310 16:24 06.03.2021
2640 Clear 22 1017 40 10000 5.66 320 15:47 06.03.2021
2641 Clear 22 1016 40 10000 6.17 310 15:29 06.03.2021
2642 Clear 23 1016 38 10000 6.69 310 14:51 06.03.2021
2643 Clear 23 1016 38 10000 7.72 320 14:28 06.03.2021
2644 Clear 24 1016 33 10000 7.2 320 13:40 06.03.2021
2645 Clear 24 1016 33 10000 7.2 320 13:20 06.03.2021
2646 Clear 25 1016 33 10000 7.72 330 12:44 06.03.2021
2647 Clear 25 1016 31 10000 7.2 320 12:19 06.03.2021
2648 Clear 25 1017 33 10000 7.2 320 11:54 06.03.2021
2649 Clear 25 1017 34 10000 6.69 320 11:21 06.03.2021
2650 Clear 25 1018 36 10000 7.2 320 10:48 06.03.2021
2651 Clear 25 1018 41 10000 7.72 310 10:19 06.03.2021
2652 Clear 24 1019 41 10000 6.69 310 09:46 06.03.2021
2653 Clear 24 1019 43 10000 6.69 310 09:19 06.03.2021
2654 Clear 23 1019 46 10000 6.69 320 08:40 06.03.2021
2655 Clear 22 1020 49 10000 6.17 320 07:57 06.03.2021
2656 Clear 22 1020 49 10000 6.17 320 07:39 06.03.2021
2657 Clear 22 1019 53 10000 6.69 320 07:19 06.03.2021
2658 Clear 20 1019 64 10000 5.66 320 05:37 06.03.2021
2659 Clear 19 1017 63 10000 5.66 320 02:38 06.03.2021
2660 Clear 19 1017 63 10000 5.66 320 00:56 06.03.2021
2661 Clear 19 1017 59 10000 6.17 320 23:54 05.03.2021
2662 Clear 19 1017 59 10000 5.66 320 23:29 05.03.2021
2663 Clear 19 1017 56 10000 5.66 320 22:49 05.03.2021
2664 Clear 19 1017 52 10000 5.66 320 22:25 05.03.2021
2665 Clear 19 1017 52 10000 6.69 320 21:54 05.03.2021
2666 Clear 19 1017 52 10000 6.69 320 21:36 05.03.2021
2667 Clear 19 1017 56 10000 6.17 320 20:58 05.03.2021
2668 Clear 19 1017 56 10000 6.17 320 20:40 05.03.2021
2669 Clear 19 1017 60 10000 5.66 310 20:22 05.03.2021
2670 Clear 19 1017 60 10000 5.66 310 19:43 05.03.2021
2671 Clear 19 1017 64 10000 5.66 320 19:21 05.03.2021
2672 Clear 20 1018 60 10000 6.17 310 18:43 05.03.2021
2673 Clear 20 1017 56 10000 5.66 320 18:25 05.03.2021
2674 Clear 20 1016 49 10000 6.69 330 17:39 05.03.2021
2675 Clear 21 1016 49 10000 6.69 330 17:20 05.03.2021
2676 Clear 22 1016 46 10000 7.72 320 16:41 05.03.2021
2677 Clear 22 1016 49 10000 8.23 330 16:22 05.03.2021
2678 Clear 23 1015 49 9000 7.72 330 15:53 05.03.2021
2679 Clear 23 1015 46 9000 11.32 330 15:26 05.03.2021
2680 Clear 24 1015 47 6000 9.26 330 14:40 05.03.2021
2681 Clear 25 1015 47 6000 9.26 330 14:19 05.03.2021
2682 Dust 25 1014 44 5000 8.75 320 13:42 05.03.2021
2683 Dust 25 1014 44 5000 8.75 320 13:20 05.03.2021
2684 Clear 27 1014 42 6000 7.2 320 12:42 05.03.2021
2685 Clear 28 1014 39 7000 7.72 310 11:39 05.03.2021
2686 Clear 29 1014 39 7000 7.72 310 11:19 05.03.2021
2687 Clear 29 1014 28 7000 8.75 310 10:43 05.03.2021
2688 Dust 29 1014 32 1500 6.69 300 10:24 05.03.2021
2689 Dust 29 1015 28 1500 5.14 290 09:53 05.03.2021
2690 Dust 30 1015 27 5000 4.63 280 09:29 05.03.2021
2691 Clear 30 1015 30 10000 5.14 270 08:57 05.03.2021
2692 Clear 30 1016 35 10000 3.6 280 08:38 05.03.2021
2693 Clear 30 1016 35 10000 3.6 280 08:20 05.03.2021
2694 Clear 28 1014 44 10000 7.2 160 07:30 05.03.2021
2695 Clear 25 1014 57 10000 6.17 160 06:34 05.03.2021
2696 Clear 22 1013 78 10000 3.09 150 05:39 05.03.2021
2697 Clear 23 1011 78 10000 1.54 120 00:59 05.03.2021
2698 Clear 22 1012 78 10000 2.06 140 23:53 04.03.2021
2699 Clear 22 1012 73 10000 2.06 100 23:24 04.03.2021
2700 Clear 23 1013 73 10000 2.06 100 22:29 04.03.2021
2701 Clear 23 1013 68 10000 2.06 100 21:53 04.03.2021
2702 Clear 23 1013 68 10000 2.06 90 21:31 04.03.2021
2703 Clear 23 1013 68 10000 2.57 80 20:57 04.03.2021
2704 Clear 23 1013 68 10000 2.57 80 20:38 04.03.2021
2705 Clear 23 1013 68 10000 2.57 80 20:20 04.03.2021
2706 Clear 23 1013 64 10000 2.57 70 19:49 04.03.2021
2707 Clear 23 1013 68 10000 1.54 70 19:23 04.03.2021
2708 Clear 24 1013 53 10000 1.54 70 18:50 04.03.2021
2709 Clear 24 1013 57 10000 2.06 90 18:29 04.03.2021
2710 Clear 24 1013 53 10000 2.57 90 17:47 04.03.2021
2711 Clear 24 1013 53 10000 2.57 90 17:47 04.03.2021
2712 Clear 24 1013 60 10000 2.57 100 17:29 04.03.2021
2713 Clear 25 1013 53 10000 2.06 110 16:50 04.03.2021
2714 Clear 25 1013 50 10000 2.57 120 16:31 04.03.2021
2715 Clear 25 1013 33 10000 3.6 110 15:56 04.03.2021
2716 Clear 26 1013 34 10000 3.09 100 15:34 04.03.2021
2717 Clear 27 1013 26 10000 3.09 100 14:53 04.03.2021
2718 Clear 27 1012 28 10000 3.09 120 14:31 04.03.2021
2719 Clear 28 1012 24 10000 3.6 100 13:51 04.03.2021
2720 Clear 28 1012 26 10000 3.6 100 13:33 04.03.2021
2721 Clear 29 1012 26 10000 4.12 110 12:58 04.03.2021
2722 Clear 29 1012 26 10000 4.12 110 12:39 04.03.2021
2723 Clear 29 1013 21 10000 3.09 110 11:48 04.03.2021
2724 Clear 29 1013 21 10000 3.6 120 11:27 04.03.2021
2725 Clear 28 1014 21 10000 3.09 110 10:55 04.03.2021
2726 Clear 29 1014 26 10000 3.09 90 10:31 04.03.2021
2727 Clear 28 1015 30 10000 2.06 100 09:47 04.03.2021
2728 Clear 27 1015 36 10000 2.57 110 09:25 04.03.2021
2729 Clear 27 1015 34 10000 2.57 50 08:37 04.03.2021
2730 Clear 24 1015 50 10000 2.57 40 07:54 04.03.2021
2731 Clear 24 1016 60 10000 3.09 350 07:33 04.03.2021
2732 Clear 22 1015 68 10000 3.09 350 06:25 04.03.2021
2733 Clear 21 1015 73 10000 3.6 340 05:40 04.03.2021
2734 Clear 19 1013 68 10000 3.6 330 01:44 04.03.2021
2735 Clear 20 1014 64 10000 2.57 320 23:19 03.03.2021
2736 Clear 20 1015 68 10000 2.06 330 22:29 03.03.2021
2737 Clear 20 1015 64 10000 2.06 340 21:55 03.03.2021
2738 Clear 20 1015 64 10000 2.06 340 21:37 03.03.2021
2739 Clear 21 1015 68 10000 2.06 350 21:18 03.03.2021
2740 Clear 21 1015 64 10000 2.57 340 20:42 03.03.2021
2741 Clear 21 1015 64 10000 2.57 340 20:23 03.03.2021
2742 Clear 21 1015 68 10000 3.09 350 19:45 03.03.2021
2743 Clear 21 1015 78 10000 3.09 350 19:26 03.03.2021
2744 Clear 22 1015 73 10000 3.6 350 18:48 03.03.2021
2745 Clear 22 1015 68 10000 4.63 350 18:30 03.03.2021
2746 Clear 23 1015 68 10000 4.63 350 17:56 03.03.2021
2747 Clear 22 1015 64 10000 4.63 350 17:20 03.03.2021
2748 Clear 23 1015 64 10000 4.12 350 16:50 03.03.2021
2749 Clear 23 1014 60 10000 4.12 360 16:27 03.03.2021
2750 Clear 24 1015 56 10000 4.63 10 15:49 03.03.2021
2751 Clear 24 1014 56 10000 5.66 360 15:28 03.03.2021
2752 Clear 25 1014 57 10000 7.2 350 14:35 03.03.2021
2753 Clear 25 1014 50 10000 7.2 350 13:59 03.03.2021
2754 Clear 26 1014 50 10000 8.23 350 13:38 03.03.2021
2755 Clear 26 1015 44 10000 7.2 360 13:18 03.03.2021
2756 Clear 26 1015 44 10000 8.23 350 12:41 03.03.2021
2757 Clear 26 1015 44 10000 8.23 350 12:22 03.03.2021
2758 Clear 27 1015 44 10000 7.2 360 11:44 03.03.2021
2759 Clouds 26 1015 50 10000 6.17 350 11:22 03.03.2021
2760 Clouds 25 1016 53 10000 6.17 350 10:44 03.03.2021
2761 Clear 25 1016 44 10000 9.26 340 10:21 03.03.2021
2762 Clear 25 1016 44 10000 9.26 340 09:41 03.03.2021
2763 Clear 26 1017 41 10000 7.72 350 08:51 03.03.2021
2764 Clear 25 1018 50 10000 7.2 340 08:23 03.03.2021
2765 Clear 24 1017 57 10000 7.2 340 07:53 03.03.2021
2766 Clear 24 1017 60 10000 7.2 350 07:20 03.03.2021
2767 Clear 22 1017 64 10000 7.2 340 06:21 03.03.2021
2768 Clear 21 1016 64 10000 6.69 340 05:31 03.03.2021
2769 Clear 20 1016 64 10000 6.69 330 04:36 03.03.2021
2770 Clear 20 1016 64 10000 6.17 330 03:52 03.03.2021
2771 Clear 20 1015 77 10000 5.66 330 00:19 03.03.2021
2772 Clear 20 1015 68 10000 4.63 330 23:32 02.03.2021
2773 Clear 21 1015 73 10000 4.63 330 22:50 02.03.2021
2774 Clear 21 1015 68 10000 5.14 330 22:21 02.03.2021
2775 Clear 21 1015 68 10000 5.14 340 21:51 02.03.2021
2776 Clear 21 1016 73 10000 5.66 340 21:32 02.03.2021
2777 Clear 21 1015 73 10000 5.14 350 20:55 02.03.2021
2778 Clear 21 1015 73 10000 5.14 350 20:37 02.03.2021
2779 Clear 21 1016 64 10000 5.14 350 20:19 02.03.2021
2780 Clear 22 1016 60 10000 6.17 340 19:46 02.03.2021
2781 Clear 22 1016 68 10000 6.69 350 19:26 02.03.2021
2782 Clear 22 1016 64 10000 7.72 350 18:41 02.03.2021
2783 Clear 22 1016 68 10000 6.17 350 18:21 02.03.2021
2784 Rain 22 1015 68 10000 7.72 350 17:57 02.03.2021
2785 Rain 22 1015 68 10000 7.72 350 17:38 02.03.2021
2786 Clear 22 1015 68 10000 6.69 350 17:18 02.03.2021
2787 Clear 23 1015 73 8000 8.23 340 16:40 02.03.2021
2788 Clear 22 1015 78 8000 7.72 350 15:52 02.03.2021
2789 Clear 23 1015 68 10000 7.72 10 15:26 02.03.2021
2790 Clear 23 1015 68 10000 8.23 360 14:42 02.03.2021
2791 Clear 23 1015 73 9000 8.23 10 14:18 02.03.2021
2792 Clear 24 1014 69 8000 8.23 10 13:42 02.03.2021
2793 Clouds 24 1014 69 8000 8.23 10 13:21 02.03.2021
2794 Clouds 25 1015 69 9000 8.75 360 12:43 02.03.2021
2795 Clouds 25 1015 69 8000 8.23 10 12:24 02.03.2021
2796 Clouds 25 1016 73 8000 7.2 360 11:41 02.03.2021
2797 Clouds 25 1016 73 8000 7.2 360 11:20 02.03.2021
2798 Clouds 24 1016 73 8000 7.2 10 10:42 02.03.2021
2799 Clouds 24 1017 73 8000 6.69 360 10:23 02.03.2021
2800 Clouds 25 1017 73 8000 6.17 10 09:40 02.03.2021
2801 Clouds 25 1017 73 8000 6.17 10 09:20 02.03.2021
2802 Clouds 24 1018 73 8000 6.17 10 08:40 02.03.2021
2803 Clouds 24 1018 73 8000 7.2 350 08:21 02.03.2021
2804 Clouds 24 1018 78 6000 5.66 350 07:38 02.03.2021
2805 Clouds 24 1018 78 6000 5.66 350 07:38 02.03.2021
2806 Clouds 22 1018 83 6000 4.63 350 06:36 02.03.2021
2807 Clouds 21 1017 88 6000 4.63 340 05:46 02.03.2021
2808 Clouds 21 1017 88 6000 4.63 340 05:46 02.03.2021
2809 Clouds 20 1017 94 6000 3.09 340 05:28 02.03.2021
2810 Clear 19 1014 100 10000 2.06 350 01:46 02.03.2021
2811 Clear 19 1014 100 10000 3.09 350 01:28 02.03.2021
2812 Clear 19 1014 100 10000 2.57 350 00:51 02.03.2021
2813 Clear 20 1014 88 10000 2.57 360 23:28 01.03.2021
2814 Clear 20 1014 83 10000 1.54 70 22:42 01.03.2021
2815 Clear 21 1015 78 10000 2.06 90 22:22 01.03.2021
2816 Clear 20 1015 88 10000 2.06 110 21:50 01.03.2021
2817 Clear 20 1015 88 10000 1.54 90 21:24 01.03.2021
2818 Clear 20 1015 88 10000 2.06 70 20:48 01.03.2021
2819 Clear 20 1015 88 10000 2.06 70 20:28 01.03.2021
2820 Clear 21 1015 83 10000 2.57 70 19:55 01.03.2021
2821 Clear 21 1015 83 10000 2.57 70 19:33 01.03.2021
2822 Clear 21 1014 83 10000 3.6 80 18:46 01.03.2021
2823 Clear 21 1014 78 10000 3.6 80 18:25 01.03.2021
2824 Clear 21 1014 83 10000 4.12 60 17:58 01.03.2021
2825 Clear 21 1014 83 10000 4.12 60 17:39 01.03.2021
2826 Clear 21 1014 78 10000 4.12 60 17:19 01.03.2021
2827 Clear 21 1014 83 10000 3.6 60 17:19 01.03.2021
2828 Clear 21 1014 78 10000 4.12 60 16:43 01.03.2021
2829 Clear 21 1014 78 10000 4.12 50 16:24 01.03.2021
2830 Clear 21 1014 78 10000 4.12 60 15:41 01.03.2021
2831 Clear 21 1014 78 10000 4.12 60 15:20 01.03.2021
2832 Clouds 22 1014 73 10000 4.12 60 14:47 01.03.2021
2833 Clouds 22 1013 73 10000 4.63 70 14:29 01.03.2021
2834 Clouds 22 1013 68 10000 4.63 70 13:40 01.03.2021
2835 Clouds 23 1013 64 10000 4.63 60 13:22 01.03.2021
2836 Clear 23 1013 64 10000 4.63 70 12:52 01.03.2021
2837 Clear 23 1013 64 10000 4.63 70 12:32 01.03.2021
2838 Clear 23 1014 64 10000 4.12 70 11:59 01.03.2021
2839 Clear 23 1014 64 10000 4.12 70 11:39 01.03.2021
2840 Clear 23 1015 64 10000 3.09 0 10:44 01.03.2021
2841 Clear 23 1015 64 10000 4.63 120 10:23 01.03.2021
2842 Clear 23 1015 64 10000 5.66 120 09:58 01.03.2021
2843 Clear 24 1015 64 10000 5.66 110 09:40 01.03.2021
2844 Clear 23 1015 64 10000 5.66 110 09:20 01.03.2021
2845 Clear 23 1015 60 10000 4.63 100 08:47 01.03.2021
2846 Clear 23 1016 64 10000 3.09 100 07:50 01.03.2021
2847 Clear 23 1016 64 10000 3.09 100 07:50 01.03.2021
2848 Clear 21 1015 68 10000 4.12 110 06:51 01.03.2021
2849 Clear 17 1014 77 10000 1.03 330 03:24 01.03.2021
2850 Clear 18 1013 77 10000 1.03 0 00:44 01.03.2021
2851 Clear 18 1014 72 10000 0.51 0 23:26 28.02.2021
2852 Clear 18 1014 68 10000 1.03 130 22:45 28.02.2021
2853 Clear 18 1014 72 10000 1.54 140 22:22 28.02.2021
2854 Clear 18 1014 72 10000 1.54 140 22:22 28.02.2021
2855 Clear 19 1015 63 10000 1.03 130 21:49 28.02.2021
2856 Clear 18 1015 68 10000 1.03 110 21:28 28.02.2021
2857 Clear 18 1015 63 10000 1.54 110 20:56 28.02.2021
2858 Clear 19 1015 63 10000 1.54 110 20:36 28.02.2021
2859 Clear 19 1015 63 10000 2.06 90 19:47 28.02.2021
2860 Clear 19 1015 63 10000 2.06 90 19:47 28.02.2021
2861 Clear 19 1015 63 10000 2.06 80 19:28 28.02.2021
2862 Clear 19 1015 63 10000 1.54 70 18:57 28.02.2021
2863 Clear 19 1015 63 10000 1.54 70 18:57 28.02.2021
2864 Clear 19 1015 63 10000 1.54 70 18:36 28.02.2021
2865 Clear 20 1015 60 10000 1.54 60 18:18 28.02.2021
2866 Clear 20 1015 60 10000 2.06 50 17:45 28.02.2021
2867 Clear 20 1014 60 10000 3.09 40 17:27 28.02.2021
2868 Clear 20 1014 60 10000 3.09 40 16:50 28.02.2021
2869 Clear 20 1014 60 10000 5.14 10 16:30 28.02.2021
2870 Clear 21 1014 52 10000 4.63 30 15:53 28.02.2021
2871 Clear 21 1014 52 10000 4.63 30 15:53 28.02.2021
2872 Clear 21 1014 52 10000 4.63 30 15:29 28.02.2021
2873 Clear 21 1014 46 10000 4.63 40 14:58 28.02.2021
2874 Clear 22 1014 46 10000 4.63 40 14:39 28.02.2021
2875 Clear 22 1014 46 10000 4.63 40 14:39 28.02.2021
2876 Clear 22 1014 46 10000 4.63 40 14:20 28.02.2021
2877 Clear 23 1014 40 10000 4.12 30 13:41 28.02.2021
2878 Clear 23 1014 40 10000 4.12 30 13:41 28.02.2021
2879 Clear 23 1014 43 10000 4.63 80 13:19 28.02.2021
2880 Clear 24 1014 31 10000 2.57 10 12:54 28.02.2021
2881 Clear 24 1014 33 10000 4.12 90 12:36 28.02.2021
2882 Clear 25 1014 33 10000 4.12 90 12:18 28.02.2021
2883 Clear 24 1014 31 10000 3.6 10 11:42 28.02.2021
2884 Clear 24 1014 31 10000 3.6 10 11:22 28.02.2021
2885 Clear 24 1015 33 10000 2.57 360 10:45 28.02.2021
2886 Clear 22 1015 33 10000 2.57 340 10:25 28.02.2021
2887 Clear 22 1016 35 10000 3.09 10 09:40 28.02.2021
2888 Clear 22 1017 37 10000 3.09 360 09:22 28.02.2021
2889 Clear 23 1017 37 10000 3.09 360 08:46 28.02.2021
2890 Clear 21 1017 37 10000 3.6 340 08:28 28.02.2021
2891 Clear 21 1017 40 10000 3.6 330 07:46 28.02.2021
2892 Clear 21 1017 43 10000 3.6 330 07:28 28.02.2021
2893 Clear 19 1017 45 10000 3.09 310 06:25 28.02.2021
2894 Clear 17 1017 52 10000 2.06 310 05:23 28.02.2021
2895 Clear 16 1015 51 10000 2.57 310 02:40 28.02.2021
2896 Clear 16 1015 51 10000 4.12 330 01:36 28.02.2021
2897 Clear 16 1015 51 10000 4.12 330 00:43 28.02.2021
2898 Clear 17 1015 51 10000 4.63 330 00:23 28.02.2021
2899 Clear 17 1015 55 10000 4.12 330 23:44 27.02.2021
2900 Clear 17 1015 55 10000 5.66 330 23:19 27.02.2021
2901 Clear 17 1016 63 10000 5.14 330 22:43 27.02.2021
2902 Clear 17 1016 63 10000 5.14 330 22:19 27.02.2021
2903 Clear 18 1017 59 10000 4.63 330 21:40 27.02.2021
2904 Clear 18 1017 59 10000 4.63 330 21:22 27.02.2021
2905 Clear 18 1017 59 10000 4.63 340 20:47 27.02.2021
2906 Clear 18 1017 55 10000 4.12 330 20:27 27.02.2021
2907 Clear 18 1017 55 10000 4.63 330 19:45 27.02.2021
2908 Clear 18 1017 52 10000 4.63 330 19:26 27.02.2021
2909 Clear 19 1017 52 10000 4.63 320 18:44 27.02.2021
2910 Clear 19 1017 48 10000 5.66 330 18:21 27.02.2021
2911 Clear 19 1017 49 10000 5.14 320 17:55 27.02.2021
2912 Clear 19 1017 49 10000 4.12 330 17:36 27.02.2021
2913 Clear 19 1017 49 10000 4.12 330 17:36 27.02.2021
2914 Clear 20 1016 46 10000 4.63 320 17:18 27.02.2021
2915 Clear 20 1016 46 10000 4.63 320 16:48 27.02.2021
2916 Clear 21 1016 43 10000 4.12 320 16:25 27.02.2021
2917 Clear 22 1016 38 10000 6.17 330 15:41 27.02.2021
2918 Clear 23 1015 33 10000 5.66 330 14:57 27.02.2021
2919 Clear 23 1015 33 10000 5.66 330 14:39 27.02.2021
2920 Clear 23 1015 31 10000 5.66 330 14:19 27.02.2021
2921 Clear 23 1015 53 10000 6.69 10 13:37 27.02.2021
2922 Clear 23 1015 53 10000 6.69 10 13:18 27.02.2021
2923 Clear 24 1015 53 10000 7.2 20 12:40 27.02.2021
2924 Clear 24 1015 49 10000 6.17 10 12:22 27.02.2021
2925 Clear 24 1016 41 10000 7.2 360 11:43 27.02.2021
2926 Clear 24 1016 46 10000 7.2 350 11:24 27.02.2021
2927 Clear 24 1016 46 10000 8.23 350 10:48 27.02.2021
2928 Clear 23 1016 49 10000 7.2 360 10:29 27.02.2021
2929 Clear 22 1017 53 10000 6.69 350 09:52 27.02.2021
2930 Clear 23 1017 53 10000 5.66 340 09:31 27.02.2021
2931 Clear 22 1018 53 10000 6.17 330 08:43 27.02.2021
2932 Clear 21 1018 52 10000 6.69 330 08:22 27.02.2021
2933 Clear 20 1018 56 10000 7.2 340 07:42 27.02.2021
2934 Clear 19 1018 59 10000 4.63 300 06:33 27.02.2021
2935 Clear 16 1015 59 10000 4.12 300 01:21 27.02.2021
2936 Clear 16 1015 59 10000 3.6 310 23:58 26.02.2021
2937 Clear 16 1015 59 10000 3.6 310 23:40 26.02.2021
2938 Clear 16 1015 59 10000 3.6 310 23:40 26.02.2021
2939 Clear 16 1016 59 10000 4.12 310 23:18 26.02.2021
2940 Clear 16 1016 59 10000 3.6 310 22:31 26.02.2021
2941 Clear 16 1016 63 10000 4.63 310 21:49 26.02.2021
2942 Clear 17 1016 63 10000 4.12 310 21:31 26.02.2021
2943 Clear 17 1017 67 10000 3.6 310 20:45 26.02.2021
2944 Clear 17 1017 67 10000 3.6 310 20:24 26.02.2021
2945 Clear 17 1017 59 10000 4.12 320 19:53 26.02.2021
2946 Clear 17 1017 63 10000 4.12 330 19:26 26.02.2021
2947 Clear 18 1017 63 10000 4.63 330 18:49 26.02.2021
2948 Clear 18 1016 59 10000 4.12 330 18:24 26.02.2021
2949 Clear 18 1016 55 10000 4.63 320 17:48 26.02.2021
2950 Clear 18 1016 48 10000 5.14 320 17:30 26.02.2021
2951 Clear 19 1016 45 10000 5.14 320 16:57 26.02.2021
2952 Clear 19 1015 40 10000 4.63 310 16:38 26.02.2021
2953 Clear 19 1015 40 10000 4.63 310 16:20 26.02.2021
2954 Clear 20 1015 35 10000 5.66 310 15:43 26.02.2021
2955 Clear 21 1015 40 10000 6.69 330 15:23 26.02.2021
2956 Clear 22 1015 33 10000 6.17 320 14:51 26.02.2021
2957 Clear 22 1015 31 10000 6.69 310 14:32 26.02.2021
2958 Clear 23 1014 28 10000 6.69 320 13:47 26.02.2021
2959 Clear 23 1014 29 10000 6.69 310 13:28 26.02.2021
2960 Clear 23 1014 33 10000 7.2 330 12:48 26.02.2021
2961 Clear 23 1015 33 10000 6.69 320 12:26 26.02.2021
2962 Clear 23 1015 35 10000 6.69 310 11:39 26.02.2021
2963 Clear 23 1016 35 10000 7.2 330 10:54 26.02.2021
2964 Clear 22 1016 43 10000 7.2 320 10:24 26.02.2021
2965 Clear 22 1017 40 10000 6.69 330 09:47 26.02.2021
2966 Clear 22 1017 43 10000 5.66 310 09:27 26.02.2021
2967 Clear 21 1017 49 10000 6.69 320 08:33 26.02.2021
2968 Clear 20 1018 56 10000 6.17 320 07:55 26.02.2021
2969 Clear 19 1018 59 10000 6.69 310 07:20 26.02.2021
2970 Clear 18 1017 63 10000 5.14 310 06:28 26.02.2021
2971 Clear 16 1016 67 10000 5.66 310 04:52 26.02.2021
2972 Clear 15 1015 63 10000 6.17 310 02:36 26.02.2021
2973 Clear 16 1015 59 10000 5.66 310 00:25 26.02.2021
2974 Clear 16 1015 59 10000 6.17 310 23:31 25.02.2021
2975 Clear 17 1015 59 10000 6.69 310 22:57 25.02.2021
2976 Clear 17 1015 59 10000 6.69 310 22:37 25.02.2021
2977 Clear 17 1016 63 10000 5.14 310 21:50 25.02.2021
2978 Clear 17 1016 67 10000 6.17 310 21:31 25.02.2021
2979 Clear 17 1016 68 10000 6.17 310 20:44 25.02.2021
2980 Clear 18 1016 68 10000 6.17 320 20:25 25.02.2021
2981 Clear 18 1016 72 10000 6.69 320 19:58 25.02.2021
2982 Clear 18 1016 72 10000 6.69 320 19:39 25.02.2021
2983 Clear 18 1016 63 10000 6.69 320 19:19 25.02.2021
2984 Clear 19 1015 59 10000 6.69 320 18:39 25.02.2021
2985 Clear 19 1015 63 10000 6.17 320 17:59 25.02.2021
2986 Clear 19 1014 68 10000 6.69 320 17:31 25.02.2021
2987 Clear 19 1014 68 10000 8.23 330 16:55 25.02.2021
2988 Clear 19 1014 60 10000 10.29 340 16:33 25.02.2021
2989 Clouds 20 1013 60 10000 9.77 340 15:48 25.02.2021
2990 Clouds 21 1013 56 10000 10.8 340 15:28 25.02.2021
2991 Clouds 21 1013 56 10000 10.8 340 14:32 25.02.2021
2992 Clouds 22 1013 56 10000 10.29 340 13:59 25.02.2021
2993 Clouds 22 1013 56 10000 10.29 340 13:40 25.02.2021
2994 Clouds 22 1013 56 10000 10.29 340 13:19 25.02.2021
2995 Clear 23 1013 60 10000 9.26 350 12:24 25.02.2021
2996 Clear 23 1013 60 10000 11.32 350 11:57 25.02.2021
2997 Clear 23 1013 60 10000 11.32 350 11:39 25.02.2021
2998 Clouds 23 1014 60 10000 10.29 340 10:51 25.02.2021
2999 Clouds 23 1014 64 10000 10.8 350 10:32 25.02.2021
3000 Rain 22 1015 68 9000 9.26 340 09:45 25.02.2021
3001 Clouds 22 1015 60 10000 8.23 340 09:22 25.02.2021
3002 Clouds 22 1016 68 10000 7.2 340 08:30 25.02.2021
3003 Rain 21 1015 78 10000 6.17 340 07:58 25.02.2021
3004 Clouds 21 1015 78 10000 6.17 340 07:38 25.02.2021
3005 Rain 21 1014 78 10000 7.2 330 06:57 25.02.2021
3006 Rain 21 1014 78 10000 7.2 330 06:57 25.02.2021
3007 Clouds 20 1012 88 9000 5.14 340 05:24 25.02.2021
3008 Clouds 20 1011 83 10000 3.09 350 01:43 25.02.2021
3009 Clouds 20 1011 88 10000 2.57 340 00:48 25.02.2021
3010 Clouds 20 1011 88 10000 2.06 10 00:19 25.02.2021
3011 Clouds 20 1011 83 10000 1.54 60 23:35 24.02.2021
3012 Clouds 20 1012 88 10000 2.57 340 22:47 24.02.2021
3013 Clouds 20 1012 88 10000 2.57 340 22:29 24.02.2021
3014 Clear 20 1012 94 10000 1.54 350 21:49 24.02.2021
3015 Clear 20 1013 94 10000 1.54 340 21:25 24.02.2021
3016 Clear 20 1013 88 10000 1.03 360 20:48 24.02.2021
3017 Clear 20 1013 88 10000 2.96 322 20:26 24.02.2021
3018 Clear 21 1012 83 10000 2.57 360 19:40 24.02.2021
3019 Clear 21 1012 83 10000 2.57 360 19:20 24.02.2021
3020 Clouds 21 1013 83 10000 1.54 360 18:50 24.02.2021
3021 Clouds 21 1013 83 10000 1.54 330 18:30 24.02.2021
3022 Clouds 21 1012 78 10000 3.6 10 17:39 24.02.2021
3023 Clouds 21 1012 78 10000 3.6 10 17:21 24.02.2021
3024 Clouds 21 1012 73 10000 3.09 10 16:46 24.02.2021
3025 Clouds 21 1012 73 10000 3.09 10 16:21 24.02.2021
3026 Clouds 22 1012 68 10000 3.09 10 15:50 24.02.2021
3027 Clouds 22 1012 64 10000 3.09 10 15:28 24.02.2021
3028 Clouds 22 1012 56 10000 3.6 360 14:44 24.02.2021
3029 Clouds 22 1012 60 10000 3.6 10 14:26 24.02.2021
3030 Rain 23 1012 49 10000 4.63 360 13:41 24.02.2021
3031 Clouds 23 1012 49 10000 3.6 360 13:23 24.02.2021
3032 Clouds 23 1012 49 10000 5.14 360 12:53 24.02.2021
3033 Clouds 23 1012 49 10000 5.14 360 12:33 24.02.2021
3034 Clouds 23 1012 49 10000 5.14 360 12:33 24.02.2021
3035 Clear 23 1012 49 10000 5.66 20 11:52 24.02.2021
3036 Clear 23 1013 49 10000 5.66 10 11:29 24.02.2021
3037 Clear 24 1013 46 10000 6.17 10 10:40 24.02.2021
3038 Clear 24 1014 46 10000 6.17 10 10:20 24.02.2021
3039 Clear 24 1015 56 10000 7.72 360 09:24 24.02.2021
3040 Clear 24 1015 53 10000 7.72 350 08:45 24.02.2021
3041 Clear 23 1015 56 10000 7.2 350 08:24 24.02.2021
3042 Clear 23 1015 56 10000 7.2 350 08:24 24.02.2021
3043 Clear 23 1015 56 10000 7.2 350 08:24 24.02.2021
3044 Clear 22 1016 53 10000 7.2 350 07:37 24.02.2021
3045 Clear 22 1016 56 10000 6.69 330 07:18 24.02.2021
3046 Clear 19 1015 68 10000 4.63 330 05:22 24.02.2021
3047 Clear 19 1015 68 10000 5.14 330 00:47 24.02.2021
3048 Clear 19 1016 68 10000 3.6 320 23:38 23.02.2021
3049 Clear 19 1016 64 10000 4.12 320 22:43 23.02.2021
3050 Clear 19 1017 64 10000 4.12 320 22:22 23.02.2021
3051 Clear 19 1017 60 10000 5.66 330 21:47 23.02.2021
3052 Clear 20 1017 64 10000 5.66 330 21:24 23.02.2021
3053 Clear 20 1017 60 10000 4.63 320 20:50 23.02.2021
3054 Clear 20 1017 64 10000 5.14 320 20:30 23.02.2021
3055 Clear 20 1017 64 10000 4.63 320 19:57 23.02.2021
3056 Clear 20 1017 64 10000 4.63 320 19:38 23.02.2021
3057 Clear 20 1017 56 10000 4.63 330 19:19 23.02.2021
3058 Clear 21 1017 56 10000 5.14 330 18:43 23.02.2021
3059 Clear 21 1017 56 10000 5.14 330 18:21 23.02.2021
3060 Clear 21 1017 49 10000 6.69 340 17:48 23.02.2021
3061 Clear 21 1017 53 10000 5.66 330 17:26 23.02.2021
3062 Clear 22 1016 53 10000 5.66 340 16:44 23.02.2021
3063 Clear 22 1016 64 10000 4.63 350 16:21 23.02.2021
3064 Clear 22 1016 68 10000 5.66 350 15:45 23.02.2021
3065 Clear 23 1016 60 10000 6.69 350 15:27 23.02.2021
3066 Clear 23 1016 60 10000 6.69 350 14:46 23.02.2021
3067 Clear 24 1016 53 10000 7.2 360 14:28 23.02.2021
3068 Clear 26 1016 53 10000 6.69 10 13:59 23.02.2021
3069 Clear 25 1016 53 10000 6.69 10 13:34 23.02.2021
3070 Clear 25 1016 53 10000 8.23 10 12:57 23.02.2021
3071 Clear 25 1016 44 10000 7.72 360 12:24 23.02.2021
3072 Clear 25 1016 44 10000 7.72 360 12:24 23.02.2021
3073 Clear 25 1017 50 10000 8.23 350 11:55 23.02.2021
3074 Clear 26 1017 47 10000 9.26 360 11:26 23.02.2021
3075 Clouds 25 1017 47 10000 8.23 360 10:55 23.02.2021
3076 Clouds 26 1017 47 10000 8.23 360 10:37 23.02.2021
3077 Clear 25 1018 38 10000 9.77 340 09:57 23.02.2021
3078 Clear 25 1019 44 10000 9.26 340 09:36 23.02.2021
3079 Clear 25 1019 44 10000 9.26 340 09:18 23.02.2021
3080 Clear 24 1019 46 10000 9.26 340 08:43 23.02.2021
3081 Clouds 23 1020 56 10000 8.23 340 08:20 23.02.2021
3082 Rain 21 1020 64 10000 7.2 330 06:52 23.02.2021
3083 Clouds 20 1019 68 10000 4.12 320 05:22 23.02.2021
3084 Clear 19 1017 64 10000 3.6 310 02:37 23.02.2021
3085 Clear 19 1017 64 10000 3.09 320 01:55 23.02.2021
3086 Clear 19 1017 60 10000 2.57 320 00:19 23.02.2021
3087 Clear 19 1018 56 10000 3.09 320 23:25 22.02.2021
3088 Clear 19 1018 64 10000 2.57 320 22:42 22.02.2021
3089 Clear 19 1018 64 10000 3.09 330 22:21 22.02.2021
3090 Clear 20 1019 60 10000 4.12 330 21:54 22.02.2021
3091 Clear 20 1019 56 10000 3.09 320 21:36 22.02.2021
3092 Clear 20 1019 56 10000 3.09 320 21:18 22.02.2021
3093 Clear 20 1019 56 10000 4.12 330 20:42 22.02.2021
3094 Clear 20 1019 56 10000 4.12 330 20:22 22.02.2021
3095 Clear 21 1019 52 10000 4.63 330 19:38 22.02.2021
3096 Clear 21 1019 52 10000 4.63 330 19:19 22.02.2021
3097 Clear 21 1019 56 10000 5.14 340 18:46 22.02.2021
3098 Clear 21 1019 53 10000 4.63 340 18:22 22.02.2021
3099 Clear 22 1019 53 10000 5.14 330 17:43 22.02.2021
3100 Clear 22 1019 68 10000 4.12 350 17:18 22.02.2021
3101 Clear 22 1018 68 10000 5.14 350 16:46 22.02.2021
3102 Clear 22 1018 64 10000 5.14 360 15:57 22.02.2021
3103 Clear 23 1018 60 10000 5.14 10 15:31 22.02.2021
3104 Clear 23 1017 56 10000 6.17 10 14:48 22.02.2021
3105 Clear 24 1017 56 10000 6.17 10 14:30 22.02.2021
3106 Clear 24 1017 53 10000 6.17 10 13:48 22.02.2021
3107 Clear 24 1017 53 10000 7.2 10 13:23 22.02.2021
3108 Clear 24 1018 53 10000 7.72 10 12:42 22.02.2021
3109 Clear 24 1018 53 10000 7.2 360 12:20 22.02.2021
3110 Clear 24 1018 53 10000 7.72 10 11:45 22.02.2021
3111 Clear 24 1018 53 10000 7.72 10 11:25 22.02.2021
3112 Clear 24 1019 57 10000 6.69 10 10:50 22.02.2021
3113 Clear 24 1019 57 10000 6.69 10 10:28 22.02.2021
3114 Clear 24 1020 60 10000 7.2 10 09:49 22.02.2021
3115 Clear 24 1020 64 10000 6.69 360 09:30 22.02.2021
3116 Clear 24 1020 68 10000 6.17 360 08:57 22.02.2021
3117 Clear 23 1020 73 10000 5.66 350 08:38 22.02.2021
3118 Clear 23 1021 73 10000 5.66 350 07:58 22.02.2021
3119 Clear 23 1021 73 10000 6.69 340 07:27 22.02.2021
3120 Clear 21 1020 73 10000 7.2 340 06:46 22.02.2021
3121 Clear 21 1020 73 10000 5.66 330 05:46 22.02.2021
3122 Clear 19 1018 82 10000 3.6 340 03:44 22.02.2021
3123 Clear 19 1018 82 10000 4.63 340 02:52 22.02.2021
3124 Clear 20 1018 73 10000 4.63 340 00:49 22.02.2021
3125 Clear 20 1018 68 10000 4.63 330 00:24 22.02.2021
3126 Clear 20 1019 73 10000 4.12 330 23:35 21.02.2021
3127 Clear 20 1019 77 10000 4.63 340 22:54 21.02.2021
3128 Clear 20 1019 77 10000 4.63 350 22:24 21.02.2021
3129 Clear 20 1019 77 10000 4.63 340 21:48 21.02.2021
3130 Clear 20 1019 77 10000 6.17 340 21:30 21.02.2021
3131 Clear 20 1019 77 10000 6.17 340 20:47 21.02.2021
3132 Clear 20 1019 77 10000 6.17 340 20:20 21.02.2021
3133 Clear 20 1019 77 10000 6.17 350 19:57 21.02.2021
3134 Clear 20 1019 77 10000 6.17 350 19:36 21.02.2021
3135 Clear 20 1019 68 10000 6.69 350 19:18 21.02.2021
3136 Clear 20 1019 68 10000 6.69 340 18:26 21.02.2021
3137 Clear 21 1019 64 10000 5.66 350 17:47 21.02.2021
3138 Clear 21 1019 68 10000 5.14 350 17:20 21.02.2021
3139 Clear 21 1018 68 10000 6.17 350 16:47 21.02.2021
3140 Clear 21 1018 73 10000 4.63 350 16:26 21.02.2021
3141 Clear 21 1018 73 10000 4.63 10 15:25 21.02.2021
3142 Clear 22 1018 68 10000 5.14 360 14:56 21.02.2021
3143 Clear 22 1018 68 10000 5.14 360 14:37 21.02.2021
3144 Clear 22 1018 68 10000 5.14 360 14:37 21.02.2021
3145 Clear 22 1017 68 10000 4.63 20 13:57 21.02.2021
3146 Clear 23 1017 60 10000 5.66 20 13:29 21.02.2021
3147 Clear 23 1017 60 10000 5.66 20 13:29 21.02.2021
3148 Clear 23 1017 64 10000 4.63 20 12:49 21.02.2021
3149 Clear 23 1017 60 10000 4.63 40 12:26 21.02.2021
3150 Clear 23 1017 56 10000 5.14 40 11:42 21.02.2021
3151 Clear 23 1018 60 10000 5.14 10 10:48 21.02.2021
3152 Clear 23 1019 60 10000 5.14 350 10:22 21.02.2021
3153 Clear 22 1019 64 10000 5.66 340 09:47 21.02.2021
3154 Clear 23 1020 68 10000 5.14 10 09:25 21.02.2021
3155 Clear 22 1020 68 10000 6.17 360 08:37 21.02.2021
3156 Clear 21 1020 73 10000 6.69 350 07:58 21.02.2021
3157 Clouds 21 1020 73 10000 6.17 350 07:23 21.02.2021
3158 Clouds 20 1020 73 10000 5.66 360 06:24 21.02.2021
3159 Clear 18 1018 77 10000 3.09 290 02:43 21.02.2021
3160 Clear 18 1017 72 10000 3.6 330 01:22 21.02.2021
3161 Clear 18 1018 77 10000 3.09 350 00:22 21.02.2021
3162 Clear 18 1018 72 10000 4.12 340 23:59 20.02.2021
3163 Clear 17 1018 72 10000 4.12 350 22:58 20.02.2021
3164 Clear 17 1018 72 10000 4.12 350 22:34 20.02.2021
3165 Clear 17 1018 68 10000 6.17 340 21:59 20.02.2021
3166 Clear 17 1018 68 10000 6.17 340 21:41 20.02.2021
3167 Clear 17 1019 63 10000 6.17 350 21:18 20.02.2021
3168 Clouds 18 1019 55 10000 6.69 330 20:40 20.02.2021
3169 Clouds 18 1019 48 10000 4.63 330 20:19 20.02.2021
3170 Rain 19 1020 55 10000 4.12 320 19:42 20.02.2021
3171 Clear 19 1020 55 10000 4.63 320 18:58 20.02.2021
3172 Clear 19 1020 55 10000 4.63 320 18:34 20.02.2021
3173 Clear 19 1019 52 10000 4.63 330 17:59 20.02.2021
3174 Rain 19 1019 52 10000 4.63 330 17:33 20.02.2021
3175 Clouds 19 1019 49 10000 5.66 340 16:49 20.02.2021
3176 Clear 19 1018 56 10000 5.66 340 16:26 20.02.2021
3177 Clouds 20 1018 52 10000 5.66 350 15:42 20.02.2021
3178 Clouds 21 1019 52 10000 6.69 330 14:53 20.02.2021
3179 Clouds 21 1019 46 10000 5.66 330 14:27 20.02.2021
3180 Clouds 21 1018 60 10000 6.17 350 13:58 20.02.2021
3181 Clouds 21 1018 60 10000 6.17 350 13:39 20.02.2021
3182 Rain 21 1018 53 10000 5.66 350 13:21 20.02.2021
3183 Clouds 22 1018 46 10000 5.66 350 12:44 20.02.2021
3184 Clear 21 1019 52 10000 6.17 350 11:54 20.02.2021
3185 Rain 22 1019 43 10000 7.2 340 11:35 20.02.2021
3186 Clear 21 1019 52 10000 7.72 340 10:52 20.02.2021
3187 Clear 21 1019 52 10000 8.23 340 10:27 20.02.2021
3188 Rain 21 1019 52 10000 7.72 350 09:47 20.02.2021
3189 Clear 21 1020 49 10000 9.26 350 08:56 20.02.2021
3190 Clear 21 1020 49 10000 9.77 340 08:25 20.02.2021
3191 Clear 20 1021 52 10000 6.17 330 07:19 20.02.2021
3192 Clear 18 1018 59 10000 6.69 330 02:32 20.02.2021
3193 Clear 18 1018 59 10000 6.69 330 01:59 20.02.2021
3194 Rain 18 1018 59 10000 5.66 330 01:18 20.02.2021
3195 Rain 18 1018 59 10000 6.17 330 00:39 20.02.2021
3196 Clear 18 1019 55 10000 5.66 330 23:41 19.02.2021
3197 Clear 17 1019 55 10000 3.6 320 22:48 19.02.2021
3198 Clear 17 1019 55 10000 4.12 320 22:25 19.02.2021
3199 Clear 17 1020 55 10000 4.12 310 21:47 19.02.2021
3200 Clear 18 1019 55 10000 4.12 320 21:25 19.02.2021
3201 Clear 18 1020 55 10000 3.6 320 20:44 19.02.2021
3202 Clear 18 1020 55 10000 3.6 320 20:26 19.02.2021
3203 Clear 18 1020 55 10000 4.63 330 19:49 19.02.2021
3204 Clear 18 1020 59 10000 4.12 330 19:20 19.02.2021
3205 Clear 18 1020 59 10000 4.12 330 18:51 19.02.2021
3206 Clear 18 1020 59 10000 4.63 330 18:28 19.02.2021
3207 Clear 19 1020 55 10000 5.14 330 17:43 19.02.2021
3208 Clear 19 1019 55 10000 6.17 340 16:44 19.02.2021
3209 Clear 19 1019 55 10000 7.72 340 16:22 19.02.2021
3210 Clear 19 1019 52 10000 7.72 340 15:55 19.02.2021
3211 Clear 19 1019 52 10000 8.75 350 15:30 19.02.2021
3212 Clear 19 1019 52 10000 8.75 350 15:30 19.02.2021
3213 Clear 20 1019 56 10000 8.75 340 14:55 19.02.2021
3214 Clear 20 1019 56 10000 8.75 340 14:34 19.02.2021
3215 Clear 21 1018 49 10000 9.26 350 13:56 19.02.2021
3216 Clear 21 1018 49 10000 9.26 350 13:56 19.02.2021
3217 Clear 21 1018 49 10000 9.26 350 13:36 19.02.2021
3218 Clear 21 1019 49 10000 8.75 350 12:55 19.02.2021
3219 Clouds 21 1019 49 10000 9.26 340 12:36 19.02.2021
3220 Clouds 21 1019 49 10000 9.26 340 12:18 19.02.2021
3221 Clouds 21 1019 52 10000 9.26 340 11:35 19.02.2021
3222 Clouds 20 1019 56 10000 8.75 340 10:55 19.02.2021
3223 Rain 20 1020 52 10000 8.23 330 10:34 19.02.2021
3224 Clouds 20 1021 52 10000 6.17 320 09:58 19.02.2021
3225 Clouds 20 1020 56 10000 7.72 340 09:28 19.02.2021
3226 Clouds 20 1021 56 8000 7.72 330 08:55 19.02.2021
3227 Clouds 20 1021 52 8000 8.75 330 08:29 19.02.2021
3228 Clouds 20 1021 56 7000 9.77 340 07:57 19.02.2021
3229 Clouds 20 1021 56 7000 9.77 340 07:37 19.02.2021
3230 Clouds 20 1020 56 7000 9.77 330 07:19 19.02.2021
3231 Clouds 19 1020 56 7000 9.77 330 06:36 19.02.2021
3232 Clear 19 1019 72 10000 6.69 320 04:42 19.02.2021
3233 Clouds 20 1017 73 10000 6.69 320 02:47 19.02.2021
3234 Clouds 20 1017 77 10000 8.23 330 01:28 19.02.2021
3235 Clouds 20 1017 77 10000 6.17 320 00:35 19.02.2021
3236 Clouds 20 1016 83 10000 6.69 330 23:45 18.02.2021
3237 Clouds 20 1016 78 10000 6.69 330 23:27 18.02.2021
3238 Clouds 21 1016 83 10000 5.66 320 22:37 18.02.2021
3239 Clear 21 1016 83 10000 6.17 320 22:18 18.02.2021
3240 Clear 21 1017 73 10000 6.17 330 21:40 18.02.2021
3241 Clear 21 1017 73 10000 6.17 330 21:21 18.02.2021
3242 Clear 22 1016 78 10000 5.66 330 20:39 18.02.2021
3243 Clouds 22 1017 78 9000 7.2 330 20:21 18.02.2021
3244 Clear 23 1017 68 10000 5.66 330 19:43 18.02.2021
3245 Clear 23 1016 68 10000 5.14 340 19:20 18.02.2021
3246 Clear 23 1016 73 10000 5.14 360 18:50 18.02.2021
3247 Clear 23 1016 68 10000 6.17 350 18:26 18.02.2021
3248 Clear 24 1016 60 10000 6.69 350 17:49 18.02.2021
3249 Clear 24 1015 57 10000 7.2 350 17:24 18.02.2021
3250 Clear 25 1015 57 10000 6.17 360 16:46 18.02.2021
3251 Clear 25 1015 69 10000 5.14 360 16:28 18.02.2021
3252 Clear 26 1014 57 10000 4.63 10 15:43 18.02.2021
3253 Clear 26 1014 50 10000 5.14 10 15:23 18.02.2021
3254 Clear 27 1014 44 10000 3.6 20 14:53 18.02.2021
3255 Clear 28 1013 42 10000 2.57 360 14:34 18.02.2021
3256 Rain 30 1013 22 10000 2.06 240 13:50 18.02.2021
3257 Rain 30 1013 22 10000 2.06 240 13:50 18.02.2021
3258 Clear 31 1013 20 10000 1.54 0 13:22 18.02.2021
3259 Clear 31 1013 23 10000 3.09 280 12:55 18.02.2021
3260 Clear 31 1013 23 10000 3.09 280 12:33 18.02.2021
3261 Clear 30 1013 25 10000 5.66 260 11:47 18.02.2021
3262 Clear 30 1013 25 10000 5.66 260 11:47 18.02.2021
3263 Clear 30 1013 25 10000 5.14 230 11:28 18.02.2021
3264 Clear 30 1013 25 10000 4.63 210 10:58 18.02.2021
3265 Clear 30 1014 25 10000 5.66 230 10:37 18.02.2021
3266 Clear 30 1014 25 10000 5.66 230 10:19 18.02.2021
3267 Clear 30 1014 25 10000 7.2 200 09:32 18.02.2021
3268 Clear 28 1014 34 10000 6.17 190 08:59 18.02.2021
3269 Clear 28 1014 34 10000 5.66 180 08:31 18.02.2021
3270 Clear 26 1014 38 10000 5.66 170 07:49 18.02.2021
3271 Clear 25 1014 41 10000 5.14 170 07:24 18.02.2021
3272 Clear 24 1013 53 10000 4.12 160 06:18 18.02.2021
3273 Mist 21 1010 88 5000 2.57 100 00:40 18.02.2021
3274 Mist 21 1011 94 2500 3.6 80 23:46 17.02.2021
3275 Mist 21 1011 94 2500 2.57 80 23:19 17.02.2021
3276 Mist 21 1012 94 3000 2.57 70 22:40 17.02.2021
3277 Mist 21 1012 94 3000 2.57 70 22:40 17.02.2021
3278 Haze 20 1012 94 3500 2.06 50 22:22 17.02.2021
3279 Haze 20 1012 94 3500 2.06 50 22:22 17.02.2021
3280 Haze 20 1012 94 5000 2.06 40 21:45 17.02.2021
3281 Haze 20 1012 94 5000 1.54 50 21:20 17.02.2021
3282 Haze 21 1012 88 5000 1.54 60 20:42 17.02.2021
3283 Haze 21 1012 88 5000 1.54 70 20:23 17.02.2021
3284 Haze 21 1012 88 5000 2.57 70 19:38 17.02.2021
3285 Mist 21 1012 88 3000 2.06 80 19:18 17.02.2021
3286 Clouds 21 1012 88 6000 3.09 70 18:40 17.02.2021
3287 Clouds 21 1012 88 8000 2.57 60 17:59 17.02.2021
3288 Clouds 21 1012 88 8000 2.57 60 17:36 17.02.2021
3289 Clouds 22 1011 73 9000 2.57 60 17:18 17.02.2021
3290 Clouds 22 1011 73 9000 2.57 80 16:42 17.02.2021
3291 Clouds 22 1011 73 9000 2.57 80 16:22 17.02.2021
3292 Clouds 22 1011 73 8000 3.09 80 15:43 17.02.2021
3293 Clear 23 1011 68 9000 3.6 100 15:22 17.02.2021
3294 Clear 23 1011 64 9000 4.12 100 14:45 17.02.2021
3295 Clear 24 1011 53 10000 3.6 90 14:26 17.02.2021
3296 Clear 24 1011 53 10000 3.6 90 13:45 17.02.2021
3297 Clear 25 1011 53 10000 3.6 110 13:24 17.02.2021
3298 Clear 25 1011 57 10000 4.12 110 12:39 17.02.2021
3299 Clear 26 1011 50 10000 4.63 110 12:20 17.02.2021
3300 Clear 25 1011 60 10000 4.63 110 11:36 17.02.2021
3301 Clear 25 1012 60 10000 5.66 110 11:18 17.02.2021
3302 Clear 25 1012 60 10000 5.66 110 10:44 17.02.2021
3303 Clear 26 1013 41 10000 5.14 130 10:23 17.02.2021
3304 Clear 24 1013 50 10000 4.63 130 09:44 17.02.2021
3305 Clear 25 1014 50 10000 4.63 130 09:25 17.02.2021
3306 Clear 24 1014 64 10000 3.6 120 08:43 17.02.2021
3307 Clear 23 1014 64 10000 4.63 140 08:22 17.02.2021
3308 Clear 22 1014 73 10000 4.12 120 07:33 17.02.2021
3309 Clear 21 1014 78 10000 4.12 120 06:19 17.02.2021
3310 Clear 18 1012 88 8000 1.54 110 02:34 17.02.2021
3311 Clear 18 1012 88 8000 2.06 150 01:55 17.02.2021
3312 Clear 18 1011 88 8000 2.06 120 00:33 17.02.2021
3313 Clear 19 1011 88 10000 2.06 90 23:55 16.02.2021
3314 Clear 19 1011 88 10000 2.06 90 23:36 16.02.2021
3315 Clear 19 1012 88 10000 1.54 90 22:43 16.02.2021
3316 Clear 19 1012 88 10000 2.06 90 22:25 16.02.2021
3317 Clear 19 1012 82 10000 1.54 90 21:54 16.02.2021
3318 Clear 19 1012 82 10000 1.03 0 21:36 16.02.2021
3319 Clear 19 1012 82 10000 1.03 0 21:18 16.02.2021
3320 Clear 19 1013 88 10000 1.54 120 20:41 16.02.2021
3321 Clear 20 1013 88 10000 2.06 130 20:20 16.02.2021
3322 Clear 20 1013 88 10000 2.06 120 19:42 16.02.2021
3323 Clear 20 1013 83 10000 2.06 110 19:23 16.02.2021
3324 Clear 20 1013 77 10000 2.57 100 18:41 16.02.2021
3325 Clear 20 1013 83 10000 2.06 100 18:22 16.02.2021
3326 Clear 20 1012 77 8000 2.06 110 17:52 16.02.2021
3327 Clear 21 1012 77 9000 2.06 110 17:27 16.02.2021
3328 Clear 22 1012 78 9000 2.57 110 16:51 16.02.2021
3329 Clear 21 1011 73 9000 2.57 110 16:29 16.02.2021
3330 Clear 23 1011 73 9000 3.09 110 15:53 16.02.2021
3331 Clear 23 1011 68 9000 3.6 100 15:32 16.02.2021
3332 Clear 23 1011 68 10000 4.12 90 14:57 16.02.2021
3333 Clear 23 1011 68 10000 4.12 90 14:38 16.02.2021
3334 Clear 24 1011 60 10000 3.6 90 14:19 16.02.2021
3335 Clear 25 1011 46 10000 3.6 90 13:38 16.02.2021
3336 Clear 26 1011 44 10000 3.6 100 12:52 16.02.2021
3337 Clear 26 1011 38 10000 2.57 90 12:29 16.02.2021
3338 Clear 25 1011 50 10000 3.6 100 11:58 16.02.2021
3339 Clear 25 1011 50 10000 3.6 100 11:38 16.02.2021
3340 Clear 26 1011 53 10000 3.09 90 11:19 16.02.2021
3341 Clear 26 1012 50 10000 2.57 90 10:45 16.02.2021
3342 Clear 26 1012 53 10000 3.09 90 10:26 16.02.2021
3343 Clear 24 1013 60 8000 3.09 80 09:50 16.02.2021
3344 Clear 25 1013 39 8000 1.03 0 09:26 16.02.2021
3345 Clear 24 1014 44 8000 1.03 0 08:51 16.02.2021
3346 Clear 23 1014 57 7000 1.03 0 08:26 16.02.2021
3347 Clear 24 1014 57 7000 1.03 0 07:42 16.02.2021
3348 Haze 22 1014 64 5000 1.03 0 06:49 16.02.2021
3349 Clear 16 1013 88 10000 1.54 240 02:38 16.02.2021
3350 Clear 17 1012 77 10000 1.03 0 23:52 15.02.2021
3351 Clear 18 1013 72 10000 1.54 250 23:27 15.02.2021
3352 Clear 18 1013 82 10000 1.03 0 22:47 15.02.2021
3353 Clear 18 1013 82 10000 1.54 300 22:26 15.02.2021
3354 Clear 18 1013 82 10000 1.54 10 21:43 15.02.2021
3355 Clear 19 1013 77 10000 1.03 360 21:24 15.02.2021
3356 Clear 19 1014 77 10000 1.54 20 20:53 15.02.2021
3357 Clear 19 1014 77 10000 1.54 20 20:35 15.02.2021
3358 Clear 19 1014 72 10000 1.54 340 19:50 15.02.2021
3359 Clear 20 1014 73 10000 2.06 350 19:25 15.02.2021
3360 Clear 21 1014 77 10000 2.57 10 18:54 15.02.2021
3361 Clear 21 1014 78 10000 2.57 10 18:27 15.02.2021
3362 Clear 21 1014 73 10000 1.54 30 17:57 15.02.2021
3363 Clear 21 1014 73 10000 1.54 30 17:39 15.02.2021
3364 Clear 21 1014 78 10000 2.57 20 17:20 15.02.2021
3365 Clear 22 1013 78 10000 2.57 20 16:37 15.02.2021
3366 Clear 22 1013 68 10000 3.09 10 16:18 15.02.2021
3367 Clear 23 1013 68 10000 3.09 10 15:42 15.02.2021
3368 Clear 24 1013 56 10000 5.14 360 15:19 15.02.2021
3369 Clear 24 1013 56 10000 5.14 360 14:43 15.02.2021
3370 Clear 25 1013 50 10000 5.14 10 14:20 15.02.2021
3371 Clear 25 1012 41 10000 5.14 360 13:49 15.02.2021
3372 Clear 26 1013 34 10000 5.14 10 13:20 15.02.2021
3373 Clear 27 1013 36 10000 4.63 10 12:45 15.02.2021
3374 Clear 27 1013 32 10000 5.14 10 12:25 15.02.2021
3375 Clear 29 1013 28 10000 5.66 360 11:51 15.02.2021
3376 Clear 29 1014 30 10000 4.63 350 11:25 15.02.2021
3377 Clear 28 1014 30 10000 4.63 350 10:50 15.02.2021
3378 Clear 28 1014 30 10000 5.14 350 10:28 15.02.2021
3379 Clear 27 1015 32 10000 5.66 340 09:57 15.02.2021
3380 Clear 27 1015 32 10000 4.63 340 09:39 15.02.2021
3381 Clear 27 1015 32 10000 4.63 340 09:21 15.02.2021
3382 Clear 26 1016 36 10000 3.6 320 08:20 15.02.2021
3383 Clear 22 1016 56 10000 3.09 320 06:59 15.02.2021
3384 Clear 22 1016 56 10000 3.09 320 06:40 15.02.2021
3385 Clear 18 1015 72 10000 4.12 300 02:47 15.02.2021
3386 Clear 18 1015 68 10000 3.6 300 01:55 15.02.2021
3387 Clear 18 1015 68 10000 2.57 310 23:59 14.02.2021
3388 Clear 18 1015 68 10000 1.54 310 23:23 14.02.2021
3389 Clear 19 1016 60 10000 2.57 300 22:41 14.02.2021
3390 Clear 19 1016 60 10000 2.06 290 22:22 14.02.2021
3391 Clear 19 1016 59 10000 1.03 0 21:51 14.02.2021
3392 Clear 20 1016 49 10000 2.06 320 21:29 14.02.2021
3393 Clear 20 1016 49 10000 2.06 320 21:29 14.02.2021
3394 Clear 20 1016 52 10000 3.09 310 20:53 14.02.2021
3395 Clear 20 1016 52 10000 1.54 320 20:30 14.02.2021
3396 Clear 21 1016 46 10000 2.57 330 19:49 14.02.2021
3397 Clear 21 1016 43 10000 2.57 300 18:59 14.02.2021
3398 Clear 21 1016 43 10000 2.57 300 18:39 14.02.2021
3399 Clear 22 1015 40 10000 3.6 310 18:20 14.02.2021
3400 Clear 23 1015 38 10000 3.6 310 17:39 14.02.2021
3401 Clear 24 1015 43 10000 2.06 320 16:57 14.02.2021
3402 Clear 24 1015 43 10000 2.06 320 16:38 14.02.2021
3403 Clear 24 1015 44 10000 2.06 330 16:18 14.02.2021
3404 Clear 25 1014 47 10000 2.57 340 15:40 14.02.2021
3405 Clear 25 1015 53 10000 2.57 360 14:51 14.02.2021
3406 Clear 25 1015 53 10000 3.09 10 14:27 14.02.2021
3407 Clear 26 1015 53 10000 3.6 20 13:54 14.02.2021
3408 Clear 26 1015 47 10000 3.6 20 13:30 14.02.2021
3409 Clear 28 1015 39 10000 4.63 360 12:45 14.02.2021
3410 Clear 28 1015 36 10000 4.63 360 12:21 14.02.2021
3411 Clear 28 1015 32 10000 5.14 360 11:50 14.02.2021
3412 Clear 27 1015 36 10000 4.12 360 11:22 14.02.2021
3413 Clear 27 1016 38 10000 4.63 330 10:45 14.02.2021
3414 Clear 26 1017 38 10000 3.6 300 09:57 14.02.2021
3415 Clear 26 1017 38 10000 3.6 320 09:38 14.02.2021
3416 Clear 25 1017 38 10000 3.6 320 09:20 14.02.2021
3417 Clear 24 1018 47 10000 2.57 310 08:40 14.02.2021
3418 Clear 23 1018 56 10000 3.6 300 07:56 14.02.2021
3419 Clear 21 1018 64 10000 4.12 310 06:51 14.02.2021
3420 Clear 19 1017 68 10000 2.57 310 05:42 14.02.2021
3421 Clear 17 1016 72 10000 3.09 300 03:31 14.02.2021
3422 Clear 17 1016 68 10000 3.09 310 01:57 14.02.2021
3423 Clear 18 1016 63 10000 2.57 300 00:47 14.02.2021
3424 Clear 18 1016 59 10000 2.57 320 00:26 14.02.2021
3425 Clear 18 1016 59 10000 2.57 310 23:40 13.02.2021
3426 Clear 18 1016 59 10000 2.57 310 23:20 13.02.2021
3427 Clear 18 1016 59 10000 3.09 320 22:41 13.02.2021
3428 Clear 18 1016 59 10000 3.09 320 22:18 13.02.2021
3429 Clear 18 1016 59 10000 3.6 330 21:42 13.02.2021
3430 Clear 19 1017 56 10000 3.6 330 20:53 13.02.2021
3431 Clear 19 1017 56 10000 3.09 330 20:29 13.02.2021
3432 Clear 20 1017 52 10000 3.6 330 19:55 13.02.2021
3433 Clear 20 1017 52 10000 3.6 330 19:37 13.02.2021
3434 Clear 20 1017 49 10000 3.09 330 19:18 13.02.2021
3435 Clear 21 1017 46 10000 3.09 330 18:38 13.02.2021
3436 Clear 21 1016 40 10000 4.63 330 17:55 13.02.2021
3437 Clear 21 1016 43 10000 4.63 340 17:36 13.02.2021
3438 Clear 22 1016 43 10000 4.63 340 17:18 13.02.2021
3439 Clear 22 1016 64 10000 5.14 350 16:42 13.02.2021
3440 Clear 22 1016 64 10000 4.12 10 15:58 13.02.2021
3441 Clear 22 1015 60 10000 4.63 10 15:27 13.02.2021
3442 Clear 22 1015 60 10000 4.63 20 14:42 13.02.2021
3443 Clear 23 1015 53 10000 4.63 10 14:24 13.02.2021
3444 Clear 24 1015 50 10000 5.66 10 13:44 13.02.2021
3445 Clear 24 1015 50 10000 5.66 10 13:23 13.02.2021
3446 Clear 24 1015 50 10000 6.17 10 12:38 13.02.2021
3447 Clear 24 1015 50 10000 5.66 20 12:18 13.02.2021
3448 Clear 24 1015 43 10000 5.14 10 11:40 13.02.2021
3449 Clear 25 1015 43 10000 5.14 10 11:18 13.02.2021
3450 Clear 26 1015 38 10000 5.66 350 10:44 13.02.2021
3451 Clear 26 1016 44 10000 4.63 350 10:23 13.02.2021
3452 Clear 24 1016 46 10000 4.12 340 09:50 13.02.2021
3453 Clear 24 1016 50 10000 4.12 340 09:29 13.02.2021
3454 Clear 24 1017 53 10000 3.6 330 08:52 13.02.2021
3455 Clear 23 1017 53 10000 4.12 330 08:30 13.02.2021
3456 Clear 22 1016 56 10000 3.09 320 07:45 13.02.2021
3457 Clear 20 1016 60 10000 2.57 300 06:35 13.02.2021
3458 Clear 18 1015 77 10000 2.06 300 05:18 13.02.2021
3459 Clear 17 1014 72 10000 2.57 310 03:44 13.02.2021
3460 Clear 17 1013 77 10000 2.57 310 01:25 13.02.2021
3461 Clear 18 1014 72 10000 3.09 300 00:19 13.02.2021
3462 Clear 18 1014 72 10000 3.09 300 23:46 12.02.2021
3463 Clear 18 1014 72 10000 3.6 310 23:20 12.02.2021
3464 Clear 18 1014 72 10000 3.6 310 22:37 12.02.2021
3465 Clear 18 1014 77 10000 2.57 320 22:18 12.02.2021
3466 Clear 19 1014 77 10000 3.6 330 21:42 12.02.2021
3467 Clear 19 1014 77 10000 3.6 330 21:22 12.02.2021
3468 Clear 19 1015 77 10000 3.6 330 20:45 12.02.2021
3469 Clear 19 1015 68 10000 4.12 330 20:26 12.02.2021
3470 Clear 19 1015 68 10000 4.12 330 20:26 12.02.2021
3471 Clear 19 1015 64 10000 4.12 330 19:55 12.02.2021
3472 Clear 20 1015 60 10000 3.6 330 19:29 12.02.2021
3473 Clear 20 1015 52 10000 2.57 310 18:38 12.02.2021
3474 Clear 21 1015 43 10000 3.09 320 18:18 12.02.2021
3475 Clear 21 1014 40 10000 4.12 310 17:38 12.02.2021
3476 Clear 22 1014 40 10000 4.63 330 16:54 12.02.2021
3477 Clear 23 1013 38 10000 4.63 330 16:18 12.02.2021
3478 Clear 24 1013 41 10000 5.14 340 15:43 12.02.2021
3479 Clear 25 1013 36 10000 6.69 350 15:20 12.02.2021
3480 Clear 25 1013 44 10000 5.14 360 14:37 12.02.2021
3481 Clear 25 1012 38 10000 6.69 10 13:51 12.02.2021
3482 Clear 25 1012 41 10000 6.69 10 13:32 12.02.2021
3483 Clear 26 1012 36 10000 7.2 10 12:54 12.02.2021
3484 Clear 26 1012 36 10000 7.2 10 12:35 12.02.2021
3485 Clear 27 1013 34 10000 6.17 10 11:48 12.02.2021
3486 Clear 27 1013 29 10000 6.69 350 11:22 12.02.2021
3487 Clear 27 1013 31 10000 6.69 350 10:48 12.02.2021
3488 Clear 26 1014 38 10000 5.14 350 10:19 12.02.2021
3489 Clear 26 1014 38 10000 5.66 340 09:42 12.02.2021
3490 Clear 25 1015 44 10000 4.63 320 09:23 12.02.2021
3491 Clear 24 1015 50 10000 4.12 320 08:45 12.02.2021
3492 Clear 23 1015 53 10000 4.63 320 08:22 12.02.2021
3493 Clear 22 1016 60 10000 4.12 310 07:51 12.02.2021
3494 Clear 22 1016 60 10000 3.6 300 07:21 12.02.2021
3495 Clear 21 1016 64 10000 3.6 310 06:49 12.02.2021
3496 Clear 18 1015 72 10000 2.06 280 05:29 12.02.2021
3497 Clear 17 1014 88 10000 1.03 0 03:35 12.02.2021
3498 Clear 17 1013 88 10000 3.6 310 00:32 12.02.2021
3499 Clear 18 1014 88 6000 4.63 310 23:38 11.02.2021
3500 Clear 18 1014 88 6000 4.63 310 23:18 11.02.2021
3501 Clear 18 1014 88 6000 3.6 310 22:42 11.02.2021
3502 Clear 18 1014 88 6000 3.6 310 22:22 11.02.2021
3503 Clear 18 1014 88 6000 3.6 310 21:43 11.02.2021
3504 Clear 18 1015 88 6000 4.12 310 21:24 11.02.2021
3505 Clear 19 1014 77 6000 3.09 320 20:54 11.02.2021
3506 Clear 19 1015 77 8000 2.57 300 20:36 11.02.2021
3507 Clear 19 1015 77 8000 2.57 300 20:18 11.02.2021
3508 Clear 20 1015 73 9000 3.09 310 19:45 11.02.2021
3509 Clear 20 1015 68 10000 3.09 310 19:23 11.02.2021
3510 Clear 20 1015 68 10000 3.09 310 18:37 11.02.2021
3511 Clear 20 1015 88 10000 1.03 360 18:18 11.02.2021
3512 Clear 21 1014 83 10000 1.54 20 17:39 11.02.2021
3513 Clear 21 1014 83 10000 1.54 20 17:19 11.02.2021
3514 Clear 22 1014 83 10000 2.57 10 16:42 11.02.2021
3515 Clear 21 1014 83 10000 2.57 10 16:24 11.02.2021
3516 Clear 22 1014 73 10000 3.09 20 15:45 11.02.2021
3517 Clear 22 1013 68 10000 3.09 20 15:26 11.02.2021
3518 Clear 23 1013 64 10000 3.6 20 14:53 11.02.2021
3519 Clear 23 1013 64 10000 3.6 30 14:30 11.02.2021
3520 Clear 25 1013 44 10000 4.12 10 13:42 11.02.2021
3521 Clear 26 1013 44 10000 4.12 10 13:19 11.02.2021
3522 Clear 26 1013 44 10000 4.12 20 12:53 11.02.2021
3523 Clear 26 1013 41 10000 3.6 340 12:32 11.02.2021
3524 Clear 26 1014 38 10000 2.57 350 11:47 11.02.2021
3525 Clear 26 1014 38 10000 3.6 330 11:26 11.02.2021
3526 Clear 25 1015 41 10000 1.54 0 10:45 11.02.2021
3527 Clear 25 1015 47 9000 1.54 0 10:26 11.02.2021
3528 Clear 24 1016 50 8000 2.06 0 09:55 11.02.2021
3529 Clear 24 1016 50 7000 1.54 0 09:24 11.02.2021
3530 Clear 23 1016 56 7000 2.06 300 08:55 11.02.2021
3531 Clear 21 1017 64 7000 2.57 290 08:30 11.02.2021
3532 Haze 20 1017 73 5000 2.57 290 07:39 11.02.2021
3533 Mist 18 1016 88 3000 2.06 280 06:41 11.02.2021
3534 Mist 16 1016 88 3000 2.06 300 05:38 11.02.2021
3535 Mist 16 1015 94 2500 4.63 300 02:43 11.02.2021
3536 Mist 16 1015 94 2500 3.6 310 02:19 11.02.2021
3537 Haze 17 1015 88 4000 3.09 290 00:22 11.02.2021
3538 Haze 17 1015 88 5000 2.57 290 23:45 10.02.2021
3539 Haze 17 1016 88 5000 1.54 310 23:18 10.02.2021
3540 Haze 17 1016 94 5000 1.54 330 22:42 10.02.2021
3541 Haze 17 1016 94 5000 1.54 310 22:18 10.02.2021
3542 Haze 18 1017 82 5000 2.57 300 21:38 10.02.2021
3543 Haze 18 1017 82 5000 2.57 300 21:19 10.02.2021
3544 Clear 18 1017 82 8000 2.57 330 20:42 10.02.2021
3545 Clear 18 1017 82 8000 2.57 330 20:24 10.02.2021
3546 Clear 19 1017 82 10000 3.6 340 19:47 10.02.2021
3547 Clear 19 1017 73 10000 3.6 330 19:26 10.02.2021
3548 Clear 20 1017 73 10000 3.6 340 18:47 10.02.2021
3549 Clear 20 1017 68 10000 4.63 340 18:24 10.02.2021
3550 Clear 21 1017 68 10000 4.12 340 17:57 10.02.2021
3551 Clear 21 1016 60 10000 4.12 340 17:24 10.02.2021
3552 Clear 22 1016 60 10000 2.06 340 16:57 10.02.2021
3553 Clear 22 1016 60 10000 2.06 340 16:37 10.02.2021
3554 Clear 21 1016 83 10000 3.09 20 16:18 10.02.2021
3555 Clear 23 1016 73 10000 3.09 10 15:24 10.02.2021
3556 Clear 22 1016 73 10000 3.09 10 15:24 10.02.2021
3557 Clear 23 1016 68 10000 3.6 10 14:52 10.02.2021
3558 Clear 23 1016 68 10000 3.6 10 14:34 10.02.2021
3559 Clear 25 1015 60 10000 4.63 10 13:53 10.02.2021
3560 Clear 25 1015 47 10000 4.63 360 13:29 10.02.2021
3561 Clear 27 1016 41 10000 4.12 360 12:53 10.02.2021
3562 Clear 26 1016 47 10000 4.12 10 12:30 10.02.2021
3563 Clear 26 1016 47 10000 3.6 340 11:57 10.02.2021
3564 Clear 26 1016 47 10000 3.6 340 11:38 10.02.2021
3565 Clear 26 1017 47 10000 4.12 350 11:19 10.02.2021
3566 Clear 25 1017 57 10000 5.14 350 10:23 10.02.2021
3567 Clear 24 1018 57 10000 4.63 330 09:56 10.02.2021
3568 Clear 24 1018 57 10000 4.12 330 09:31 10.02.2021
3569 Clear 23 1019 64 10000 4.63 330 08:53 10.02.2021
3570 Clear 22 1019 64 10000 6.17 330 08:32 10.02.2021
3571 Clear 19 1019 77 10000 6.17 330 07:34 10.02.2021
3572 Haze 18 1019 82 5000 3.6 320 06:21 10.02.2021
3573 Clouds 17 1018 88 6000 4.63 310 01:24 10.02.2021
3574 Clouds 17 1019 88 8000 5.14 310 23:49 09.02.2021
3575 Clouds 17 1019 88 8000 4.12 310 23:30 09.02.2021
3576 Clouds 17 1019 88 8000 5.66 310 22:45 09.02.2021
3577 Clouds 18 1019 88 8000 5.14 310 22:23 09.02.2021
3578 Clouds 18 1020 88 8000 4.63 310 21:48 09.02.2021
3579 Clear 18 1020 82 10000 4.63 310 21:21 09.02.2021
3580 Clear 18 1020 82 10000 4.63 310 20:44 09.02.2021
3581 Clear 18 1020 82 10000 4.12 310 20:25 09.02.2021
3582 Clear 19 1020 82 10000 3.6 300 19:44 09.02.2021
3583 Clear 19 1020 73 10000 4.12 310 19:23 09.02.2021
3584 Clear 19 1020 73 10000 3.09 320 18:49 09.02.2021
3585 Clear 19 1020 73 10000 3.6 320 18:30 09.02.2021
3586 Clear 20 1020 73 10000 4.12 310 17:50 09.02.2021
3587 Clear 20 1020 73 10000 4.12 310 17:50 09.02.2021
3588 Clear 20 1020 64 10000 4.12 320 17:27 09.02.2021
3589 Clear 21 1020 64 10000 5.14 320 16:54 09.02.2021
3590 Clear 21 1019 60 10000 4.12 330 16:20 09.02.2021
3591 Clear 22 1019 56 10000 4.12 320 15:58 09.02.2021
3592 Clear 22 1019 56 10000 4.12 320 15:39 09.02.2021
3593 Clear 22 1019 53 10000 5.66 330 15:20 09.02.2021
3594 Clear 23 1019 53 9000 7.2 340 14:42 09.02.2021
3595 Clear 24 1019 50 9000 8.23 340 14:21 09.02.2021
3596 Clear 25 1019 50 9000 8.23 340 13:41 09.02.2021
3597 Clouds 25 1019 50 9000 8.75 350 13:20 09.02.2021
3598 Clouds 25 1019 50 9000 9.26 350 12:47 09.02.2021
3599 Clear 25 1019 53 10000 9.26 340 12:27 09.02.2021
3600 Clear 25 1019 50 10000 9.77 340 11:44 09.02.2021
3601 Clear 25 1019 53 10000 9.26 350 11:22 09.02.2021
3602 Clear 25 1020 50 10000 7.72 330 10:57 09.02.2021
3603 Clear 25 1020 50 10000 8.23 330 10:23 09.02.2021
3604 Clouds 24 1021 53 9000 7.2 330 09:54 09.02.2021
3605 Clouds 23 1022 64 9000 5.66 310 09:27 09.02.2021
3606 Clouds 22 1022 64 9000 5.14 310 08:57 09.02.2021
3607 Clouds 22 1022 64 9000 5.66 330 08:29 09.02.2021
3608 Clouds 21 1023 68 6000 5.14 320 07:53 09.02.2021
3609 Clouds 17 1022 88 6000 3.6 290 05:35 09.02.2021
3610 Clear 17 1021 82 10000 5.14 300 03:49 09.02.2021
3611 Clouds 17 1022 82 10000 3.6 300 01:52 09.02.2021
3612 Clear 17 1022 77 10000 3.09 300 00:31 09.02.2021
3613 Clear 17 1022 77 10000 3.09 300 23:40 08.02.2021
3614 Clear 18 1022 77 10000 3.6 310 23:18 08.02.2021
3615 Clear 18 1022 77 10000 3.6 310 22:42 08.02.2021
3616 Clear 18 1022 77 10000 3.6 310 22:22 08.02.2021
3617 Clear 18 1022 77 10000 4.12 310 21:45 08.02.2021
3618 Clear 18 1022 72 10000 5.14 310 21:22 08.02.2021
3619 Clear 18 1022 72 10000 4.63 310 20:44 08.02.2021
3620 Clear 18 1023 72 10000 3.6 310 20:25 08.02.2021
3621 Clear 18 1023 68 10000 4.12 310 19:59 08.02.2021
3622 Clear 19 1023 68 10000 4.12 310 19:41 08.02.2021
3623 Clear 19 1022 68 10000 4.63 320 19:21 08.02.2021
3624 Clear 19 1023 68 10000 4.12 320 18:42 08.02.2021
3625 Clear 19 1022 64 10000 4.63 330 18:19 08.02.2021
3626 Clear 20 1022 64 10000 4.12 330 17:43 08.02.2021
3627 Clear 20 1022 64 10000 4.63 330 17:23 08.02.2021
3628 Clear 20 1021 60 10000 5.66 320 16:41 08.02.2021
3629 Clear 20 1021 56 10000 6.17 320 16:21 08.02.2021
3630 Clear 21 1021 56 10000 5.14 320 15:41 08.02.2021
3631 Clouds 21 1020 53 10000 7.72 330 15:19 08.02.2021
3632 Clouds 22 1020 56 10000 8.23 340 14:51 08.02.2021
3633 Clouds 22 1020 64 10000 7.2 10 14:30 08.02.2021
3634 Clouds 22 1020 60 10000 6.17 10 13:56 08.02.2021
3635 Clouds 23 1020 56 10000 6.17 10 13:32 08.02.2021
3636 Clouds 24 1020 53 10000 7.2 20 12:51 08.02.2021
3637 Clouds 24 1020 53 10000 7.2 20 12:32 08.02.2021
3638 Clouds 23 1020 53 10000 6.69 10 11:43 08.02.2021
3639 Clouds 24 1021 56 10000 5.66 10 11:18 08.02.2021
3640 Clouds 24 1021 49 10000 6.17 360 10:42 08.02.2021
3641 Clouds 24 1022 53 10000 7.2 350 10:23 08.02.2021
3642 Clouds 23 1022 53 10000 6.17 350 09:50 08.02.2021
3643 Clouds 23 1022 56 10000 5.14 340 09:22 08.02.2021
3644 Clouds 22 1023 60 10000 4.63 320 08:31 08.02.2021
3645 Clouds 21 1023 60 10000 4.63 310 07:51 08.02.2021
3646 Clear 21 1022 64 10000 4.12 310 07:22 08.02.2021
3647 Clear 18 1021 72 10000 2.57 310 05:29 08.02.2021
3648 Clear 18 1019 72 10000 3.6 330 02:28 08.02.2021
3649 Clear 18 1019 77 10000 3.6 320 00:56 08.02.2021
3650 Clear 19 1019 82 10000 4.63 330 00:21 08.02.2021
3651 Clear 19 1019 77 10000 4.63 330 23:46 07.02.2021
3652 Clear 19 1019 72 10000 4.12 330 23:20 07.02.2021
3653 Clear 19 1019 77 10000 4.12 330 22:44 07.02.2021
3654 Clear 19 1019 82 10000 5.66 330 22:25 07.02.2021
3655 Clear 20 1019 77 10000 4.63 330 21:52 07.02.2021
3656 Clear 20 1019 77 10000 4.12 330 21:27 07.02.2021
3657 Clear 20 1019 77 10000 5.14 330 20:54 07.02.2021
3658 Clouds 20 1019 77 10000 6.17 330 20:33 07.02.2021
3659 Clouds 20 1019 73 10000 4.63 330 19:55 07.02.2021
3660 Clouds 20 1018 78 10000 4.12 330 19:31 07.02.2021
3661 Clouds 21 1018 78 10000 5.14 330 18:55 07.02.2021
3662 Clouds 21 1018 78 10000 6.69 330 18:36 07.02.2021
3663 Clouds 21 1018 78 10000 6.69 330 18:18 07.02.2021
3664 Clouds 21 1017 78 10000 6.17 330 17:41 07.02.2021
3665 Clouds 21 1017 78 10000 6.17 330 17:19 07.02.2021
3666 Clouds 22 1016 78 10000 7.2 340 16:47 07.02.2021
3667 Clouds 22 1016 78 10000 6.69 340 16:23 07.02.2021
3668 Clouds 23 1015 68 10000 7.2 340 15:49 07.02.2021
3669 Clouds 24 1015 60 10000 6.69 320 15:28 07.02.2021
3670 Clouds 25 1015 53 10000 5.66 300 14:57 07.02.2021
3671 Clear 25 1014 47 10000 3.09 260 14:39 07.02.2021
3672 Clear 25 1014 47 10000 3.09 260 14:18 07.02.2021
3673 Clear 26 1014 41 10000 4.12 0 13:35 07.02.2021
3674 Clear 27 1014 36 10000 4.63 200 12:54 07.02.2021
3675 Clear 26 1014 39 10000 5.66 180 12:36 07.02.2021
3676 Clear 27 1014 39 10000 5.66 180 12:18 07.02.2021
3677 Clear 27 1014 39 10000 5.66 210 11:27 07.02.2021
3678 Clear 27 1015 39 10000 6.17 190 10:51 07.02.2021
3679 Clear 27 1015 41 10000 5.66 190 10:27 07.02.2021
3680 Clear 26 1016 41 10000 5.14 180 09:49 07.02.2021
3681 Clear 26 1016 44 10000 7.72 180 09:24 07.02.2021
3682 Clear 25 1016 44 10000 8.23 170 08:38 07.02.2021
3683 Clear 24 1016 60 10000 6.69 150 07:47 07.02.2021
3684 Clear 20 1015 88 10000 3.09 130 05:58 07.02.2021
3685 Clear 21 1014 83 10000 3.09 110 03:59 07.02.2021
3686 Clear 21 1013 78 10000 4.63 100 01:51 07.02.2021
3687 Clear 21 1013 78 10000 5.66 110 00:36 07.02.2021
3688 Clear 21 1013 83 10000 4.63 100 23:50 06.02.2021
3689 Clear 21 1013 83 10000 4.63 100 22:52 06.02.2021
3690 Clear 21 1014 83 10000 3.09 110 21:45 06.02.2021
3691 Clear 21 1014 83 10000 2.57 100 21:24 06.02.2021
3692 Clear 21 1014 83 10000 3.6 90 20:53 06.02.2021
3693 Clear 21 1014 83 10000 4.63 80 20:27 06.02.2021
3694 Clear 21 1014 83 10000 4.63 80 19:59 06.02.2021
3695 Clear 21 1014 83 10000 4.63 80 19:40 06.02.2021
3696 Clear 21 1014 83 10000 2.57 40 19:19 06.02.2021
3697 Clear 21 1014 83 10000 3.09 20 18:43 06.02.2021
3698 Clear 21 1014 83 10000 2.57 30 18:24 06.02.2021
3699 Clear 21 1014 78 10000 3.09 40 17:41 06.02.2021
3700 Clear 21 1014 78 10000 2.06 20 17:21 06.02.2021
3701 Clear 22 1014 78 10000 2.06 360 16:47 06.02.2021
3702 Clear 22 1014 68 10000 2.06 40 16:29 06.02.2021
3703 Clear 22 1013 64 10000 1.54 30 15:52 06.02.2021
3704 Clear 23 1013 56 10000 2.06 70 15:29 06.02.2021
3705 Clear 24 1013 56 10000 3.09 90 14:49 06.02.2021
3706 Clear 24 1013 53 10000 3.6 110 14:29 06.02.2021
3707 Clear 25 1013 50 10000 5.14 120 13:57 06.02.2021
3708 Clear 25 1013 50 10000 5.14 120 13:38 06.02.2021
3709 Clear 25 1013 44 10000 7.72 140 12:24 06.02.2021
3710 Clear 25 1013 44 10000 7.72 140 11:58 06.02.2021
3711 Clear 25 1013 44 10000 7.72 140 11:40 06.02.2021
3712 Clear 25 1013 44 10000 8.23 130 11:19 06.02.2021
3713 Clear 25 1014 47 10000 7.72 140 10:49 06.02.2021
3714 Clear 25 1014 47 10000 7.2 140 10:25 06.02.2021
3715 Clear 25 1015 47 10000 7.72 140 09:38 06.02.2021
3716 Clear 25 1015 47 10000 8.23 140 09:19 06.02.2021
3717 Clear 24 1016 57 10000 7.72 140 08:56 06.02.2021
3718 Clear 24 1016 57 10000 7.2 140 08:29 06.02.2021
3719 Clear 23 1016 78 10000 5.14 110 06:50 06.02.2021
3720 Clear 21 1015 83 10000 2.57 120 05:41 06.02.2021
3721 Clear 21 1013 88 10000 4.63 120 02:44 06.02.2021
3722 Clear 21 1013 83 9000 5.66 110 00:56 06.02.2021
3723 Clear 21 1013 83 9000 5.66 110 00:37 06.02.2021
3724 Clear 21 1013 83 9000 5.66 100 00:18 06.02.2021
3725 Clear 20 1014 88 9000 4.63 100 23:30 05.02.2021
3726 Clear 20 1014 83 9000 3.6 90 22:50 05.02.2021
3727 Clear 20 1014 83 9000 3.09 90 22:25 05.02.2021
3728 Clear 21 1014 78 9000 2.57 90 21:56 05.02.2021
3729 Clear 21 1014 83 8000 3.09 80 21:36 05.02.2021
3730 Clear 20 1015 83 7000 2.57 80 20:56 05.02.2021
3731 Clear 20 1015 83 7000 2.57 80 20:20 05.02.2021
3732 Haze 20 1015 88 5000 3.6 80 19:45 05.02.2021
3733 Haze 20 1015 94 5000 3.6 80 19:18 05.02.2021
3734 Haze 20 1015 94 5000 3.09 80 18:40 05.02.2021
3735 Haze 20 1015 94 5000 3.09 70 18:19 05.02.2021
3736 Clear 20 1015 88 6000 2.06 50 17:36 05.02.2021
3737 Clear 20 1015 88 6000 2.06 40 16:58 05.02.2021
3738 Clear 20 1015 88 6000 2.06 40 16:39 05.02.2021
3739 Clear 20 1014 83 7000 2.57 50 16:20 05.02.2021
3740 Mist 21 1014 83 5000 2.57 50 15:45 05.02.2021
3741 Mist 21 1014 83 5000 3.09 80 15:22 05.02.2021
3742 Fog 21 1014 83 4000 3.09 80 14:38 05.02.2021
3743 Fog 21 1014 83 3000 3.6 70 14:20 05.02.2021
3744 Fog 21 1014 88 2000 4.63 80 13:48 05.02.2021
3745 Clouds 22 1014 88 6000 4.63 100 13:30 05.02.2021
3746 Clouds 22 1014 88 6000 4.63 100 13:30 05.02.2021
3747 Clouds 23 1015 78 7000 4.12 90 12:44 05.02.2021
3748 Clouds 24 1015 73 10000 4.12 100 12:23 05.02.2021
3749 Clouds 24 1015 73 10000 4.63 100 11:39 05.02.2021
3750 Clouds 24 1015 73 10000 4.63 110 11:20 05.02.2021
3751 Clouds 24 1016 73 10000 4.63 110 10:49 05.02.2021
3752 Clouds 24 1016 73 10000 5.66 110 10:25 05.02.2021
3753 Clouds 23 1017 73 10000 5.66 110 09:43 05.02.2021
3754 Clouds 23 1018 73 10000 6.17 120 09:24 05.02.2021
3755 Clouds 23 1018 73 10000 5.66 110 08:45 05.02.2021
3756 Clouds 23 1018 78 10000 5.14 110 07:45 05.02.2021
3757 Clouds 22 1018 78 10000 4.63 110 07:26 05.02.2021
3758 Clouds 21 1018 94 7000 3.09 110 06:41 05.02.2021
3759 Mist 19 1018 94 5000 2.06 120 05:35 05.02.2021
3760 Clear 17 1016 94 7000 0.51 90 02:26 05.02.2021
3761 Clear 18 1016 94 7000 2.67 123 01:55 05.02.2021
3762 Clear 18 1016 88 7000 0.51 0 00:38 05.02.2021
3763 Clear 18 1016 94 7000 2.52 108 00:19 05.02.2021
3764 Clear 18 1017 94 7000 2.52 108 23:44 04.02.2021
3765 Clear 18 1017 94 7000 2.02 101 23:25 04.02.2021
3766 Clear 19 1017 94 7000 2.02 101 22:55 04.02.2021
3767 Clear 19 1017 94 7000 2.02 101 22:37 04.02.2021
3768 Clear 19 1017 94 7000 1.03 60 22:18 04.02.2021
3769 Clear 19 1017 94 7000 0.51 0 21:41 04.02.2021
3770 Clear 19 1017 94 7000 0.51 0 21:18 04.02.2021
3771 Clear 19 1017 94 7000 0.51 0 20:45 04.02.2021
3772 Clear 19 1017 94 7000 0.51 0 20:25 04.02.2021
3773 Clear 19 1017 88 9000 0.51 90 19:42 04.02.2021
3774 Clear 19 1017 88 10000 1.54 100 18:51 04.02.2021
3775 Clear 20 1017 83 10000 2.06 100 18:25 04.02.2021
3776 Clear 20 1017 83 10000 1.54 100 17:53 04.02.2021
3777 Clear 20 1017 83 10000 2.06 100 17:25 04.02.2021
3778 Clear 20 1017 83 10000 2.06 100 16:56 04.02.2021
3779 Clear 20 1017 83 10000 2.06 100 16:38 04.02.2021
3780 Clear 20 1017 83 10000 2.57 110 16:18 04.02.2021
3781 Clear 21 1016 77 10000 2.57 90 15:39 04.02.2021
3782 Clear 21 1016 73 10000 3.09 90 15:20 04.02.2021
3783 Clear 22 1016 64 10000 3.09 90 14:42 04.02.2021
3784 Clear 22 1016 60 10000 3.09 90 14:20 04.02.2021
3785 Clear 22 1016 53 10000 3.09 100 13:45 04.02.2021
3786 Clear 23 1016 43 10000 3.6 100 13:20 04.02.2021
3787 Clear 23 1016 43 10000 3.6 90 12:52 04.02.2021
3788 Clear 23 1016 53 10000 3.6 90 11:54 04.02.2021
3789 Clear 23 1016 53 10000 3.6 90 11:34 04.02.2021
3790 Clear 24 1017 46 10000 3.09 110 10:53 04.02.2021
3791 Clear 24 1017 46 10000 3.09 110 10:33 04.02.2021
3792 Clear 24 1018 47 10000 1.54 0 09:45 04.02.2021
3793 Clear 22 1018 53 10000 1.54 360 09:20 04.02.2021
3794 Clear 21 1018 56 9000 1.54 30 08:51 04.02.2021
3795 Clear 21 1019 56 8000 1.54 50 08:25 04.02.2021
3796 Clear 21 1019 64 8000 1.54 10 07:51 04.02.2021
3797 Clear 21 1019 68 7000 1.03 0 07:32 04.02.2021
3798 Clear 20 1019 68 7000 1.54 300 06:45 04.02.2021
3799 Clear 15 1018 88 10000 1.54 240 05:32 04.02.2021
3800 Clear 16 1017 82 10000 1.54 310 02:30 04.02.2021
3801 Clear 16 1017 82 10000 1.54 300 01:24 04.02.2021
3802 Clear 17 1017 72 10000 1.54 310 23:55 03.02.2021
3803 Clear 17 1017 72 10000 1.03 0 23:30 03.02.2021
3804 Clear 17 1018 72 10000 1.03 0 22:38 03.02.2021
3805 Clear 17 1018 68 10000 2.06 330 22:20 03.02.2021
3806 Clear 17 1018 72 10000 2.06 320 21:46 03.02.2021
3807 Clear 17 1018 72 10000 2.57 330 21:23 03.02.2021
3808 Clear 18 1018 72 10000 3.09 330 20:50 03.02.2021
3809 Clear 18 1018 72 10000 3.09 340 20:31 03.02.2021
3810 Clear 19 1018 68 10000 3.6 330 19:55 03.02.2021
3811 Clear 19 1018 68 10000 3.09 340 19:25 03.02.2021
3812 Clear 19 1018 72 10000 2.06 360 18:57 03.02.2021
3813 Clear 19 1018 72 10000 2.06 360 18:37 03.02.2021
3814 Clear 20 1018 73 10000 3.09 360 18:19 03.02.2021
3815 Clear 20 1018 73 10000 3.09 360 17:43 03.02.2021
3816 Clear 20 1018 73 10000 3.09 360 17:19 03.02.2021
3817 Clear 20 1017 73 10000 3.09 10 16:40 03.02.2021
3818 Clear 20 1017 73 10000 3.09 10 16:20 03.02.2021
3819 Clear 20 1017 68 10000 3.6 10 15:39 03.02.2021
3820 Clear 22 1017 60 10000 4.63 360 15:20 03.02.2021
3821 Clear 22 1017 60 10000 4.63 360 14:44 03.02.2021
3822 Clear 22 1017 60 10000 4.63 10 14:21 03.02.2021
3823 Clear 23 1017 53 10000 4.63 360 13:44 03.02.2021
3824 Clear 23 1017 49 10000 4.63 10 13:19 03.02.2021
3825 Clear 23 1017 46 10000 4.63 10 12:40 03.02.2021
3826 Clear 23 1017 46 10000 4.63 10 12:20 03.02.2021
3827 Clear 23 1017 46 10000 4.63 10 12:20 03.02.2021
3828 Clear 24 1017 49 10000 4.63 10 11:42 03.02.2021
3829 Clear 23 1018 43 10000 4.63 360 11:23 03.02.2021
3830 Clear 24 1018 46 10000 4.12 350 10:38 03.02.2021
3831 Clear 24 1018 46 10000 4.12 350 10:18 03.02.2021
3832 Clear 24 1019 49 10000 5.14 350 09:40 03.02.2021
3833 Clear 23 1019 49 10000 4.63 350 09:20 03.02.2021
3834 Clear 22 1020 56 10000 4.63 340 08:46 03.02.2021
3835 Clear 21 1020 64 10000 4.12 310 07:58 03.02.2021
3836 Clear 19 1020 72 10000 3.6 310 06:43 03.02.2021
3837 Clear 19 1020 72 10000 4.63 300 06:20 03.02.2021
3838 Clear 16 1019 77 10000 3.09 300 04:45 03.02.2021
3839 Clear 16 1018 77 10000 3.6 310 03:53 03.02.2021
3840 Clear 16 1018 77 10000 3.6 300 02:42 03.02.2021
3841 Clear 16 1018 77 10000 3.6 310 01:48 03.02.2021
3842 Clear 16 1018 72 10000 3.09 300 00:24 03.02.2021
3843 Clear 16 1019 72 10000 3.6 310 23:44 02.02.2021
3844 Clear 16 1019 72 10000 3.09 300 23:26 02.02.2021
3845 Clear 16 1019 72 10000 2.57 310 22:51 02.02.2021
3846 Clear 16 1019 72 10000 3.09 300 22:21 02.02.2021
3847 Clear 16 1019 72 10000 2.57 320 21:47 02.02.2021
3848 Clear 17 1020 68 10000 2.57 310 21:27 02.02.2021
3849 Clear 17 1020 68 10000 3.09 320 20:50 02.02.2021
3850 Clear 17 1020 68 10000 4.12 330 20:23 02.02.2021
3851 Clear 18 1020 63 10000 4.63 330 19:58 02.02.2021
3852 Clear 18 1020 63 10000 4.63 330 19:39 02.02.2021
3853 Clear 18 1020 63 10000 4.12 320 19:21 02.02.2021
3854 Clear 18 1020 68 10000 6.69 340 18:41 02.02.2021
3855 Clear 19 1020 63 10000 5.14 330 18:22 02.02.2021
3856 Clear 19 1020 59 10000 5.66 330 17:40 02.02.2021
3857 Clear 19 1020 56 10000 5.14 320 17:21 02.02.2021
3858 Clear 20 1020 49 10000 4.63 320 16:50 02.02.2021
3859 Clear 20 1020 49 10000 5.14 320 16:31 02.02.2021
3860 Clear 21 1020 43 10000 4.63 320 15:57 02.02.2021
3861 Clear 21 1020 43 10000 4.63 320 15:33 02.02.2021
3862 Clear 22 1019 38 10000 6.17 330 14:56 02.02.2021
3863 Clear 23 1019 38 10000 5.14 310 14:37 02.02.2021
3864 Clear 23 1019 38 10000 5.14 310 14:18 02.02.2021
3865 Clear 24 1019 38 10000 5.14 330 13:42 02.02.2021
3866 Clear 24 1019 38 10000 6.17 340 13:22 02.02.2021
3867 Clear 24 1019 36 10000 5.66 340 12:51 02.02.2021
3868 Clear 24 1019 38 10000 5.14 320 11:56 02.02.2021
3869 Clear 24 1020 41 10000 5.66 330 11:38 02.02.2021
3870 Clear 24 1020 41 10000 5.66 330 11:18 02.02.2021
3871 Clear 24 1020 43 10000 5.66 320 10:43 02.02.2021
3872 Clear 24 1021 46 10000 5.14 320 10:25 02.02.2021
3873 Clear 23 1022 49 10000 5.14 310 09:41 02.02.2021
3874 Clear 23 1022 49 10000 5.14 310 09:20 02.02.2021
3875 Clear 21 1022 53 10000 5.66 310 08:38 02.02.2021
3876 Clear 20 1022 60 10000 5.14 310 07:46 02.02.2021
3877 Clear 19 1022 68 10000 4.12 290 06:49 02.02.2021
3878 Clear 19 1022 68 10000 3.6 290 06:31 02.02.2021
3879 Clear 19 1022 68 10000 3.6 290 06:31 02.02.2021
3880 Clear 17 1022 77 10000 2.57 290 05:50 02.02.2021
3881 Clear 15 1020 77 10000 3.09 280 02:57 02.02.2021
3882 Clear 15 1020 77 10000 2.57 280 02:24 02.02.2021
3883 Clear 16 1020 72 10000 4.12 310 00:38 02.02.2021
3884 Clear 16 1020 72 10000 4.12 310 23:55 01.02.2021
3885 Clear 16 1021 72 10000 4.63 310 22:57 01.02.2021
3886 Clear 16 1021 72 10000 4.63 310 22:57 01.02.2021
3887 Clear 16 1021 72 10000 4.63 310 22:57 01.02.2021
3888 Clear 16 1021 72 10000 4.63 310 22:38 01.02.2021
3889 Clear 16 1021 72 10000 4.63 310 22:19 01.02.2021
3890 Clear 17 1021 68 10000 4.63 310 21:42 01.02.2021
3891 Clear 17 1021 68 10000 4.63 310 21:21 01.02.2021
3892 Clear 17 1021 63 10000 4.63 310 20:41 01.02.2021
3893 Clear 17 1021 63 10000 4.63 310 20:41 01.02.2021
3894 Clear 17 1021 68 10000 4.12 310 20:23 01.02.2021
3895 Clear 17 1021 68 10000 4.63 310 19:42 01.02.2021
3896 Clear 17 1021 68 10000 3.6 310 19:21 01.02.2021
3897 Clear 18 1021 68 10000 4.12 310 18:51 01.02.2021
3898 Clear 18 1021 59 10000 4.63 310 18:29 01.02.2021
3899 Clear 18 1021 55 10000 5.14 310 17:48 01.02.2021
3900 Clear 18 1021 55 10000 4.12 300 17:26 01.02.2021
3901 Clear 19 1021 49 10000 4.12 320 16:58 01.02.2021
3902 Clear 19 1020 49 10000 3.6 310 16:33 01.02.2021
3903 Clear 20 1020 46 10000 5.14 320 15:48 01.02.2021
3904 Clear 22 1019 40 10000 7.72 330 15:21 01.02.2021
3905 Clear 22 1019 40 10000 7.72 330 14:53 01.02.2021
3906 Clear 22 1019 38 10000 6.17 330 14:35 01.02.2021
3907 Clear 23 1019 35 10000 8.23 340 13:55 01.02.2021
3908 Clear 23 1019 33 10000 8.23 340 13:37 01.02.2021
3909 Clear 23 1019 33 10000 8.23 340 13:19 01.02.2021
3910 Clear 24 1019 29 10000 6.17 320 12:42 01.02.2021
3911 Clear 24 1019 29 10000 6.17 320 12:22 01.02.2021
3912 Clear 24 1020 33 10000 6.17 330 11:40 01.02.2021
3913 Clear 24 1020 31 10000 7.72 340 11:19 01.02.2021
3914 Clear 24 1020 33 10000 6.69 330 10:45 01.02.2021
3915 Clear 24 1020 33 10000 6.17 340 10:20 01.02.2021
3916 Clear 23 1021 38 10000 6.17 330 09:44 01.02.2021
3917 Clear 23 1021 43 10000 5.14 320 09:21 01.02.2021
3918 Clear 21 1021 46 10000 5.66 320 08:44 01.02.2021
3919 Clear 20 1022 56 10000 5.66 310 07:53 01.02.2021
3920 Clear 19 1022 59 10000 4.63 310 06:34 01.02.2021
3921 Clear 15 1021 63 10000 3.6 300 04:21 01.02.2021
3922 Clear 15 1020 63 10000 4.12 310 01:31 01.02.2021
3923 Clear 15 1020 67 10000 3.09 310 23:42 31.01.2021
3924 Clear 15 1020 67 10000 3.6 310 22:44 31.01.2021
3925 Clear 16 1020 63 10000 3.09 320 22:24 31.01.2021
3926 Clear 16 1020 63 10000 3.09 320 21:55 31.01.2021
3927 Clear 16 1020 63 10000 4.12 320 21:26 31.01.2021
3928 Clear 16 1020 63 10000 3.6 310 20:59 31.01.2021
3929 Clear 16 1020 63 10000 3.6 310 20:37 31.01.2021
3930 Clear 17 1020 59 10000 4.12 310 20:18 31.01.2021
3931 Clear 17 1020 59 10000 4.12 320 19:37 31.01.2021
3932 Clear 17 1020 55 10000 4.63 320 19:19 31.01.2021
3933 Clear 17 1020 55 10000 4.63 320 18:42 31.01.2021
3934 Clear 17 1020 59 10000 4.12 320 18:23 31.01.2021
3935 Clear 18 1020 59 10000 4.12 320 17:49 31.01.2021
3936 Clear 18 1020 55 10000 5.14 320 17:24 31.01.2021
3937 Clear 19 1020 52 10000 5.14 330 16:52 31.01.2021
3938 Clear 19 1019 52 10000 4.63 320 16:34 31.01.2021
3939 Clear 20 1019 45 10000 5.66 330 15:54 31.01.2021
3940 Clear 20 1019 45 10000 5.66 330 15:35 31.01.2021
3941 Clear 21 1018 43 10000 7.2 330 14:50 31.01.2021
3942 Clear 22 1018 40 10000 5.66 320 14:26 31.01.2021
3943 Clear 22 1018 37 10000 6.69 320 13:57 31.01.2021
3944 Clear 22 1018 37 10000 6.69 320 13:38 31.01.2021
3945 Clear 23 1018 38 10000 8.75 340 12:51 31.01.2021
3946 Clear 23 1018 38 10000 7.2 330 12:29 31.01.2021
3947 Clear 23 1018 38 10000 8.23 340 11:58 31.01.2021
3948 Clear 23 1018 38 10000 8.23 340 11:38 31.01.2021
3949 Clear 23 1018 38 10000 6.17 310 11:19 31.01.2021
3950 Clear 23 1018 38 10000 6.17 310 10:43 31.01.2021
3951 Clear 23 1019 35 10000 6.69 330 10:24 31.01.2021
3952 Clear 22 1020 40 10000 6.69 330 09:33 31.01.2021
3953 Clear 21 1020 40 10000 7.72 340 08:34 31.01.2021
3954 Clear 20 1020 49 10000 6.17 330 07:50 31.01.2021
3955 Clear 18 1020 52 10000 5.14 320 05:54 31.01.2021
3956 Clear 18 1020 52 10000 5.14 320 05:54 31.01.2021
3957 Clear 18 1018 59 10000 4.63 320 00:53 31.01.2021
3958 Clear 18 1018 63 10000 5.14 320 00:28 31.01.2021
3959 Clear 18 1018 63 10000 5.14 320 23:34 30.01.2021
3960 Clear 19 1018 63 10000 5.66 320 22:59 30.01.2021
3961 Clear 19 1018 63 10000 5.66 320 22:37 30.01.2021
3962 Clear 19 1018 63 10000 5.66 320 22:37 30.01.2021
3963 Clear 19 1018 60 10000 5.66 320 21:43 30.01.2021
3964 Clear 19 1018 60 10000 5.14 320 21:23 30.01.2021
3965 Clear 19 1018 64 10000 4.63 320 20:54 30.01.2021
3966 Clear 19 1018 64 10000 4.63 320 20:34 30.01.2021
3967 Clear 20 1018 64 10000 5.66 320 19:58 30.01.2021
3968 Clear 20 1018 64 10000 5.66 320 19:39 30.01.2021
3969 Clear 20 1018 64 10000 5.66 320 19:19 30.01.2021
3970 Clouds 20 1018 64 10000 5.14 320 18:40 30.01.2021
3971 Clouds 20 1018 64 10000 4.63 320 18:19 30.01.2021
3972 Clouds 20 1018 68 10000 5.14 320 17:37 30.01.2021
3973 Clouds 20 1018 73 10000 5.66 320 17:18 30.01.2021
3974 Clear 21 1016 68 10000 5.66 320 16:37 30.01.2021
3975 Clear 21 1016 68 10000 5.66 320 16:19 30.01.2021
3976 Clear 22 1016 60 10000 6.17 300 15:44 30.01.2021
3977 Clear 23 1015 53 10000 5.14 300 15:23 30.01.2021
3978 Clear 24 1015 41 10000 5.14 290 14:52 30.01.2021
3979 Clear 25 1015 38 10000 3.6 290 14:27 30.01.2021
3980 Clear 27 1014 36 10000 4.63 280 13:48 30.01.2021
3981 Clear 27 1014 32 10000 3.6 250 13:20 30.01.2021
3982 Clear 28 1014 26 10000 6.17 250 12:43 30.01.2021
3983 Clear 28 1014 21 10000 5.66 220 12:22 30.01.2021
3984 Clear 28 1014 24 10000 6.69 230 11:41 30.01.2021
3985 Clear 28 1015 24 10000 5.14 210 10:55 30.01.2021
3986 Clear 26 1016 26 10000 4.63 220 09:58 30.01.2021
3987 Clear 26 1017 31 10000 3.6 230 09:39 30.01.2021
3988 Clear 24 1017 35 10000 4.63 230 09:21 30.01.2021
3989 Clear 24 1018 40 10000 4.63 240 08:41 30.01.2021
3990 Clear 23 1017 43 10000 5.14 220 07:30 30.01.2021
3991 Clear 22 1016 64 10000 4.63 170 06:21 30.01.2021
3992 Clear 19 1014 82 10000 4.12 140 03:43 30.01.2021
3993 Clear 19 1014 82 10000 3.6 150 02:40 30.01.2021
3994 Clear 19 1014 82 10000 4.12 140 02:21 30.01.2021
3995 Clear 19 1014 77 10000 4.12 140 00:49 30.01.2021
3996 Clear 20 1015 77 10000 2.57 130 00:21 30.01.2021
3997 Clear 20 1015 77 10000 1.03 110 23:49 29.01.2021
3998 Clear 20 1015 77 10000 4.78 155 23:27 29.01.2021
3999 Clear 20 1015 72 10000 0.51 0 22:45 29.01.2021
4000 Clear 20 1015 73 10000 1.03 0 22:25 29.01.2021
4001 Clear 20 1015 77 10000 2.57 140 21:45 29.01.2021
4002 Clear 20 1015 77 10000 2.57 130 21:26 29.01.2021
4003 Clear 21 1015 77 10000 1.54 140 20:42 29.01.2021
4004 Clear 20 1015 77 10000 2.06 120 20:21 29.01.2021
4005 Clear 20 1015 77 10000 1.54 120 19:39 29.01.2021
4006 Clear 21 1015 73 10000 3.09 120 19:20 29.01.2021
4007 Clear 21 1015 73 10000 3.6 110 18:48 29.01.2021
4008 Clear 21 1016 68 10000 3.09 100 17:47 29.01.2021
4009 Clear 21 1016 73 10000 2.06 100 17:22 29.01.2021
4010 Clear 21 1015 68 10000 3.09 100 16:49 29.01.2021
4011 Clear 21 1015 68 10000 2.57 100 16:24 29.01.2021
4012 Clear 21 1015 68 10000 2.57 100 16:24 29.01.2021
4013 Clear 21 1015 68 10000 3.6 100 15:55 29.01.2021
4014 Clear 21 1015 68 10000 3.6 100 15:36 29.01.2021
4015 Clear 22 1015 64 10000 3.6 110 15:18 29.01.2021
4016 Clear 23 1015 64 10000 4.12 120 14:22 29.01.2021
4017 Clear 23 1015 64 10000 5.14 110 13:46 29.01.2021
4018 Clear 24 1015 56 10000 5.66 110 13:27 29.01.2021
4019 Clear 24 1015 53 10000 5.66 120 12:36 29.01.2021
4020 Clear 24 1015 53 10000 5.66 120 12:18 29.01.2021
4021 Clear 24 1015 57 10000 5.14 120 11:41 29.01.2021
4022 Clear 24 1016 53 10000 6.17 130 11:18 29.01.2021
4023 Clear 24 1017 57 10000 5.66 140 10:41 29.01.2021
4024 Clear 24 1017 57 10000 5.66 140 10:19 29.01.2021
4025 Clear 24 1018 46 10000 6.17 140 09:37 29.01.2021
4026 Clear 23 1019 56 10000 6.17 140 08:50 29.01.2021
4027 Clear 22 1019 68 10000 5.66 140 08:26 29.01.2021
4028 Clouds 21 1019 78 8000 4.63 150 07:44 29.01.2021
4029 Clouds 21 1019 78 8000 5.66 130 07:26 29.01.2021
4030 Clouds 20 1019 83 8000 4.63 130 06:38 29.01.2021
4031 Clear 16 1018 94 8000 2.06 150 04:42 29.01.2021
4032 Clear 16 1017 94 10000 0.51 0 00:51 29.01.2021
4033 Clear 17 1017 88 10000 2.35 128 00:23 29.01.2021
4034 Clear 17 1017 88 10000 2.35 128 23:55 28.01.2021
4035 Clear 17 1017 88 10000 1.03 270 23:36 28.01.2021
4036 Clear 17 1017 88 10000 1.03 270 23:18 28.01.2021
4037 Clear 18 1017 88 10000 2.24 125 22:41 28.01.2021
4038 Clear 18 1017 88 10000 2.28 127 22:21 28.01.2021
4039 Clear 18 1017 88 10000 1.03 160 21:42 28.01.2021
4040 Clear 18 1018 88 10000 1.54 130 21:23 28.01.2021
4041 Clear 18 1018 88 10000 1.54 120 20:46 28.01.2021
4042 Clear 19 1018 82 10000 2.06 110 20:19 28.01.2021
4043 Clear 19 1018 82 8000 2.06 100 19:54 28.01.2021
4044 Clear 19 1018 82 8000 2.57 100 19:32 28.01.2021
4045 Clear 19 1018 82 8000 2.57 90 18:53 28.01.2021
4046 Clear 19 1018 82 8000 2.57 90 18:34 28.01.2021
4047 Clear 19 1018 82 10000 2.57 100 17:58 28.01.2021
4048 Clear 19 1018 88 10000 2.06 90 17:40 28.01.2021
4049 Clear 19 1018 88 10000 2.06 90 17:21 28.01.2021
4050 Clear 20 1018 83 10000 2.57 100 16:43 28.01.2021
4051 Clear 20 1018 83 10000 2.57 100 16:21 28.01.2021
4052 Clear 20 1018 77 8000 2.57 100 15:36 28.01.2021
4053 Clear 22 1017 68 10000 3.09 100 14:55 28.01.2021
4054 Clear 22 1017 68 10000 3.09 100 14:37 28.01.2021
4055 Clear 22 1017 68 10000 3.09 100 14:37 28.01.2021
4056 Clear 22 1017 64 10000 3.6 100 14:18 28.01.2021
4057 Clear 23 1017 60 10000 3.6 110 13:39 28.01.2021
4058 Clear 23 1017 60 10000 4.12 110 12:51 28.01.2021
4059 Clear 23 1017 60 10000 4.12 110 12:33 28.01.2021
4060 Clear 24 1018 60 10000 3.6 110 11:58 28.01.2021
4061 Clear 24 1018 60 10000 3.6 110 11:39 28.01.2021
4062 Clear 24 1018 47 10000 2.57 110 11:19 28.01.2021
4063 Clear 23 1018 46 10000 3.09 100 10:49 28.01.2021
4064 Clear 23 1019 60 10000 3.09 120 10:27 28.01.2021
4065 Clear 22 1019 60 10000 3.09 120 09:44 28.01.2021
4066 Clear 22 1020 68 9000 2.57 110 09:21 28.01.2021
4067 Clear 21 1020 68 8000 3.09 100 08:48 28.01.2021
4068 Clear 20 1020 73 6000 2.06 120 07:54 28.01.2021
4069 Clear 20 1020 73 6000 2.06 120 07:36 28.01.2021
4070 Haze 18 1020 68 4000 0.51 0 06:48 28.01.2021
4071 Haze 13 1019 82 4000 0.51 0 04:33 28.01.2021
4072 Clear 13 1018 77 10000 0.51 0 03:42 28.01.2021
4073 Clear 15 1018 77 10000 1.03 0 00:57 28.01.2021
4074 Clear 15 1018 72 10000 0.51 0 23:43 27.01.2021
4075 Clear 15 1018 72 10000 1.03 310 23:23 27.01.2021
4076 Clear 16 1019 67 10000 3.48 11 22:41 27.01.2021
4077 Clear 17 1019 67 10000 3.34 357 22:21 27.01.2021
4078 Clear 16 1019 67 10000 0.51 0 21:42 27.01.2021
4079 Clear 17 1019 59 10000 1.03 0 21:22 27.01.2021
4080 Clear 17 1019 63 10000 0.51 0 20:50 27.01.2021
4081 Clear 18 1019 59 10000 1.03 360 20:20 27.01.2021
4082 Clear 19 1019 56 10000 2.06 310 19:43 27.01.2021
4083 Clear 19 1019 52 10000 1.54 320 19:22 27.01.2021
4084 Clear 19 1019 52 10000 2.06 300 18:45 27.01.2021
4085 Clear 19 1019 63 10000 1.54 360 18:24 27.01.2021
4086 Clear 20 1019 60 10000 3.09 330 17:52 27.01.2021
4087 Clear 20 1018 60 10000 2.57 350 17:32 27.01.2021
4088 Clear 21 1018 56 10000 4.12 350 16:56 27.01.2021
4089 Clear 21 1018 56 10000 4.12 350 16:38 27.01.2021
4090 Clear 21 1018 56 10000 4.12 350 16:20 27.01.2021
4091 Clear 22 1018 60 10000 4.63 350 15:48 27.01.2021
4092 Clear 22 1018 60 10000 5.66 350 15:27 27.01.2021
4093 Clear 23 1017 53 10000 5.66 360 14:24 27.01.2021
4094 Clear 23 1017 49 10000 5.66 360 13:50 27.01.2021
4095 Clear 24 1017 46 10000 5.66 10 13:32 27.01.2021
4096 Clear 24 1018 46 10000 5.14 20 12:42 27.01.2021
4097 Clear 24 1018 43 10000 5.14 10 12:23 27.01.2021
4098 Clear 25 1018 34 10000 5.66 350 11:47 27.01.2021
4099 Clear 24 1018 38 10000 5.66 360 11:23 27.01.2021
4100 Clear 24 1018 38 10000 5.66 360 11:23 27.01.2021
4101 Clear 24 1019 41 10000 4.63 360 10:42 27.01.2021
4102 Clear 24 1019 33 10000 5.66 340 10:21 27.01.2021
4103 Clear 24 1020 31 10000 4.12 310 09:53 27.01.2021
4104 Clear 24 1020 36 10000 4.63 320 09:27 27.01.2021
4105 Clear 22 1020 41 10000 4.63 330 08:40 27.01.2021
4106 Clear 20 1021 53 10000 3.6 320 07:46 27.01.2021
4107 Clear 19 1021 56 10000 4.12 310 07:26 27.01.2021
4108 Clear 18 1020 52 9000 3.6 300 06:24 27.01.2021
4109 Clear 17 1020 55 8000 3.09 290 05:49 27.01.2021
4110 Clear 16 1019 67 8000 1.54 280 04:57 27.01.2021
4111 Clear 17 1019 63 10000 2.57 270 02:24 27.01.2021
4112 Clear 17 1019 63 10000 2.57 290 01:57 27.01.2021
4113 Clear 17 1019 63 10000 2.06 270 00:51 27.01.2021
4114 Clear 17 1019 63 10000 2.57 300 23:52 26.01.2021
4115 Clear 17 1019 68 10000 3.6 300 23:32 26.01.2021
4116 Clear 17 1019 68 10000 3.09 300 22:52 26.01.2021
4117 Clear 17 1019 68 10000 3.09 300 22:34 26.01.2021
4118 Clear 18 1019 68 10000 3.09 310 21:59 26.01.2021
4119 Clear 18 1019 63 10000 3.6 300 21:40 26.01.2021
4120 Clear 18 1019 63 10000 3.6 300 21:21 26.01.2021
4121 Clear 18 1019 63 10000 3.09 310 20:41 26.01.2021
4122 Clear 18 1020 63 10000 3.09 310 20:22 26.01.2021
4123 Clear 19 1020 60 10000 2.57 300 19:48 26.01.2021
4124 Clear 19 1020 60 10000 2.57 310 19:29 26.01.2021
4125 Clear 19 1020 56 10000 2.57 320 18:57 26.01.2021
4126 Clear 20 1020 46 10000 3.6 320 18:37 26.01.2021
4127 Clear 20 1020 46 10000 3.6 320 18:18 26.01.2021
4128 Clear 20 1019 40 10000 3.6 320 17:46 26.01.2021
4129 Clear 21 1019 37 10000 3.6 310 17:20 26.01.2021
4130 Clear 21 1019 37 10000 3.09 310 16:41 26.01.2021
4131 Clear 21 1019 35 10000 3.6 310 16:20 26.01.2021
4132 Clear 22 1018 64 10000 2.57 10 15:48 26.01.2021
4133 Clear 22 1018 49 10000 2.57 20 15:27 26.01.2021
4134 Clear 23 1018 27 10000 2.57 340 14:49 26.01.2021
4135 Clear 23 1018 46 10000 3.6 10 14:29 26.01.2021
4136 Clear 24 1018 50 10000 3.6 10 13:39 26.01.2021
4137 Clear 24 1018 46 10000 4.12 360 13:21 26.01.2021
4138 Clear 24 1018 46 10000 4.63 20 12:44 26.01.2021
4139 Clear 24 1018 38 10000 3.6 20 12:25 26.01.2021
4140 Clear 24 1018 38 10000 4.12 360 11:58 26.01.2021
4141 Clear 24 1018 38 10000 4.12 360 11:38 26.01.2021
4142 Clear 24 1019 36 10000 3.6 330 10:47 26.01.2021
4143 Clear 24 1020 36 10000 4.12 320 10:29 26.01.2021
4144 Clear 23 1020 41 10000 4.12 330 09:47 26.01.2021
4145 Clear 23 1021 43 10000 3.09 330 09:26 26.01.2021
4146 Clear 21 1021 43 9000 3.6 320 08:53 26.01.2021
4147 Clear 21 1021 53 8000 3.6 310 08:29 26.01.2021
4148 Clear 20 1022 60 6000 3.09 320 07:43 26.01.2021
4149 Clear 17 1021 72 6000 2.57 300 06:21 26.01.2021
4150 Clear 16 1021 82 6000 2.57 300 05:42 26.01.2021
4151 Clear 16 1020 88 7000 2.57 300 04:23 26.01.2021
4152 Clear 16 1020 82 9000 3.09 310 02:21 26.01.2021
4153 Clear 16 1020 82 10000 2.57 300 00:56 26.01.2021
4154 Clear 16 1020 82 10000 2.06 300 23:39 25.01.2021
4155 Clear 17 1020 77 10000 2.06 300 22:57 25.01.2021
4156 Clear 17 1020 77 10000 2.57 310 22:38 25.01.2021
4157 Clear 17 1020 77 10000 2.57 300 21:50 25.01.2021
4158 Clear 17 1020 77 10000 3.09 310 21:28 25.01.2021
4159 Clear 17 1020 77 10000 2.57 310 20:52 25.01.2021
4160 Clear 18 1020 72 10000 2.57 310 20:33 25.01.2021
4161 Clear 18 1020 72 10000 2.57 320 19:52 25.01.2021
4162 Clear 18 1020 72 10000 2.57 310 19:31 25.01.2021
4163 Clear 19 1021 68 10000 2.57 330 18:49 25.01.2021
4164 Clear 19 1020 68 10000 2.57 330 18:28 25.01.2021
4165 Clear 20 1020 60 10000 3.6 330 17:58 25.01.2021
4166 Clear 20 1020 60 10000 3.6 330 17:40 25.01.2021
4167 Clear 20 1020 64 10000 2.57 340 17:22 25.01.2021
4168 Clear 20 1020 68 10000 3.09 350 16:41 25.01.2021
4169 Clear 20 1020 68 10000 3.09 350 16:22 25.01.2021
4170 Clear 21 1019 64 10000 4.12 350 15:49 25.01.2021
4171 Clear 21 1019 64 10000 3.6 10 15:29 25.01.2021
4172 Clear 21 1019 60 10000 4.12 360 14:46 25.01.2021
4173 Clear 21 1019 60 10000 4.63 10 14:19 25.01.2021
4174 Clear 22 1019 56 10000 5.14 10 13:52 25.01.2021
4175 Clear 22 1019 53 10000 4.63 10 13:28 25.01.2021
4176 Clear 23 1019 46 10000 5.14 10 12:46 25.01.2021
4177 Clear 23 1019 43 10000 5.14 350 12:24 25.01.2021
4178 Clear 23 1019 43 10000 4.12 10 11:48 25.01.2021
4179 Clear 23 1019 43 10000 4.12 10 11:19 25.01.2021
4180 Clear 23 1020 38 10000 3.6 340 10:41 25.01.2021
4181 Clear 22 1020 43 10000 4.12 330 10:19 25.01.2021
4182 Clear 22 1021 46 10000 4.12 330 09:45 25.01.2021
4183 Clear 22 1021 53 10000 3.6 300 09:27 25.01.2021
4184 Clear 20 1022 60 10000 4.12 300 08:29 25.01.2021
4185 Clear 18 1022 68 9000 4.12 320 07:45 25.01.2021
4186 Clear 19 1022 60 9000 2.57 300 07:25 25.01.2021
4187 Clear 16 1021 77 6000 2.57 300 04:58 25.01.2021
4188 Clear 16 1020 77 10000 3.09 310 01:33 25.01.2021
4189 Clear 16 1020 77 10000 3.09 310 23:51 24.01.2021
4190 Clear 16 1020 77 10000 3.09 310 23:19 24.01.2021
4191 Clear 17 1020 72 10000 3.09 310 22:44 24.01.2021
4192 Clear 17 1020 72 10000 3.09 310 22:21 24.01.2021
4193 Clear 17 1021 72 10000 2.57 310 21:49 24.01.2021
4194 Clear 17 1021 72 10000 2.06 310 21:24 24.01.2021
4195 Clear 17 1021 72 10000 2.06 310 21:24 24.01.2021
4196 Clear 17 1021 72 10000 2.06 310 20:46 24.01.2021
4197 Clear 17 1021 72 10000 2.06 310 20:22 24.01.2021
4198 Clear 17 1021 72 10000 3.09 320 19:55 24.01.2021
4199 Clear 18 1021 68 10000 3.09 310 19:28 24.01.2021
4200 Clear 18 1021 68 10000 3.09 320 18:59 24.01.2021
4201 Clear 18 1021 68 10000 3.09 320 18:40 24.01.2021
4202 Clear 18 1021 68 10000 3.6 330 18:21 24.01.2021
4203 Clear 18 1021 63 10000 5.66 330 17:51 24.01.2021
4204 Clear 18 1021 59 10000 5.66 340 17:30 24.01.2021
4205 Clear 19 1021 55 10000 5.66 340 16:59 24.01.2021
4206 Clear 19 1020 72 10000 5.14 10 16:40 24.01.2021
4207 Clear 19 1020 72 10000 5.14 10 16:20 24.01.2021
4208 Clear 19 1020 72 10000 4.12 10 15:45 24.01.2021
4209 Clear 19 1020 72 10000 4.63 10 15:20 24.01.2021
4210 Clear 20 1020 68 10000 5.14 360 14:45 24.01.2021
4211 Clear 20 1020 68 10000 4.63 10 14:24 24.01.2021
4212 Clear 21 1019 60 10000 5.14 360 13:34 24.01.2021
4213 Clear 22 1020 46 10000 4.63 10 12:51 24.01.2021
4214 Clear 22 1020 49 10000 4.63 10 12:22 24.01.2021
4215 Clear 21 1020 53 10000 4.12 10 11:54 24.01.2021
4216 Clear 21 1021 53 10000 4.63 10 11:25 24.01.2021
4217 Clear 21 1021 56 10000 4.12 10 10:59 24.01.2021
4218 Clear 21 1021 56 10000 4.12 340 10:30 24.01.2021
4219 Clear 20 1022 52 10000 4.12 340 09:47 24.01.2021
4220 Clear 20 1022 60 10000 3.6 340 09:19 24.01.2021
4221 Clear 19 1023 60 10000 3.6 320 08:37 24.01.2021
4222 Clear 15 1021 77 10000 3.6 300 03:50 24.01.2021
4223 Clear 16 1020 72 10000 2.57 300 02:19 24.01.2021
4224 Clear 16 1021 72 10000 3.09 320 00:56 24.01.2021
4225 Clear 16 1021 72 10000 3.6 320 00:21 24.01.2021
4226 Clear 16 1021 72 10000 3.6 320 23:34 23.01.2021
4227 Clear 17 1021 67 10000 3.6 320 22:59 23.01.2021
4228 Clear 17 1021 67 10000 3.6 320 22:40 23.01.2021
4229 Clear 17 1021 67 10000 3.6 310 21:59 23.01.2021
4230 Clear 17 1021 67 10000 4.63 320 21:23 23.01.2021
4231 Clear 17 1021 67 10000 4.12 330 20:55 23.01.2021
4232 Clear 17 1021 67 10000 4.12 330 20:37 23.01.2021
4233 Clear 17 1022 67 10000 4.63 320 20:19 23.01.2021
4234 Clear 17 1022 67 10000 4.12 330 19:43 23.01.2021
4235 Clear 17 1022 67 10000 4.12 330 19:20 23.01.2021
4236 Clear 17 1022 67 10000 4.12 330 18:42 23.01.2021
4237 Clear 18 1022 63 10000 4.12 320 18:21 23.01.2021
4238 Clouds 18 1022 63 10000 4.12 320 17:36 23.01.2021
4239 Clouds 18 1022 63 10000 4.63 320 17:18 23.01.2021
4240 Clouds 19 1021 59 10000 5.66 350 16:42 23.01.2021
4241 Clouds 19 1021 68 10000 5.14 360 15:56 23.01.2021
4242 Clouds 19 1021 68 10000 4.63 10 15:29 23.01.2021
4243 Clouds 20 1021 64 10000 5.14 10 14:45 23.01.2021
4244 Clouds 20 1020 64 10000 5.14 10 14:24 23.01.2021
4245 Clouds 20 1020 60 10000 4.63 10 13:49 23.01.2021
4246 Clouds 20 1020 56 10000 5.66 360 13:24 23.01.2021
4247 Clouds 21 1020 52 10000 5.66 350 12:45 23.01.2021
4248 Clouds 21 1020 52 10000 5.66 360 12:25 23.01.2021
4249 Clouds 21 1020 46 10000 5.66 350 11:42 23.01.2021
4250 Clear 21 1021 49 10000 5.66 330 10:59 23.01.2021
4251 Clear 21 1022 49 10000 5.66 330 10:26 23.01.2021
4252 Clear 20 1022 52 10000 5.14 330 09:53 23.01.2021
4253 Clear 20 1023 52 10000 5.14 320 09:29 23.01.2021
4254 Clear 18 1023 52 10000 4.63 320 08:44 23.01.2021
4255 Clear 17 1024 55 10000 4.12 300 07:49 23.01.2021
4256 Clear 15 1023 59 10000 5.14 300 06:55 23.01.2021
4257 Clear 13 1023 71 10000 4.12 300 03:34 23.01.2021
4258 Clear 14 1021 67 10000 3.6 300 00:34 23.01.2021
4259 Clear 14 1021 67 10000 3.6 310 23:36 22.01.2021
4260 Clear 14 1021 67 10000 3.6 300 22:45 22.01.2021
4261 Clear 15 1021 63 10000 5.14 310 22:21 22.01.2021
4262 Clear 15 1021 63 10000 5.66 310 21:45 22.01.2021
4263 Clear 15 1021 63 10000 5.14 310 21:24 22.01.2021
4264 Clear 15 1021 67 10000 5.66 310 20:51 22.01.2021
4265 Clear 15 1022 67 10000 5.14 310 20:30 22.01.2021
4266 Clear 15 1022 67 10000 5.66 310 19:48 22.01.2021
4267 Clear 15 1022 67 10000 5.66 310 19:20 22.01.2021
4268 Clear 15 1022 67 10000 4.63 310 18:47 22.01.2021
4269 Clear 16 1022 63 10000 5.66 320 18:26 22.01.2021
4270 Clear 16 1022 59 10000 5.14 320 17:52 22.01.2021
4271 Clear 16 1022 59 10000 5.14 320 17:33 22.01.2021
4272 Clear 16 1021 59 10000 5.66 320 16:56 22.01.2021
4273 Clear 16 1021 63 10000 6.69 320 16:31 22.01.2021
4274 Clear 17 1021 59 10000 6.17 310 15:48 22.01.2021
4275 Clear 17 1020 55 10000 6.69 310 15:25 22.01.2021
4276 Clear 18 1020 55 6000 6.69 310 14:37 22.01.2021
4277 Clear 19 1020 48 6000 7.72 320 14:18 22.01.2021
4278 Clear 19 1019 48 6000 7.2 320 13:38 22.01.2021
4279 Clear 19 1019 48 6000 7.2 320 13:19 22.01.2021
4280 Clear 20 1020 45 6000 8.23 320 12:40 22.01.2021
4281 Clear 20 1020 49 6000 7.72 310 12:18 22.01.2021
4282 Clear 19 1020 52 9000 7.72 320 11:38 22.01.2021
4283 Clear 19 1020 52 9000 8.75 300 10:48 22.01.2021
4284 Clear 19 1021 52 10000 8.23 310 10:24 22.01.2021
4285 Clear 19 1021 52 10000 7.72 310 09:44 22.01.2021
4286 Clear 18 1022 52 10000 7.72 300 08:57 22.01.2021
4287 Clear 17 1023 59 10000 7.2 310 08:32 22.01.2021
4288 Clear 17 1023 55 10000 7.2 300 07:48 22.01.2021
4289 Clear 14 1022 62 10000 5.66 300 05:22 22.01.2021
4290 Clear 15 1021 58 10000 5.66 300 01:54 22.01.2021
4291 Clear 16 1021 55 10000 6.17 310 00:30 22.01.2021
4292 Clear 16 1021 55 10000 6.17 320 23:49 21.01.2021
4293 Clear 16 1021 59 10000 6.17 310 23:20 21.01.2021
4294 Clear 16 1021 59 10000 6.17 310 22:48 21.01.2021
4295 Clear 16 1021 59 10000 5.66 310 21:59 21.01.2021
4296 Clear 16 1021 59 10000 5.66 310 21:39 21.01.2021
4297 Clear 16 1021 55 10000 8.23 310 21:18 21.01.2021
4298 Clear 16 1022 55 10000 9.77 310 20:44 21.01.2021
4299 Clear 16 1022 59 10000 9.77 310 20:21 21.01.2021
4300 Clear 17 1022 55 10000 9.77 310 19:49 21.01.2021
4301 Clear 17 1022 55 10000 9.26 310 19:26 21.01.2021
4302 Clear 17 1022 55 10000 7.72 310 18:47 21.01.2021
4303 Clear 17 1022 55 10000 8.23 310 18:22 21.01.2021
4304 Clear 17 1022 51 10000 8.75 310 17:58 21.01.2021
4305 Clear 18 1022 48 10000 10.29 320 17:22 21.01.2021
4306 Clear 18 1022 48 10000 10.29 320 16:59 21.01.2021
4307 Clear 18 1022 48 10000 10.29 320 16:40 21.01.2021
4308 Clear 18 1021 48 10000 9.77 310 16:22 21.01.2021
4309 Clear 18 1021 48 10000 9.26 310 15:47 21.01.2021
4310 Clear 19 1021 48 10000 8.75 320 15:26 21.01.2021
4311 Clouds 19 1021 45 6000 10.8 310 14:46 21.01.2021
4312 Clouds 20 1020 45 6000 10.29 310 14:24 21.01.2021
4313 Clouds 20 1020 42 6000 10.8 320 13:43 21.01.2021
4314 Clouds 20 1020 42 6000 10.8 320 13:43 21.01.2021
4315 Clear 21 1020 43 6000 10.8 320 13:23 21.01.2021
4316 Clear 21 1019 43 6000 10.29 310 12:44 21.01.2021
4317 Clear 22 1019 37 6000 10.8 320 12:24 21.01.2021
4318 Dust 22 1019 40 5000 11.83 310 11:52 21.01.2021
4319 Dust 22 1019 37 5000 12.35 330 11:30 21.01.2021
4320 Dust 22 1020 35 5000 11.32 320 10:53 21.01.2021
4321 Dust 22 1020 35 5000 11.32 320 10:34 21.01.2021
4322 Dust 22 1020 33 4500 10.8 320 09:49 21.01.2021
4323 Dust 22 1021 37 2000 10.29 320 09:30 21.01.2021
4324 Dust 22 1021 43 1800 10.8 330 08:57 21.01.2021
4325 Dust 22 1021 43 1500 11.83 330 08:27 21.01.2021
4326 Dust 21 1021 46 1500 10.29 320 07:45 21.01.2021
4327 Dust 21 1021 49 3000 11.32 330 07:23 21.01.2021
4328 Dust 20 1019 56 5000 10.29 320 05:50 21.01.2021
4329 Clear 19 1018 63 6000 7.2 290 04:28 21.01.2021
4330 Clear 18 1015 82 10000 3.09 190 01:33 21.01.2021
4331 Clear 19 1016 77 10000 2.06 170 00:40 21.01.2021
4332 Clear 19 1017 77 10000 2.57 180 23:43 20.01.2021
4333 Clear 19 1017 82 10000 2.57 180 23:22 20.01.2021
4334 Clear 19 1017 88 10000 2.57 180 22:49 20.01.2021
4335 Clear 18 1017 88 10000 2.57 150 22:28 20.01.2021
4336 Clear 18 1017 88 10000 3.09 160 21:49 20.01.2021
4337 Clear 19 1017 88 10000 1.03 160 21:22 20.01.2021
4338 Clear 19 1018 88 10000 2.06 160 20:50 20.01.2021
4339 Clear 19 1018 83 10000 1.54 140 20:21 20.01.2021
4340 Clear 19 1018 83 10000 0.51 0 19:47 20.01.2021
4341 Clear 19 1018 88 10000 2.06 140 19:28 20.01.2021
4342 Clear 19 1018 82 10000 2.57 150 18:43 20.01.2021
4343 Clear 20 1017 83 10000 2.57 140 18:20 20.01.2021
4344 Clear 20 1017 77 10000 3.09 140 17:44 20.01.2021
4345 Clear 20 1017 77 10000 3.09 150 17:26 20.01.2021
4346 Clear 21 1017 83 10000 2.57 140 16:47 20.01.2021
4347 Clear 21 1016 73 10000 2.57 130 16:22 20.01.2021
4348 Clear 22 1016 68 10000 3.6 120 15:38 20.01.2021
4349 Clear 23 1016 64 10000 3.09 110 14:58 20.01.2021
4350 Clear 23 1016 64 10000 3.09 110 14:39 20.01.2021
4351 Clear 23 1016 60 10000 3.6 90 14:19 20.01.2021
4352 Clear 23 1015 56 10000 3.6 80 13:37 20.01.2021
4353 Clear 24 1015 50 10000 3.09 60 12:56 20.01.2021
4354 Clear 24 1016 41 10000 3.09 30 12:22 20.01.2021
4355 Clear 24 1016 41 10000 3.09 30 12:22 20.01.2021
4356 Clear 24 1016 46 10000 3.09 350 11:41 20.01.2021
4357 Clear 24 1016 46 10000 3.09 350 11:20 20.01.2021
4358 Clear 23 1016 46 10000 2.57 360 10:49 20.01.2021
4359 Clear 23 1017 49 10000 2.57 30 10:25 20.01.2021
4360 Clear 23 1017 49 10000 2.57 10 09:38 20.01.2021
4361 Clear 22 1018 53 10000 3.6 340 09:19 20.01.2021
4362 Clear 22 1018 49 10000 3.6 350 08:43 20.01.2021
4363 Clear 21 1019 53 10000 3.6 340 08:22 20.01.2021
4364 Clear 21 1019 53 10000 4.63 330 07:48 20.01.2021
4365 Clear 20 1019 56 10000 4.63 330 07:18 20.01.2021
4366 Clear 17 1018 68 10000 2.06 310 04:33 20.01.2021
4367 Clear 17 1017 72 10000 3.09 310 02:34 20.01.2021
4368 Clear 18 1017 72 10000 3.6 310 00:58 20.01.2021
4369 Clear 18 1018 68 10000 2.57 310 23:54 19.01.2021
4370 Clear 17 1018 68 10000 2.57 310 23:35 19.01.2021
4371 Clear 17 1018 68 10000 1.03 0 22:58 19.01.2021
4372 Clear 17 1018 68 10000 1.03 0 22:40 19.01.2021
4373 Clear 17 1018 63 10000 1.03 0 22:21 19.01.2021
4374 Clear 17 1018 63 10000 2.57 300 21:55 19.01.2021
4375 Clear 17 1018 63 10000 2.57 300 21:34 19.01.2021
4376 Clear 18 1018 59 10000 2.57 320 20:50 19.01.2021
4377 Clear 18 1019 59 10000 2.57 310 20:29 19.01.2021
4378 Clear 19 1019 56 10000 2.57 310 19:56 19.01.2021
4379 Clear 19 1019 56 10000 2.57 310 19:37 19.01.2021
4380 Clear 19 1019 56 10000 2.57 310 19:37 19.01.2021
4381 Clear 19 1019 56 10000 3.09 310 19:18 19.01.2021
4382 Clear 19 1019 56 10000 3.09 310 18:39 19.01.2021
4383 Clear 19 1019 56 10000 3.09 320 18:20 19.01.2021
4384 Clear 20 1018 49 10000 3.09 330 17:42 19.01.2021
4385 Clear 20 1018 60 10000 4.12 350 17:20 19.01.2021
4386 Clear 21 1018 60 10000 4.12 350 16:40 19.01.2021
4387 Clear 21 1017 60 10000 3.6 360 16:21 19.01.2021
4388 Clear 22 1017 64 10000 4.12 10 15:51 19.01.2021
4389 Clear 22 1017 64 10000 3.6 10 15:32 19.01.2021
4390 Clear 22 1017 60 10000 4.12 20 14:47 19.01.2021
4391 Clear 22 1016 56 10000 5.14 10 14:26 19.01.2021
4392 Clear 23 1016 56 10000 5.14 10 13:52 19.01.2021
4393 Clear 23 1016 53 10000 5.66 10 13:24 19.01.2021
4394 Clear 23 1016 53 10000 5.66 10 12:51 19.01.2021
4395 Clear 23 1016 49 10000 6.17 20 12:30 19.01.2021
4396 Clear 24 1017 53 10000 5.66 10 11:54 19.01.2021
4397 Clear 24 1017 43 10000 5.66 360 11:30 19.01.2021
4398 Clear 23 1017 46 10000 6.69 360 10:59 19.01.2021
4399 Clear 23 1017 46 10000 6.69 360 10:40 19.01.2021
4400 Clear 23 1018 49 10000 6.69 340 10:18 19.01.2021
4401 Clear 23 1018 49 10000 6.69 340 09:46 19.01.2021
4402 Clear 23 1019 49 10000 6.69 340 09:19 19.01.2021
4403 Clear 22 1019 53 10000 6.69 340 08:33 19.01.2021
4404 Clear 20 1019 60 10000 8.23 340 07:51 19.01.2021
4405 Clear 19 1019 56 10000 6.69 330 06:59 19.01.2021
4406 Clear 18 1018 59 10000 5.66 330 04:18 19.01.2021
4407 Clear 18 1017 63 10000 3.6 310 02:22 19.01.2021
4408 Clear 18 1017 55 10000 3.6 310 00:36 19.01.2021
4409 Clear 18 1017 59 10000 3.09 310 23:48 18.01.2021
4410 Clear 18 1017 63 10000 3.6 310 23:25 18.01.2021
4411 Clear 18 1017 68 10000 3.09 310 22:43 18.01.2021
4412 Clear 18 1017 68 10000 3.09 310 22:21 18.01.2021
4413 Clear 18 1017 77 10000 3.09 310 21:47 18.01.2021
4414 Clear 19 1017 68 10000 3.09 320 21:23 18.01.2021
4415 Clear 19 1017 68 10000 3.09 320 20:57 18.01.2021
4416 Clear 19 1018 68 10000 3.6 320 20:34 18.01.2021
4417 Clear 19 1018 68 10000 3.09 320 19:54 18.01.2021
4418 Clear 19 1018 68 10000 3.09 320 19:35 18.01.2021
4419 Clear 20 1018 73 10000 4.63 330 18:48 18.01.2021
4420 Clear 20 1017 73 10000 4.12 330 18:27 18.01.2021
4421 Clear 21 1017 68 10000 3.6 330 17:47 18.01.2021
4422 Clear 21 1017 64 10000 5.66 340 17:29 18.01.2021
4423 Clear 22 1017 68 10000 5.14 340 16:51 18.01.2021
4424 Clear 22 1016 68 10000 5.14 340 16:27 18.01.2021
4425 Clear 23 1016 64 10000 6.17 350 15:54 18.01.2021
4426 Clear 23 1016 64 9000 6.69 350 15:29 18.01.2021
4427 Clear 23 1015 64 9000 5.14 10 14:58 18.01.2021
4428 Clear 23 1015 64 9000 5.14 10 14:38 18.01.2021
4429 Clear 23 1015 68 9000 5.14 10 14:20 18.01.2021
4430 Clear 25 1015 64 9000 5.14 10 13:44 18.01.2021
4431 Clear 26 1015 44 10000 4.63 10 13:20 18.01.2021
4432 Clear 26 1015 34 10000 4.63 360 12:46 18.01.2021
4433 Clear 26 1015 34 10000 5.66 360 12:19 18.01.2021
4434 Clear 26 1015 44 10000 5.14 360 11:46 18.01.2021
4435 Clear 26 1015 41 9000 4.63 360 11:25 18.01.2021
4436 Clear 25 1015 44 9000 4.63 360 10:47 18.01.2021
4437 Clear 25 1015 44 9000 4.63 360 10:47 18.01.2021
4438 Clear 25 1015 50 9000 4.63 360 10:26 18.01.2021
4439 Clear 24 1016 53 9000 4.12 360 09:39 18.01.2021
4440 Clear 24 1017 53 9000 3.09 340 09:18 18.01.2021
4441 Clear 22 1017 64 9000 3.6 350 08:27 18.01.2021
4442 Clear 22 1017 60 9000 3.09 350 07:54 18.01.2021
4443 Clear 19 1016 68 10000 3.09 340 06:35 18.01.2021
4444 Clear 18 1015 63 10000 2.06 310 04:43 18.01.2021
4445 Clear 18 1015 63 10000 2.06 300 04:25 18.01.2021
4446 Clear 18 1015 56 10000 3.09 300 03:50 18.01.2021
4447 Clear 18 1014 56 10000 2.57 300 03:27 18.01.2021
4448 Clear 19 1014 56 10000 3.6 300 02:57 18.01.2021
4449 Clear 19 1014 52 10000 3.09 290 02:19 18.01.2021
4450 Clear 18 1013 68 10000 2.06 270 00:41 18.01.2021
4451 Clear 18 1013 72 9000 1.54 240 23:52 17.01.2021
4452 Clear 18 1013 77 9000 2.06 230 23:27 17.01.2021
4453 Clear 19 1013 73 9000 2.06 240 22:55 17.01.2021
4454 Clear 19 1012 68 9000 1.54 230 22:23 17.01.2021
4455 Clear 19 1012 68 9000 1.54 250 21:44 17.01.2021
4456 Clear 19 1012 68 9000 1.54 250 21:26 17.01.2021
4457 Clear 19 1012 73 9000 1.03 0 20:54 17.01.2021
4458 Clear 19 1012 73 9000 1.03 0 20:36 17.01.2021
4459 Clear 19 1012 73 9000 1.54 190 20:18 17.01.2021
4460 Clear 20 1012 64 7000 2.57 170 19:40 17.01.2021
4461 Clear 20 1012 68 7000 2.57 160 18:54 17.01.2021
4462 Clear 20 1012 73 7000 2.57 140 18:29 17.01.2021
4463 Clear 21 1012 83 7000 3.09 140 17:51 17.01.2021
4464 Clear 21 1012 73 7000 2.06 130 17:29 17.01.2021
4465 Clear 21 1012 64 6000 3.09 140 16:45 17.01.2021
4466 Clear 21 1012 64 6000 3.09 140 16:45 17.01.2021
4467 Clear 21 1012 73 6000 2.57 140 16:25 17.01.2021
4468 Clear 23 1012 73 6000 3.6 130 15:54 17.01.2021
4469 Clear 23 1012 68 6000 3.09 120 15:27 17.01.2021
4470 Clear 24 1011 53 6000 2.57 90 14:59 17.01.2021
4471 Clear 24 1011 53 6000 2.57 90 14:39 17.01.2021
4472 Clear 24 1011 49 6000 2.57 100 14:21 17.01.2021
4473 Clear 24 1011 56 7000 3.09 110 13:43 17.01.2021
4474 Clear 24 1011 60 8000 3.6 100 13:24 17.01.2021
4475 Clear 24 1011 60 8000 3.6 100 12:45 17.01.2021
4476 Clear 24 1011 57 8000 2.57 30 12:25 17.01.2021
4477 Haze 24 1012 60 5000 3.09 10 11:26 17.01.2021
4478 Haze 24 1012 57 4000 2.06 0 10:54 17.01.2021
4479 Haze 24 1012 57 4000 2.06 0 10:36 17.01.2021
4480 Haze 23 1013 68 4000 2.06 60 10:18 17.01.2021
4481 Haze 21 1014 64 5000 1.54 40 08:59 17.01.2021
4482 Haze 21 1014 64 5000 1.03 0 08:41 17.01.2021
4483 Haze 16 1013 88 4500 0.51 0 04:36 17.01.2021
4484 Clear 16 1013 88 8000 1.03 230 03:44 17.01.2021
4485 Clear 16 1012 82 9000 2.46 320 01:29 17.01.2021
4486 Clear 17 1012 77 9000 1.03 0 00:21 17.01.2021
4487 Clear 17 1012 72 9000 2.78 325 23:53 16.01.2021
4488 Clear 17 1012 77 9000 1.03 330 23:25 16.01.2021
4489 Clear 18 1012 72 9000 1.54 340 22:58 16.01.2021
4490 Clear 18 1012 68 9000 0.51 0 22:26 16.01.2021
4491 Clear 18 1012 63 9000 0.51 300 21:50 16.01.2021
4492 Clear 18 1013 68 9000 1.54 330 21:23 16.01.2021
4493 Clear 18 1013 68 9000 1.54 340 20:52 16.01.2021
4494 Clear 19 1013 64 9000 2.57 340 20:28 16.01.2021
4495 Clear 18 1013 68 8000 1.54 350 19:50 16.01.2021
4496 Clear 18 1013 68 10000 0.51 0 19:30 16.01.2021
4497 Clear 20 1013 64 10000 0.51 110 18:47 16.01.2021
4498 Clear 20 1013 60 10000 1.03 130 18:28 16.01.2021
4499 Clear 21 1013 56 10000 0.51 0 17:59 16.01.2021
4500 Clear 21 1013 56 10000 0.51 0 17:39 16.01.2021
4501 Clear 21 1013 56 10000 1.03 0 17:21 16.01.2021
4502 Clear 21 1013 64 10000 1.03 130 16:42 16.01.2021
4503 Clear 21 1013 64 10000 1.54 130 16:19 16.01.2021
4504 Clear 22 1013 64 10000 1.54 110 15:42 16.01.2021
4505 Clear 23 1012 53 10000 2.06 90 14:35 16.01.2021
4506 Clear 24 1012 46 10000 2.06 90 13:54 16.01.2021
4507 Clear 24 1012 46 10000 2.06 90 13:33 16.01.2021
4508 Clear 24 1012 38 10000 2.57 60 12:49 16.01.2021
4509 Clear 25 1012 29 10000 2.06 300 12:31 16.01.2021
4510 Clear 25 1013 28 10000 2.06 0 11:59 16.01.2021
4511 Clear 25 1013 28 10000 2.06 0 11:40 16.01.2021
4512 Clear 25 1013 25 10000 2.57 250 11:19 16.01.2021
4513 Clear 25 1013 22 10000 2.06 230 10:42 16.01.2021
4514 Clear 23 1015 23 10000 2.06 200 09:57 16.01.2021
4515 Clear 23 1015 23 10000 1.54 240 09:21 16.01.2021
4516 Clear 23 1016 27 10000 1.03 0 08:20 16.01.2021
4517 Clear 18 1016 32 10000 1.54 220 06:54 16.01.2021
4518 Clear 15 1015 48 10000 1.54 210 05:35 16.01.2021
4519 Clear 15 1015 88 10000 2.57 240 03:44 16.01.2021
4520 Clear 16 1014 82 10000 1.54 210 02:54 16.01.2021
4521 Clear 15 1014 77 10000 2.06 210 00:48 16.01.2021
4522 Clear 15 1014 77 10000 1.54 210 00:24 16.01.2021
4523 Clear 16 1014 72 10000 1.54 210 23:39 15.01.2021
4524 Clear 16 1014 72 10000 1.54 160 22:42 15.01.2021
4525 Clear 16 1014 72 10000 1.54 160 22:22 15.01.2021
4526 Clear 16 1014 77 10000 2.57 150 21:44 15.01.2021
4527 Clear 16 1015 77 10000 1.54 150 20:50 15.01.2021
4528 Clear 17 1015 72 10000 2.06 140 20:24 15.01.2021
4529 Clear 18 1015 68 10000 1.54 140 19:58 15.01.2021
4530 Clear 18 1015 68 10000 1.54 140 19:39 15.01.2021
4531 Clear 18 1015 72 10000 1.54 130 19:21 15.01.2021
4532 Clear 18 1015 63 10000 1.54 120 18:42 15.01.2021
4533 Clear 18 1015 63 10000 1.54 130 18:18 15.01.2021
4534 Clear 19 1015 59 10000 1.54 110 17:42 15.01.2021
4535 Clear 19 1015 59 10000 1.54 110 17:21 15.01.2021
4536 Clear 20 1015 55 10000 0.51 90 16:49 15.01.2021
4537 Clear 21 1015 49 10000 1.54 110 16:24 15.01.2021
4538 Clear 22 1014 46 10000 2.06 120 15:41 15.01.2021
4539 Clear 22 1014 46 10000 2.06 120 15:21 15.01.2021
4540 Clear 25 1014 13 10000 1.03 0 14:48 15.01.2021
4541 Clear 25 1014 11 10000 1.54 280 14:27 15.01.2021
4542 Clear 26 1014 11 10000 1.03 0 13:43 15.01.2021
4543 Clear 26 1014 11 10000 2.57 240 13:23 15.01.2021
4544 Clear 25 1014 10 10000 2.57 220 12:58 15.01.2021
4545 Clear 25 1014 10 10000 2.57 220 12:33 15.01.2021
4546 Clear 25 1015 9 10000 3.09 0 11:56 15.01.2021
4547 Clear 25 1015 9 10000 3.09 0 11:36 15.01.2021
4548 Clear 23 1015 10 10000 3.6 190 10:57 15.01.2021
4549 Clear 23 1015 10 10000 3.6 190 10:39 15.01.2021
4550 Clear 23 1015 10 10000 3.6 190 10:39 15.01.2021
4551 Clear 23 1015 9 10000 4.12 170 10:19 15.01.2021
4552 Clear 22 1016 12 10000 3.09 170 09:41 15.01.2021
4553 Clear 22 1017 17 10000 3.6 180 09:20 15.01.2021
4554 Clear 20 1017 45 10000 3.6 190 08:25 15.01.2021
4555 Clear 18 1018 52 10000 3.09 200 07:41 15.01.2021
4556 Clear 17 1017 55 10000 2.57 210 07:20 15.01.2021
4557 Clear 13 1016 58 10000 1.54 220 05:35 15.01.2021
4558 Clear 13 1015 72 10000 0.83 173 02:19 15.01.2021
4559 Clear 14 1015 58 10000 0.53 120 23:55 14.01.2021
4560 Clear 14 1015 55 10000 1.03 350 23:29 14.01.2021
4561 Clear 14 1015 55 10000 0.51 20 22:49 14.01.2021
4562 Clear 14 1015 51 10000 1.03 350 22:26 14.01.2021
4563 Clear 14 1015 55 10000 1.03 340 21:50 14.01.2021
4564 Clear 15 1015 48 10000 1.03 360 21:21 14.01.2021
4565 Clear 16 1016 44 10000 1.03 10 20:53 14.01.2021
4566 Clear 16 1016 41 10000 0.51 10 20:33 14.01.2021
4567 Clear 16 1016 39 10000 1.03 20 19:54 14.01.2021
4568 Clear 16 1016 39 10000 1.03 20 19:35 14.01.2021
4569 Clear 17 1016 32 10000 1.54 10 18:56 14.01.2021
4570 Clear 18 1016 32 10000 1.54 330 18:34 14.01.2021
4571 Clear 18 1016 34 10000 1.54 330 17:54 14.01.2021
4572 Clear 18 1016 48 10000 1.54 330 17:28 14.01.2021
4573 Clear 19 1016 48 10000 1.54 20 16:54 14.01.2021
4574 Clear 19 1016 42 10000 1.54 40 16:27 14.01.2021
4575 Clear 19 1016 42 10000 1.54 40 16:27 14.01.2021
4576 Clear 21 1015 18 10000 2.57 290 15:52 14.01.2021
4577 Clear 21 1015 18 10000 2.06 290 15:27 14.01.2021
4578 Clear 22 1015 17 10000 3.6 260 14:42 14.01.2021
4579 Clear 22 1015 17 10000 3.09 270 14:21 14.01.2021
4580 Clear 23 1015 16 10000 2.06 260 13:54 14.01.2021
4581 Clear 23 1015 16 10000 2.57 270 13:23 14.01.2021
4582 Clear 23 1015 17 10000 2.06 280 12:56 14.01.2021
4583 Clear 24 1015 19 10000 2.57 250 12:21 14.01.2021
4584 Clear 23 1015 20 10000 2.57 250 11:54 14.01.2021
4585 Clear 23 1016 20 10000 2.06 230 11:27 14.01.2021
4586 Clear 22 1016 21 10000 2.06 240 10:58 14.01.2021
4587 Clear 22 1016 21 10000 2.06 240 10:39 14.01.2021
4588 Clear 22 1017 23 10000 2.06 240 10:18 14.01.2021
4589 Clear 21 1017 26 9000 2.57 230 09:42 14.01.2021
4590 Clear 21 1018 30 9000 2.06 280 09:20 14.01.2021
4591 Clear 19 1019 40 9000 3.09 280 08:30 14.01.2021
4592 Clear 17 1019 45 9000 3.09 270 07:57 14.01.2021
4593 Clear 17 1019 55 9000 2.57 260 07:30 14.01.2021
4594 Clear 16 1019 55 8000 2.06 270 06:33 14.01.2021
4595 Haze 12 1018 72 8000 2.06 240 04:57 14.01.2021
4596 Clear 14 1018 72 10000 1.03 0 00:27 14.01.2021
4597 Clear 15 1018 67 10000 2.57 300 23:28 13.01.2021
4598 Clear 15 1018 67 10000 2.57 300 22:48 13.01.2021
4599 Clear 15 1018 67 10000 2.57 310 22:21 13.01.2021
4600 Clear 16 1018 67 10000 1.54 320 21:43 13.01.2021
4601 Clear 16 1019 72 10000 2.06 300 21:22 13.01.2021
4602 Clear 17 1019 63 10000 2.06 280 20:51 13.01.2021
4603 Clear 17 1019 63 10000 2.57 310 20:25 13.01.2021
4604 Clear 17 1019 63 10000 3.6 310 19:49 13.01.2021
4605 Clear 17 1019 63 10000 2.57 310 19:27 13.01.2021
4606 Clear 18 1019 59 10000 3.6 310 18:52 13.01.2021
4607 Clear 18 1019 59 10000 3.6 310 18:33 13.01.2021
4608 Clear 18 1019 59 10000 3.6 310 17:50 13.01.2021
4609 Clear 19 1019 56 10000 3.6 310 17:18 13.01.2021
4610 Clear 19 1018 52 10000 3.6 310 16:46 13.01.2021
4611 Clear 20 1018 49 10000 3.09 300 16:21 13.01.2021
4612 Clear 21 1018 46 10000 3.09 290 15:49 13.01.2021
4613 Clear 21 1018 46 10000 3.09 290 15:29 13.01.2021
4614 Clear 22 1018 40 10000 2.57 310 14:30 13.01.2021
4615 Clear 22 1018 40 10000 2.57 310 13:49 13.01.2021
4616 Clear 22 1018 40 10000 3.09 310 13:25 13.01.2021
4617 Clear 23 1018 38 10000 2.06 300 12:46 13.01.2021
4618 Clear 23 1018 38 10000 2.57 320 12:27 13.01.2021
4619 Clear 22 1018 38 10000 2.06 300 11:53 13.01.2021
4620 Clear 22 1018 38 10000 2.06 300 11:34 13.01.2021
4621 Clear 21 1019 40 10000 2.57 310 10:50 13.01.2021
4622 Clear 21 1019 43 10000 2.06 0 10:29 13.01.2021
4623 Clear 21 1020 46 10000 3.09 310 09:51 13.01.2021
4624 Clear 20 1020 52 10000 3.09 280 09:30 13.01.2021
4625 Clear 20 1021 49 10000 3.09 280 08:49 13.01.2021
4626 Clear 19 1021 52 10000 3.6 280 08:25 13.01.2021
4627 Clear 18 1022 55 10000 3.09 280 07:32 13.01.2021
4628 Clear 16 1022 59 10000 2.57 270 06:51 13.01.2021
4629 Clear 13 1021 72 8000 2.06 260 04:20 13.01.2021
4630 Clear 13 1020 77 10000 1.54 280 03:44 13.01.2021
4631 Clear 13 1020 77 10000 2.06 270 03:24 13.01.2021
4632 Clear 14 1020 77 10000 3.09 310 01:18 13.01.2021
4633 Clear 15 1020 77 10000 3.09 300 23:52 12.01.2021
4634 Clear 16 1021 72 10000 2.57 300 23:22 12.01.2021
4635 Clear 16 1021 77 10000 3.09 300 22:45 12.01.2021
4636 Clear 16 1021 77 10000 3.09 300 22:23 12.01.2021
4637 Clear 16 1021 77 10000 3.09 310 21:49 12.01.2021
4638 Clear 17 1021 72 10000 3.6 300 21:28 12.01.2021
4639 Clear 17 1021 72 10000 3.09 300 20:49 12.01.2021
4640 Clear 17 1021 72 10000 3.6 310 20:27 12.01.2021
4641 Clear 17 1021 72 10000 3.6 310 19:48 12.01.2021
4642 Clear 17 1021 72 10000 4.12 310 19:27 12.01.2021
4643 Clear 18 1021 72 10000 4.63 310 18:44 12.01.2021
4644 Clear 18 1021 68 10000 4.12 310 18:23 12.01.2021
4645 Clear 19 1021 68 10000 5.14 310 17:40 12.01.2021
4646 Clear 19 1021 68 10000 4.63 320 17:22 12.01.2021
4647 Clear 20 1021 60 10000 4.63 310 16:43 12.01.2021
4648 Clear 20 1020 60 10000 4.63 310 16:23 12.01.2021
4649 Clear 20 1021 52 10000 4.12 320 15:39 12.01.2021
4650 Clear 20 1020 49 10000 4.63 330 15:18 12.01.2021
4651 Clear 21 1019 46 10000 4.12 330 14:41 12.01.2021
4652 Clear 21 1019 56 10000 4.12 10 14:21 12.01.2021
4653 Clear 21 1019 60 10000 5.14 10 13:52 12.01.2021
4654 Clear 22 1020 46 10000 4.12 340 12:54 12.01.2021
4655 Clear 22 1020 40 10000 4.63 340 12:22 12.01.2021
4656 Clear 22 1020 43 10000 4.63 340 11:40 12.01.2021
4657 Clear 22 1021 40 10000 3.09 310 10:52 12.01.2021
4658 Clear 22 1021 43 10000 3.6 320 10:22 12.01.2021
4659 Clear 22 1022 43 10000 3.6 310 09:57 12.01.2021
4660 Clear 21 1022 49 10000 4.63 310 09:28 12.01.2021
4661 Clear 20 1023 49 10000 4.12 300 08:51 12.01.2021
4662 Clear 19 1023 52 10000 4.12 310 08:25 12.01.2021
4663 Clear 19 1023 52 10000 3.09 300 07:36 12.01.2021
4664 Clear 17 1023 59 10000 4.12 300 06:35 12.01.2021
4665 Clear 15 1022 72 7000 4.12 290 05:33 12.01.2021
4666 Clear 15 1021 77 8000 3.6 300 03:26 12.01.2021
4667 Clear 16 1021 67 8000 3.6 300 02:19 12.01.2021
4668 Clear 16 1021 67 9000 3.6 300 01:28 12.01.2021
4669 Clear 16 1021 67 10000 3.6 300 23:57 11.01.2021
4670 Clear 16 1021 67 10000 3.6 300 23:36 11.01.2021
4671 Clear 16 1021 67 10000 3.6 300 23:18 11.01.2021
4672 Clear 16 1021 63 10000 3.09 290 22:44 11.01.2021
4673 Clear 17 1021 59 10000 4.12 300 22:26 11.01.2021
4674 Clear 17 1021 59 10000 3.09 300 21:39 11.01.2021
4675 Clear 17 1021 59 10000 3.6 300 21:21 11.01.2021
4676 Clear 18 1022 63 10000 3.6 300 20:41 11.01.2021
4677 Clear 18 1022 63 10000 4.12 300 20:23 11.01.2021
4678 Clear 17 1022 63 10000 4.12 310 19:56 11.01.2021
4679 Clear 18 1022 63 10000 4.12 310 19:33 11.01.2021
4680 Clear 18 1022 55 10000 4.12 310 18:46 11.01.2021
4681 Clear 18 1022 55 10000 3.6 310 18:27 11.01.2021
4682 Clear 18 1022 52 10000 3.6 310 17:56 11.01.2021
4683 Clear 18 1022 52 10000 3.6 310 17:37 11.01.2021
4684 Clear 18 1022 52 10000 4.12 310 17:19 11.01.2021
4685 Clear 19 1022 45 10000 4.12 310 16:39 11.01.2021
4686 Clear 19 1021 45 10000 5.14 320 16:21 11.01.2021
4687 Clear 20 1021 49 10000 5.66 310 15:49 11.01.2021
4688 Clear 20 1021 46 10000 6.17 310 15:27 11.01.2021
4689 Clear 21 1020 40 10000 5.66 320 14:40 11.01.2021
4690 Clear 22 1019 38 10000 6.69 340 13:58 11.01.2021
4691 Clear 22 1019 38 10000 6.69 340 13:38 11.01.2021
4692 Clear 22 1019 49 10000 6.69 10 13:18 11.01.2021
4693 Clear 23 1019 43 10000 7.2 360 12:36 11.01.2021
4694 Clear 23 1020 43 10000 6.17 360 11:57 11.01.2021
4695 Clear 23 1020 43 10000 6.17 360 11:36 11.01.2021
4696 Clear 23 1020 40 10000 6.69 360 10:53 11.01.2021
4697 Clear 22 1021 40 10000 7.72 350 10:26 11.01.2021
4698 Clear 22 1021 40 10000 7.2 350 09:44 11.01.2021
4699 Clear 22 1021 40 10000 7.72 350 09:22 11.01.2021
4700 Clear 21 1022 40 10000 7.72 340 08:46 11.01.2021
4701 Clear 21 1022 43 10000 6.17 330 08:19 11.01.2021
4702 Clear 20 1022 43 10000 5.66 330 07:29 11.01.2021
4703 Clear 18 1022 49 10000 5.14 330 06:59 11.01.2021
4704 Clear 18 1022 49 10000 3.09 320 06:26 11.01.2021
4705 Clear 16 1019 55 10000 2.57 310 01:46 11.01.2021
4706 Clear 17 1020 52 10000 2.57 310 00:38 11.01.2021
4707 Clear 17 1020 45 10000 2.57 320 23:43 10.01.2021
4708 Clear 17 1020 42 10000 2.57 320 22:49 10.01.2021
4709 Clear 17 1019 37 10000 3.09 310 22:27 10.01.2021
4710 Clear 17 1020 37 10000 2.57 310 21:46 10.01.2021
4711 Clear 17 1020 39 10000 2.06 320 21:21 10.01.2021
4712 Clear 17 1020 42 10000 1.54 320 20:57 10.01.2021
4713 Clear 17 1020 42 10000 1.54 320 20:33 10.01.2021
4714 Clear 18 1020 42 10000 2.06 320 19:59 10.01.2021
4715 Clear 18 1020 42 10000 2.06 320 19:38 10.01.2021
4716 Clear 18 1021 45 10000 2.57 330 19:20 10.01.2021
4717 Clear 18 1021 45 10000 3.09 330 18:42 10.01.2021
4718 Clear 18 1021 48 10000 4.12 340 18:19 10.01.2021
4719 Clear 19 1020 52 10000 3.09 10 17:22 10.01.2021
4720 Clear 20 1020 45 10000 2.57 10 16:43 10.01.2021
4721 Clear 20 1020 45 10000 2.57 20 16:25 10.01.2021
4722 Clear 20 1019 42 10000 3.09 10 15:26 10.01.2021
4723 Clear 22 1019 40 10000 4.12 10 14:52 10.01.2021
4724 Clear 22 1019 43 10000 4.12 40 14:34 10.01.2021
4725 Clear 22 1019 40 10000 4.12 40 13:55 10.01.2021
4726 Clear 22 1019 40 10000 4.12 40 13:37 10.01.2021
4727 Clear 22 1019 40 10000 4.12 40 13:37 10.01.2021
4728 Clear 22 1019 35 10000 3.09 30 13:19 10.01.2021
4729 Clear 22 1019 33 10000 4.12 50 12:50 10.01.2021
4730 Clear 22 1019 30 10000 3.6 20 12:32 10.01.2021
4731 Clear 22 1019 30 10000 4.12 10 11:44 10.01.2021
4732 Clear 22 1020 33 10000 3.6 10 11:19 10.01.2021
4733 Clear 22 1020 35 10000 3.09 360 10:45 10.01.2021
4734 Clear 22 1020 33 10000 3.09 350 10:22 10.01.2021
4735 Clear 21 1021 35 10000 2.57 20 09:36 10.01.2021
4736 Clear 21 1022 37 10000 2.57 340 08:23 10.01.2021
4737 Clear 20 1022 40 10000 2.06 350 07:37 10.01.2021
4738 Clear 18 1022 42 10000 0.51 0 06:21 10.01.2021
4739 Clear 15 1021 48 10000 2.06 260 05:41 10.01.2021
4740 Clear 15 1020 55 10000 1.54 270 03:56 10.01.2021
4741 Clear 16 1020 55 10000 1.54 320 01:30 10.01.2021
4742 Clear 16 1020 63 10000 2.06 330 23:58 09.01.2021
4743 Clear 17 1020 59 10000 2.06 330 23:40 09.01.2021
4744 Clear 17 1020 59 10000 2.06 320 22:50 09.01.2021
4745 Clear 17 1020 63 10000 2.57 320 22:19 09.01.2021
4746 Clear 17 1020 63 10000 3.09 330 21:58 09.01.2021
4747 Clear 17 1020 63 10000 3.09 330 21:39 09.01.2021
4748 Clear 17 1020 63 10000 3.09 330 21:20 09.01.2021
4749 Clear 17 1020 63 10000 2.06 320 20:45 09.01.2021
4750 Clear 18 1021 59 10000 1.03 350 19:57 09.01.2021
4751 Clear 18 1021 59 10000 1.03 350 19:39 09.01.2021
4752 Clear 18 1021 59 10000 2.06 350 19:18 09.01.2021
4753 Clear 19 1021 59 10000 2.57 10 18:35 09.01.2021
4754 Clear 19 1021 59 10000 2.06 10 17:51 09.01.2021
4755 Clear 19 1021 59 10000 2.06 10 17:32 09.01.2021
4756 Clear 20 1020 56 10000 3.09 10 16:36 09.01.2021
4757 Clear 20 1020 56 10000 3.09 10 16:18 09.01.2021
4758 Clear 21 1020 52 10000 3.6 20 15:40 09.01.2021
4759 Clear 22 1019 46 10000 4.12 30 14:43 09.01.2021
4760 Clear 22 1019 46 10000 4.12 30 14:21 09.01.2021
4761 Clear 22 1019 43 10000 4.12 40 13:59 09.01.2021
4762 Clear 22 1019 43 10000 4.12 30 13:40 09.01.2021
4763 Clear 22 1019 43 10000 4.12 30 13:22 09.01.2021
4764 Clear 23 1019 38 10000 4.12 10 12:27 09.01.2021
4765 Clear 22 1020 40 10000 4.63 10 11:57 09.01.2021
4766 Clear 23 1020 38 10000 4.12 10 11:37 09.01.2021
4767 Clear 23 1020 40 10000 4.12 350 10:56 09.01.2021
4768 Clear 23 1020 40 10000 4.12 350 10:37 09.01.2021
4769 Clear 23 1021 40 10000 3.6 20 10:18 09.01.2021
4770 Clear 22 1021 40 10000 3.6 20 09:42 09.01.2021
4771 Clear 22 1022 46 10000 2.57 10 09:18 09.01.2021
4772 Clear 20 1022 52 10000 3.09 330 07:46 09.01.2021
4773 Clear 18 1022 45 10000 2.57 300 06:41 09.01.2021
4774 Clear 18 1022 45 10000 2.57 300 06:23 09.01.2021
4775 Clear 15 1020 59 10000 1.03 280 03:49 09.01.2021
4776 Clear 16 1020 59 10000 1.03 0 02:40 09.01.2021
4777 Clear 16 1020 59 10000 2.51 359 02:22 09.01.2021
4778 Clear 17 1020 55 10000 1.54 260 00:49 09.01.2021
4779 Clear 17 1020 55 10000 1.54 330 00:23 09.01.2021
4780 Clear 18 1020 52 10000 1.03 350 23:38 08.01.2021
4781 Clear 17 1020 51 10000 1.03 40 22:38 08.01.2021
4782 Clear 18 1020 51 10000 1.03 360 21:47 08.01.2021
4783 Clear 18 1020 48 10000 1.03 30 20:59 08.01.2021
4784 Clear 18 1020 45 10000 1.54 30 20:33 08.01.2021
4785 Clear 19 1021 45 10000 1.54 20 19:57 08.01.2021
4786 Clear 19 1021 45 10000 1.54 40 19:24 08.01.2021
4787 Clear 20 1021 42 10000 2.57 20 18:53 08.01.2021
4788 Clear 20 1021 45 10000 2.06 30 18:31 08.01.2021
4789 Clear 20 1020 45 10000 3.09 20 17:50 08.01.2021
4790 Clear 20 1020 45 10000 3.09 30 17:24 08.01.2021
4791 Clear 20 1020 45 10000 3.09 20 16:47 08.01.2021
4792 Clear 21 1020 43 10000 4.12 30 15:48 08.01.2021
4793 Clear 21 1020 43 10000 4.12 30 15:27 08.01.2021
4794 Clouds 22 1020 40 10000 4.63 40 14:37 08.01.2021
4795 Clouds 22 1019 43 10000 4.63 40 13:48 08.01.2021
4796 Clouds 22 1019 35 10000 4.12 50 13:21 08.01.2021
4797 Clouds 23 1019 40 10000 4.63 50 12:50 08.01.2021
4798 Clouds 23 1019 38 10000 4.63 30 12:20 08.01.2021
4799 Clouds 23 1019 43 10000 4.63 40 11:46 08.01.2021
4800 Clouds 23 1020 40 10000 5.66 50 11:28 08.01.2021
4801 Clouds 23 1020 38 10000 5.14 50 10:53 08.01.2021
4802 Clouds 23 1020 38 10000 5.14 30 10:35 08.01.2021
4803 Clouds 23 1021 40 10000 5.14 40 09:53 08.01.2021
4804 Clouds 23 1021 35 10000 4.12 50 09:30 08.01.2021
4805 Clouds 23 1022 35 10000 5.14 60 08:39 08.01.2021
4806 Clouds 22 1022 38 10000 5.14 70 07:29 08.01.2021
4807 Clear 20 1022 35 10000 4.63 60 06:21 08.01.2021
4808 Clear 17 1019 55 10000 2.06 330 00:22 08.01.2021
4809 Clear 17 1020 52 10000 1.03 330 23:41 07.01.2021
4810 Clear 18 1020 48 10000 1.03 340 22:47 07.01.2021
4811 Clear 17 1020 55 10000 1.03 360 22:26 07.01.2021
4812 Clear 17 1020 55 10000 1.03 360 22:26 07.01.2021
4813 Clear 19 1020 52 10000 0.51 0 21:46 07.01.2021
4814 Clear 19 1020 52 10000 1.03 50 21:27 07.01.2021
4815 Clear 20 1020 52 10000 1.54 70 20:47 07.01.2021
4816 Clear 20 1020 49 10000 2.57 90 20:29 07.01.2021
4817 Clear 20 1020 49 10000 2.57 80 19:45 07.01.2021
4818 Clear 21 1021 49 10000 3.09 90 19:23 07.01.2021
4819 Clear 20 1020 49 10000 3.6 90 18:38 07.01.2021
4820 Clear 21 1020 49 10000 3.6 90 18:19 07.01.2021
4821 Clear 21 1020 49 10000 3.09 90 17:30 07.01.2021
4822 Clear 21 1020 49 10000 3.09 90 16:54 07.01.2021
4823 Clouds 21 1020 49 10000 3.6 90 16:30 07.01.2021
4824 Clouds 22 1019 49 10000 4.12 100 15:47 07.01.2021
4825 Clouds 22 1019 46 10000 4.12 80 15:29 07.01.2021
4826 Clouds 22 1019 53 10000 3.6 70 14:27 07.01.2021
4827 Clouds 22 1019 53 10000 3.6 70 14:27 07.01.2021
4828 Clouds 23 1019 56 10000 6.17 20 13:49 07.01.2021
4829 Clouds 23 1019 49 10000 6.17 10 13:19 07.01.2021
4830 Clouds 23 1019 49 10000 5.66 20 12:51 07.01.2021
4831 Clouds 23 1018 43 10000 5.1 340 11:59 07.01.2021
4832 Clouds 23 1019 38 10000 5.1 340 11:38 07.01.2021
4833 Clouds 23 1019 46 10000 5.7 340 10:54 07.01.2021
4834 Clouds 23 1019 46 10000 5.7 330 10:33 07.01.2021
4835 Clouds 23 1021 46 10000 6.2 350 09:49 07.01.2021
4836 Clouds 22 1021 49 10000 5.7 350 09:22 07.01.2021
4837 Clear 22 1022 49 10000 4.6 330 08:30 07.01.2021
4838 Clear 21 1022 53 10000 4.6 330 07:54 07.01.2021
4839 Clear 21 1022 49 10000 4.1 330 07:35 07.01.2021
4840 Clear 17 1021 59 10000 1.5 320 05:46 07.01.2021
4841 Clear 18 1019 63 10000 2.1 290 00:59 07.01.2021
4842 Clear 18 1019 68 10000 2.6 330 23:52 06.01.2021
4843 Clear 19 1020 68 10000 3.6 340 22:50 06.01.2021
4844 Clear 19 1020 68 10000 3.1 330 22:19 06.01.2021
4845 Clear 18 1020 63 10000 3.6 340 21:41 06.01.2021
4846 Clear 19 1020 60 10000 3.6 330 21:22 06.01.2021
4847 Clear 19 1020 60 10000 3.6 330 20:40 06.01.2021
4848 Clear 20 1021 56 10000 3.6 330 20:19 06.01.2021
4849 Clear 20 1021 56 10000 3.6 330 19:42 06.01.2021
4850 Clear 20 1021 56 10000 3.6 330 19:24 06.01.2021
4851 Clear 20 1021 49 10000 3.6 330 18:45 06.01.2021
4852 Clear 21 1021 49 10000 4.1 330 18:26 06.01.2021
4853 Clear 21 1021 49 10000 5.1 330 17:43 06.01.2021
4854 Clear 21 1021 49 10000 5.1 330 17:25 06.01.2021
4855 Clear 21 1020 60 10000 4.1 360 16:51 06.01.2021
4856 Clear 22 1020 60 10000 4.6 360 16:20 06.01.2021
4857 Clear 22 1020 60 10000 4.6 360 15:57 06.01.2021
4858 Clouds 22 1019 64 10000 4.1 10 15:32 06.01.2021
4859 Clouds 23 1019 64 10000 4.6 10 14:56 06.01.2021
4860 Clouds 23 1019 68 10000 4.6 20 14:30 06.01.2021
4861 Clouds 23 1019 68 10000 4.6 20 14:30 06.01.2021
4862 Clouds 23 1018 60 10000 4.6 20 13:47 06.01.2021
4863 Clouds 24 1018 53 10000 4.6 20 13:24 06.01.2021
4864 Clouds 24 1018 53 10000 4.6 20 12:53 06.01.2021
4865 Clouds 24 1018 50 10000 3.6 10 12:30 06.01.2021
4866 Clouds 23 1019 53 10000 3.1 10 11:44 06.01.2021
4867 Clear 23 1019 57 10000 3.6 10 11:21 06.01.2021
4868 Clear 23 1019 56 10000 3.1 360 10:31 06.01.2021
4869 Clear 22 1020 60 10000 4.1 340 09:52 06.01.2021
4870 Clear 22 1020 60 10000 3.6 340 09:22 06.01.2021
4871 Clear 21 1022 64 8000 3.6 320 08:42 06.01.2021
4872 Clear 21 1022 60 6000 2.6 310 08:18 06.01.2021
4873 Clear 20 1022 64 6000 2.1 300 07:41 06.01.2021
4874 Haze 16 1021 88 5000 1 0 05:53 06.01.2021
4875 Clear 16 1021 82 8000 1 0 04:43 06.01.2021
4876 Clear 18 1020 77 9000 2.6 300 02:55 06.01.2021
4877 Clear 17 1020 82 9000 1.5 300 02:36 06.01.2021
4878 Clear 17 1019 77 9000 2.1 300 02:18 06.01.2021
4879 Clear 18 1019 82 9000 1 320 23:44 05.01.2021
4880 Clear 18 1020 77 9000 0.5 0 22:53 05.01.2021
4881 Clear 18 1020 77 9000 0.5 0 22:34 05.01.2021
4882 Clear 18 1020 77 9000 1.5 330 21:59 05.01.2021
4883 Clear 19 1020 77 9000 1.5 340 21:18 05.01.2021
4884 Clear 19 1020 72 9000 2.6 320 20:30 05.01.2021
4885 Clear 19 1020 72 10000 2.6 330 19:45 05.01.2021
4886 Clear 20 1020 72 10000 2.6 340 19:24 05.01.2021
4887 Clear 20 1020 72 10000 2.1 350 18:47 05.01.2021
4888 Clear 20 1020 72 10000 2.1 350 18:28 05.01.2021
4889 Clear 21 1020 68 10000 2.1 360 17:54 05.01.2021
4890 Clear 21 1020 68 10000 2.1 360 17:31 05.01.2021
4891 Clear 21 1019 73 10000 2.6 10 16:54 05.01.2021
4892 Clear 22 1019 73 10000 3.1 10 16:24 05.01.2021
4893 Clear 22 1019 73 10000 3.1 10 15:59 05.01.2021
4894 Clear 22 1019 64 10000 3.1 20 15:35 05.01.2021
4895 Clear 23 1018 49 10000 3.6 40 14:48 05.01.2021
4896 Clear 23 1018 53 10000 3.6 50 13:57 05.01.2021
4897 Clear 23 1018 56 10000 3.6 60 13:36 05.01.2021
4898 Clouds 24 1018 50 10000 4.1 50 13:18 05.01.2021
4899 Clouds 24 1018 41 10000 3.6 20 12:46 05.01.2021
4900 Clouds 23 1018 53 10000 4.1 20 12:18 05.01.2021
4901 Clouds 23 1018 50 10000 3.6 30 11:30 05.01.2021
4902 Clouds 23 1018 50 10000 3.6 30 11:30 05.01.2021
4903 Clouds 23 1019 53 10000 3.1 360 10:45 05.01.2021
4904 Clouds 22 1020 53 10000 2.6 340 10:19 05.01.2021
4905 Clouds 22 1020 53 10000 2.6 340 09:42 05.01.2021
4906 Clouds 22 1020 56 10000 2.6 0 08:59 05.01.2021
4907 Clear 21 1021 60 10000 2.6 330 08:19 05.01.2021
4908 Clear 16 1020 77 10000 1.5 250 05:38 05.01.2021
4909 Clear 17 1018 77 7000 1.5 310 03:40 05.01.2021
4910 Clear 18 1017 77 7000 1.5 310 00:24 05.01.2021
4911 Clear 17 1018 82 7000 1.5 340 23:43 04.01.2021
4912 Clear 18 1018 77 7000 1.5 330 23:24 04.01.2021
4913 Clear 18 1018 82 7000 1 330 22:46 04.01.2021
4914 Clear 18 1018 82 8000 2.6 330 22:21 04.01.2021
4915 Clear 19 1018 77 9000 1.5 310 21:40 04.01.2021
4916 Clear 19 1018 77 9000 2.1 320 21:22 04.01.2021
4917 Clear 19 1018 72 9000 2.1 340 20:42 04.01.2021
4918 Clear 20 1018 72 10000 1.5 340 20:21 04.01.2021
4919 Clear 20 1018 72 10000 2.1 360 19:43 04.01.2021
4920 Clear 20 1018 68 10000 1.5 10 19:19 04.01.2021
4921 Clouds 20 1018 68 10000 2.1 350 18:46 04.01.2021
4922 Clouds 20 1018 68 10000 2.1 350 17:59 04.01.2021
4923 Clouds 20 1018 68 10000 2.1 20 17:39 04.01.2021
4924 Clouds 21 1018 68 10000 2.6 360 17:21 04.01.2021
4925 Clouds 21 1018 68 10000 2.1 10 16:42 04.01.2021
4926 Clouds 21 1017 64 10000 1 0 16:24 04.01.2021
4927 Clouds 21 1017 64 10000 1 0 15:48 04.01.2021
4928 Clouds 22 1017 60 10000 2.1 110 15:25 04.01.2021
4929 Clouds 23 1016 56 10000 3.6 100 14:21 04.01.2021
4930 Clouds 23 1016 53 10000 3.6 80 13:37 04.01.2021
4931 Clouds 23 1016 53 10000 3.1 30 12:57 04.01.2021
4932 Clouds 23 1016 50 10000 1.5 10 12:31 04.01.2021
4933 Clouds 23 1016 56 10000 2.6 20 11:52 04.01.2021
4934 Clouds 22 1017 53 10000 2.6 10 11:20 04.01.2021
4935 Clouds 22 1017 53 10000 3.1 10 10:46 04.01.2021
4936 Clouds 22 1018 56 10000 2.1 360 10:23 04.01.2021
4937 Clouds 22 1018 60 10000 1.5 330 09:48 04.01.2021
4938 Clear 21 1019 64 9000 2.1 280 09:18 04.01.2021
4939 Clear 21 1019 64 8000 3.1 290 08:41 04.01.2021
4940 Clear 19 1019 77 6000 2.6 270 07:48 04.01.2021
4941 Haze 18 1019 72 5000 2.1 270 06:56 04.01.2021
4942 Haze 16 1018 88 3000 1.5 270 05:21 04.01.2021
4943 Clear 17 1016 88 9000 1.5 280 02:31 04.01.2021
4944 Clouds 17 1017 82 9000 2.6 310 00:29 04.01.2021
4945 Clouds 18 1017 77 9000 3.6 310 23:47 03.01.2021
4946 Clouds 18 1017 77 9000 3.1 300 23:19 03.01.2021
4947 Clouds 18 1017 77 9000 2.1 310 22:42 03.01.2021
4948 Clouds 18 1017 77 9000 2.6 300 22:23 03.01.2021
4949 Clouds 18 1018 72 9000 2.1 300 21:46 03.01.2021
4950 Clouds 18 1018 72 9000 2.1 300 21:24 03.01.2021
4951 Clouds 19 1018 72 9000 3.1 330 20:42 03.01.2021
4952 Clouds 19 1018 77 9000 2.1 320 20:20 03.01.2021
4953 Clouds 19 1018 77 9000 2.1 320 19:52 03.01.2021
4954 Clear 19 1018 77 10000 3.1 320 19:33 03.01.2021
4955 Clear 20 1018 68 10000 4.1 330 18:52 03.01.2021
4956 Clear 20 1018 68 10000 4.1 330 18:33 03.01.2021
4957 Clouds 20 1018 64 10000 4.1 330 17:53 03.01.2021
4958 Clouds 20 1018 64 10000 4.1 330 17:30 03.01.2021
4959 Clouds 21 1018 56 10000 4.1 330 16:57 03.01.2021
4960 Clouds 21 1018 68 10000 4.6 360 16:39 03.01.2021
4961 Clouds 21 1017 73 10000 4.1 10 16:19 03.01.2021
4962 Clouds 22 1017 68 10000 4.6 10 15:45 03.01.2021
4963 Clouds 22 1017 68 10000 4.1 10 15:19 03.01.2021
4964 Clouds 22 1017 68 10000 5.1 10 14:43 03.01.2021
4965 Clouds 23 1017 60 10000 5.7 10 13:57 03.01.2021
4966 Clouds 23 1016 60 10000 5.7 20 13:37 03.01.2021
4967 Clouds 24 1016 53 10000 4.6 10 13:19 03.01.2021
4968 Clouds 24 1016 47 10000 5.1 10 11:46 03.01.2021
4969 Clouds 24 1016 47 10000 5.1 10 11:27 03.01.2021
4970 Clear 24 1017 50 10000 5.1 350 10:57 03.01.2021
4971 Clear 24 1017 50 10000 5.1 350 10:32 03.01.2021
4972 Clear 23 1019 53 10000 3.6 320 09:49 03.01.2021
4973 Clear 23 1019 53 10000 3.6 320 09:25 03.01.2021
4974 Clear 21 1020 68 9000 4.6 310 08:29 03.01.2021
4975 Clear 20 1020 73 7000 3.6 310 06:54 03.01.2021
4976 Clear 18 1018 82 10000 2.1 270 03:29 03.01.2021
4977 Clear 18 1018 82 10000 2.6 290 02:26 03.01.2021
4978 Clear 19 1018 77 10000 3.1 300 00:27 03.01.2021
4979 Clear 19 1018 77 10000 3.1 300 23:46 02.01.2021
4980 Clear 19 1018 77 10000 3.1 310 23:19 02.01.2021
4981 Clear 19 1018 77 10000 2.6 300 22:47 02.01.2021
4982 Clear 19 1018 77 10000 2.6 300 22:28 02.01.2021
4983 Clear 19 1019 77 10000 2.1 310 21:47 02.01.2021
4984 Clear 19 1019 77 10000 2.1 310 21:28 02.01.2021
4985 Clear 19 1019 72 10000 2.6 310 20:45 02.01.2021
4986 Clear 19 1019 72 10000 2.6 310 20:25 02.01.2021
4987 Clear 20 1019 73 10000 3.1 330 19:46 02.01.2021
4988 Clear 20 1020 73 10000 3.6 330 19:20 02.01.2021
4989 Clear 20 1019 77 10000 2.1 350 18:47 02.01.2021
4990 Clear 20 1019 77 10000 2.1 350 18:28 02.01.2021
4991 Clouds 21 1020 77 10000 2.1 350 17:46 02.01.2021
4992 Clouds 21 1020 77 10000 2.6 350 17:26 02.01.2021
4993 Clouds 21 1020 77 10000 2.6 360 16:42 02.01.2021
4994 Clouds 22 1019 77 9000 2.1 10 16:21 02.01.2021
4995 Clouds 22 1019 68 9000 3.1 10 15:43 02.01.2021
4996 Clouds 23 1019 68 9000 3.1 30 15:25 02.01.2021
4997 Clouds 23 1019 60 9000 3.6 20 14:39 02.01.2021
4998 Clouds 24 1018 60 10000 4.1 40 14:21 02.01.2021
4999 Clouds 24 1018 53 10000 3.1 60 13:40 02.01.2021
5000 Clouds 24 1018 53 10000 3.1 60 13:40 02.01.2021
5001 Clouds 24 1018 53 10000 3.1 30 12:54 02.01.2021
5002 Clouds 24 1018 53 10000 3.6 30 12:32 02.01.2021
5003 Clouds 24 1018 57 10000 3.1 20 11:59 02.01.2021
5004 Clouds 23 1019 53 10000 3.1 10 11:25 02.01.2021
5005 Clouds 23 1019 53 10000 3.1 10 10:58 02.01.2021
5006 Clouds 23 1019 57 10000 3.1 20 10:33 02.01.2021
5007 Clear 23 1020 60 9000 3.1 20 09:54 02.01.2021
5008 Clear 23 1021 60 9000 3.1 360 09:29 02.01.2021
5009 Clear 22 1021 64 9000 3.1 350 08:53 02.01.2021
5010 Clear 22 1021 68 9000 3.6 340 08:34 02.01.2021
5011 Clear 21 1022 60 9000 3.1 340 07:53 02.01.2021
5012 Clear 19 1021 68 9000 1.5 330 07:22 02.01.2021
5013 Clear 19 1021 68 9000 1.5 330 06:56 02.01.2021
5014 Clear 17 1020 72 9000 0.5 340 05:54 02.01.2021
5015 Clear 17 1018 88 10000 2.1 330 00:59 02.01.2021
5016 Clear 18 1018 82 10000 2.1 340 00:37 02.01.2021
5017 Clear 18 1018 82 10000 2.1 340 00:37 02.01.2021
5018 Clear 17 1018 82 10000 2.1 340 23:57 01.01.2021
5019 Clear 18 1018 82 10000 2.1 340 23:23 01.01.2021
5020 Clear 18 1018 82 10000 2.1 340 22:48 01.01.2021
5021 Clear 20 1018 77 10000 2.1 340 22:26 01.01.2021
5022 Clear 19 1018 77 10000 2.1 340 21:58 01.01.2021
5023 Clear 19 1018 77 10000 1.5 340 21:39 01.01.2021
5024 Clear 20 1018 77 10000 1.5 360 21:19 01.01.2021
5025 Clear 20 1018 77 10000 2.1 350 20:43 01.01.2021
5026 Clear 20 1019 77 10000 2.1 350 20:18 01.01.2021
5027 Clear 20 1018 77 10000 2.1 350 19:41 01.01.2021
5028 Clear 21 1018 77 10000 2.6 360 19:20 01.01.2021
5029 Clear 21 1018 77 10000 2.1 10 18:42 01.01.2021
5030 Clear 21 1018 73 10000 2.1 10 18:23 01.01.2021
5031 Clear 21 1018 73 10000 2.6 10 17:44 01.01.2021
5032 Clear 21 1018 73 10000 2.6 10 17:23 01.01.2021
5033 Clear 21 1018 73 10000 2.1 10 16:45 01.01.2021
5034 Clear 22 1018 64 10000 1.5 10 16:25 01.01.2021
5035 Clear 22 1017 64 10000 2.6 10 15:40 01.01.2021
5036 Clear 23 1017 53 10000 2.1 40 14:44 01.01.2021
5037 Clear 23 1017 53 10000 2.1 40 14:26 01.01.2021
5038 Clear 24 1017 50 10000 3.6 80 13:39 01.01.2021
5039 Clear 24 1017 53 10000 3.1 40 12:51 01.01.2021
5040 Clear 24 1017 53 10000 2.6 40 12:27 01.01.2021
5041 Clear 24 1017 50 10000 3.1 60 11:42 01.01.2021
5042 Clear 24 1017 50 10000 3.6 80 11:19 01.01.2021
5043 Clear 24 1017 50 10000 3.6 80 10:56 01.01.2021
5044 Clear 24 1018 50 10000 4.1 100 10:28 01.01.2021
5045 Clear 24 1019 50 10000 3.1 110 09:31 01.01.2021
5046 Clear 23 1020 69 10000 2.6 10 08:30 01.01.2021
5047 Clear 20 1020 83 10000 2.6 360 07:22 01.01.2021
5048 Clear 18 1018 93 10000 1.5 330 04:51 01.01.2021
5049 Clear 18 1017 93 10000 2.1 350 01:58 01.01.2021
5050 Clear 18 1017 93 10000 2.1 360 00:33 01.01.2021
5051 Clear 18 1017 88 10000 1.5 340 23:41 31.12.2020
5052 Clear 18 1017 88 10000 2.1 350 23:21 31.12.2020
5053 Clear 18 1017 88 10000 2.1 350 22:42 31.12.2020
5054 Clear 19 1017 88 10000 1.5 350 22:24 31.12.2020
5055 Clear 18 1017 88 10000 2.1 350 22:24 31.12.2020
5056 Clear 19 1017 88 10000 1.5 350 21:57 31.12.2020
5057 Clear 19 1018 88 10000 1.5 350 21:39 31.12.2020
5058 Clear 19 1018 82 10000 1.5 350 21:20 31.12.2020
5059 Clear 19 1018 88 10000 1.5 350 20:31 31.12.2020
5060 Clear 20 1018 82 10000 1 360 19:51 31.12.2020
5061 Clear 20 1018 82 10000 1 360 19:33 31.12.2020
5062 Clear 20 1018 82 10000 1 340 18:56 31.12.2020
5063 Clear 20 1018 77 10000 1.5 20 18:26 31.12.2020
5064 Clear 20 1018 77 10000 1.5 20 17:55 31.12.2020
5065 Clear 21 1018 77 10000 1.5 20 17:37 31.12.2020
5066 Clear 21 1017 73 10000 1.5 30 17:18 31.12.2020
5067 Clear 21 1017 73 10000 1.5 30 16:38 31.12.2020
5068 Clear 21 1017 73 10000 2.1 40 16:20 31.12.2020
5069 Clear 22 1017 68 10000 2.1 50 15:43 31.12.2020
5070 Clear 23 1017 68 10000 3.1 70 15:20 31.12.2020
5071 Clear 23 1017 64 10000 2.6 80 14:41 31.12.2020
5072 Clear 24 1017 60 10000 2.6 60 14:23 31.12.2020
5073 Clear 24 1017 60 10000 2.6 60 13:58 31.12.2020
5074 Clear 24 1016 60 10000 3.1 80 13:37 31.12.2020
5075 Clear 24 1016 60 10000 3.6 100 13:19 31.12.2020
5076 Clouds 24 1017 64 10000 4.1 100 12:46 31.12.2020
5077 Clouds 24 1017 64 10000 4.1 100 12:28 31.12.2020
5078 Clouds 23 1017 64 10000 3.1 90 11:47 31.12.2020
5079 Clouds 23 1017 64 10000 3.1 90 11:29 31.12.2020
5080 Clouds 23 1018 60 10000 1.5 50 10:42 31.12.2020
5081 Clouds 23 1018 60 10000 2.1 10 10:23 31.12.2020
5082 Clouds 23 1019 64 10000 2.1 0 09:49 31.12.2020
5083 Clouds 22 1019 64 10000 2.1 30 09:24 31.12.2020
5084 Clouds 22 1020 69 10000 1.5 10 08:48 31.12.2020
5085 Clouds 22 1020 69 10000 1.5 10 08:30 31.12.2020
5086 Clear 21 1020 64 9000 1.5 340 07:55 31.12.2020
5087 Clear 21 1020 64 9000 1.5 300 07:24 31.12.2020
5088 Clear 17 1019 82 8000 1 0 05:30 31.12.2020
5089 Clear 18 1018 82 10000 1.5 250 03:37 31.12.2020
5090 Clear 18 1018 72 10000 1 230 02:37 31.12.2020
5091 Clear 18 1018 77 10000 1.5 320 01:58 31.12.2020
5092 Clear 18 1018 77 10000 1.5 320 01:39 31.12.2020
5093 Clear 18 1018 77 10000 1.5 330 00:59 31.12.2020
5094 Clear 19 1018 72 10000 1.5 320 00:39 31.12.2020
5095 Clear 19 1018 72 10000 2.1 310 23:41 30.12.2020
5096 Clear 20 1018 68 10000 1.5 300 23:18 30.12.2020
5097 Clear 20 1018 68 10000 1.5 300 22:36 30.12.2020
5098 Clear 19 1018 72 10000 3.1 330 21:55 30.12.2020
5099 Clear 19 1018 72 10000 3.1 330 21:28 30.12.2020
5100 Clear 19 1018 72 10000 3.1 330 20:57 30.12.2020
5101 Clear 19 1019 72 10000 3.1 330 20:39 30.12.2020
5102 Clear 20 1019 72 10000 3.6 330 20:19 30.12.2020
5103 Clear 20 1019 72 10000 3.6 340 19:38 30.12.2020
5104 Clear 20 1019 72 10000 3.6 340 19:19 30.12.2020
5105 Clear 20 1019 77 10000 3.6 350 18:41 30.12.2020
5106 Clear 20 1019 82 10000 3.1 350 18:22 30.12.2020
5107 Clear 20 1019 82 10000 3.1 350 17:50 30.12.2020
5108 Clear 21 1019 77 10000 2.1 10 17:30 30.12.2020
5109 Clear 21 1019 73 10000 2.6 10 16:48 30.12.2020
5110 Clear 21 1018 73 10000 3.1 20 16:20 30.12.2020
5111 Clear 21 1018 73 10000 3.1 40 15:42 30.12.2020
5112 Clear 22 1018 68 10000 3.1 40 15:24 30.12.2020
5113 Clouds 22 1018 68 10000 3.1 40 14:43 30.12.2020
5114 Clouds 23 1018 60 10000 3.6 50 14:22 30.12.2020
5115 Clouds 24 1017 60 10000 4.1 360 13:20 30.12.2020
5116 Clear 23 1018 60 10000 2.6 10 12:27 30.12.2020
5117 Clouds 23 1018 60 10000 2.6 10 11:49 30.12.2020
5118 Clouds 22 1018 60 10000 3.6 350 11:23 30.12.2020
5119 Clouds 22 1018 60 10000 3.6 350 10:59 30.12.2020
5120 Clouds 22 1019 60 10000 4.1 350 10:39 30.12.2020
5121 Clear 22 1019 60 10000 3.6 320 10:20 30.12.2020
5122 Clouds 22 1020 60 9000 3.1 330 09:44 30.12.2020
5123 Clouds 21 1020 64 6000 2.6 290 08:55 30.12.2020
5124 Clouds 20 1021 68 6000 2.6 270 07:59 30.12.2020
5125 Clouds 20 1021 68 6000 3.1 290 07:28 30.12.2020
5126 Clouds 20 1020 72 6000 3.1 290 06:42 30.12.2020
5127 Clouds 18 1020 82 6000 2.6 280 05:50 30.12.2020
5128 Clouds 16 1020 82 6000 2.6 280 05:30 30.12.2020
5129 Clouds 17 1019 82 8000 5.1 280 03:44 30.12.2020
5130 Clouds 17 1019 82 8000 4.1 290 03:24 30.12.2020
5131 Clouds 17 1018 82 8000 4.1 280 02:36 30.12.2020
5132 Clear 18 1018 77 10000 3.6 290 01:49 30.12.2020
5133 Clear 18 1018 77 10000 3.6 290 01:30 30.12.2020
5134 Clear 18 1019 77 10000 4.1 290 00:46 30.12.2020
5135 Clear 18 1019 77 10000 4.1 290 00:26 30.12.2020
5136 Clear 18 1019 77 10000 4.1 290 23:52 29.12.2020
5137 Clear 18 1019 77 10000 3.6 310 23:34 29.12.2020
5138 Clear 18 1019 77 10000 3.6 310 22:50 29.12.2020
5139 Clear 18 1019 77 10000 3.6 310 22:31 29.12.2020
5140 Clear 18 1019 77 10000 3.1 310 21:56 29.12.2020
5141 Clear 19 1019 72 10000 2.6 310 21:37 29.12.2020
5142 Clear 19 1019 72 10000 2.6 310 21:37 29.12.2020
5143 Clear 19 1020 72 10000 2.6 320 21:18 29.12.2020
5144 Clear 18 1020 68 10000 3.6 310 20:41 29.12.2020
5145 Clear 18 1020 63 10000 3.1 310 20:22 29.12.2020
5146 Clear 18 1020 63 10000 2.6 310 19:43 29.12.2020
5147 Clear 19 1020 59 10000 3.1 310 19:21 29.12.2020
5148 Clear 19 1020 63 10000 3.1 330 18:50 29.12.2020
5149 Clear 19 1020 56 10000 3.6 330 18:28 29.12.2020
5150 Clear 19 1020 56 10000 4.1 310 17:46 29.12.2020
5151 Clear 20 1020 56 10000 3.1 310 17:21 29.12.2020
5152 Clear 20 1020 56 10000 3.1 310 17:21 29.12.2020
5153 Clear 20 1019 52 10000 4.6 310 16:54 29.12.2020
5154 Clear 21 1019 49 10000 4.1 310 16:26 29.12.2020
5155 Clear 21 1019 49 10000 4.6 320 15:39 29.12.2020
5156 Clear 22 1018 49 10000 4.6 310 15:20 29.12.2020
5157 Clear 22 1018 46 10000 5.1 310 14:40 29.12.2020
5158 Clouds 23 1018 49 10000 5.1 310 14:20 29.12.2020
5159 Clouds 23 1018 56 10000 4.6 20 13:54 29.12.2020
5160 Clouds 23 1018 53 10000 6.2 20 13:23 29.12.2020
5161 Clouds 23 1018 50 10000 5.7 360 12:45 29.12.2020
5162 Clouds 23 1018 50 10000 5.7 360 12:26 29.12.2020
5163 Clouds 23 1018 50 10000 5.7 360 11:58 29.12.2020
5164 Clouds 23 1019 53 10000 5.1 350 11:31 29.12.2020
5165 Clouds 23 1020 56 10000 4.6 350 10:40 29.12.2020
5166 Clouds 22 1020 53 10000 4.1 330 09:59 29.12.2020
5167 Clouds 22 1020 60 10000 5.7 340 09:37 29.12.2020
5168 Clear 21 1021 60 10000 5.1 330 09:18 29.12.2020
5169 Clear 23 1021 64 10000 3.6 310 08:43 29.12.2020
5170 Clear 20 1022 64 10000 4.6 310 07:33 29.12.2020
5171 Clear 19 1022 68 10000 3.6 320 06:55 29.12.2020
5172 Clear 18 1021 72 10000 2.6 300 05:33 29.12.2020
5173 Clouds 18 1020 77 10000 2.6 320 01:27 29.12.2020
5174 Clouds 19 1020 77 10000 2.1 310 00:24 29.12.2020
5175 Clear 18 1020 72 10000 2.1 300 23:36 28.12.2020
5176 Clear 18 1021 68 10000 2.1 300 22:30 28.12.2020
5177 Clear 18 1021 68 10000 1.5 310 21:47 28.12.2020
5178 Clear 18 1021 68 10000 1.5 310 21:29 28.12.2020
5179 Clear 18 1021 68 10000 1.5 340 20:46 28.12.2020
5180 Clear 18 1021 68 10000 1.5 340 20:28 28.12.2020
5181 Clear 19 1021 72 10000 1 350 19:58 28.12.2020
5182 Clear 19 1021 72 10000 1 350 19:38 28.12.2020
5183 Clear 19 1021 77 10000 1.5 340 19:20 28.12.2020
5184 Clear 20 1021 72 10000 1 350 18:43 28.12.2020
5185 Clear 20 1021 72 10000 1.5 360 18:21 28.12.2020
5186 Clear 20 1021 72 10000 2.1 360 17:39 28.12.2020
5187 Clear 21 1021 68 10000 2.6 10 17:18 28.12.2020
5188 Clear 21 1020 64 10000 2.1 20 16:32 28.12.2020
5189 Clear 21 1020 60 10000 2.6 20 15:58 28.12.2020
5190 Clear 22 1020 53 10000 3.1 20 15:36 28.12.2020
5191 Clear 23 1019 46 10000 3.6 30 14:35 28.12.2020
5192 Clear 23 1019 43 10000 4.1 20 13:51 28.12.2020
5193 Clear 23 1019 43 10000 4.6 30 13:23 28.12.2020
5194 Clear 24 1019 41 10000 4.6 30 12:38 28.12.2020
5195 Clear 24 1020 38 10000 5.1 50 12:18 28.12.2020
5196 Clouds 24 1020 38 10000 5.1 50 11:42 28.12.2020
5197 Clouds 24 1020 36 10000 5.7 40 11:18 28.12.2020
5198 Clouds 24 1021 38 10000 5.7 40 10:38 28.12.2020
5199 Clouds 24 1021 44 10000 6.2 70 10:19 28.12.2020
5200 Clouds 24 1022 44 10000 5.1 60 09:38 28.12.2020
5201 Clouds 22 1022 53 10000 3.6 10 09:18 28.12.2020
5202 Clear 20 1023 60 10000 2.1 330 06:55 28.12.2020
5203 Clear 17 1022 77 10000 0.5 0 05:34 28.12.2020
5204 Clear 19 1020 72 10000 1 0 03:53 28.12.2020
5205 Clear 19 1020 72 10000 1.5 40 01:56 28.12.2020
5206 Clear 19 1020 68 10000 1.5 30 00:19 28.12.2020
5207 Clear 19 1020 68 10000 1.5 60 23:37 27.12.2020
5208 Clear 19 1020 64 10000 2.1 60 22:52 27.12.2020
5209 Clear 19 1021 64 10000 2.1 70 21:56 27.12.2020
5210 Clear 19 1021 64 10000 2.6 70 21:25 27.12.2020
5211 Clear 20 1021 64 10000 2.6 70 20:40 27.12.2020
5212 Clear 20 1022 64 10000 3.1 70 19:25 27.12.2020
5213 Clear 21 1022 60 10000 2.1 60 18:54 27.12.2020
5214 Clear 21 1022 60 10000 2.1 60 18:36 27.12.2020
5215 Clear 21 1022 60 10000 2.6 40 18:18 27.12.2020
5216 Clear 21 1022 60 10000 2.6 40 18:18 27.12.2020
5217 Clouds 21 1022 64 10000 3.1 60 17:42 27.12.2020
5218 Clouds 21 1022 68 10000 3.1 60 17:21 27.12.2020
5219 Clouds 21 1021 68 10000 3.1 60 16:30 27.12.2020
5220 Clouds 22 1021 64 10000 4.1 60 15:40 27.12.2020
5221 Clouds 22 1020 64 10000 4.1 60 14:58 27.12.2020
5222 Clear 23 1020 56 10000 4.6 60 14:38 27.12.2020
5223 Clear 23 1020 53 10000 4.6 70 13:43 27.12.2020
5224 Clear 23 1020 49 10000 5.7 60 13:19 27.12.2020
5225 Clear 24 1020 47 10000 6.2 60 12:41 27.12.2020
5226 Clouds 24 1020 47 10000 6.7 90 11:46 27.12.2020
5227 Clouds 24 1020 47 10000 6.7 90 11:28 27.12.2020
5228 Clear 24 1021 50 10000 4.1 80 10:51 27.12.2020
5229 Clear 22 1022 53 10000 3.1 10 10:23 27.12.2020
5230 Clear 22 1022 49 10000 4.1 350 09:41 27.12.2020
5231 Clouds 20 1023 52 10000 4.6 330 08:29 27.12.2020
5232 Clouds 20 1023 52 10000 4.6 330 08:29 27.12.2020
5233 Clouds 20 1023 52 10000 4.6 330 07:58 27.12.2020
5234 Clouds 19 1023 56 10000 3.6 330 07:25 27.12.2020
5235 Clear 16 1022 59 10000 3.1 310 05:39 27.12.2020
5236 Clear 16 1021 63 10000 3.1 300 03:26 27.12.2020
5237 Clear 16 1021 63 10000 3.1 300 02:40 27.12.2020
5238 Clear 16 1021 63 10000 3.1 300 01:21 27.12.2020
5239 Clear 16 1022 59 10000 2.1 290 23:45 26.12.2020
5240 Clear 16 1022 55 10000 2.6 300 23:26 26.12.2020
5241 Clear 16 1022 59 10000 2.6 310 22:47 26.12.2020
5242 Clear 16 1022 55 10000 3.1 300 22:20 26.12.2020
5243 Clear 16 1022 55 10000 3.6 320 21:55 26.12.2020
5244 Clear 16 1022 55 10000 3.6 320 21:31 26.12.2020
5245 Clear 17 1022 55 10000 4.1 330 20:58 26.12.2020
5246 Clear 17 1022 55 10000 4.6 320 20:28 26.12.2020
5247 Clear 17 1022 55 10000 4.6 320 19:57 26.12.2020
5248 Clear 17 1022 55 10000 6.2 330 19:24 26.12.2020
5249 Clear 17 1022 55 10000 4.6 320 18:38 26.12.2020
5250 Clear 17 1022 55 10000 4.6 320 18:18 26.12.2020
5251 Clear 17 1022 55 10000 5.1 320 17:40 26.12.2020
5252 Clear 18 1021 55 10000 4.6 330 17:19 26.12.2020
5253 Clear 18 1021 52 10000 5.1 320 16:32 26.12.2020
5254 Clear 19 1020 52 10000 6.7 330 15:26 26.12.2020
5255 Clear 19 1020 45 10000 6.2 320 14:46 26.12.2020
5256 Clear 20 1020 49 10000 6.7 330 14:27 26.12.2020
5257 Clear 20 1020 46 10000 6.2 320 13:43 26.12.2020
5258 Clear 20 1020 49 10000 6.7 310 13:24 26.12.2020
5259 Clear 21 1020 46 10000 6.2 310 12:44 26.12.2020
5260 Clear 20 1020 46 10000 6.7 320 12:21 26.12.2020
5261 Clear 20 1020 46 10000 4.6 310 11:51 26.12.2020
5262 Clear 20 1020 46 10000 5.7 310 11:21 26.12.2020
5263 Clear 20 1020 46 10000 5.7 310 10:53 26.12.2020
5264 Clear 20 1021 49 10000 6.2 310 10:27 26.12.2020
5265 Clear 20 1021 49 10000 5.7 310 09:49 26.12.2020
5266 Clear 20 1021 49 10000 5.7 310 09:49 26.12.2020
5267 Clear 19 1022 52 10000 6.2 320 09:24 26.12.2020
5268 Clear 19 1022 52 10000 5.1 320 08:29 26.12.2020
5269 Clear 18 1022 59 10000 5.7 310 07:50 26.12.2020
5270 Clear 16 1022 63 10000 4.1 310 06:29 26.12.2020
5271 Clear 16 1020 55 10000 4.6 310 02:49 26.12.2020
5272 Clear 17 1020 51 10000 4.1 310 00:44 26.12.2020
5273 Clear 17 1021 48 10000 5.1 310 00:24 26.12.2020
5274 Clear 17 1021 52 10000 5.7 310 23:39 25.12.2020
5275 Clear 18 1021 52 10000 5.1 310 23:21 25.12.2020
5276 Clear 18 1021 52 10000 6.2 310 22:40 25.12.2020
5277 Clear 18 1021 55 10000 5.7 310 21:54 25.12.2020
5278 Clear 18 1021 52 10000 5.7 320 21:34 25.12.2020
5279 Clear 19 1021 52 10000 5.1 320 20:49 25.12.2020
5280 Clear 19 1021 52 10000 5.1 320 20:30 25.12.2020
5281 Clear 19 1021 52 10000 5.1 320 19:47 25.12.2020
5282 Clear 19 1021 49 10000 4.6 320 18:58 25.12.2020
5283 Clear 19 1021 49 10000 4.6 320 18:38 25.12.2020
5284 Clear 20 1021 49 10000 5.7 320 17:47 25.12.2020
5285 Clear 20 1020 49 10000 5.1 320 17:28 25.12.2020
5286 Clouds 21 1019 43 10000 7.7 330 16:33 25.12.2020
5287 Clouds 21 1019 43 10000 7.7 330 15:59 25.12.2020
5288 Clouds 21 1019 43 10000 7.7 330 15:36 25.12.2020
5289 Clouds 22 1018 49 10000 8.7 350 14:50 25.12.2020
5290 Clouds 22 1018 49 10000 8.7 350 14:29 25.12.2020
5291 Clear 23 1018 40 10000 9.3 350 13:44 25.12.2020
5292 Clear 23 1018 40 10000 8.7 350 13:26 25.12.2020
5293 Clear 23 1017 43 10000 10.8 350 12:45 25.12.2020
5294 Clear 23 1018 43 10000 9.3 350 11:56 25.12.2020
5295 Clear 24 1018 38 10000 9.8 350 11:31 25.12.2020
5296 Clear 23 1018 40 10000 9.8 350 10:57 25.12.2020
5297 Clear 23 1019 38 10000 9.3 340 10:24 25.12.2020
5298 Clear 23 1019 36 10000 9.3 340 09:34 25.12.2020
5299 Clear 22 1020 53 10000 8.2 330 08:48 25.12.2020
5300 Clear 22 1020 56 10000 8.2 340 07:58 25.12.2020
5301 Clear 20 1019 56 10000 6.7 330 06:46 25.12.2020
5302 Clear 18 1016 77 10000 4.1 290 02:51 25.12.2020
5303 Clear 18 1015 72 10000 2.1 290 01:41 25.12.2020
5304 Clear 18 1015 72 10000 3.6 290 00:18 25.12.2020
5305 Clear 19 1015 68 10000 3.6 280 23:23 24.12.2020
5306 Clear 19 1015 72 10000 3.1 240 22:41 24.12.2020
5307 Clear 19 1015 72 10000 2.1 200 22:20 24.12.2020
5308 Clear 19 1015 72 10000 2.1 170 21:33 24.12.2020
5309 Clear 20 1015 72 10000 1.5 160 20:36 24.12.2020
5310 Clear 20 1015 72 10000 2.1 140 18:40 24.12.2020
5311 Clear 20 1015 72 10000 2.1 120 18:18 24.12.2020
5312 Clear 21 1015 68 10000 2.6 120 17:36 24.12.2020
5313 Clear 21 1014 68 10000 2.6 100 16:28 24.12.2020
5314 Clear 22 1013 64 10000 3.1 110 15:59 24.12.2020
5315 Clear 22 1014 68 10000 2.6 110 15:59 24.12.2020
5316 Clear 22 1014 68 10000 2.6 110 15:59 24.12.2020
5317 Clear 22 1013 64 10000 3.1 110 15:41 24.12.2020
5318 Clear 23 1013 64 10000 4.1 100 15:19 24.12.2020
5319 Clear 23 1013 60 10000 4.1 100 14:42 24.12.2020
5320 Clear 24 1013 60 10000 4.6 80 14:24 24.12.2020
5321 Clear 24 1013 60 10000 4.6 80 14:24 24.12.2020
5322 Clear 24 1013 50 10000 3.6 90 13:41 24.12.2020
5323 Clear 25 1013 31 10000 2.6 250 13:21 24.12.2020
5324 Clear 25 1013 34 10000 3.6 250 12:41 24.12.2020
5325 Clear 25 1014 34 10000 2.1 250 12:21 24.12.2020
5326 Clear 25 1014 38 10000 3.6 230 11:39 24.12.2020
5327 Clear 24 1014 38 10000 3.6 220 11:20 24.12.2020
5328 Clear 24 1014 38 10000 3.6 220 11:20 24.12.2020
5329 Clear 24 1015 47 10000 3.1 0 10:51 24.12.2020
5330 Clear 24 1015 47 10000 3.1 0 10:32 24.12.2020
5331 Clear 23 1016 53 10000 3.1 190 09:52 24.12.2020
5332 Clear 22 1016 60 10000 3.1 190 09:24 24.12.2020
5333 Clear 20 1017 68 10000 2.6 220 08:20 24.12.2020
5334 Clear 20 1017 68 10000 2.1 210 07:39 24.12.2020
5335 Clear 18 1017 77 10000 2.6 210 07:18 24.12.2020
5336 Clear 15 1016 77 10000 1 0 04:28 24.12.2020
5337 Clear 16 1015 77 10000 1 230 01:54 24.12.2020
5338 Clear 16 1015 77 10000 1 220 01:32 24.12.2020
5339 Clear 16 1015 72 10000 1 210 00:56 24.12.2020
5340 Clear 17 1015 72 10000 0.5 200 00:21 24.12.2020
5341 Clear 17 1015 72 10000 0.73 3 23:44 23.12.2020
5342 Clear 17 1015 77 10000 1 360 23:23 23.12.2020
5343 Clear 17 1016 77 10000 0.81 348 22:53 23.12.2020
5344 Clear 17 1016 77 10000 1.02 346 22:29 23.12.2020
5345 Clear 18 1016 72 10000 1.5 10 21:49 23.12.2020
5346 Clear 18 1017 77 10000 1.5 10 21:25 23.12.2020
5347 Clear 18 1017 72 10000 1.5 360 20:50 23.12.2020
5348 Clear 18 1017 72 10000 1.5 360 20:31 23.12.2020
5349 Clear 18 1017 77 10000 1.5 360 19:59 23.12.2020
5350 Clear 18 1017 72 10000 3.1 10 19:38 23.12.2020
5351 Clear 19 1017 72 10000 2.6 10 19:19 23.12.2020
5352 Clear 19 1017 68 10000 2.6 10 18:46 23.12.2020
5353 Clear 20 1017 68 10000 2.1 10 18:21 23.12.2020
5354 Clear 20 1017 68 10000 2.1 10 17:39 23.12.2020
5355 Clear 20 1017 68 10000 2.1 10 17:20 23.12.2020
5356 Clear 20 1017 64 10000 2.6 360 16:43 23.12.2020
5357 Clear 21 1016 60 10000 2.6 360 16:25 23.12.2020
5358 Clear 21 1016 60 10000 2.6 360 15:54 23.12.2020
5359 Clear 22 1016 53 10000 2.1 10 15:28 23.12.2020
5360 Clear 22 1016 53 10000 2.1 10 14:58 23.12.2020
5361 Clear 23 1016 49 10000 3.1 10 14:39 23.12.2020
5362 Clear 23 1016 49 10000 2.6 350 14:20 23.12.2020
5363 Clouds 23 1016 49 10000 3.1 350 13:43 23.12.2020
5364 Clouds 24 1016 53 10000 4.1 10 13:19 23.12.2020
5365 Clouds 23 1016 49 10000 3.1 350 12:51 23.12.2020
5366 Clear 24 1016 53 10000 3.6 10 12:25 23.12.2020
5367 Clear 24 1016 47 10000 3.1 330 11:47 23.12.2020
5368 Clear 22 1017 49 10000 3.1 340 11:19 23.12.2020
5369 Clouds 22 1017 49 10000 2.6 320 10:48 23.12.2020
5370 Clouds 22 1017 49 10000 2.6 320 10:30 23.12.2020
5371 Clear 22 1019 53 10000 2.1 270 09:35 23.12.2020
5372 Clear 21 1020 56 10000 2.6 270 08:49 23.12.2020
5373 Clear 20 1020 64 10000 3.1 260 08:21 23.12.2020
5374 Clear 19 1020 64 10000 2.6 270 07:27 23.12.2020
5375 Clear 20 1020 68 10000 2.1 270 06:41 23.12.2020
5376 Clear 16 1019 77 10000 1.5 260 05:39 23.12.2020
5377 Clear 17 1019 77 10000 1.5 250 04:59 23.12.2020
5378 Clear 18 1018 72 10000 3.6 310 01:31 23.12.2020
5379 Clear 18 1018 72 10000 3.6 310 00:21 23.12.2020
5380 Clear 18 1018 72 10000 3.6 310 00:21 23.12.2020
5381 Clear 18 1018 72 10000 3.6 310 23:36 22.12.2020
5382 Clear 18 1018 72 10000 4.1 310 23:18 22.12.2020
5383 Clear 18 1019 68 10000 4.1 310 22:41 22.12.2020
5384 Clear 18 1019 68 10000 3.6 310 22:20 22.12.2020
5385 Clear 18 1019 68 10000 3.6 310 21:44 22.12.2020
5386 Clear 19 1020 68 10000 3.6 310 21:20 22.12.2020
5387 Clear 19 1020 68 10000 4.1 310 20:49 22.12.2020
5388 Clear 19 1020 68 10000 4.1 310 20:22 22.12.2020
5389 Clear 20 1019 64 10000 3.6 310 19:49 22.12.2020
5390 Clear 20 1020 64 10000 4.1 310 19:26 22.12.2020
5391 Clear 19 1020 64 10000 4.6 300 18:56 22.12.2020
5392 Clear 19 1020 64 10000 4.6 300 18:36 22.12.2020
5393 Clear 20 1020 64 10000 4.1 310 18:18 22.12.2020
5394 Clear 21 1019 60 10000 4.6 310 17:36 22.12.2020
5395 Clear 21 1019 60 10000 4.6 310 17:18 22.12.2020
5396 Clear 20 1019 60 10000 4.1 320 16:44 22.12.2020
5397 Clear 21 1019 56 10000 4.1 320 16:19 22.12.2020
5398 Clouds 21 1018 53 10000 4.6 320 15:45 22.12.2020
5399 Clouds 22 1018 53 10000 5.1 320 15:26 22.12.2020
5400 Clouds 22 1018 53 10000 5.1 320 14:46 22.12.2020
5401 Clouds 24 1018 50 10000 6.7 340 14:28 22.12.2020
5402 Clouds 24 1018 50 10000 6.7 340 13:54 22.12.2020
5403 Clouds 24 1018 50 10000 6.7 340 13:36 22.12.2020
5404 Clouds 24 1018 50 10000 6.7 340 13:18 22.12.2020
5405 Clouds 24 1018 47 10000 6.7 340 12:42 22.12.2020
5406 Clouds 25 1019 53 10000 4.6 320 12:20 22.12.2020
5407 Clouds 24 1019 50 10000 5.1 330 11:43 22.12.2020
5408 Clouds 24 1019 47 10000 4.6 320 11:23 22.12.2020
5409 Clouds 24 1019 47 10000 4.6 320 10:56 22.12.2020
5410 Clouds 24 1020 53 10000 5.1 320 10:30 22.12.2020
5411 Clear 23 1020 53 10000 4.1 310 09:59 22.12.2020
5412 Clear 22 1021 56 10000 4.6 310 09:40 22.12.2020
5413 Clear 21 1021 60 10000 5.1 310 09:20 22.12.2020
5414 Clear 21 1022 60 9000 4.1 320 08:43 22.12.2020
5415 Clear 20 1022 64 9000 4.1 310 08:20 22.12.2020
5416 Clear 20 1022 64 9000 4.1 290 07:47 22.12.2020
5417 Clear 18 1022 72 9000 2.6 290 06:37 22.12.2020
5418 Clear 17 1022 77 9000 2.1 280 05:39 22.12.2020
5419 Clear 17 1020 72 10000 4.1 310 02:36 22.12.2020
5420 Clear 17 1020 77 10000 5.1 300 00:43 22.12.2020
5421 Clear 18 1020 68 10000 4.1 310 23:51 21.12.2020
5422 Clear 18 1020 63 10000 5.1 310 23:23 21.12.2020
5423 Clear 18 1020 63 10000 4.1 310 22:37 21.12.2020
5424 Clear 18 1020 63 10000 5.1 310 22:19 21.12.2020
5425 Clear 18 1020 63 10000 5.1 310 21:48 21.12.2020
5426 Clear 18 1020 63 10000 5.1 310 21:30 21.12.2020
5427 Clear 19 1021 63 10000 4.1 310 20:46 21.12.2020
5428 Clear 19 1021 60 10000 4.1 310 20:23 21.12.2020
5429 Clear 19 1021 60 10000 4.1 310 19:55 21.12.2020
5430 Clear 19 1021 60 10000 4.1 310 19:36 21.12.2020
5431 Clear 19 1021 60 10000 4.1 310 19:18 21.12.2020
5432 Clear 19 1021 60 10000 4.1 320 18:45 21.12.2020
5433 Clear 19 1021 60 10000 4.1 320 18:27 21.12.2020
5434 Clear 20 1021 60 10000 4.1 320 17:43 21.12.2020
5435 Clear 20 1021 56 10000 5.1 320 17:23 21.12.2020
5436 Clear 20 1021 56 10000 5.1 320 16:45 21.12.2020
5437 Clear 21 1020 52 10000 5.1 320 16:23 21.12.2020
5438 Clear 21 1020 53 10000 4.6 320 15:43 21.12.2020
5439 Clear 22 1020 49 10000 5.7 310 15:18 21.12.2020
5440 Clear 22 1019 46 10000 5.1 310 14:54 21.12.2020
5441 Clear 23 1019 44 10000 5.1 330 14:20 21.12.2020
5442 Clear 23 1019 44 10000 5.1 330 13:42 21.12.2020
5443 Clear 23 1019 41 10000 7.2 340 13:22 21.12.2020
5444 Clear 24 1019 38 10000 5.7 330 12:43 21.12.2020
5445 Clear 24 1019 38 10000 5.7 320 12:23 21.12.2020
5446 Clear 23 1020 44 10000 6.2 340 11:43 21.12.2020
5447 Clear 23 1020 47 10000 5.7 340 11:23 21.12.2020
5448 Clear 23 1020 47 10000 5.7 340 10:58 21.12.2020
5449 Clear 23 1020 49 10000 5.7 330 10:40 21.12.2020
5450 Clear 22 1021 49 10000 4.6 330 09:59 21.12.2020
5451 Clear 22 1022 46 10000 5.7 340 09:40 21.12.2020
5452 Clear 21 1022 53 10000 4.6 320 09:22 21.12.2020
5453 Clear 21 1023 53 10000 5.1 310 08:30 21.12.2020
5454 Clear 20 1023 56 10000 3.6 310 07:31 21.12.2020
5455 Clear 18 1022 59 10000 3.1 310 05:50 21.12.2020
5456 Clear 17 1022 63 10000 3.1 300 04:31 21.12.2020
5457 Clear 18 1021 59 10000 3.1 320 00:51 21.12.2020
5458 Clear 18 1021 59 10000 3.1 320 00:30 21.12.2020
5459 Clear 18 1022 55 10000 3.1 310 23:24 20.12.2020
5460 Clear 18 1022 55 10000 3.1 310 22:56 20.12.2020
5461 Clear 18 1021 55 10000 4.1 310 22:38 20.12.2020
5462 Clear 18 1022 55 10000 4.1 300 22:19 20.12.2020
5463 Clear 19 1022 52 10000 3.6 300 21:39 20.12.2020
5464 Clear 19 1022 56 10000 4.1 320 21:20 20.12.2020
5465 Clear 19 1022 56 10000 3.6 320 20:47 20.12.2020
5466 Clear 20 1022 56 10000 4.1 320 20:22 20.12.2020
5467 Clear 20 1022 56 10000 4.1 320 19:45 20.12.2020
5468 Clear 20 1022 56 10000 4.1 320 19:24 20.12.2020
5469 Clear 20 1022 52 10000 4.6 320 18:55 20.12.2020
5470 Clear 20 1022 52 10000 4.6 320 18:36 20.12.2020
5471 Clear 21 1022 52 10000 4.6 320 17:57 20.12.2020
5472 Clear 21 1022 52 10000 5.1 320 17:39 20.12.2020
5473 Clear 21 1022 52 10000 5.1 320 17:18 20.12.2020
5474 Clear 21 1021 52 10000 4.6 320 16:44 20.12.2020
5475 Clear 22 1021 49 10000 6.2 330 16:24 20.12.2020
5476 Clear 22 1021 49 10000 5.1 320 15:41 20.12.2020
5477 Clear 23 1021 43 10000 6.2 330 15:22 20.12.2020
5478 Clear 23 1020 43 10000 6.7 330 14:48 20.12.2020
5479 Clear 23 1020 43 10000 6.7 330 14:29 20.12.2020
5480 Clear 23 1020 56 10000 7.7 350 13:44 20.12.2020
5481 Clear 23 1020 56 10000 7.7 350 13:23 20.12.2020
5482 Clear 24 1020 50 10000 6.7 350 12:51 20.12.2020
5483 Clear 24 1020 50 10000 6.7 350 12:26 20.12.2020
5484 Clear 24 1020 50 10000 7.2 350 11:52 20.12.2020
5485 Clear 24 1021 47 10000 7.2 350 11:28 20.12.2020
5486 Clear 24 1021 50 10000 7.7 350 10:50 20.12.2020
5487 Clear 24 1022 50 10000 6.2 340 10:22 20.12.2020
5488 Clear 24 1022 50 10000 6.2 340 09:57 20.12.2020
5489 Clear 24 1022 50 10000 7.7 340 09:37 20.12.2020
5490 Clear 23 1022 53 10000 8.2 340 09:19 20.12.2020
5491 Clear 23 1023 53 10000 7.2 340 08:48 20.12.2020
5492 Clear 23 1023 53 10000 7.2 340 08:29 20.12.2020
5493 Clear 21 1023 56 10000 6.7 330 07:22 20.12.2020
5494 Clear 20 1022 60 10000 4.1 320 05:33 20.12.2020
5495 Clear 19 1020 68 10000 3.6 320 01:31 20.12.2020
5496 Clear 19 1020 68 10000 3.1 310 00:22 20.12.2020
5497 Clear 20 1020 64 10000 3.6 310 23:18 19.12.2020
5498 Clear 20 1021 64 10000 3.1 320 22:45 19.12.2020
5499 Clear 20 1021 64 10000 3.6 310 22:25 19.12.2020
5500 Clear 20 1021 64 10000 3.6 310 21:59 19.12.2020
5501 Clear 20 1021 64 10000 4.1 320 21:40 19.12.2020
5502 Clear 20 1021 64 10000 4.1 320 21:21 19.12.2020
5503 Clear 20 1021 64 10000 3.6 330 20:40 19.12.2020
5504 Clear 20 1021 68 10000 4.1 330 20:18 19.12.2020
5505 Clear 20 1021 68 10000 4.1 330 19:50 19.12.2020
5506 Clear 20 1021 68 10000 4.1 330 19:29 19.12.2020
5507 Clear 21 1020 73 10000 4.1 330 18:37 19.12.2020
5508 Clear 22 1020 68 10000 4.6 330 18:19 19.12.2020
5509 Clear 22 1020 68 10000 5.7 340 17:44 19.12.2020
5510 Clear 22 1020 73 10000 5.7 350 17:22 19.12.2020
5511 Clear 22 1020 60 10000 5.1 340 16:43 19.12.2020
5512 Clear 22 1020 60 10000 5.1 340 16:25 19.12.2020
5513 Clear 23 1019 56 10000 6.2 340 15:55 19.12.2020
5514 Clear 23 1019 69 10000 5.1 360 15:34 19.12.2020
5515 Clouds 23 1019 69 10000 5.7 10 14:41 19.12.2020
5516 Clouds 24 1019 69 10000 5.1 20 14:21 19.12.2020
5517 Clouds 24 1018 69 10000 5.1 10 13:41 19.12.2020
5518 Clouds 24 1018 64 10000 5.1 10 13:20 19.12.2020
5519 Clouds 24 1018 60 10000 4.6 10 12:44 19.12.2020
5520 Clouds 24 1018 60 10000 4.6 10 12:26 19.12.2020
5521 Clouds 24 1018 60 10000 4.6 20 11:57 19.12.2020
5522 Clouds 24 1019 60 10000 4.1 10 11:36 19.12.2020
5523 Clouds 24 1019 64 10000 4.6 350 10:43 19.12.2020
5524 Clouds 24 1020 64 9000 4.1 340 10:25 19.12.2020
5525 Clouds 24 1020 64 7000 4.1 340 09:53 19.12.2020
5526 Clouds 24 1020 64 7000 4.1 340 09:35 19.12.2020
5527 Haze 23 1021 64 5000 3.6 340 08:36 19.12.2020
5528 Clouds 22 1021 69 6000 3.6 340 07:25 19.12.2020
5529 Clouds 21 1020 68 8000 3.6 340 06:53 19.12.2020
5530 Clouds 19 1020 73 8000 2.6 330 06:21 19.12.2020
5531 Clouds 17 1020 77 9000 0.5 300 05:18 19.12.2020
5532 Clear 18 1019 82 10000 1.5 290 03:20 19.12.2020
5533 Clear 18 1018 82 10000 1 330 00:40 19.12.2020
5534 Clear 19 1018 82 10000 1.5 340 00:18 19.12.2020
5535 Clear 19 1018 82 10000 1.5 330 23:48 18.12.2020
5536 Clear 19 1018 82 10000 1.5 330 23:23 18.12.2020
5537 Clear 19 1018 68 10000 1.5 340 22:46 18.12.2020
5538 Clear 19 1019 68 10000 1.5 350 22:24 18.12.2020
5539 Clear 19 1018 68 10000 1.5 340 21:50 18.12.2020
5540 Clear 20 1019 68 10000 1.5 350 21:31 18.12.2020
5541 Clear 20 1019 64 10000 1.5 340 20:42 18.12.2020
5542 Clear 20 1019 68 10000 2.1 340 20:21 18.12.2020
5543 Clear 21 1019 64 10000 3.1 330 19:45 18.12.2020
5544 Clear 21 1019 73 10000 0.5 0 19:21 18.12.2020
5545 Clear 22 1018 68 10000 1.5 160 18:43 18.12.2020
5546 Clear 22 1018 64 10000 1 0 18:24 18.12.2020
5547 Clear 22 1018 68 10000 2.6 140 17:28 18.12.2020
5548 Clear 22 1018 68 10000 3.1 150 16:57 18.12.2020
5549 Clear 22 1018 68 10000 3.1 150 16:38 18.12.2020
5550 Clear 23 1018 64 10000 3.1 140 16:19 18.12.2020
5551 Clear 23 1018 60 10000 3.6 130 15:42 18.12.2020
5552 Clear 25 1018 57 10000 3.6 140 15:24 18.12.2020
5553 Clouds 25 1017 50 10000 4.6 140 14:55 18.12.2020
5554 Clouds 25 1017 50 10000 4.6 130 14:23 18.12.2020
5555 Clouds 25 1017 44 10000 4.6 130 13:51 18.12.2020
5556 Clouds 25 1017 44 10000 4.6 130 13:31 18.12.2020
5557 Clouds 25 1017 44 10000 4.1 140 12:56 18.12.2020
5558 Clouds 25 1017 44 10000 4.1 120 12:30 18.12.2020
5559 Clouds 26 1017 44 10000 4.1 110 11:27 18.12.2020
5560 Clouds 26 1018 47 10000 5.1 130 10:40 18.12.2020
5561 Clear 25 1018 47 10000 5.7 130 10:21 18.12.2020
5562 Clear 25 1018 47 10000 5.7 130 09:55 18.12.2020
5563 Clear 25 1019 47 10000 5.1 130 09:36 18.12.2020
5564 Clear 25 1019 50 10000 5.1 130 09:18 18.12.2020
5565 Clear 25 1020 53 10000 5.1 140 08:42 18.12.2020
5566 Clear 23 1020 64 10000 4.6 140 07:52 18.12.2020
5567 Clear 22 1020 64 10000 2.1 160 07:19 18.12.2020
5568 Clear 22 1020 64 10000 2.1 160 06:58 18.12.2020
5569 Clear 18 1019 82 10000 1 140 05:44 18.12.2020
5570 Clear 18 1018 82 10000 2.6 150 04:51 18.12.2020
5571 Clear 19 1017 77 10000 1.5 140 02:49 18.12.2020
5572 Clear 20 1018 77 10000 1.5 150 01:43 18.12.2020
5573 Clear 20 1018 77 10000 1.5 130 00:28 18.12.2020
5574 Clear 20 1018 77 10000 1.5 130 23:51 17.12.2020
5575 Clear 20 1018 77 10000 1.5 130 23:20 17.12.2020
5576 Clear 20 1018 77 10000 1.5 140 22:47 17.12.2020
5577 Clear 20 1018 77 10000 1.5 140 22:27 17.12.2020
5578 Clear 21 1018 73 10000 1.5 130 21:44 17.12.2020
5579 Clear 21 1018 73 10000 1.5 130 21:44 17.12.2020
5580 Clear 21 1018 73 10000 1.5 130 21:44 17.12.2020
5581 Clear 21 1018 73 10000 1.5 130 21:44 17.12.2020
5582 Clear 21 1018 73 10000 2.1 130 21:20 17.12.2020
5583 Clear 21 1018 73 10000 2.1 130 20:45 17.12.2020
5584 Clear 21 1018 77 10000 1.5 120 20:19 17.12.2020
5585 Clear 22 1019 73 10000 2.6 120 19:50 17.12.2020
5586 Clear 22 1019 73 10000 2.1 110 19:25 17.12.2020
5587 Clear 21 1019 73 10000 2.1 110 18:56 17.12.2020
5588 Clear 21 1019 73 10000 2.1 130 18:37 17.12.2020
5589 Clear 22 1019 68 10000 2.1 100 18:18 17.12.2020
5590 Clear 22 1019 68 10000 2.1 100 17:44 17.12.2020
5591 Clear 22 1019 64 10000 1.5 100 17:25 17.12.2020
5592 Clear 23 1019 60 10000 1.5 90 16:39 17.12.2020
5593 Clear 23 1018 64 10000 2.1 90 16:19 17.12.2020
5594 Clear 23 1018 64 10000 2.6 90 15:44 17.12.2020
5595 Clear 24 1018 57 10000 3.1 120 15:26 17.12.2020
5596 Clear 24 1018 53 10000 4.1 120 14:48 17.12.2020
5597 Clear 25 1017 53 10000 4.6 120 14:20 17.12.2020
5598 Clear 26 1017 50 10000 4.6 120 13:48 17.12.2020
5599 Clear 25 1017 57 10000 4.6 110 13:20 17.12.2020
5600 Clouds 26 1017 50 10000 5.1 120 12:40 17.12.2020
5601 Clouds 26 1018 47 10000 5.1 120 12:21 17.12.2020
5602 Clouds 26 1018 50 10000 5.1 110 11:42 17.12.2020
5603 Clouds 25 1018 53 10000 5.1 110 11:21 17.12.2020
5604 Clouds 25 1019 61 10000 5.1 120 10:44 17.12.2020
5605 Clouds 25 1020 61 10000 5.1 120 09:37 17.12.2020
5606 Clouds 25 1020 61 10000 5.7 130 08:52 17.12.2020
5607 Clear 23 1021 64 10000 5.7 130 07:44 17.12.2020
5608 Clear 23 1021 64 10000 5.7 130 07:25 17.12.2020
5609 Clear 22 1020 73 10000 4.6 130 06:49 17.12.2020
5610 Clear 22 1020 73 10000 4.6 130 06:30 17.12.2020
5611 Clear 20 1019 82 10000 1 140 03:30 17.12.2020
5612 Clear 20 1019 82 10000 1 130 00:27 17.12.2020
5613 Clear 21 1019 77 10000 1 110 23:42 16.12.2020
5614 Clear 20 1019 77 10000 1.5 120 23:18 16.12.2020
5615 Clear 20 1019 77 10000 1.5 100 22:48 16.12.2020
5616 Clear 20 1019 77 10000 1.5 100 22:30 16.12.2020
5617 Clear 21 1019 77 10000 1.5 120 21:44 16.12.2020
5618 Clear 21 1019 73 10000 2.1 100 21:23 16.12.2020
5619 Clear 21 1020 68 10000 2.6 100 20:52 16.12.2020
5620 Clear 21 1020 73 10000 2.1 100 20:20 16.12.2020
5621 Clear 21 1020 73 10000 1 0 19:38 16.12.2020
5622 Clear 21 1020 73 10000 0.5 0 19:18 16.12.2020
5623 Clear 21 1020 68 10000 0.5 0 18:49 16.12.2020
5624 Clear 22 1019 68 10000 1 90 18:25 16.12.2020
5625 Clear 22 1019 73 10000 1.5 90 17:38 16.12.2020
5626 Clear 22 1019 73 10000 1.5 90 17:38 16.12.2020
5627 Clear 22 1019 73 10000 2.1 100 16:56 16.12.2020
5628 Clear 23 1019 69 10000 3.1 100 16:36 16.12.2020
5629 Clear 23 1019 69 10000 3.1 100 16:18 16.12.2020
5630 Clear 23 1018 64 10000 3.6 100 15:46 16.12.2020
5631 Clear 24 1018 64 10000 3.6 110 15:18 16.12.2020
5632 Clear 24 1018 60 10000 4.6 100 14:44 16.12.2020
5633 Clear 24 1018 60 10000 4.6 100 14:26 16.12.2020
5634 Clear 25 1018 53 10000 5.1 100 13:41 16.12.2020
5635 Clear 25 1018 53 10000 5.7 110 13:20 16.12.2020
5636 Clouds 25 1018 53 10000 5.7 100 12:43 16.12.2020
5637 Clouds 25 1018 50 10000 5.7 100 11:51 16.12.2020
5638 Clouds 25 1018 50 10000 5.7 100 11:32 16.12.2020
5639 Clouds 25 1019 53 10000 5.1 90 10:58 16.12.2020
5640 Clouds 25 1019 53 10000 4.6 100 10:38 16.12.2020
5641 Clouds 24 1020 53 10000 4.1 110 09:56 16.12.2020
5642 Clouds 25 1020 50 10000 4.1 90 09:32 16.12.2020
5643 Clouds 23 1021 57 10000 3.1 100 08:23 16.12.2020
5644 Clouds 23 1021 57 10000 2.6 140 07:46 16.12.2020
5645 Clouds 21 1021 64 9000 1.5 170 07:23 16.12.2020
5646 Clouds 17 1020 88 7000 1.45 152 05:31 16.12.2020
5647 Clear 18 1019 82 10000 0.59 104 01:59 16.12.2020
5648 Clear 19 1019 82 10000 2.1 150 23:50 15.12.2020
5649 Clear 19 1019 82 10000 2.1 150 23:32 15.12.2020
5650 Clear 19 1019 88 10000 1 140 22:42 15.12.2020
5651 Clear 19 1019 88 8000 0.5 0 22:22 15.12.2020
5652 Clear 19 1020 88 10000 1 30 21:48 15.12.2020
5653 Clear 19 1020 88 10000 0.5 70 21:24 15.12.2020
5654 Clear 19 1020 88 10000 1 360 20:46 15.12.2020
5655 Clear 20 1020 82 10000 1 350 20:27 15.12.2020
5656 Clear 20 1020 82 10000 1 350 19:55 15.12.2020
5657 Clear 20 1020 82 10000 1.5 30 19:34 15.12.2020
5658 Clear 20 1020 77 10000 1 0 18:55 15.12.2020
5659 Clear 20 1020 77 10000 1 0 18:36 15.12.2020
5660 Clear 21 1020 77 10000 1.58 72 18:18 15.12.2020
5661 Clear 21 1020 77 10000 1 120 17:41 15.12.2020
5662 Clear 21 1020 77 10000 1 0 17:20 15.12.2020
5663 Clear 21 1020 77 10000 1 0 17:20 15.12.2020
5664 Clear 21 1020 77 10000 1 0 17:20 15.12.2020
5665 Clear 21 1020 77 10000 1.5 30 16:33 15.12.2020
5666 Clear 22 1019 73 10000 1.5 360 15:58 15.12.2020
5667 Clouds 22 1019 73 10000 2.1 10 15:33 15.12.2020
5668 Clouds 23 1019 64 10000 2.6 60 14:51 15.12.2020
5669 Clouds 24 1019 57 10000 2.6 80 14:25 15.12.2020
5670 Clouds 24 1019 57 10000 2.6 120 13:54 15.12.2020
5671 Clouds 24 1019 57 10000 2.6 120 13:33 15.12.2020
5672 Clouds 24 1018 53 10000 2.6 140 12:47 15.12.2020
5673 Clouds 24 1018 53 10000 2.6 140 12:25 15.12.2020
5674 Clouds 24 1019 53 10000 2.6 120 11:57 15.12.2020
5675 Clouds 24 1019 53 10000 3.1 90 11:39 15.12.2020
5676 Clouds 24 1020 53 10000 2.6 110 11:20 15.12.2020
5677 Clouds 23 1020 57 10000 1.5 90 10:39 15.12.2020
5678 Clouds 23 1020 57 10000 2.6 80 09:53 15.12.2020
5679 Clouds 23 1021 57 10000 1.5 0 09:32 15.12.2020
5680 Clouds 22 1021 60 10000 1.5 40 08:58 15.12.2020
5681 Clouds 22 1021 60 10000 1 0 08:30 15.12.2020
5682 Clouds 22 1021 60 10000 1 0 08:30 15.12.2020
5683 Clouds 21 1021 60 10000 1 0 07:59 15.12.2020
5684 Clouds 21 1021 64 10000 1.5 360 07:37 15.12.2020
5685 Clear 19 1021 68 7000 1.5 330 06:37 15.12.2020
5686 Clear 16 1019 82 7000 1 280 04:22 15.12.2020
5687 Clear 17 1018 77 8000 1.5 320 00:37 15.12.2020
5688 Clear 18 1019 72 8000 2.1 310 23:28 14.12.2020
5689 Clear 18 1019 72 10000 2.1 310 22:59 14.12.2020
5690 Clear 18 1019 72 10000 2.6 300 22:38 14.12.2020
5691 Clear 18 1019 68 10000 2.6 300 21:54 14.12.2020
5692 Clear 18 1019 68 10000 2.6 300 21:35 14.12.2020
5693 Clear 19 1019 64 10000 2.6 300 20:52 14.12.2020
5694 Clear 19 1019 64 10000 2.6 300 20:33 14.12.2020
5695 Clouds 18 1019 68 10000 2.1 310 19:59 14.12.2020
5696 Clouds 19 1019 64 10000 2.6 330 19:30 14.12.2020
5697 Clear 19 1020 64 10000 3.1 310 18:55 14.12.2020
5698 Clear 19 1020 64 10000 3.1 310 18:55 14.12.2020
5699 Clear 19 1020 64 10000 3.1 310 18:37 14.12.2020
5700 Clear 20 1019 60 10000 3.1 300 17:53 14.12.2020
5701 Clear 20 1019 56 10000 3.1 290 17:32 14.12.2020
5702 Clear 20 1019 56 10000 3.1 300 16:53 14.12.2020
5703 Clear 21 1018 53 10000 2.6 310 16:30 14.12.2020
5704 Clear 21 1018 53 10000 2.6 310 15:53 14.12.2020
5705 Clear 21 1018 53 10000 2.6 360 15:30 14.12.2020
5706 Clear 22 1018 49 10000 2.1 20 14:45 14.12.2020
5707 Clear 22 1018 49 10000 2.1 20 14:27 14.12.2020
5708 Clear 23 1018 49 10000 4.1 10 13:47 14.12.2020
5709 Clouds 23 1018 49 10000 3.6 20 13:27 14.12.2020
5710 Clouds 23 1018 49 10000 3.6 20 12:54 14.12.2020
5711 Clouds 23 1018 49 10000 3.6 20 12:31 14.12.2020
5712 Clouds 23 1018 47 10000 3.1 350 11:39 14.12.2020
5713 Clouds 22 1019 49 10000 3.6 350 11:20 14.12.2020
5714 Clouds 23 1019 47 10000 2.1 0 10:27 14.12.2020
5715 Clouds 22 1020 53 10000 3.1 310 09:51 14.12.2020
5716 Clear 22 1021 49 10000 3.1 280 08:52 14.12.2020
5717 Clear 22 1021 49 10000 3.1 280 08:33 14.12.2020
5718 Clear 20 1021 56 9000 3.1 280 07:52 14.12.2020
5719 Clear 19 1021 60 8000 3.1 280 06:59 14.12.2020
5720 Clear 17 1020 68 7000 2.6 280 05:55 14.12.2020
5721 Clear 16 1019 77 8000 3.6 290 03:55 14.12.2020
5722 Clear 17 1018 77 10000 3.6 300 00:57 14.12.2020
5723 Clear 17 1018 77 10000 4.1 300 00:37 14.12.2020
5724 Clear 17 1019 77 10000 4.1 300 00:18 14.12.2020
5725 Clear 17 1019 77 10000 4.1 300 23:42 13.12.2020
5726 Clear 18 1019 72 10000 4.1 290 22:52 13.12.2020
5727 Clear 18 1019 72 10000 3.6 300 22:21 13.12.2020
5728 Clear 18 1019 72 10000 3.6 300 21:56 13.12.2020
5729 Clear 18 1019 68 10000 4.6 300 21:36 13.12.2020
5730 Clear 18 1019 63 10000 4.1 310 20:49 13.12.2020
5731 Clear 18 1019 63 10000 4.1 310 20:25 13.12.2020
5732 Clear 19 1019 64 10000 3.6 310 19:46 13.12.2020
5733 Clear 19 1019 64 10000 3.6 310 19:23 13.12.2020
5734 Clear 19 1019 64 10000 3.6 310 18:54 13.12.2020
5735 Clear 19 1019 64 10000 4.1 310 18:36 13.12.2020
5736 Clear 19 1018 64 10000 3.6 310 18:18 13.12.2020
5737 Clear 19 1018 64 10000 3.6 310 17:43 13.12.2020
5738 Clear 20 1018 60 10000 5.1 300 17:18 13.12.2020
5739 Clouds 20 1018 60 10000 4.1 310 16:44 13.12.2020
5740 Clouds 21 1018 56 10000 4.6 320 16:21 13.12.2020
5741 Clouds 21 1018 53 10000 4.1 320 15:45 13.12.2020
5742 Clouds 21 1018 53 10000 4.1 320 15:45 13.12.2020
5743 Clouds 21 1018 53 10000 4.1 320 15:25 13.12.2020
5744 Clouds 22 1017 46 10000 5.7 320 14:46 13.12.2020
5745 Clouds 22 1017 46 10000 5.7 320 14:28 13.12.2020
5746 Clouds 23 1017 49 10000 4.6 320 13:46 13.12.2020
5747 Clouds 23 1017 49 10000 4.6 320 13:27 13.12.2020
5748 Clouds 23 1017 44 10000 4.6 310 12:55 13.12.2020
5749 Clouds 23 1017 47 10000 5.1 310 12:24 13.12.2020
5750 Clouds 23 1017 47 10000 5.1 310 12:24 13.12.2020
5751 Clouds 23 1017 47 10000 5.1 310 11:53 13.12.2020
5752 Clouds 23 1018 49 10000 4.6 320 11:28 13.12.2020
5753 Clear 22 1019 49 10000 5.1 310 10:42 13.12.2020
5754 Clear 22 1020 49 10000 4.6 310 10:21 13.12.2020
5755 Clear 22 1020 49 10000 4.6 300 09:37 13.12.2020
5756 Clear 21 1021 49 10000 4.6 280 08:47 13.12.2020
5757 Clear 21 1021 49 10000 4.6 280 08:28 13.12.2020
5758 Clear 18 1021 52 10000 3.6 280 06:28 13.12.2020
5759 Clear 17 1019 68 10000 5.1 290 02:44 13.12.2020
5760 Clear 17 1019 72 10000 3.1 280 01:59 13.12.2020
5761 Clear 17 1019 72 10000 3.1 280 01:33 13.12.2020
5762 Clear 17 1019 72 10000 3.6 290 00:37 13.12.2020
5763 Clear 18 1020 63 10000 3.1 280 23:33 12.12.2020
5764 Clear 17 1020 68 10000 2.6 280 22:59 12.12.2020
5765 Clear 18 1020 59 10000 3.1 280 22:29 12.12.2020
5766 Clear 19 1020 60 10000 4.1 300 21:46 12.12.2020
5767 Clear 19 1020 60 10000 3.6 300 21:19 12.12.2020
5768 Clear 19 1020 56 10000 4.1 300 20:44 12.12.2020
5769 Clear 19 1020 56 10000 4.1 300 20:21 12.12.2020
5770 Clear 19 1020 56 10000 4.1 300 19:51 12.12.2020
5771 Clear 19 1020 56 10000 4.1 300 19:33 12.12.2020
5772 Clear 19 1020 56 10000 4.1 300 19:33 12.12.2020
5773 Clear 19 1020 52 10000 3.6 310 18:56 12.12.2020
5774 Clear 19 1020 52 10000 3.6 310 18:37 12.12.2020
5775 Clear 19 1020 52 10000 3.1 320 18:18 12.12.2020
5776 Clear 19 1020 52 10000 3.1 320 17:40 12.12.2020
5777 Clear 20 1019 52 10000 4.1 320 16:44 12.12.2020
5778 Clear 21 1018 49 10000 4.6 330 15:57 12.12.2020
5779 Clear 21 1018 46 10000 4.6 320 15:39 12.12.2020
5780 Clear 23 1017 35 10000 4.6 320 14:54 12.12.2020
5781 Clear 24 1017 33 10000 4.6 330 14:22 12.12.2020
5782 Clear 24 1017 33 10000 3.6 310 13:41 12.12.2020
5783 Clear 24 1017 33 10000 3.6 310 13:23 12.12.2020
5784 Clear 24 1017 33 10000 4.1 310 12:36 12.12.2020
5785 Clear 24 1018 36 10000 3.1 310 11:20 12.12.2020
5786 Clear 24 1018 41 10000 4.6 310 10:45 12.12.2020
5787 Clear 23 1020 47 10000 4.1 300 09:24 12.12.2020
5788 Clear 22 1020 46 10000 4.1 300 08:25 12.12.2020
5789 Clear 18 1018 68 10000 3.6 300 01:41 12.12.2020
5790 Clear 19 1019 72 9000 4.6 310 23:30 11.12.2020
5791 Clear 20 1019 64 10000 2.1 280 20:57 11.12.2020
5792 Clear 20 1019 60 10000 3.1 300 19:44 11.12.2020
5793 Clear 22 1019 33 10000 1.5 250 16:59 11.12.2020
5794 Clear 24 1018 29 10000 3.1 300 14:37 11.12.2020
5795 Clear 24 1018 29 10000 3.1 300 14:37 11.12.2020
5796 Clear 25 1018 26 10000 3.1 300 13:45 11.12.2020
5797 Clear 25 1018 26 10000 2.6 290 12:23 11.12.2020
5798 Clear 25 1018 26 10000 2.6 290 11:55 11.12.2020
5799 Clear 25 1018 28 10000 2.6 270 11:36 11.12.2020
5800 Clear 25 1019 34 10000 2.6 280 10:40 11.12.2020
5801 Clear 22 1021 49 10000 3.1 290 07:42 11.12.2020
5802 Clear 17 1020 68 10000 2.1 260 05:36 11.12.2020
5803 Clear 17 1019 63 10000 2.1 270 04:47 11.12.2020
5804 Clear 19 1019 68 10000 2.1 300 00:54 11.12.2020
5805 Clear 19 1018 72 10000 2.6 300 23:28 10.12.2020
5806 Clear 20 1018 68 10000 2.1 300 21:55 10.12.2020
5807 Clear 20 1019 68 10000 2.6 320 21:28 10.12.2020
5808 Clear 20 1019 73 10000 2.6 310 20:36 10.12.2020
5809 Clear 20 1019 73 10000 3.1 300 19:31 10.12.2020
5810 Clear 21 1019 68 10000 3.6 310 18:49 10.12.2020
5811 Clear 21 1018 64 10000 3.1 310 17:35 10.12.2020
5812 Clear 23 1017 49 10000 4.6 340 16:18 10.12.2020
5813 Clear 24 1017 41 10000 5.1 330 15:24 10.12.2020
5814 Clear 24 1017 38 10000 5.1 340 14:46 10.12.2020
5815 Clear 25 1016 34 10000 4.6 310 13:51 10.12.2020
5816 Clear 26 1016 32 10000 5.7 330 12:24 10.12.2020
5817 Clear 26 1017 34 10000 4.6 320 10:57 10.12.2020
5818 Clear 23 1019 53 10000 4.1 320 08:42 10.12.2020
5819 Clear 22 1019 60 10000 4.6 300 07:31 10.12.2020
5820 Clear 18 1019 64 10000 2.6 280 06:20 10.12.2020
5821 Clear 17 1017 68 10000 2.6 280 02:44 10.12.2020
5822 Clear 18 1017 59 10000 2.1 270 01:33 10.12.2020
5823 Clear 19 1017 60 10000 3.1 290 23:45 09.12.2020
5824 Clear 19 1018 64 10000 3.6 300 20:40 09.12.2020
5825 Clear 20 1018 60 10000 3.6 300 19:46 09.12.2020
5826 Clear 20 1018 60 10000 4.1 310 18:39 09.12.2020
5827 Clear 20 1018 60 10000 5.7 310 17:35 09.12.2020
5828 Clouds 21 1017 60 10000 5.1 310 16:40 09.12.2020
5829 Clouds 21 1017 53 10000 5.1 310 16:20 09.12.2020
5830 Clear 22 1017 49 10000 5.1 310 14:51 09.12.2020
5831 Clouds 23 1016 44 10000 5.7 300 14:27 09.12.2020
5832 Clouds 23 1017 44 10000 5.7 310 13:37 09.12.2020
5833 Clouds 24 1017 44 10000 5.1 310 13:18 09.12.2020
5834 Clouds 24 1017 44 10000 5.1 300 12:36 09.12.2020
5835 Clouds 24 1017 38 10000 5.1 320 11:37 09.12.2020
5836 Clouds 23 1019 47 10000 5.1 310 09:52 09.12.2020
5837 Clouds 22 1020 49 10000 4.6 320 08:41 09.12.2020
5838 Clear 19 1020 56 10000 4.1 280 06:50 09.12.2020
5839 Clouds 18 1020 55 10000 4.1 280 05:33 09.12.2020
5840 Clouds 17 1019 55 10000 3.1 290 02:43 09.12.2020
5841 Clouds 18 1019 52 10000 4.1 290 00:42 09.12.2020
5842 Clear 18 1019 55 10000 4.1 290 23:36 08.12.2020
5843 Clear 19 1020 59 10000 5.1 300 22:26 08.12.2020
5844 Clear 18 1020 59 10000 5.7 300 22:26 08.12.2020
5845 Clear 19 1020 60 10000 4.1 300 20:48 08.12.2020
5846 Clear 20 1020 60 10000 4.6 310 19:31 08.12.2020
5847 Clear 20 1020 49 10000 5.1 310 18:38 08.12.2020
5848 Clouds 21 1020 49 10000 5.1 310 17:19 08.12.2020
5849 Clouds 22 1019 46 10000 5.7 320 15:23 08.12.2020
5850 Clouds 23 1018 41 10000 6.2 320 13:52 08.12.2020
5851 Clouds 24 1019 38 10000 6.2 310 12:46 08.12.2020
5852 Clouds 24 1018 38 10000 5.1 310 11:59 08.12.2020
5853 Clouds 25 1019 41 10000 5.1 320 11:24 08.12.2020
5854 Clouds 25 1019 41 10000 5.7 300 10:41 08.12.2020
5855 Clouds 23 1020 47 10000 5.1 310 09:45 08.12.2020
5856 Clear 21 1021 53 10000 4.1 290 07:40 08.12.2020
5857 Clear 18 1021 55 10000 5.7 290 05:42 08.12.2020
5858 Clear 18 1019 55 10000 4.6 290 02:33 08.12.2020
5859 Clear 18 1019 63 10000 4.1 290 00:45 08.12.2020
5860 Clear 18 1019 63 10000 3.6 290 23:37 07.12.2020
5861 Clear 19 1020 64 10000 4.6 300 22:21 07.12.2020
5862 Clear 19 1020 60 10000 5.1 300 21:47 07.12.2020
5863 Clear 20 1020 52 10000 4.1 300 19:35 07.12.2020
5864 Clear 21 1020 49 10000 4.1 310 17:59 07.12.2020
5865 Clear 22 1019 49 10000 5.1 320 17:22 07.12.2020
5866 Clear 22 1019 53 10000 4.6 320 16:43 07.12.2020
5867 Clouds 23 1018 46 10000 7.2 330 15:25 07.12.2020
5868 Clouds 24 1018 41 10000 7.2 330 14:36 07.12.2020
5869 Clouds 25 1017 38 10000 6.2 310 13:37 07.12.2020
5870 Clouds 24 1017 47 10000 6.7 320 12:31 07.12.2020
5871 Clouds 25 1018 47 10000 5.1 310 11:42 07.12.2020
5872 Clouds 24 1018 53 10000 4.6 310 10:38 07.12.2020
5873 Clouds 22 1019 60 10000 5.7 300 09:24 07.12.2020
5874 Clear 21 1020 64 10000 5.1 310 07:49 07.12.2020
5875 Clear 18 1018 72 10000 4.6 300 05:29 07.12.2020
5876 Clear 18 1017 68 10000 5.1 300 04:40 07.12.2020
5877 Clear 19 1016 60 10000 5.7 310 01:23 07.12.2020
5878 Clear 20 1016 56 10000 6.2 310 22:53 06.12.2020
5879 Clear 21 1016 60 10000 8.7 300 21:53 06.12.2020
5880 Clear 22 1016 60 7000 7.2 310 20:47 06.12.2020
5881 Clear 22 1016 60 7000 7.2 310 20:26 06.12.2020
5882 Clear 23 1015 60 6000 6.7 310 19:39 06.12.2020
5883 Clear 24 1013 69 10000 5.7 310 17:45 06.12.2020
5884 Clear 26 1012 41 10000 6.2 310 16:34 06.12.2020
5885 Clear 28 1011 42 10000 6.2 300 14:49 06.12.2020
5886 Clear 29 1010 38 10000 6.2 250 13:30 06.12.2020
5887 Clouds 29 1010 58 10000 7.2 130 12:35 06.12.2020
5888 Clouds 30 1010 43 10000 5.1 180 11:53 06.12.2020
5889 Clear 30 1010 45 10000 6.7 170 11:25 06.12.2020
5890 Clouds 29 1011 51 10000 7.7 160 10:36 06.12.2020
5891 Clouds 28 1012 58 10000 7.2 150 09:38 06.12.2020
5892 Clouds 25 1013 74 10000 6.2 160 07:52 06.12.2020
5893 Clouds 23 1012 88 10000 3.6 140 05:18 06.12.2020
5894 Clouds 23 1012 88 10000 1 110 00:46 06.12.2020
5895 Clouds 23 1012 88 10000 1 110 00:27 06.12.2020
5896 Clouds 23 1012 88 10000 0.5 40 23:57 05.12.2020
5897 Clouds 22 1013 88 10000 1.55 113 22:25 05.12.2020
5898 Clear 23 1013 83 10000 1 0 21:55 05.12.2020
5899 Clear 23 1013 88 10000 1 0 21:30 05.12.2020
5900 Clear 24 1013 83 10000 1.5 130 19:54 05.12.2020
5901 Clear 24 1013 83 10000 1.72 39 18:46 05.12.2020
5902 Clear 25 1013 78 10000 1.5 40 17:55 05.12.2020
5903 Clear 25 1012 78 10000 3.6 20 16:45 05.12.2020
5904 Clear 25 1012 78 10000 3.6 20 16:26 05.12.2020
5905 Clouds 27 1012 74 10000 6.2 20 14:52 05.12.2020
5906 Clouds 28 1012 61 10000 5.7 10 13:25 05.12.2020
5907 Clear 29 1013 54 10000 2.6 10 11:50 05.12.2020
5908 Clear 28 1014 58 10000 3.1 10 10:35 05.12.2020
5909 Clear 26 1015 65 10000 5.1 350 08:54 05.12.2020
5910 Clouds 25 1016 69 10000 6.7 340 07:48 05.12.2020
5911 Clear 23 1016 73 10000 3.6 320 05:34 05.12.2020
5912 Clear 22 1014 83 10000 3.6 330 00:40 05.12.2020
5913 Clear 23 1015 78 10000 4.1 330 23:23 04.12.2020
5914 Clear 23 1016 78 10000 5.7 330 21:35 04.12.2020
5915 Clear 24 1016 73 10000 3.1 330 19:21 04.12.2020
5916 Clear 24 1016 73 10000 2.6 330 18:39 04.12.2020
5917 Clear 25 1016 73 10000 4.1 340 17:47 04.12.2020
5918 Clear 25 1015 78 10000 5.7 350 16:32 04.12.2020
5919 Clear 27 1014 69 10000 6.2 10 15:23 04.12.2020
5920 Clouds 28 1014 58 10000 7.7 350 13:36 04.12.2020
5921 Clouds 28 1015 61 10000 8.2 360 13:18 04.12.2020
5922 Clouds 29 1014 54 10000 9.3 360 12:22 04.12.2020
5923 Clear 29 1015 54 10000 5.7 340 10:37 04.12.2020
5924 Clear 28 1016 51 10000 3.6 340 09:24 04.12.2020
5925 Clear 24 1016 69 10000 1.5 320 06:40 04.12.2020
5926 Clear 22 1015 83 10000 2.1 320 04:53 04.12.2020
5927 Clear 23 1015 83 10000 2.6 310 01:53 04.12.2020
5928 Clear 23 1016 73 10000 2.6 330 22:49 03.12.2020
5929 Clear 24 1017 73 10000 2.6 340 21:23 03.12.2020
5930 Clear 24 1017 78 10000 2.6 330 20:46 03.12.2020
5931 Clear 25 1017 73 10000 3.1 360 19:24 03.12.2020
5932 Clear 25 1017 73 10000 3.6 350 18:47 03.12.2020
5933 Clear 26 1017 69 10000 6.2 360 17:21 03.12.2020
5934 Clear 26 1017 74 10000 4.6 10 15:59 03.12.2020
5935 Clear 26 1017 74 10000 4.1 10 15:33 03.12.2020
5936 Clear 27 1016 57 10000 4.6 360 14:49 03.12.2020
5937 Clear 28 1016 57 10000 4.1 10 13:55 03.12.2020
5938 Clear 28 1016 57 10000 4.1 10 13:55 03.12.2020
5939 Clear 29 1016 48 10000 5.1 20 12:50 03.12.2020
5940 Clear 29 1016 48 10000 5.1 20 12:23 03.12.2020
5941 Clear 28 1016 54 10000 4.1 10 10:54 03.12.2020
5942 Clear 27 1018 54 10000 2.1 20 08:49 03.12.2020
5943 Clear 21 1017 88 9000 2.21 350 04:21 03.12.2020
5944 Clear 22 1016 83 10000 1 210 01:57 03.12.2020
5945 Clear 22 1016 88 10000 2.06 343 00:28 03.12.2020
5946 Clear 23 1017 83 10000 1 360 22:46 02.12.2020
5947 Clear 23 1017 83 10000 1 350 21:55 02.12.2020
5948 Clear 24 1017 83 10000 0.5 0 20:51 02.12.2020
5949 Clear 24 1017 83 10000 0.5 0 20:33 02.12.2020
5950 Clear 24 1018 83 10000 1 130 19:54 02.12.2020
5951 Clouds 25 1017 73 10000 1.5 130 17:51 02.12.2020
5952 Clouds 25 1017 73 10000 1.5 130 17:33 02.12.2020
5953 Clouds 25 1017 78 10000 2.1 130 16:49 02.12.2020
5954 Clouds 26 1016 78 10000 2.6 100 14:47 02.12.2020
5955 Clouds 27 1016 65 10000 4.6 100 11:34 02.12.2020
5956 Clouds 28 1017 61 10000 3.6 100 10:28 02.12.2020
5957 Clouds 25 1019 74 8000 2.6 10 08:24 02.12.2020
5958 Clear 24 1017 83 10000 2.1 330 00:50 02.12.2020
5959 Clear 25 1017 78 10000 2.6 350 22:21 01.12.2020
5960 Clear 25 1017 78 10000 4.1 350 20:36 01.12.2020
5961 Clouds 25 1017 78 10000 4.6 340 19:34 01.12.2020
5962 Clouds 25 1017 78 10000 4.6 360 17:29 01.12.2020
5963 Clouds 26 1016 74 10000 4.1 10 15:24 01.12.2020
5964 Clouds 27 1015 51 10000 3.6 40 13:37 01.12.2020
5965 Clouds 28 1016 54 10000 3.6 20 11:44 01.12.2020
5966 Clouds 28 1016 54 10000 3.6 20 11:26 01.12.2020
5967 Clouds 28 1016 58 10000 4.1 20 10:37 01.12.2020
5968 Clouds 25 1018 69 10000 3.6 360 08:20 01.12.2020
5969 Clear 24 1018 73 10000 3.6 330 06:46 01.12.2020
5970 Clear 23 1016 69 10000 3.1 310 01:51 01.12.2020
5971 Clear 24 1016 61 10000 2.6 310 00:52 01.12.2020
5972 Rain 24 1016 57 10000 2.1 330 23:21 30.11.2020
5973 Clear 23 1016 60 10000 2.1 340 22:43 30.11.2020
5974 Clear 23 1016 60 10000 2.1 340 22:25 30.11.2020
5975 Clear 24 1017 65 10000 2.6 330 20:47 30.11.2020
5976 Clouds 25 1017 65 10000 3.6 350 19:42 30.11.2020
5977 Clouds 25 1017 65 10000 3.6 350 19:42 30.11.2020
5978 Clouds 25 1017 69 10000 4.1 340 18:23 30.11.2020
5979 Clouds 25 1017 69 10000 3.6 340 17:47 30.11.2020
5980 Clear 25 1016 65 10000 4.6 360 16:54 30.11.2020
5981 Clear 26 1016 65 10000 3.6 10 15:59 30.11.2020
5982 Clouds 26 1016 54 10000 3.6 10 14:31 30.11.2020
5983 Clouds 27 1016 57 10000 3.1 30 13:42 30.11.2020
5984 Clouds 28 1016 54 10000 3.6 10 12:26 30.11.2020
5985 Clouds 27 1016 57 10000 2.6 20 11:57 30.11.2020
5986 Clouds 27 1017 54 10000 2.6 90 10:26 30.11.2020
5987 Clouds 27 1018 54 10000 1.5 40 09:45 30.11.2020
5988 Clouds 25 1019 65 10000 1 0 07:18 30.11.2020
5989 Clear 22 1016 88 10000 0.5 330 23:58 29.11.2020
5990 Clear 23 1017 83 10000 1 10 21:51 29.11.2020
5991 Clear 23 1017 83 10000 1 0 21:31 29.11.2020
5992 Clouds 23 1017 69 10000 1.5 20 19:54 29.11.2020
5993 Clouds 24 1017 73 10000 1.5 30 17:47 29.11.2020
5994 Clear 24 1017 57 10000 1 0 16:24 29.11.2020
5995 Clouds 26 1015 65 10000 4.1 130 13:23 29.11.2020
5996 Clouds 27 1016 57 10000 5.7 140 11:41 29.11.2020
5997 Clouds 27 1017 57 10000 6.7 120 10:22 29.11.2020
5998 Clouds 27 1018 61 10000 6.2 130 08:38 29.11.2020
5999 Clouds 25 1018 69 10000 4.6 140 06:32 29.11.2020
6000 Clear 24 1016 78 10000 2.6 130 23:52 28.11.2020
6001 Clear 24 1016 73 10000 2.6 110 22:56 28.11.2020
6002 Clear 25 1017 69 10000 3.1 100 20:47 28.11.2020
6003 Clear 25 1017 65 10000 2.6 80 19:48 28.11.2020
6004 Clear 25 1018 65 10000 1.5 80 19:22 28.11.2020
6005 Clear 24 1017 69 10000 1 40 18:27 28.11.2020
6006 Clear 25 1017 61 10000 1.5 30 17:47 28.11.2020
6007 Clear 25 1017 61 10000 1.5 40 16:44 28.11.2020
6008 Clear 27 1017 42 10000 3.1 110 14:54 28.11.2020
6009 Clouds 27 1017 51 10000 6.7 150 13:18 28.11.2020
6010 Clouds 28 1019 51 10000 5.1 120 10:46 28.11.2020
6011 Clouds 25 1021 65 10000 3.1 110 06:42 28.11.2020
6012 Rain 25 1018 61 10000 4.1 90 03:32 28.11.2020
6013 Clear 25 1018 65 10000 3.1 90 01:50 28.11.2020
6014 Clear 25 1019 61 10000 4.6 90 23:18 27.11.2020
6015 Rain 25 1019 61 10000 4.1 100 21:33 27.11.2020
6016 Rain 25 1020 61 10000 3.6 100 20:36 27.11.2020
6017 Clear 25 1020 61 10000 3.6 90 19:30 27.11.2020
6018 Clear 25 1020 69 10000 2.6 90 18:51 27.11.2020
6019 Clear 26 1019 50 10000 3.6 130 15:19 27.11.2020
6020 Clear 27 1018 47 10000 4.6 130 13:44 27.11.2020
6021 Clear 27 1018 45 10000 6.2 140 12:48 27.11.2020
6022 Clear 28 1018 45 10000 7.7 140 11:55 27.11.2020
6023 Clear 28 1019 48 10000 8.7 140 10:51 27.11.2020
6024 Clear 27 1019 48 10000 8.2 140 10:25 27.11.2020
6025 Clouds 27 1020 50 10000 5.4 138 07:30 27.11.2020
6026 Clouds 27 1020 50 10000 5.4 138 07:30 27.11.2020
6027 Clouds 23 1017 74 10000 4.6 117 22:43 26.11.2020
6028 Clouds 23 1017 71 10000 4.63 120 22:22 26.11.2020
6029 Clear 24 1017 73 10000 1.5 90 21:39 26.11.2020
6030 Clear 24 1017 69 10000 1.5 100 19:41 26.11.2020
6031 Clear 25 1017 69 10000 2.6 90 18:34 26.11.2020
6032 Clear 25 1017 65 10000 2.1 130 16:32 26.11.2020
6033 Clouds 27 1015 54 10000 6.7 140 13:43 26.11.2020
6034 Clouds 27 1015 57 10000 5.7 110 12:49 26.11.2020
6035 Clouds 27 1015 57 10000 5.7 110 12:29 26.11.2020
6036 Clouds 27 1017 57 10000 5.7 100 10:38 26.11.2020
6037 Clouds 28 1017 51 10000 5.7 110 09:59 26.11.2020
6038 Clouds 28 1018 51 10000 4.6 100 09:31 26.11.2020
6039 Clouds 28 1018 51 10000 4.6 100 08:43 26.11.2020
6040 Clouds 28 1019 51 10000 5.1 90 07:49 26.11.2020
6041 Clear 21 1016 73 10000 1.5 300 00:46 26.11.2020
6042 Clear 21 1017 73 10000 2.1 340 21:36 25.11.2020
6043 Clear 22 1017 73 10000 2.6 340 20:19 25.11.2020
6044 Clear 22 1017 69 10000 1 10 18:58 25.11.2020
6045 Clear 23 1017 60 10000 1.5 20 17:24 25.11.2020
6046 Clouds 25 1016 57 10000 2.1 20 15:42 25.11.2020
6047 Clouds 26 1015 54 10000 2.6 20 14:42 25.11.2020
6048 Clouds 26 1015 54 10000 2.6 20 13:44 25.11.2020
6049 Clouds 26 1015 54 10000 2.6 360 12:30 25.11.2020
6050 Clear 26 1016 54 10000 3.6 360 11:20 25.11.2020
6051 Clear 24 1017 53 10000 3.6 320 09:20 25.11.2020
6052 Clear 24 1017 53 10000 3.6 320 08:49 25.11.2020
6053 Clear 19 1017 68 10000 2.1 270 05:20 25.11.2020
6054 Clear 19 1016 72 10000 2.1 270 03:49 25.11.2020
6055 Clear 19 1015 72 10000 4.6 310 00:55 25.11.2020
6056 Clear 20 1015 72 10000 4.6 310 23:59 24.11.2020
6057 Clear 20 1015 68 10000 4.1 300 23:34 24.11.2020
6058 Clear 20 1015 68 10000 3.6 300 22:38 24.11.2020
6059 Clear 21 1016 64 10000 4.1 300 21:31 24.11.2020
6060 Clear 21 1016 60 10000 3.6 310 20:51 24.11.2020
6061 Clear 21 1016 60 10000 4.1 310 19:47 24.11.2020
6062 Clear 22 1016 60 10000 4.1 310 17:31 24.11.2020
6063 Clouds 23 1016 64 10000 4.6 320 16:56 24.11.2020
6064 Clouds 23 1015 60 10000 4.6 310 16:36 24.11.2020
6065 Clouds 23 1015 60 10000 5.1 310 15:55 24.11.2020
6066 Clouds 24 1015 57 10000 6.2 300 15:19 24.11.2020
6067 Clouds 24 1014 53 10000 6.2 300 14:43 24.11.2020
6068 Clouds 25 1014 47 10000 5.7 310 12:58 24.11.2020
6069 Clouds 25 1014 47 10000 6.2 330 12:31 24.11.2020
6070 Clouds 25 1014 44 10000 5.1 310 11:59 24.11.2020
6071 Clouds 25 1015 41 10000 6.2 320 10:52 24.11.2020
6072 Clouds 25 1015 41 10000 6.2 320 10:25 24.11.2020
6073 Clouds 25 1015 41 10000 6.2 320 10:25 24.11.2020
6074 Clear 25 1016 41 10000 5.1 320 09:37 24.11.2020
6075 Clear 24 1017 44 10000 6.2 310 08:33 24.11.2020
6076 Clear 20 1016 35 10000 5.1 290 04:50 24.11.2020
6077 Clear 21 1016 53 10000 4.1 300 23:35 23.11.2020
6078 Clear 21 1016 60 10000 5.7 300 21:56 23.11.2020
6079 Clear 21 1017 60 10000 4.6 300 21:25 23.11.2020
6080 Clear 22 1017 56 10000 4.1 300 20:29 23.11.2020
6081 Clear 22 1017 49 10000 4.6 300 19:53 23.11.2020
6082 Clear 23 1017 40 10000 5.1 300 17:53 23.11.2020
6083 Clouds 23 1017 41 10000 4.1 300 16:56 23.11.2020
6084 Clouds 25 1015 36 10000 5.1 330 14:50 23.11.2020
6085 Clouds 26 1015 32 10000 5.1 310 13:58 23.11.2020
6086 Clouds 27 1015 36 10000 6.2 310 12:41 23.11.2020
6087 Clouds 27 1015 36 10000 6.2 310 11:59 23.11.2020
6088 Clouds 27 1015 39 10000 5.1 320 11:40 23.11.2020
6089 Clear 26 1016 42 10000 6.2 320 09:59 23.11.2020
6090 Clear 26 1017 44 10000 5.7 310 08:58 23.11.2020
6091 Clear 25 1018 50 10000 5.7 310 08:18 23.11.2020
6092 Clear 22 1017 60 10000 5.1 300 05:22 23.11.2020
6093 Clear 23 1016 64 10000 4.6 300 23:54 22.11.2020
6094 Clear 23 1016 64 10000 4.1 310 22:32 22.11.2020
6095 Clear 23 1016 69 10000 4.6 310 21:25 22.11.2020
6096 Clear 24 1016 69 10000 4.6 300 20:27 22.11.2020
6097 Clear 24 1016 69 10000 5.1 310 19:36 22.11.2020
6098 Clear 25 1016 73 10000 4.6 310 18:25 22.11.2020
6099 Clear 26 1015 65 8000 4.6 320 16:29 22.11.2020
6100 Clear 27 1014 42 8000 4.1 310 15:27 22.11.2020
6101 Clear 31 1013 22 10000 3.6 250 13:44 22.11.2020
6102 Clear 31 1013 24 10000 3.6 220 12:43 22.11.2020
6103 Clear 31 1014 24 10000 4.1 220 11:54 22.11.2020
6104 Clear 32 1014 21 10000 3.6 0 10:54 22.11.2020
6105 Clear 31 1015 21 10000 4.6 230 10:36 22.11.2020
6106 Clear 27 1017 36 10000 3.6 200 07:43 22.11.2020
6107 Clear 22 1015 69 10000 2.1 170 01:47 22.11.2020
6108 Clear 23 1015 69 10000 2.1 160 22:42 21.11.2020
6109 Clear 24 1015 69 10000 1 0 21:32 21.11.2020
6110 Clear 24 1015 69 10000 2.41 147 20:54 21.11.2020
6111 Clear 25 1016 69 10000 2.1 140 20:28 21.11.2020
6112 Clear 25 1016 69 10000 2.6 150 19:50 21.11.2020
6113 Clear 25 1016 69 10000 1.5 130 19:20 21.11.2020
6114 Clear 26 1015 65 10000 3.1 140 17:54 21.11.2020
6115 Clear 27 1015 57 10000 4.6 140 16:47 21.11.2020
6116 Clouds 27 1014 57 10000 4.1 140 15:45 21.11.2020
6117 Clouds 28 1014 61 10000 4.1 120 15:21 21.11.2020
6118 Clouds 28 1014 61 10000 4.1 120 14:42 21.11.2020
6119 Clouds 29 1014 54 10000 3.6 90 13:27 21.11.2020
6120 Clouds 30 1014 51 10000 3.6 80 12:24 21.11.2020
6121 Clouds 29 1015 54 10000 3.6 120 11:50 21.11.2020
6122 Clouds 29 1016 51 10000 3.6 110 10:28 21.11.2020
6123 Clouds 29 1017 51 10000 4.6 150 09:22 21.11.2020
6124 Clouds 29 1017 51 10000 4.6 150 08:50 21.11.2020
6125 Clouds 24 1017 65 10000 2.1 170 05:43 21.11.2020
6126 Clouds 24 1017 69 10000 1.5 140 04:23 21.11.2020
6127 Clouds 24 1016 69 10000 1.5 130 00:23 21.11.2020
6128 Clear 25 1016 73 10000 2.1 110 23:21 20.11.2020
6129 Clouds 24 1017 73 10000 1 0 21:46 20.11.2020
6130 Clouds 24 1017 73 10000 1 0 21:26 20.11.2020
6131 Clouds 24 1017 73 10000 1 0 21:26 20.11.2020
6132 Clouds 25 1017 69 10000 1 140 20:42 20.11.2020
6133 Clouds 25 1017 69 10000 0.5 130 19:33 20.11.2020
6134 Clouds 26 1017 69 10000 1 90 18:28 20.11.2020
6135 Clear 26 1017 65 10000 1 40 17:32 20.11.2020
6136 Clear 27 1016 61 10000 1.5 30 16:48 20.11.2020
6137 Clear 27 1016 61 10000 1.5 30 16:29 20.11.2020
6138 Clear 27 1016 57 10000 2.6 70 15:47 20.11.2020
6139 Clear 28 1015 51 10000 3.1 60 14:18 20.11.2020
6140 Clear 29 1015 54 10000 3.6 50 13:22 20.11.2020
6141 Clear 29 1015 54 10000 3.6 50 12:59 20.11.2020
6142 Clear 29 1015 54 10000 4.1 20 12:25 20.11.2020
6143 Clear 28 1016 54 10000 4.1 30 11:35 20.11.2020
6144 Clear 28 1017 54 10000 4.1 20 09:56 20.11.2020
6145 Clear 27 1018 51 10000 3.1 350 08:32 20.11.2020
6146 Clear 26 1019 54 10000 2.6 320 07:52 20.11.2020
6147 Clear 21 1018 68 10000 1.5 250 05:19 20.11.2020
6148 Clear 22 1016 60 10000 2.1 290 00:41 20.11.2020
6149 Clear 23 1016 60 10000 2.6 310 22:31 19.11.2020
6150 Clear 23 1016 60 10000 2.6 310 21:54 19.11.2020
6151 Clear 23 1016 60 10000 3.1 320 20:59 19.11.2020
6152 Clear 24 1017 64 10000 3.6 330 20:21 19.11.2020
6153 Clear 24 1017 64 10000 3.6 330 20:21 19.11.2020
6154 Clear 24 1017 64 10000 4.1 330 19:27 19.11.2020
6155 Clear 24 1017 60 10000 4.1 340 18:55 19.11.2020
6156 Clear 24 1017 60 10000 4.1 340 18:55 19.11.2020
6157 Clear 24 1017 60 10000 4.1 340 18:55 19.11.2020
6158 Clear 25 1017 57 10000 4.6 330 17:35 19.11.2020
6159 Clear 25 1016 57 10000 5.7 350 16:39 19.11.2020
6160 Clear 26 1016 57 10000 6.7 350 15:31 19.11.2020
6161 Clear 28 1015 57 10000 6.2 10 13:58 19.11.2020
6162 Clear 28 1015 57 10000 6.2 20 13:38 19.11.2020
6163 Clear 29 1015 51 10000 5.7 20 12:55 19.11.2020
6164 Clear 29 1015 42 10000 6.2 10 12:34 19.11.2020
6165 Clear 29 1015 45 10000 5.7 10 11:41 19.11.2020
6166 Clear 29 1016 42 10000 5.1 350 11:22 19.11.2020
6167 Clear 29 1016 45 10000 5.7 350 10:44 19.11.2020
6168 Clear 29 1017 48 10000 5.1 330 09:48 19.11.2020
6169 Clear 29 1017 48 10000 5.1 330 09:28 19.11.2020
6170 Clear 28 1018 51 10000 4.6 330 08:44 19.11.2020
6171 Clear 26 1018 54 10000 4.6 310 07:36 19.11.2020
6172 Clear 23 1016 60 10000 3.6 320 01:48 19.11.2020
6173 Clear 23 1016 57 10000 3.1 320 00:33 19.11.2020
6174 Clear 23 1016 57 10000 3.6 310 23:32 18.11.2020
6175 Clear 23 1016 57 10000 3.1 300 22:59 18.11.2020
6176 Clear 24 1016 57 10000 3.1 320 22:29 18.11.2020
6177 Clear 24 1017 53 10000 3.6 320 21:44 18.11.2020
6178 Clear 24 1017 53 10000 4.1 320 21:25 18.11.2020
6179 Clear 25 1017 53 10000 4.6 330 20:37 18.11.2020
6180 Clear 24 1017 53 10000 4.6 320 19:44 18.11.2020
6181 Clear 25 1017 53 10000 5.7 330 19:22 18.11.2020
6182 Clear 25 1017 53 10000 4.6 320 19:22 18.11.2020
6183 Clear 25 1017 57 10000 5.1 330 18:45 18.11.2020
6184 Clear 25 1016 57 10000 5.7 330 17:44 18.11.2020
6185 Clouds 26 1016 57 10000 7.2 340 16:52 18.11.2020
6186 Clouds 26 1016 57 10000 6.7 340 16:18 18.11.2020
6187 Clouds 27 1015 65 8000 6.7 350 14:41 18.11.2020
6188 Clouds 28 1015 61 8000 8.2 360 14:19 18.11.2020
6189 Clouds 28 1015 61 8000 8.2 360 13:22 18.11.2020
6190 Clouds 29 1015 62 10000 7.2 360 12:43 18.11.2020
6191 Clouds 29 1015 62 10000 5.7 360 11:51 18.11.2020
6192 Clouds 29 1015 58 10000 5.1 10 10:57 18.11.2020
6193 Clouds 29 1015 58 10000 4.6 10 10:27 18.11.2020
6194 Clear 29 1017 51 10000 4.6 340 08:40 18.11.2020
6195 Clear 26 1017 69 9000 3.1 310 06:48 18.11.2020
6196 Clear 24 1015 83 10000 2.6 300 04:24 18.11.2020
6197 Clear 25 1014 74 10000 1.5 220 00:20 18.11.2020
6198 Clear 25 1014 74 10000 1.5 220 23:24 17.11.2020
6199 Clear 25 1014 74 10000 3.1 170 22:44 17.11.2020
6200 Clear 25 1014 74 10000 3.1 170 22:25 17.11.2020
6201 Clear 25 1014 74 10000 2.1 160 21:46 17.11.2020
6202 Clear 25 1015 74 10000 2.6 160 21:22 17.11.2020
6203 Clear 25 1015 74 10000 3.1 150 20:43 17.11.2020
6204 Clear 26 1015 74 10000 2.6 150 20:22 17.11.2020
6205 Clear 26 1015 74 10000 2.1 130 18:56 17.11.2020
6206 Clear 27 1015 74 10000 2.1 110 18:22 17.11.2020
6207 Clear 27 1015 74 10000 2.6 80 17:27 17.11.2020
6208 Clear 27 1015 74 10000 2.6 90 16:30 17.11.2020
6209 Clear 27 1015 69 10000 3.1 100 15:53 17.11.2020
6210 Clear 27 1015 69 10000 3.1 100 15:34 17.11.2020
6211 Clear 29 1014 65 10000 3.6 100 14:58 17.11.2020
6212 Clear 28 1014 65 10000 3.6 90 14:29 17.11.2020
6213 Clear 30 1014 58 10000 4.1 90 13:42 17.11.2020
6214 Clear 30 1014 54 10000 4.1 110 13:20 17.11.2020
6215 Clear 30 1015 51 10000 3.6 100 12:41 17.11.2020
6216 Clear 31 1015 51 10000 4.6 110 11:44 17.11.2020
6217 Clear 31 1015 52 10000 4.6 110 10:56 17.11.2020
6218 Clear 31 1016 51 10000 4.1 110 10:33 17.11.2020
6219 Clear 31 1017 43 10000 2.1 120 09:51 17.11.2020
6220 Clear 31 1017 43 10000 2.1 120 09:29 17.11.2020
6221 Clear 28 1018 54 10000 3.6 170 08:24 17.11.2020
6222 Clear 28 1018 61 10000 3.1 170 07:46 17.11.2020
6223 Clear 26 1018 61 10000 0.5 0 06:40 17.11.2020
6224 Clear 24 1016 73 10000 2.6 170 03:48 17.11.2020
6225 Clear 24 1016 78 10000 2.6 180 02:53 17.11.2020
6226 Clear 25 1016 78 10000 3.6 160 01:25 17.11.2020
6227 Clear 25 1016 73 10000 3.6 160 00:55 17.11.2020
6228 Clear 25 1016 73 10000 4.1 160 23:49 16.11.2020
6229 Clear 26 1015 73 10000 4.1 150 23:29 16.11.2020
6230 Clear 26 1016 69 10000 4.6 140 22:47 16.11.2020
6231 Clear 26 1016 69 10000 3.6 130 22:20 16.11.2020
6232 Clear 26 1016 65 10000 3.6 130 21:46 16.11.2020
6233 Clear 26 1016 65 10000 3.6 130 21:24 16.11.2020
6234 Clear 26 1016 69 10000 3.6 140 20:50 16.11.2020
6235 Clear 26 1017 69 10000 2.6 140 20:24 16.11.2020
6236 Clear 26 1017 65 10000 2.6 120 19:38 16.11.2020
6237 Clear 26 1017 65 10000 2.6 120 19:19 16.11.2020
6238 Clear 26 1017 65 10000 2.6 110 18:39 16.11.2020
6239 Clear 26 1016 65 10000 2.6 100 17:50 16.11.2020
6240 Clear 26 1016 61 10000 3.1 100 17:21 16.11.2020
6241 Clear 26 1016 57 10000 3.1 90 16:54 16.11.2020
6242 Clear 26 1016 57 10000 3.1 90 16:28 16.11.2020
6243 Clear 27 1015 57 10000 3.6 80 15:57 16.11.2020
6244 Clear 27 1015 57 10000 3.6 60 15:37 16.11.2020
6245 Clear 27 1015 57 10000 3.6 80 15:19 16.11.2020
6246 Clear 27 1015 54 10000 4.1 80 14:28 16.11.2020
6247 Clear 28 1015 54 10000 4.1 60 13:31 16.11.2020
6248 Clear 28 1015 57 10000 4.1 60 12:33 16.11.2020
6249 Clear 28 1015 54 10000 3.6 50 11:44 16.11.2020
6250 Clear 28 1016 51 10000 3.6 90 11:25 16.11.2020
6251 Clear 28 1016 51 10000 4.1 90 10:48 16.11.2020
6252 Clear 28 1016 51 10000 4.1 90 10:26 16.11.2020
6253 Clear 29 1016 54 10000 4.1 100 09:56 16.11.2020
6254 Clear 29 1017 51 10000 4.1 80 09:37 16.11.2020
6255 Clear 27 1017 51 10000 2.6 130 08:49 16.11.2020
6256 Clear 27 1017 51 10000 2.6 130 08:27 16.11.2020
6257 Clear 26 1017 54 10000 2.6 160 07:43 16.11.2020
6258 Clear 25 1017 57 10000 1.5 240 06:47 16.11.2020
6259 Clear 25 1017 57 10000 1.5 240 06:47 16.11.2020
6260 Clear 23 1017 54 10000 1.5 320 05:50 16.11.2020
6261 Clear 21 1016 64 10000 1.5 320 04:33 16.11.2020
6262 Clear 22 1014 68 10000 1 200 01:47 16.11.2020
6263 Clear 22 1014 64 10000 1.5 200 01:21 16.11.2020
6264 Clear 21 1015 64 10000 1 0 23:43 15.11.2020
6265 Clear 22 1015 60 10000 1 0 23:21 15.11.2020
6266 Clear 22 1015 60 10000 1 0 22:39 15.11.2020
6267 Clear 23 1015 57 10000 1 210 22:18 15.11.2020
6268 Clear 22 1016 64 10000 1 0 21:41 15.11.2020
6269 Clear 22 1016 64 10000 1 0 21:20 15.11.2020
6270 Clear 23 1016 60 10000 1.5 330 20:40 15.11.2020
6271 Clear 24 1016 60 10000 2.1 330 20:18 15.11.2020
6272 Clear 24 1016 60 10000 3.1 330 19:43 15.11.2020
6273 Clear 24 1016 60 10000 3.1 330 19:22 15.11.2020
6274 Clear 24 1016 57 10000 3.6 330 18:55 15.11.2020
6275 Clear 24 1016 53 10000 4.6 330 18:37 15.11.2020
6276 Clear 25 1016 57 10000 5.1 350 18:18 15.11.2020
6277 Clear 25 1015 57 10000 3.1 10 17:42 15.11.2020
6278 Clear 25 1015 57 10000 3.1 360 17:22 15.11.2020
6279 Clear 25 1015 50 10000 3.1 360 16:44 15.11.2020
6280 Clear 26 1015 50 10000 2.6 10 16:20 15.11.2020
6281 Clear 26 1015 50 10000 2.6 10 15:49 15.11.2020
6282 Clear 26 1014 47 10000 3.1 10 15:26 15.11.2020
6283 Clear 27 1014 42 10000 2.6 350 14:54 15.11.2020
6284 Clear 27 1014 44 10000 2.6 10 14:27 15.11.2020
6285 Clear 27 1014 42 10000 3.1 10 13:53 15.11.2020
6286 Clear 27 1014 42 10000 3.1 10 13:34 15.11.2020
6287 Clear 27 1014 39 10000 4.1 340 12:50 15.11.2020
6288 Clear 27 1014 42 10000 3.6 360 12:20 15.11.2020
6289 Clear 27 1014 39 10000 3.6 10 11:45 15.11.2020
6290 Clear 27 1015 42 10000 4.1 10 11:19 15.11.2020
6291 Clear 27 1015 39 10000 3.6 20 10:53 15.11.2020
6292 Clear 27 1015 39 10000 3.6 20 10:31 15.11.2020
6293 Clear 26 1015 39 10000 2.6 0 09:56 15.11.2020
6294 Clear 26 1016 36 10000 3.1 0 09:33 15.11.2020
6295 Clear 26 1016 41 10000 3.1 350 08:59 15.11.2020
6296 Clear 26 1017 39 10000 2.6 320 08:41 15.11.2020
6297 Clear 25 1017 44 10000 3.1 310 07:46 15.11.2020
6298 Clear 24 1017 44 10000 2.1 290 06:42 15.11.2020
6299 Clear 21 1016 49 10000 1.5 280 04:54 15.11.2020
6300 Clear 21 1015 40 10000 1.5 250 02:21 15.11.2020
6301 Clear 22 1015 40 10000 3.1 310 00:31 15.11.2020
6302 Clear 22 1015 43 10000 4.1 310 23:54 14.11.2020
6303 Clear 23 1015 46 10000 4.1 310 22:59 14.11.2020
6304 Clear 23 1015 41 10000 3.6 320 22:41 14.11.2020
6305 Clear 23 1015 38 10000 3.6 310 22:19 14.11.2020
6306 Clear 23 1016 38 10000 3.6 310 21:39 14.11.2020
6307 Clear 23 1016 38 10000 4.1 320 21:20 14.11.2020
6308 Clear 24 1016 38 10000 3.6 310 20:48 14.11.2020
6309 Clear 24 1016 38 10000 3.6 310 20:24 14.11.2020
6310 Clear 24 1016 41 10000 4.1 320 19:39 14.11.2020
6311 Clear 24 1016 41 10000 4.1 320 19:19 14.11.2020
6312 Clear 25 1016 38 10000 4.6 330 18:41 14.11.2020
6313 Clear 25 1015 41 10000 5.7 340 18:22 14.11.2020
6314 Clear 25 1015 41 10000 5.7 340 17:45 14.11.2020
6315 Clear 25 1015 41 10000 5.7 340 17:45 14.11.2020
6316 Clear 25 1015 41 10000 5.7 340 17:27 14.11.2020
6317 Clear 26 1014 39 10000 6.7 340 16:52 14.11.2020
6318 Clear 26 1014 39 10000 6.7 340 16:52 14.11.2020
6319 Clear 26 1014 39 10000 6.7 340 16:33 14.11.2020
6320 Clear 26 1014 36 10000 7.2 340 15:56 14.11.2020
6321 Clear 26 1014 36 10000 7.2 340 15:32 14.11.2020
6322 Clear 27 1014 36 10000 8.2 350 14:57 14.11.2020
6323 Clear 28 1014 36 10000 8.2 350 14:30 14.11.2020
6324 Clear 29 1013 34 10000 8.2 350 13:55 14.11.2020
6325 Clear 29 1014 42 10000 9.3 350 13:37 14.11.2020
6326 Clear 29 1014 42 10000 9.3 350 13:18 14.11.2020
6327 Clear 29 1014 42 10000 9.3 350 12:39 14.11.2020
6328 Clear 30 1014 39 10000 8.2 340 12:18 14.11.2020
6329 Clear 30 1014 37 10000 8.2 350 11:39 14.11.2020
6330 Clouds 30 1015 40 10000 8.2 350 11:18 14.11.2020
6331 Clouds 30 1015 48 10000 8.2 350 10:40 14.11.2020
6332 Clouds 30 1015 48 10000 8.2 350 10:22 14.11.2020
6333 Clouds 30 1016 48 10000 7.7 350 09:45 14.11.2020
6334 Clouds 30 1016 48 10000 7.7 350 09:26 14.11.2020
6335 Clouds 30 1017 51 10000 8.2 350 08:42 14.11.2020
6336 Clouds 29 1017 51 10000 8.2 350 08:22 14.11.2020
6337 Clear 29 1017 58 10000 7.7 340 07:42 14.11.2020
6338 Clear 29 1017 58 10000 7.7 340 07:42 14.11.2020
6339 Clear 29 1017 58 10000 7.7 340 07:20 14.11.2020
6340 Clear 27 1016 61 10000 6.7 330 06:28 14.11.2020
6341 Clouds 25 1016 69 10000 6.7 330 05:18 14.11.2020
6342 Clouds 26 1014 74 10000 5.7 330 03:21 14.11.2020
6343 Clear 26 1014 61 10000 4.6 330 00:28 14.11.2020
6344 Clear 26 1014 65 10000 3.6 320 23:38 13.11.2020
6345 Clear 26 1014 65 10000 3.1 310 23:19 13.11.2020
6346 Clear 26 1014 61 10000 3.1 300 22:41 13.11.2020
6347 Clear 26 1014 61 10000 3.1 300 22:22 13.11.2020
6348 Clear 27 1014 69 10000 2.1 300 21:51 13.11.2020
6349 Clear 27 1014 69 10000 2.1 300 21:27 13.11.2020
6350 Clear 27 1015 83 10000 1.5 330 20:54 13.11.2020
6351 Clear 27 1015 78 10000 1.5 330 20:32 13.11.2020
6352 Clear 28 1014 78 10000 5.08 328 19:58 13.11.2020
6353 Clear 28 1015 74 10000 0.5 0 19:40 13.11.2020
6354 Clear 28 1015 74 10000 0.5 0 19:22 13.11.2020
6355 Clear 28 1015 74 10000 1.5 20 18:44 13.11.2020
6356 Clear 29 1015 74 10000 3.1 30 17:47 13.11.2020
6357 Clear 29 1014 74 10000 4.6 10 17:24 13.11.2020
6358 Clear 29 1014 74 10000 4.6 10 16:59 13.11.2020
6359 Clear 29 1014 79 10000 5.1 360 16:40 13.11.2020
6360 Clear 30 1014 74 10000 4.6 10 16:20 13.11.2020
6361 Clear 31 1014 52 10000 2.1 50 15:41 13.11.2020
6362 Clear 32 1013 46 10000 2.1 40 15:21 13.11.2020
6363 Clear 33 1013 28 10000 3.1 300 14:38 13.11.2020
6364 Clear 35 1013 25 10000 2.6 270 14:19 13.11.2020
6365 Clear 35 1013 20 10000 6.2 260 13:32 13.11.2020
6366 Clear 36 1013 19 10000 4.6 240 12:59 13.11.2020
6367 Clear 36 1013 22 10000 4.6 220 12:41 13.11.2020
6368 Clear 36 1013 20 10000 5.7 220 12:23 13.11.2020
6369 Clear 36 1013 23 10000 5.7 200 11:47 13.11.2020
6370 Clear 35 1013 23 10000 6.7 200 11:23 13.11.2020
6371 Clear 35 1013 23 10000 6.7 200 10:52 13.11.2020
6372 Clear 35 1014 26 10000 8.2 200 10:33 13.11.2020
6373 Clear 34 1015 32 10000 6.7 200 09:53 13.11.2020
6374 Clear 34 1015 32 10000 6.7 200 09:32 13.11.2020
6375 Clear 33 1015 33 10000 8.7 190 08:54 13.11.2020
6376 Clear 33 1015 35 10000 8.2 200 08:30 13.11.2020
6377 Clear 32 1016 48 10000 5.1 200 07:51 13.11.2020
6378 Clear 32 1016 48 10000 5.1 200 07:29 13.11.2020
6379 Clear 30 1016 62 10000 4.6 190 06:57 13.11.2020
6380 Clear 30 1016 74 10000 4.6 170 06:37 13.11.2020
6381 Clear 28 1015 74 10000 3.6 170 05:42 13.11.2020
6382 Clear 27 1014 78 10000 4.1 160 04:20 13.11.2020
6383 Clear 27 1014 78 10000 1.5 140 01:43 13.11.2020
6384 Clear 27 1014 78 10000 2.6 140 00:37 13.11.2020
6385 Clear 27 1014 78 10000 2.6 150 23:55 12.11.2020
6386 Clear 28 1014 78 10000 1.5 150 23:36 12.11.2020
6387 Clear 28 1015 78 10000 1.5 120 23:18 12.11.2020
6388 Clear 28 1015 78 10000 2.6 130 22:40 12.11.2020
6389 Clear 27 1015 74 10000 3.1 100 21:59 12.11.2020
6390 Clear 27 1015 74 10000 3.1 110 21:41 12.11.2020
6391 Clear 27 1015 74 10000 4.1 110 21:22 12.11.2020
6392 Clear 27 1016 74 10000 3.1 100 20:42 12.11.2020
6393 Clear 27 1016 74 10000 3.1 100 20:24 12.11.2020
6394 Clear 27 1016 74 10000 2.6 100 19:57 12.11.2020
6395 Clear 27 1016 74 10000 2.6 90 19:39 12.11.2020
6396 Clear 27 1016 74 10000 2.6 90 19:21 12.11.2020
6397 Clear 28 1016 74 10000 3.1 80 18:45 12.11.2020
6398 Clear 28 1016 69 10000 3.1 70 18:20 12.11.2020
6399 Clear 28 1015 69 10000 3.1 80 17:43 12.11.2020
6400 Clear 28 1015 69 10000 3.1 80 17:24 12.11.2020
6401 Clear 28 1015 66 10000 3.6 70 16:46 12.11.2020
6402 Clear 28 1015 69 10000 3.6 60 16:24 12.11.2020
6403 Clear 29 1014 66 10000 3.6 60 15:53 12.11.2020
6404 Clear 29 1014 66 10000 3.6 60 15:30 12.11.2020
6405 Clear 29 1014 66 10000 3.1 60 14:56 12.11.2020
6406 Clear 30 1014 62 10000 3.6 60 14:38 12.11.2020
6407 Clear 30 1014 55 10000 3.1 100 14:19 12.11.2020
6408 Clear 31 1014 58 10000 4.1 100 13:45 12.11.2020
6409 Clear 31 1014 55 10000 4.6 100 13:20 12.11.2020
6410 Clear 31 1014 52 10000 4.6 120 12:49 12.11.2020
6411 Clear 31 1014 52 10000 4.6 120 12:25 12.11.2020
6412 Clear 32 1014 52 10000 5.1 120 11:57 12.11.2020
6413 Clear 32 1015 58 10000 5.7 130 11:39 12.11.2020
6414 Clear 31 1015 55 10000 5.1 130 10:54 12.11.2020
6415 Clear 32 1015 58 10000 5.7 130 10:35 12.11.2020
6416 Clear 32 1016 52 10000 6.7 150 09:58 12.11.2020
6417 Clear 31 1016 58 10000 6.2 150 09:38 12.11.2020
6418 Clear 31 1017 55 10000 6.7 140 09:18 12.11.2020
6419 Clear 31 1017 62 10000 5.1 140 08:40 12.11.2020
6420 Clear 30 1017 62 10000 5.1 140 08:20 12.11.2020
6421 Clear 30 1017 62 10000 5.1 140 07:55 12.11.2020
6422 Clear 30 1017 66 10000 4.6 160 07:36 12.11.2020
6423 Clear 29 1017 70 10000 5.7 150 06:52 12.11.2020
6424 Clear 28 1017 74 10000 4.6 160 06:26 12.11.2020
6425 Clear 25 1015 83 10000 1.5 150 03:50 12.11.2020
6426 Clear 25 1015 78 10000 1 0 03:20 12.11.2020
6427 Clear 24 1015 78 10000 1 0 00:36 12.11.2020
6428 Clear 25 1015 78 10000 0.72 109 23:44 11.11.2020
6429 Clear 25 1015 78 10000 0.75 46 23:25 11.11.2020
6430 Clear 25 1015 78 10000 0.75 46 22:48 11.11.2020
6431 Clear 25 1015 78 10000 0.93 18 22:23 11.11.2020
6432 Clear 25 1015 78 10000 0.93 18 21:57 11.11.2020
6433 Clear 25 1015 78 10000 0.93 18 21:38 11.11.2020
6434 Clear 26 1015 78 10000 1.45 12 21:20 11.11.2020
6435 Clear 26 1016 74 10000 1 140 20:43 11.11.2020
6436 Clear 26 1016 74 10000 1 140 20:22 11.11.2020
6437 Clear 27 1015 74 10000 1.5 140 19:57 11.11.2020
6438 Clear 27 1016 74 10000 1.5 140 19:38 11.11.2020
6439 Clear 27 1016 74 10000 1.5 140 19:20 11.11.2020
6440 Clear 27 1016 74 10000 1 130 18:41 11.11.2020
6441 Clear 28 1015 69 10000 1 130 18:22 11.11.2020
6442 Clear 28 1015 69 10000 1 120 17:39 11.11.2020
6443 Clear 28 1015 69 10000 2.1 100 17:21 11.11.2020
6444 Clear 28 1015 69 10000 2.1 110 16:39 11.11.2020
6445 Clear 29 1014 65 10000 2.6 120 16:21 11.11.2020
6446 Clear 29 1014 62 10000 3.1 120 15:43 11.11.2020
6447 Clear 29 1014 62 10000 3.6 110 15:23 11.11.2020
6448 Clear 29 1014 58 10000 4.1 100 14:48 11.11.2020
6449 Clear 29 1014 58 10000 4.1 100 14:30 11.11.2020
6450 Clear 30 1013 51 10000 4.1 90 13:49 11.11.2020
6451 Clear 31 1013 51 10000 4.1 90 13:24 11.11.2020
6452 Clear 32 1013 45 10000 4.1 60 12:22 11.11.2020
6453 Clear 32 1014 45 10000 4.1 50 11:58 11.11.2020
6454 Clear 31 1014 43 10000 4.1 20 11:40 11.11.2020
6455 Clear 31 1014 45 10000 4.6 20 11:20 11.11.2020
6456 Clear 31 1015 45 10000 4.1 10 10:39 11.11.2020
6457 Clear 31 1015 45 10000 4.1 10 10:19 11.11.2020
6458 Clear 30 1015 45 10000 3.6 10 09:43 11.11.2020
6459 Clear 30 1015 45 10000 3.6 10 09:24 11.11.2020
6460 Clear 30 1016 45 10000 1.5 70 08:45 11.11.2020
6461 Clear 30 1016 45 10000 1.5 70 08:25 11.11.2020
6462 Clear 28 1016 54 10000 2.1 20 07:49 11.11.2020
6463 Clear 27 1016 61 10000 1 0 06:33 11.11.2020
6464 Clear 25 1016 65 10000 0.5 0 05:52 11.11.2020
6465 Clear 24 1013 83 10000 0.5 340 02:29 11.11.2020
6466 Clear 25 1013 73 10000 0.5 0 00:58 11.11.2020
6467 Clear 25 1013 73 10000 0.5 0 00:58 11.11.2020
6468 Clear 24 1013 78 10000 1.91 346 00:25 11.11.2020
6469 Clear 25 1014 69 10000 1.5 250 23:42 10.11.2020
6470 Clear 25 1014 69 10000 1.5 250 23:23 10.11.2020
6471 Clear 26 1014 69 10000 1 0 22:51 10.11.2020
6472 Clear 26 1014 69 10000 1 0 22:26 10.11.2020
6473 Clear 26 1015 74 10000 1 0 21:42 10.11.2020
6474 Clear 26 1015 74 10000 1 0 21:24 10.11.2020
6475 Clear 26 1015 74 10000 0.5 0 20:58 10.11.2020
6476 Clear 26 1015 74 10000 1 0 20:40 10.11.2020
6477 Clear 26 1015 74 10000 1 150 20:22 10.11.2020
6478 Clear 26 1015 74 10000 1 0 19:46 10.11.2020
6479 Clear 26 1015 74 10000 1 0 19:25 10.11.2020
6480 Clear 27 1015 74 10000 1 150 18:56 10.11.2020
6481 Clear 27 1015 74 10000 1 150 18:37 10.11.2020
6482 Clear 28 1015 69 10000 1 70 18:18 10.11.2020
6483 Clear 28 1015 69 10000 1.5 90 17:42 10.11.2020
6484 Clear 28 1014 69 10000 1.5 70 17:24 10.11.2020
6485 Clear 28 1014 69 10000 2.1 70 16:42 10.11.2020
6486 Clear 29 1014 65 10000 2.1 50 16:24 10.11.2020
6487 Clear 29 1014 65 10000 2.1 50 15:55 10.11.2020
6488 Clear 29 1014 62 10000 2.6 50 15:37 10.11.2020
6489 Clear 29 1014 62 10000 2.6 50 15:18 10.11.2020
6490 Clear 30 1014 58 10000 3.1 70 14:40 10.11.2020
6491 Clear 30 1013 55 10000 3.1 60 14:19 10.11.2020
6492 Clear 31 1013 51 10000 3.1 60 13:40 10.11.2020
6493 Clear 31 1013 45 10000 3.6 60 13:21 10.11.2020
6494 Clear 32 1013 45 10000 3.6 60 12:56 10.11.2020
6495 Clear 32 1014 43 10000 3.1 40 12:37 10.11.2020
6496 Clear 32 1014 40 10000 3.6 20 12:18 10.11.2020
6497 Clear 31 1014 40 10000 4.1 20 11:36 10.11.2020
6498 Clear 31 1014 40 10000 4.1 10 11:18 10.11.2020
6499 Clear 31 1015 40 10000 3.6 360 10:42 10.11.2020
6500 Clear 32 1015 43 10000 3.6 20 10:22 10.11.2020
6501 Clear 31 1016 38 10000 3.1 350 09:47 10.11.2020
6502 Clear 31 1016 38 10000 3.1 350 09:26 10.11.2020
6503 Clear 31 1016 38 10000 2.6 30 08:57 10.11.2020
6504 Clear 30 1017 45 10000 2.1 360 08:29 10.11.2020
6505 Clear 29 1017 51 10000 1.5 0 07:47 10.11.2020
6506 Clear 29 1017 51 10000 1.5 0 07:26 10.11.2020
6507 Clear 28 1017 58 10000 2.1 350 06:42 10.11.2020
6508 Clear 25 1016 61 10000 1 0 05:56 10.11.2020
6509 Clear 25 1016 65 10000 1 0 05:24 10.11.2020
6510 Clear 25 1015 83 10000 1.5 330 02:48 10.11.2020
6511 Clear 24 1015 83 10000 1.5 340 01:37 10.11.2020
6512 Clear 25 1015 83 10000 1.5 360 00:23 10.11.2020
6513 Clear 25 1015 83 10000 1.5 350 23:41 09.11.2020
6514 Clear 26 1016 78 10000 1 10 22:56 09.11.2020
6515 Clear 26 1016 78 10000 1.5 350 22:37 09.11.2020
6516 Clear 25 1016 78 10000 2.1 350 22:19 09.11.2020
6517 Clear 25 1016 78 10000 2.1 350 21:39 09.11.2020
6518 Clear 26 1017 69 10000 1.5 350 21:20 09.11.2020
6519 Clear 26 1017 69 10000 1 30 20:40 09.11.2020
6520 Clear 27 1017 69 10000 1.5 10 20:21 09.11.2020
6521 Clear 27 1017 74 10000 2.1 10 19:42 09.11.2020
6522 Clear 27 1017 69 10000 2.1 20 19:22 09.11.2020
6523 Clear 28 1017 65 10000 1.5 20 18:46 09.11.2020
6524 Clear 28 1017 65 10000 1.5 30 18:21 09.11.2020
6525 Clear 28 1017 65 10000 1.5 30 17:58 09.11.2020
6526 Clear 28 1016 65 10000 1.5 40 17:39 09.11.2020
6527 Clear 28 1016 61 10000 2.1 60 17:21 09.11.2020
6528 Clear 29 1016 62 10000 2.1 50 16:39 09.11.2020
6529 Clear 29 1016 62 10000 2.6 60 16:19 09.11.2020
6530 Clear 29 1016 58 10000 2.6 50 15:42 09.11.2020
6531 Clear 29 1016 58 10000 2.6 50 15:24 09.11.2020
6532 Clear 31 1016 51 10000 3.1 50 14:44 09.11.2020
6533 Clear 30 1016 51 10000 3.1 50 14:26 09.11.2020
6534 Clear 31 1016 48 10000 3.1 50 13:51 09.11.2020
6535 Clear 32 1016 48 10000 3.6 100 13:21 09.11.2020
6536 Clear 31 1016 48 10000 3.6 90 12:50 09.11.2020
6537 Clear 31 1016 48 10000 3.6 90 12:26 09.11.2020
6538 Clouds 32 1016 48 10000 3.1 90 11:57 09.11.2020
6539 Clouds 32 1017 52 10000 3.6 90 11:39 09.11.2020
6540 Clouds 32 1017 52 10000 4.1 80 11:20 09.11.2020
6541 Clouds 31 1017 52 10000 4.1 100 10:42 09.11.2020
6542 Clouds 32 1018 52 10000 3.6 80 10:23 09.11.2020
6543 Clouds 32 1018 52 10000 3.6 80 09:51 09.11.2020
6544 Clouds 32 1018 58 10000 3.6 90 09:25 09.11.2020
6545 Clear 31 1019 62 10000 3.1 90 08:44 09.11.2020
6546 Clear 31 1020 62 10000 2.6 100 08:21 09.11.2020
6547 Clear 31 1020 62 10000 2.6 100 07:41 09.11.2020
6548 Clear 31 1019 62 10000 2.6 90 07:21 09.11.2020
6549 Clear 30 1019 62 10000 2.6 100 06:37 09.11.2020
6550 Clear 26 1018 83 10000 1 30 03:32 09.11.2020
6551 Clear 27 1017 83 10000 1.5 40 01:55 09.11.2020
6552 Clear 27 1017 83 10000 1.5 360 01:36 09.11.2020
6553 Clear 27 1017 74 10000 1.5 30 23:54 08.11.2020
6554 Clear 28 1017 74 10000 1 20 23:30 08.11.2020
6555 Clear 28 1017 74 10000 1 40 22:58 08.11.2020
6556 Clear 27 1017 74 10000 2.1 30 22:40 08.11.2020
6557 Clear 28 1017 74 10000 1.5 30 22:19 08.11.2020
6558 Clear 28 1017 69 10000 1.5 30 21:39 08.11.2020
6559 Clear 28 1017 69 10000 1.5 30 21:19 08.11.2020
6560 Clear 28 1017 69 10000 1.5 30 20:54 08.11.2020
6561 Clear 28 1017 74 10000 1.5 30 20:36 08.11.2020
6562 Clear 29 1017 69 10000 2.1 40 20:18 08.11.2020
6563 Clear 29 1018 74 10000 2.1 30 19:42 08.11.2020
6564 Clear 29 1018 74 10000 2.1 30 19:21 08.11.2020
6565 Clear 29 1018 69 10000 2.1 30 18:48 08.11.2020
6566 Clear 29 1017 69 10000 2.1 40 18:22 08.11.2020
6567 Clear 28 1017 69 10000 2.1 40 17:57 08.11.2020
6568 Clear 29 1017 70 10000 3.1 40 17:38 08.11.2020
6569 Clear 29 1017 70 10000 2.6 40 17:19 08.11.2020
6570 Clear 29 1017 66 10000 2.1 50 16:48 08.11.2020
6571 Clear 29 1017 66 10000 2.1 50 16:48 08.11.2020
6572 Clear 29 1016 66 10000 3.1 50 16:22 08.11.2020
6573 Clear 29 1016 66 10000 3.1 50 15:57 08.11.2020
6574 Clear 29 1016 66 10000 2.6 60 15:38 08.11.2020
6575 Clear 29 1016 62 10000 3.1 80 15:20 08.11.2020
6576 Clear 30 1016 58 10000 3.1 90 14:40 08.11.2020
6577 Clear 30 1016 58 10000 3.1 90 14:21 08.11.2020
6578 Clouds 31 1015 58 10000 4.1 100 13:46 08.11.2020
6579 Clouds 31 1015 58 10000 4.1 100 13:22 08.11.2020
6580 Clouds 31 1015 52 10000 4.1 110 12:43 08.11.2020
6581 Clouds 31 1015 52 10000 4.6 110 12:25 08.11.2020
6582 Clouds 31 1015 52 10000 4.6 110 11:58 08.11.2020
6583 Clouds 31 1015 55 10000 5.1 90 11:39 08.11.2020
6584 Clouds 31 1016 52 10000 4.1 110 11:20 08.11.2020
6585 Clouds 31 1016 55 10000 4.6 90 10:49 08.11.2020
6586 Clouds 31 1016 58 10000 4.6 110 10:18 08.11.2020
6587 Clear 31 1017 58 10000 5.1 110 09:44 08.11.2020
6588 Clear 32 1017 58 10000 4.6 120 09:24 08.11.2020
6589 Clear 32 1017 58 10000 4.6 120 08:55 08.11.2020
6590 Clear 32 1018 58 10000 4.6 110 08:37 08.11.2020
6591 Clear 31 1018 58 10000 5.1 110 08:18 08.11.2020
6592 Clear 31 1018 62 10000 4.6 110 07:46 08.11.2020
6593 Clear 31 1018 62 10000 4.6 100 07:19 08.11.2020
6594 Clear 30 1017 66 10000 3.6 100 05:55 08.11.2020
6595 Clear 29 1017 66 10000 3.6 110 05:29 08.11.2020
6596 Clear 28 1016 69 10000 3.1 100 03:56 08.11.2020
6597 Clear 28 1015 65 10000 3.1 90 01:49 08.11.2020
6598 Clear 27 1015 69 10000 1.5 160 01:18 08.11.2020
6599 Clear 27 1015 69 10000 3.63 92 00:26 08.11.2020
6600 Clear 28 1015 69 10000 1 40 23:46 07.11.2020
6601 Clear 28 1015 69 10000 1 40 23:28 07.11.2020
6602 Clear 28 1015 69 10000 1.5 60 22:42 07.11.2020
6603 Clear 28 1015 69 10000 1.5 60 22:24 07.11.2020
6604 Clear 28 1015 69 10000 1.5 60 22:24 07.11.2020
6605 Clear 28 1015 65 10000 2.1 60 21:46 07.11.2020
6606 Clear 28 1015 69 10000 2.1 60 21:22 07.11.2020
6607 Clear 28 1015 69 10000 2.1 60 20:55 07.11.2020
6608 Clear 28 1016 65 10000 1.5 60 20:36 07.11.2020
6609 Clear 28 1016 65 10000 2.1 60 20:18 07.11.2020
6610 Clear 28 1016 65 10000 1.5 50 19:39 07.11.2020
6611 Clear 28 1016 58 10000 2.6 60 19:20 07.11.2020
6612 Clear 28 1016 61 10000 2.1 60 18:39 07.11.2020
6613 Clear 28 1016 61 10000 1.5 60 18:20 07.11.2020
6614 Clear 29 1016 58 10000 3.1 70 17:45 07.11.2020
6615 Clear 28 1016 58 10000 3.1 80 17:25 07.11.2020
6616 Clear 28 1015 58 10000 3.1 80 16:43 07.11.2020
6617 Clear 28 1015 58 10000 3.1 80 16:24 07.11.2020
6618 Clear 29 1015 58 10000 3.6 90 15:47 07.11.2020
6619 Clear 30 1015 48 10000 4.1 80 15:24 07.11.2020
6620 Clear 30 1015 48 10000 4.1 80 14:56 07.11.2020
6621 Clear 30 1015 45 10000 4.6 90 14:38 07.11.2020
6622 Clouds 31 1015 38 10000 5.1 90 14:19 07.11.2020
6623 Clouds 31 1015 43 10000 5.1 90 13:39 07.11.2020
6624 Clouds 31 1015 43 10000 5.1 90 13:39 07.11.2020
6625 Clouds 31 1015 38 10000 4.6 100 13:21 07.11.2020
6626 Clouds 32 1015 38 10000 5.1 100 12:33 07.11.2020
6627 Clear 32 1016 40 10000 5.7 110 11:45 07.11.2020
6628 Clear 32 1016 40 10000 5.7 110 11:25 07.11.2020
6629 Clear 32 1016 40 10000 5.7 110 10:56 07.11.2020
6630 Clear 32 1016 48 10000 6.2 100 10:38 07.11.2020
6631 Clear 32 1016 45 10000 5.7 100 10:20 07.11.2020
6632 Clear 31 1017 52 10000 6.2 110 09:47 07.11.2020
6633 Clear 31 1017 55 10000 6.2 120 09:21 07.11.2020
6634 Clear 31 1017 55 10000 6.2 120 09:21 07.11.2020
6635 Clouds 31 1018 58 10000 6.7 110 08:43 07.11.2020
6636 Clouds 31 1018 58 10000 6.7 110 08:22 07.11.2020
6637 Clouds 30 1018 62 10000 6.7 120 07:48 07.11.2020
6638 Clouds 30 1017 66 10000 6.2 120 06:48 07.11.2020
6639 Clouds 29 1017 65 10000 3.6 120 05:48 07.11.2020
6640 Clear 28 1016 65 10000 3.6 110 03:26 07.11.2020
6641 Clear 28 1015 61 10000 3.1 100 02:38 07.11.2020
6642 Clear 27 1015 61 10000 3.1 100 01:27 07.11.2020
6643 Clear 28 1015 61 10000 3.1 90 00:34 07.11.2020
6644 Clear 27 1015 61 10000 3.6 90 23:32 06.11.2020
6645 Clear 27 1015 65 10000 2.6 80 22:57 06.11.2020
6646 Clear 27 1015 65 10000 3.1 80 22:38 06.11.2020
6647 Clear 28 1015 65 10000 3.1 70 22:18 06.11.2020
6648 Clear 28 1015 61 10000 4.1 80 21:41 06.11.2020
6649 Clear 28 1015 61 10000 3.6 80 21:20 06.11.2020
6650 Clear 28 1016 61 10000 3.1 70 20:44 06.11.2020
6651 Clear 28 1016 58 10000 3.6 70 20:20 06.11.2020
6652 Clear 28 1016 61 10000 4.1 80 19:45 06.11.2020
6653 Clear 28 1016 61 10000 4.1 80 19:27 06.11.2020
6654 Clear 28 1016 61 10000 3.6 80 18:55 06.11.2020
6655 Clear 28 1016 61 10000 3.6 80 18:55 06.11.2020
6656 Clear 28 1016 61 10000 3.1 80 18:37 06.11.2020
6657 Clear 28 1016 61 10000 3.6 80 18:19 06.11.2020
6658 Clear 28 1015 58 10000 3.1 80 17:41 06.11.2020
6659 Clear 28 1015 58 10000 2.6 80 17:23 06.11.2020
6660 Clear 28 1015 58 10000 3.1 90 16:42 06.11.2020
6661 Clear 28 1014 61 10000 3.1 100 16:20 06.11.2020
6662 Clear 29 1014 54 10000 3.6 100 15:44 06.11.2020
6663 Clear 29 1014 54 10000 4.1 110 15:25 06.11.2020
6664 Clear 29 1014 51 10000 5.1 120 14:49 06.11.2020
6665 Clear